GFSGL_sfc_wetblb_000.txt.gz
Wetbulb
34.83 33.69 33.13 32.85 32.77 32.38 32.08 31.68 31.74 31.49 31.29 31.22 31.14 30.75 30.35 30.25 30.12 29.13 28.87 29.42 29.02 28.30 27.72 28.24 28.32 29.10 29.69 29.79 30.23 30.13 29.32 29.05 26.02 28.90 30.95 31.78 30.84 30.88 32.61 33.18 34.02 33.66 34.12
33.75 33.03 32.40 32.17 31.89 31.63 31.19 31.20 31.43 30.81 31.06 30.78 30.64 30.57 30.50 30.27 29.76 28.67 28.21 28.54 27.91 27.16 27.36 27.79 28.34 31.03 28.50 28.98 29.23 28.64 28.94 29.19 27.47 25.62 29.21 30.04 30.33 31.42 32.20 31.66 32.40 33.01 31.55
33.27 32.19 31.58 31.07 30.91 30.56 30.64 30.98 31.41 30.90 30.50 30.42 30.70 30.32 30.23 30.25 29.32 29.12 28.46 28.13 27.73 27.43 27.28 27.19 27.68 28.09 27.19 28.05 28.41 28.52 29.45 30.88 30.34 28.84 27.45 29.74 29.99 31.63 28.83 28.78 28.38 28.63 30.24
32.36 31.45 30.65 30.36 30.33 30.32 30.78 31.01 31.14 30.94 30.32 30.11 30.11 29.67 29.53 29.12 29.42 29.21 29.07 28.08 27.63 28.35 28.37 28.35 27.82 27.71 27.59 28.15 29.24 29.98 29.85 27.90 27.94 27.37 27.83 28.25 30.61 28.41 26.82 24.88 24.28 26.56 26.29
31.50 30.92 30.45 30.49 30.70 30.88 31.10 31.03 30.96 30.32 29.92 29.32 28.85 28.39 28.16 29.09 31.85 31.99 31.38 29.24 27.67 26.89 27.23 27.71 28.59 30.74 33.83 33.06 31.16 29.18 29.09 28.39 29.49 28.58 26.40 27.67 25.65 24.39 23.23 24.54 23.54 24.83 26.53
30.95 30.49 31.00 31.03 31.09 31.09 30.73 30.24 29.44 29.15 28.20 28.11 27.26 26.97 26.51 30.22 34.82 36.24 34.62 30.24 27.56 26.00 25.59 26.86 27.81 31.38 30.84 34.25 34.16 34.35 33.42 29.93 27.60 27.65 27.51 24.57 23.60 23.71 24.20 23.73 24.54 25.03 20.25
30.53 30.64 30.85 31.09 30.85 30.41 29.73 28.97 27.96 26.79 26.50 26.42 26.28 25.92 25.40 25.53 34.65 35.18 35.36 30.28 26.91 26.00 26.55 26.97 27.84 30.19 30.74 28.36 31.55 33.83 33.26 34.08 33.68 28.49 24.35 23.70 23.59 24.69 26.74 25.55 23.54 23.13 22.79
29.98 30.17 30.73 30.93 29.98 29.30 28.53 26.95 25.97 26.09 26.01 25.99 25.51 25.25 24.51 27.04 33.42 34.12 34.57 27.91 25.78 25.57 26.58 26.54 26.29 26.73 28.28 30.17 29.49 28.86 30.43 27.99 26.96 27.08 26.30 27.38 28.54 27.63 26.21 25.76 25.63 25.33 25.41
29.39 29.79 30.47 30.10 28.92 27.75 26.23 25.35 25.90 25.63 25.02 24.55 25.35 24.46 23.27 23.72 31.91 33.09 32.04 27.29 26.65 25.84 26.47 26.69 27.65 28.07 31.75 33.92 30.78 29.35 25.16 24.58 28.86 31.38 31.84 30.89 30.43 30.59 29.60 26.57 23.35 21.52 19.51
29.13 29.29 28.97 28.22 27.31 26.05 25.08 24.85 25.13 24.21 24.54 25.29 24.84 24.02 26.90 22.91 29.32 32.41 31.61 27.96 25.18 25.66 26.09 27.51 31.50 30.82 33.56 34.79 28.70 25.02 21.69 22.63 26.28 25.33 23.29 24.61 26.39 25.98 29.49 26.21 24.67 20.20 19.51
28.48 27.89 27.79 27.00 26.05 25.39 24.53 24.14 23.41 23.10 23.49 22.36 22.45 22.21 22.20 23.47 24.34 32.02 32.53 29.01 27.50 27.06 27.32 27.78 28.02 32.85 32.68 31.74 30.58 23.64 24.66 27.83 25.64 22.15 22.23 22.98 24.23 24.78 24.77 25.21 25.46 23.69 20.88
27.31 26.91 25.94 25.18 26.61 26.76 23.63 23.06 22.61 21.90 21.06 20.75 20.81 21.26 23.27 22.97 29.12 30.55 32.49 32.95 32.73 28.95 28.09 27.13 29.28 31.18 30.19 29.44 27.20 29.25 29.49 27.92 22.47 21.95 22.04 22.36 22.01 22.20 23.46 24.24 25.13 25.17 25.49
25.35 24.51 24.24 24.48 24.52 23.43 22.29 21.78 22.24 21.31 20.50 21.08 23.45 23.11 23.64 25.31 23.68 30.45 31.99 32.82 32.14 29.17 28.50 30.71 29.69 29.04 28.14 25.90 27.22 27.97 27.58 22.15 22.05 21.87 21.43 21.23 22.31 23.36 23.99 24.06 24.99 25.38 25.70
23.58 22.92 22.86 22.28 23.84 22.27 23.27 23.66 21.71 20.96 20.53 23.51 23.71 22.99 22.74 24.04 24.88 26.27 28.18 27.05 30.26 29.31 29.69 24.28 26.49 26.43 26.50 25.52 24.21 23.92 22.68 22.96 22.86 22.17 21.60 22.41 23.29 22.82 22.65 23.79 22.65 22.85 22.64
22.26 22.19 21.44 22.69 20.92 21.15 22.26 21.60 23.76 22.56 24.93 24.33 23.61 23.65 22.68 23.14 25.67 30.27 29.52 28.29 28.29 28.56 27.51 22.96 21.63 21.10 20.18 21.01 21.40 21.99 22.45 22.45 21.95 21.74 21.54 21.21 21.58 21.82 21.94 22.94 22.91 23.04 21.26
21.81 22.13 21.88 22.53 20.67 21.63 20.80 21.52 27.24 28.78 29.72 29.70 29.59 27.84 26.29 29.31 30.51 30.60 31.21 30.70 30.18 29.16 23.22 20.19 19.12 19.23 19.32 19.69 19.80 20.36 21.17 21.78 21.22 21.19 20.43 20.12 20.41 20.71 20.25 22.51 22.57 22.30 22.05
20.25 21.49 22.18 23.67 21.57 20.58 21.02 20.39 19.56 23.27 27.98 28.13 28.37 28.57 29.05 29.02 29.34 30.19 29.75 29.08 27.26 26.36 20.45 19.50 19.11 19.26 18.87 19.35 19.68 19.72 19.22 20.29 20.85 19.88 19.47 20.53 20.64 19.37 20.62 20.29 21.21 22.39 21.77
20.33 26.56 21.63 20.67 20.02 20.12 20.81 20.62 20.34 20.10 19.49 20.33 25.25 26.59 27.49 28.06 29.03 28.97 27.87 25.40 20.67 21.74 20.55 19.39 18.58 19.02 19.31 19.45 19.64 19.62 19.55 19.52 19.18 19.38 20.73 19.37 19.66 19.80 19.26 19.65 20.91 21.26 22.86
21.37 21.95 21.70 20.74 20.55 22.70 21.14 20.83 20.43 20.34 19.78 19.70 20.76 23.32 24.74 27.06 28.24 26.75 25.89 20.09 19.14 19.24 19.54 19.00 19.44 19.64 19.79 19.81 19.82 19.64 19.35 19.11 20.70 19.43 18.73 19.58 20.19 20.35 19.69 20.38 21.75 24.75 24.88
20.69 25.31 25.34 21.35 20.50 20.68 20.71 20.40 20.07 19.51 19.01 18.80 19.12 19.34 21.11 24.04 20.68 19.87 20.19 19.96 19.82 19.35 19.58 19.16 19.66 19.76 19.46 19.37 19.22 18.97 18.58 18.77 18.35 18.32 18.76 19.77 20.40 21.30 21.10 21.41 23.17 21.55 21.75
19.93 20.73 25.58 20.52 20.36 20.78 20.37 19.47 19.37 18.77 18.20 18.25 18.56 21.03 26.24 22.04 19.10 18.79 18.97 19.40 19.41 19.46 19.28 19.58 19.23 18.99 18.94 18.95 18.81 18.12 17.97 17.84 18.26 18.58 19.20 19.81 20.78 21.12 21.83 24.48 23.90 22.81 22.43
20.06 20.15 20.63 20.35 20.85 20.08 19.77 19.21 18.59 18.27 18.45 18.02 18.63 20.47 24.53 19.70 18.98 19.00 19.19 19.40 19.99 20.12 20.34 19.77 18.89 18.88 19.44 19.13 18.79 17.90 17.49 17.17 17.80 18.95 19.57 20.16 21.14 21.85 24.08 24.79 23.09 22.28 21.93
19.67 19.20 20.37 20.11 19.86 21.02 18.01 18.06 17.75 18.00 18.28 18.59 19.04 19.61 19.53 18.54 18.51 18.32 18.67 19.23 19.28 19.24 18.98 19.20 18.74 18.25 19.18 19.52 19.58 19.35 18.30 18.18 19.89 21.00 20.00 20.33 22.45 25.94 26.53 23.35 22.28 21.86 21.54
19.05 18.82 18.92 18.16 17.99 18.59 17.20 17.48 17.79 19.54 19.34 19.27 18.86 18.38 17.92 18.15 17.91 18.22 18.50 18.27 18.60 17.49 18.24 18.33 18.56 18.61 18.58 18.99 20.13 20.90 21.20 21.69 22.46 23.95 26.91 29.52 28.84 26.12 25.17 22.88 23.58 23.82 21.58
17.98 16.78 17.30 16.31 16.13 16.88 16.85 16.95 17.58 18.00 18.64 18.16 17.67 17.71 17.55 17.71 17.97 17.67 17.28 17.62 16.75 16.66 16.86 17.41 18.55 19.33 19.34 19.39 19.69 20.64 22.50 27.83 31.22 31.89 31.83 30.55 29.32 28.09 27.35 25.35 24.39 26.27 23.95
16.98 15.48 15.67 16.57 15.93 16.22 16.70 16.92 17.55 17.52 16.67 16.21 16.86 15.86 16.77 17.26 17.17 16.58 16.51 16.05 15.61 15.71 15.84 17.32 18.35 18.87 19.15 19.87 21.12 24.02 29.47 32.70 33.65 34.31 31.62 30.18 29.54 28.47 28.74 24.09 21.04 21.24 23.84

GFSGL_sfc_wetblb_003.txt.gz
Wetbulb
34.59 33.52 32.97 32.47 32.38 32.05 31.59 31.22 31.16 30.94 30.80 30.52 30.25 29.91 29.48 29.17 28.97 28.10 27.86 28.78 27.95 27.42 27.16 26.87 27.28 27.95 27.48 28.21 28.23 28.37 27.80 27.65 24.77 27.62 30.12 31.17 30.72 30.75 31.86 32.73 33.99 34.10 33.50
32.98 32.48 31.87 31.69 31.43 30.94 30.67 30.62 30.91 30.28 30.36 29.99 29.77 29.52 29.23 29.14 28.51 27.53 27.20 27.53 27.14 26.56 26.72 26.64 27.24 30.34 26.91 26.93 27.30 27.06 27.59 28.16 27.12 25.89 28.77 28.72 28.76 30.04 30.57 31.14 31.68 32.12 30.29
32.84 32.01 31.10 30.71 30.55 30.08 30.11 30.46 30.76 30.21 29.63 29.41 29.13 28.50 28.56 28.76 27.97 27.69 27.57 27.55 27.13 26.79 26.55 25.97 26.57 26.67 25.65 26.26 26.76 27.12 28.11 30.58 28.77 26.33 25.64 28.68 29.38 30.03 29.81 28.87 27.72 27.81 29.33
32.40 31.07 30.37 30.13 30.04 29.95 30.23 30.36 30.35 29.73 28.83 28.25 28.18 28.30 28.16 27.84 28.08 28.36 28.70 27.62 26.93 27.72 27.47 27.16 26.88 26.71 26.17 26.59 27.97 28.17 29.77 27.57 27.59 26.92 27.73 28.31 27.48 29.85 28.39 24.94 24.16 26.17 25.71
31.33 30.68 30.08 30.01 30.20 30.38 30.35 29.94 29.66 28.92 28.08 27.87 28.28 27.48 26.81 27.77 30.77 30.70 29.87 28.07 26.44 25.56 25.71 26.02 27.57 29.73 33.36 32.66 30.66 29.48 28.35 27.50 27.75 28.58 25.91 27.12 25.17 24.31 22.99 24.49 23.66 24.76 25.81
30.60 30.04 30.48 30.57 30.67 30.46 29.58 28.87 28.21 27.60 27.47 27.39 26.44 25.96 25.48 29.13 33.76 35.56 33.90 28.37 25.66 24.67 24.39 25.79 26.35 30.11 29.84 33.51 33.46 33.80 32.83 29.44 27.68 27.60 25.49 23.69 22.60 23.05 24.05 24.23 25.05 22.50 19.78
30.13 30.24 30.53 30.74 30.36 29.14 28.62 28.02 27.30 26.00 25.52 25.56 25.24 25.02 24.58 24.28 33.71 34.67 34.79 27.33 25.11 24.49 26.07 25.94 26.55 29.09 30.12 27.66 30.94 33.32 33.34 34.85 32.19 28.21 23.52 22.72 22.47 24.66 26.81 24.49 23.57 23.61 22.83
29.59 29.85 30.39 30.43 29.28 28.72 27.41 25.86 24.86 24.91 24.81 24.38 24.93 24.54 23.33 25.64 32.91 33.66 34.07 26.27 24.90 24.65 25.70 25.32 25.15 25.77 27.25 29.74 30.46 30.03 27.33 26.28 26.24 26.44 25.75 26.84 27.67 27.17 26.28 25.76 25.01 25.22 25.38
28.77 29.35 30.13 29.60 28.01 26.72 25.10 24.14 24.56 23.87 23.78 24.17 23.95 23.07 22.01 22.88 31.47 32.65 31.91 25.68 25.18 24.68 25.48 25.80 26.08 27.90 31.63 34.33 29.53 25.59 24.35 24.28 28.20 30.92 31.73 30.83 30.47 30.61 29.55 26.46 23.01 21.10 19.21
29.09 28.76 28.14 27.44 26.18 24.78 24.00 23.59 23.69 23.39 24.34 23.87 23.48 22.86 25.93 22.28 29.18 32.19 31.53 27.42 24.58 25.59 25.92 26.30 31.56 30.35 33.22 33.25 27.67 24.76 20.69 22.20 26.09 25.63 23.15 24.23 26.36 25.95 29.51 26.10 24.27 20.19 19.65
28.00 27.24 26.64 25.73 24.74 23.91 23.21 22.77 22.65 21.79 22.10 20.99 21.94 21.39 21.51 23.22 24.41 31.88 32.63 28.86 27.25 27.59 27.00 26.60 26.84 32.10 32.06 31.50 30.61 23.72 24.30 28.25 25.52 21.60 21.94 22.95 24.11 24.59 24.64 25.12 25.34 23.48 20.68
26.42 25.58 24.34 23.56 26.13 25.30 22.67 21.83 21.21 20.64 20.21 20.04 20.19 21.01 22.98 22.43 28.98 30.32 32.42 32.73 32.49 26.84 26.46 26.79 28.35 31.07 30.23 29.35 27.35 28.92 29.66 27.84 21.98 21.62 21.59 21.98 21.60 21.76 23.08 24.08 24.97 25.15 25.59
24.16 23.15 22.68 23.78 23.51 23.19 21.10 20.67 21.45 20.52 19.94 20.21 22.86 21.77 22.66 24.92 23.62 30.10 31.69 32.28 31.93 29.57 27.77 29.50 29.74 28.94 27.88 25.59 27.06 28.12 27.34 21.47 21.49 21.31 21.02 20.17 21.33 22.62 23.29 23.62 24.70 25.14 25.08
21.78 21.52 22.12 21.87 21.78 20.97 22.90 23.26 21.13 20.51 19.88 22.85 22.90 22.24 21.94 23.22 24.13 25.49 26.84 26.63 30.48 28.67 28.92 22.28 26.15 25.97 26.04 25.17 23.68 23.34 22.09 22.25 22.23 21.22 20.53 21.23 22.11 21.64 21.57 22.93 21.94 22.04 22.19
21.30 21.72 21.19 22.13 19.85 19.99 21.65 20.60 23.30 21.89 23.53 23.48 22.73 22.98 22.00 22.34 25.07 29.79 29.36 28.50 27.54 28.20 27.33 22.36 20.80 20.34 19.72 20.17 20.43 20.92 21.41 21.54 20.55 20.17 20.05 19.80 20.27 20.36 20.80 22.03 21.89 22.21 20.48
21.37 22.05 21.87 21.78 19.80 21.02 19.93 20.27 26.19 28.11 29.11 29.16 29.03 27.27 25.85 28.75 30.01 30.33 31.31 30.40 30.11 28.90 23.07 19.55 18.66 18.64 18.44 18.86 18.89 19.34 20.06 20.62 19.89 19.76 19.12 18.87 18.59 19.45 19.44 21.23 21.24 21.01 20.65
19.82 21.27 21.56 23.34 20.77 19.63 20.20 19.58 18.72 22.67 27.31 27.25 27.61 27.98 28.41 28.47 28.96 30.02 29.71 28.99 27.00 25.92 19.98 18.73 18.04 18.08 18.26 18.58 18.80 18.81 18.11 19.19 19.96 19.05 18.25 18.79 20.16 18.45 19.29 18.99 19.89 20.45 20.73
19.85 26.47 20.73 20.03 19.16 19.34 20.10 19.84 19.37 18.97 18.46 19.28 24.17 25.68 26.78 27.59 28.41 28.92 27.73 25.09 19.68 21.05 19.63 18.57 17.84 18.34 18.39 18.62 18.69 18.46 18.36 18.50 18.50 18.41 19.66 18.95 18.44 18.77 18.53 18.76 19.66 19.77 22.31
20.96 21.43 20.94 19.87 19.70 22.09 20.50 20.03 19.44 19.29 18.62 18.33 19.39 22.11 23.85 26.21 28.01 26.51 25.51 19.32 18.39 18.44 18.82 18.37 18.77 18.61 18.78 18.86 18.72 18.26 18.05 18.02 19.76 18.73 17.68 18.46 18.85 19.04 18.46 19.45 20.36 24.39 25.31
20.02 24.93 24.74 20.68 20.03 20.15 19.88 19.15 18.78 18.09 17.47 17.37 17.74 18.20 20.04 23.65 20.32 19.00 19.45 19.27 18.92 18.68 19.01 18.35 18.63 18.73 18.44 18.05 17.66 17.87 17.65 17.79 17.09 17.24 17.65 18.53 19.08 19.64 19.35 20.24 20.93 21.83 21.86
19.20 20.23 24.76 19.89 19.63 19.88 19.09 18.20 18.00 17.26 16.82 16.95 17.38 20.01 25.57 22.04 18.18 18.02 18.22 18.40 18.57 18.72 18.36 18.33 18.10 17.89 17.75 17.63 17.43 17.58 17.41 17.16 17.48 17.73 18.02 18.79 19.65 19.41 21.00 21.79 22.52 23.96 22.38
19.54 19.41 19.73 19.31 19.61 18.58 18.44 18.03 17.22 17.00 17.24 16.88 17.65 19.49 23.73 18.71 18.10 17.98 18.14 18.45 19.09 19.03 18.90 18.55 17.47 17.66 18.36 17.99 17.96 17.30 16.55 16.14 17.09 17.97 18.52 19.55 19.97 20.80 21.73 23.25 24.99 23.70 22.72
18.37 17.78 18.86 18.45 18.25 19.79 16.93 16.78 16.55 16.83 17.12 17.60 18.19 18.47 18.24 17.47 17.67 17.40 17.69 18.27 18.11 17.87 17.83 17.83 17.53 17.43 18.43 19.32 19.80 19.19 17.70 17.59 19.05 20.09 19.17 19.35 20.30 21.92 25.84 25.59 24.80 23.23 20.57
17.44 17.07 17.54 16.63 16.58 17.77 16.02 16.15 16.63 18.43 18.44 18.21 17.67 17.46 16.84 17.25 16.78 17.21 17.47 16.89 16.90 16.30 16.92 17.54 17.66 17.41 17.90 19.01 19.92 20.52 20.83 21.29 21.76 22.62 24.57 26.18 28.69 28.11 27.34 26.16 25.71 23.27 20.05
16.38 15.22 16.39 15.38 14.86 15.51 15.56 15.70 16.34 16.89 17.59 17.15 16.70 16.71 16.65 16.19 16.58 16.32 16.03 15.78 15.66 15.50 16.10 16.62 17.23 18.17 18.70 18.88 18.96 19.89 22.11 28.03 31.42 31.84 32.03 30.60 28.74 28.59 28.39 27.03 25.91 25.50 21.76
15.73 14.37 14.62 15.60 14.80 14.94 15.52 15.78 16.20 16.12 15.31 14.63 15.67 15.08 15.25 15.68 16.02 15.65 14.83 14.87 14.51 14.83 14.97 16.35 17.25 17.59 18.17 18.74 20.29 23.36 29.16 32.00 33.90 35.09 30.57 28.61 29.18 28.64 28.89 25.67 23.71 25.05 21.21

GFSGL_sfc_wetblb_006.txt.gz
Wetbulb
35.38 34.21 33.76 32.62 32.18 31.49 30.85 30.42 30.25 29.99 29.87 29.72 29.68 29.32 28.77 28.20 27.68 26.94 26.67 27.92 27.11 26.83 26.81 26.68 26.47 26.84 26.69 26.96 26.80 26.69 26.26 26.26 23.63 26.10 28.65 30.27 29.65 29.07 30.04 30.89 32.04 31.48 33.27
33.35 33.15 32.23 32.18 31.03 30.21 29.66 29.65 30.07 29.33 29.43 29.31 29.10 28.79 28.29 28.01 27.14 26.27 26.77 27.18 26.54 26.11 26.31 25.99 26.08 29.36 26.32 26.32 26.13 25.42 26.03 26.78 25.35 23.70 27.53 27.86 27.72 29.16 29.73 29.66 30.51 33.07 31.70
32.83 32.39 31.49 30.60 29.89 29.06 29.15 29.53 29.73 29.24 28.68 28.58 28.44 27.85 27.49 27.58 27.11 26.94 26.90 26.99 26.62 26.16 25.68 25.00 25.35 25.34 24.85 25.57 25.34 25.46 26.59 28.26 28.16 27.02 25.33 27.90 28.41 29.68 28.68 29.35 29.07 28.45 29.11
32.25 31.73 30.15 29.46 29.06 28.94 29.23 29.24 29.19 28.57 28.01 27.64 27.56 27.27 27.22 26.82 27.14 27.38 28.20 27.11 26.06 26.10 25.84 25.36 25.13 25.18 25.08 25.48 26.06 26.57 28.16 26.52 26.35 25.64 25.84 27.34 28.04 28.63 27.31 24.31 23.56 25.83 25.71
31.55 30.88 29.93 29.12 29.28 29.35 29.10 28.65 28.41 28.13 27.44 27.37 26.95 26.24 25.75 26.84 29.71 29.52 29.44 27.63 25.18 24.40 24.55 25.03 26.01 28.35 32.45 31.72 29.70 27.57 27.27 26.59 26.91 27.64 27.46 26.46 24.38 23.37 22.16 23.75 23.34 24.85 25.94
31.30 29.57 29.49 29.55 29.68 29.04 28.22 27.65 27.94 27.29 26.58 26.24 25.30 24.94 24.36 28.16 32.88 35.20 33.76 27.42 25.46 24.70 23.43 24.67 25.08 29.25 28.51 33.34 33.36 33.79 32.99 31.19 27.12 24.76 23.84 22.35 21.78 22.30 23.33 23.83 24.81 22.49 20.14
29.77 29.41 29.59 29.82 29.04 28.01 27.46 27.43 27.03 25.27 24.62 24.01 23.79 23.62 23.00 23.15 32.84 34.47 34.69 27.77 25.51 24.15 25.56 25.81 26.20 28.45 29.32 26.57 30.56 33.35 32.88 32.44 31.24 26.25 22.31 21.55 22.09 24.40 26.62 24.32 23.57 23.31 22.46
29.03 29.11 29.59 29.09 27.85 27.27 26.56 25.61 24.48 23.70 23.21 23.02 22.77 22.63 22.04 24.63 32.47 33.28 33.80 26.93 24.93 24.54 25.67 24.81 24.36 25.08 26.44 29.57 30.06 29.82 25.96 25.03 25.74 26.15 24.91 26.16 27.86 27.13 26.01 25.57 25.01 25.13 25.08
28.19 28.41 28.74 28.34 27.02 26.11 24.65 23.70 23.05 22.52 22.10 21.67 22.51 21.77 21.03 22.08 31.08 32.32 31.73 25.95 25.68 25.07 25.75 25.31 25.30 26.68 31.40 33.70 29.85 25.80 24.67 23.95 28.02 30.60 31.74 30.68 30.37 30.58 29.59 26.49 22.92 20.92 19.25
27.84 27.63 27.59 27.07 25.70 23.87 23.23 22.55 22.27 21.53 22.92 23.21 23.14 22.16 25.09 21.47 28.93 31.75 31.37 27.20 24.74 25.73 26.25 26.59 30.84 30.20 32.81 33.49 28.02 25.07 21.28 22.33 25.54 26.01 22.97 23.98 25.74 25.15 29.24 25.45 23.76 19.97 19.55
26.96 26.34 25.37 24.67 23.64 22.80 21.89 21.22 20.42 20.36 21.42 20.16 21.39 20.89 21.22 23.00 24.04 31.34 32.25 28.31 26.87 27.30 26.06 26.78 27.30 31.52 32.23 31.50 30.57 23.72 24.06 28.16 25.56 21.41 21.54 22.20 23.20 23.41 23.25 23.69 23.93 22.59 20.28
25.32 24.21 23.20 23.02 25.42 23.94 20.93 19.96 19.96 19.75 19.50 19.30 19.81 21.01 22.84 21.85 28.16 29.82 31.90 32.29 31.94 27.21 27.06 26.81 26.96 31.09 30.17 29.14 27.21 28.73 29.60 27.81 21.59 21.15 21.10 21.29 20.43 20.08 21.53 22.56 23.18 23.82 24.93
22.89 22.15 22.49 22.57 22.58 22.32 19.93 19.66 20.70 19.74 19.46 19.80 22.45 21.41 22.05 24.71 23.29 29.59 31.13 31.89 31.88 29.50 27.28 29.43 29.79 29.02 27.64 25.27 26.71 27.75 26.90 20.88 20.98 20.66 20.40 19.19 19.87 20.80 21.48 21.79 22.85 23.85 24.27
21.04 20.98 21.33 22.30 20.30 19.70 22.62 22.62 20.72 20.05 19.40 21.84 22.23 21.85 21.32 22.68 23.44 25.05 25.83 26.13 30.65 27.93 28.76 22.86 26.27 25.67 25.56 24.72 23.00 22.61 21.48 21.62 21.76 20.56 19.57 20.25 20.94 20.17 20.00 21.36 20.81 21.10 21.23
20.71 21.12 21.16 21.12 19.10 19.16 21.22 19.98 22.67 21.00 21.99 22.76 22.20 22.43 21.51 21.77 24.70 29.30 28.87 28.56 26.96 27.92 27.06 22.18 20.18 19.74 18.98 19.30 19.76 20.37 20.82 20.93 19.92 19.39 19.25 18.78 19.20 19.36 19.28 21.24 20.85 21.14 19.07
20.79 21.72 22.39 20.83 19.25 20.63 19.45 19.70 25.73 27.37 28.68 28.66 28.48 26.68 25.33 28.00 29.41 29.75 30.75 29.92 29.67 28.52 22.70 18.86 17.95 18.12 17.74 18.09 18.21 18.66 19.47 19.95 18.97 19.04 18.34 18.37 18.05 18.22 19.23 20.14 20.19 19.58 19.22
19.79 20.86 21.32 22.92 20.34 19.24 19.73 19.05 18.05 21.68 26.40 26.59 26.93 27.15 27.73 27.79 28.43 29.44 29.16 28.39 26.52 25.39 19.24 17.95 17.49 17.51 17.55 17.97 18.09 18.06 17.35 18.45 19.13 18.36 18.09 17.78 19.40 18.21 18.38 17.92 18.56 19.12 19.10
20.79 26.87 20.20 19.59 18.69 18.69 19.61 19.29 18.55 17.97 17.46 18.16 23.30 25.05 26.13 27.12 27.87 28.43 27.06 24.33 18.95 20.17 18.74 17.94 17.27 17.67 17.72 17.85 18.06 17.78 17.61 17.49 17.56 17.46 18.80 18.78 17.43 17.49 16.98 17.09 18.04 18.37 20.42
21.03 21.00 20.31 19.44 19.33 21.32 20.07 19.08 18.40 18.09 17.34 17.08 18.20 21.09 23.06 25.62 27.58 26.06 24.80 18.56 17.57 17.50 18.00 17.73 17.88 17.61 17.75 18.20 17.89 17.45 17.25 17.40 19.30 18.89 17.06 17.55 17.87 17.88 16.87 17.82 18.45 23.22 24.60
19.67 25.25 24.53 20.41 19.49 19.43 18.95 17.98 17.69 16.73 16.10 16.06 16.64 17.11 19.03 22.62 19.73 18.07 18.64 18.31 17.85 17.75 18.09 17.48 17.41 17.60 17.81 17.49 17.23 17.18 17.00 17.40 17.32 17.17 17.32 17.79 18.24 18.56 18.09 18.47 19.58 20.08 21.08
18.87 19.87 24.29 19.00 18.60 18.84 17.78 17.18 16.97 15.96 15.50 15.78 16.31 18.94 25.00 21.09 17.21 17.02 17.29 17.40 17.54 17.83 17.34 17.16 16.85 17.03 17.06 16.99 16.94 16.86 16.87 16.80 17.15 17.22 17.19 17.91 18.63 18.40 19.61 20.37 21.52 22.09 23.98
19.15 18.56 18.65 18.11 18.23 17.26 17.33 17.22 16.13 15.85 16.19 15.79 16.69 18.53 23.11 17.80 17.07 17.05 17.29 17.45 18.02 18.08 17.62 17.17 16.59 16.84 17.34 17.28 17.29 16.81 16.47 16.56 17.35 17.93 18.26 19.21 19.56 19.98 20.81 21.05 22.52 25.13 22.40
17.14 16.51 17.53 17.01 16.96 18.99 16.14 15.74 15.34 15.76 16.08 16.72 17.28 17.50 17.39 16.74 16.73 16.48 16.57 17.20 17.10 16.54 16.59 17.09 16.69 16.39 17.57 18.44 18.82 18.61 17.86 18.02 19.32 20.21 19.54 19.67 20.79 21.27 21.77 25.35 25.51 24.14 20.72
16.30 15.90 16.40 15.68 15.50 16.79 14.83 15.18 15.75 17.44 17.51 17.31 16.78 16.41 15.92 16.37 15.84 15.80 16.20 15.89 15.83 15.06 16.10 16.47 16.84 16.55 16.79 17.59 18.82 19.80 20.41 20.86 21.74 22.83 24.99 26.79 28.32 28.64 28.03 26.46 25.54 24.08 21.70
15.34 14.34 15.32 14.44 13.94 14.43 14.52 14.75 15.39 15.90 16.26 16.06 15.44 15.37 15.47 15.02 14.85 14.93 15.11 15.13 14.41 14.62 15.14 15.76 16.27 16.88 17.48 17.58 17.88 19.06 21.41 27.54 30.94 31.95 32.27 29.29 28.80 28.68 28.07 25.71 21.99 22.82 18.92
14.81 13.56 13.66 14.55 13.82 13.91 14.52 14.75 15.21 14.86 14.07 13.30 14.17 13.61 13.46 13.80 14.27 14.52 14.01 13.92 13.68 13.62 13.70 15.15 16.32 16.79 17.32 17.75 19.51 23.07 28.55 31.13 33.72 35.21 30.63 29.11 29.20 29.53 29.42 27.09 21.53 22.75 19.28

GFSGL_sfc_wetblb_009.txt.gz
Wetbulb
41.76 40.51 39.62 38.29 37.55 37.16 36.53 35.59 35.26 34.99 34.87 34.66 34.49 34.16 33.98 33.73 33.58 33.50 33.16 33.44 32.83 32.91 33.11 32.32 31.67 32.25 31.95 32.29 32.61 32.18 30.90 30.26 27.48 30.12 32.63 33.77 32.73 33.01 33.54 34.68 34.97 34.47 35.39
38.91 38.26 37.19 36.40 35.73 35.14 34.57 34.43 34.72 33.99 34.35 33.97 33.75 33.45 33.13 32.81 32.63 32.29 32.32 32.82 32.26 31.55 31.36 31.05 30.66 31.19 30.59 31.14 31.03 30.32 30.33 30.98 29.53 27.30 29.99 31.55 31.57 32.94 32.99 33.05 33.66 33.81 33.81
36.87 36.16 35.38 34.77 34.59 33.81 33.56 33.77 33.67 33.44 33.12 33.15 33.17 32.59 31.99 31.79 31.75 31.88 32.33 32.77 32.05 31.36 30.80 30.09 29.62 29.52 29.01 29.81 30.30 30.11 30.48 30.48 30.57 29.44 28.69 31.55 32.12 32.84 32.12 32.01 31.12 30.94 31.63
35.60 35.21 34.28 33.92 33.70 33.47 33.19 32.97 32.78 32.89 32.61 32.45 32.06 31.49 31.07 30.92 31.16 31.69 32.85 32.94 32.04 31.32 30.65 30.26 29.76 29.29 28.92 29.84 30.25 30.31 30.50 30.00 30.21 29.77 29.47 29.57 29.98 30.76 30.36 28.32 27.41 29.82 29.61
34.50 33.98 33.04 33.03 33.19 32.89 32.31 31.97 31.98 32.26 31.84 31.64 31.03 30.36 30.24 30.69 31.67 33.68 34.23 33.21 31.82 30.63 30.48 30.24 30.48 31.15 32.85 32.98 31.76 31.20 30.68 30.45 30.87 29.73 28.45 27.86 27.42 26.98 25.79 27.56 26.83 28.31 29.29
33.89 32.39 32.56 32.70 32.53 31.64 31.39 31.13 31.34 30.95 30.74 30.45 29.58 29.19 29.04 29.89 32.61 35.09 34.91 33.27 31.69 30.18 29.43 30.26 30.44 30.98 31.06 33.10 33.25 33.71 33.53 31.85 30.04 28.24 27.24 25.51 25.09 26.03 27.53 27.09 26.91 24.84 23.09
32.39 32.23 32.36 32.29 31.14 30.65 30.54 30.66 30.11 29.54 29.55 28.80 28.59 28.30 27.88 28.17 32.81 34.36 34.45 32.80 30.90 30.31 30.18 30.10 29.88 30.51 31.71 30.18 31.87 33.51 34.51 33.27 32.18 29.66 25.84 25.20 25.36 27.16 28.59 26.69 26.40 25.80 24.97
31.82 31.82 31.88 31.07 29.90 29.70 29.78 29.33 28.90 28.80 28.26 28.01 27.58 27.17 27.08 28.00 32.16 33.08 33.52 31.87 30.83 30.52 30.46 30.14 29.44 29.57 30.41 30.95 31.49 32.22 30.31 29.73 29.15 28.76 28.18 28.93 30.11 29.99 28.89 28.01 27.45 27.36 27.52
31.15 30.96 30.77 30.31 29.19 29.14 28.40 28.01 27.81 27.74 27.24 26.71 27.09 26.72 26.35 27.78 30.88 32.00 32.26 30.84 30.09 30.04 30.42 30.36 29.90 30.10 31.88 33.50 31.34 28.87 27.73 27.47 29.70 30.82 31.99 31.57 30.77 30.77 30.00 27.90 25.63 23.58 21.78
30.23 29.68 29.97 29.63 28.87 27.91 27.51 27.05 26.40 26.51 26.81 27.10 26.77 26.79 27.22 26.62 29.29 31.47 31.77 30.35 29.14 29.16 30.21 30.38 31.10 31.04 32.59 33.43 29.72 27.66 24.79 25.32 27.42 28.61 26.42 26.63 27.43 27.35 29.25 27.10 25.77 21.74 21.50
29.04 28.57 28.03 27.99 27.07 26.84 26.26 25.94 25.37 25.53 25.40 25.03 25.84 26.45 26.59 27.17 27.91 30.97 31.80 30.32 29.42 29.33 28.77 29.08 29.60 31.49 32.34 31.58 30.60 26.74 25.69 29.12 27.85 24.45 24.16 24.84 25.83 26.30 26.08 26.09 25.70 24.33 21.78
27.85 27.10 26.58 26.84 27.72 25.93 25.26 24.70 24.59 24.48 24.31 24.39 24.90 25.95 26.97 26.79 28.63 29.83 31.50 31.96 32.04 29.16 28.78 28.81 29.41 31.36 30.32 29.26 27.94 28.52 29.62 28.64 23.97 23.12 22.75 23.12 23.66 23.65 24.83 25.38 25.46 25.54 26.01
26.17 25.26 25.34 25.64 25.56 25.35 24.58 24.15 25.18 24.31 23.83 23.99 24.90 24.72 25.04 26.75 26.88 29.38 30.87 31.46 31.57 30.20 29.37 30.12 30.04 29.08 27.73 26.15 26.68 27.83 27.03 23.24 22.54 21.66 21.86 22.60 23.28 24.32 24.32 24.65 25.67 25.87 26.08
24.79 24.69 25.13 24.53 23.64 23.83 25.50 25.31 24.53 23.94 23.66 24.49 24.46 23.95 24.35 24.92 25.83 27.27 28.51 29.32 30.76 29.22 29.48 27.92 27.06 26.02 25.63 25.27 23.92 24.03 23.49 23.16 22.75 22.11 21.39 22.16 23.15 23.39 23.30 24.29 23.07 23.89 22.76
23.89 24.20 24.31 23.53 23.16 23.32 24.18 24.10 25.42 25.25 25.67 25.68 25.06 24.92 23.80 23.64 25.80 29.42 29.31 29.17 28.54 28.77 27.99 24.52 22.32 21.56 21.01 21.25 21.74 22.13 22.56 22.43 21.70 21.45 20.71 20.65 20.73 21.95 22.09 23.66 23.23 23.09 21.02
23.58 24.53 24.24 23.58 23.23 23.64 23.09 23.31 26.37 27.45 28.10 28.00 27.89 27.16 26.55 27.97 29.01 29.49 30.45 29.69 29.34 28.20 23.97 20.57 19.78 20.11 19.46 19.59 19.48 20.17 21.05 21.69 20.93 21.09 20.62 20.42 20.27 20.44 21.29 22.58 22.70 21.81 21.08
22.67 23.32 24.79 23.92 22.88 22.60 22.45 21.86 20.58 23.08 25.51 25.63 26.36 26.71 27.25 27.41 28.24 29.02 29.08 28.16 26.39 25.42 20.43 19.53 19.08 19.04 18.94 19.37 19.88 20.14 19.62 20.66 20.77 20.34 19.82 19.74 20.64 21.35 20.25 20.29 21.03 21.48 21.41
24.83 26.03 22.70 22.42 22.20 22.32 22.46 21.72 20.84 19.89 18.89 19.82 23.51 25.06 25.99 26.73 27.38 28.27 27.01 24.93 20.18 20.95 19.56 18.78 18.53 19.02 18.99 19.12 19.67 19.82 19.99 19.97 19.78 19.71 20.65 21.21 19.99 19.94 19.60 19.89 20.65 20.42 21.70
23.13 23.74 22.85 22.55 22.18 23.72 21.96 20.94 20.44 19.82 18.95 18.82 19.75 21.75 23.32 25.19 27.23 26.01 24.62 19.68 18.27 18.14 18.65 18.63 19.03 18.89 19.01 19.40 19.61 19.62 19.41 19.05 20.48 20.57 19.39 19.75 20.16 20.29 19.46 20.33 21.04 23.32 24.76
22.71 26.69 25.33 22.36 21.44 21.11 20.65 19.61 19.51 18.68 18.04 18.07 18.09 18.51 20.13 22.79 21.12 19.36 19.57 19.17 18.53 18.33 18.55 18.43 18.73 19.08 18.77 18.84 19.04 18.94 18.56 18.82 19.11 19.50 19.83 20.22 20.57 20.79 20.29 20.75 21.67 22.40 23.39
21.49 21.61 24.27 20.82 20.20 20.02 19.32 19.10 18.77 17.88 17.44 17.52 17.89 19.62 24.57 22.23 18.64 18.10 17.99 18.22 18.24 18.25 18.48 18.37 18.37 18.05 18.17 18.63 18.75 18.41 18.13 18.53 19.22 19.59 19.81 20.40 20.89 20.71 22.15 22.53 23.16 24.29 25.19
20.65 19.88 19.92 19.33 19.15 18.57 19.51 18.74 17.70 17.31 17.41 17.13 17.94 19.25 22.75 19.22 18.22 17.86 17.96 18.08 18.61 18.85 19.20 18.40 17.44 17.66 18.40 18.49 18.52 18.30 17.91 17.83 19.00 20.09 20.43 20.97 22.00 23.00 23.68 24.12 24.69 25.89 26.81
18.86 18.18 18.42 18.15 18.06 19.48 17.67 17.22 16.98 17.07 17.36 17.83 18.16 18.07 18.00 17.48 17.37 17.28 16.96 17.47 17.76 17.99 18.21 17.63 17.27 17.20 18.77 19.45 19.84 19.52 18.53 18.81 20.21 21.24 20.58 21.24 22.57 24.06 25.38 26.09 28.36 27.05 26.14
17.80 17.33 17.37 16.86 16.51 17.87 16.15 16.61 16.90 17.57 17.78 17.34 17.22 16.81 16.32 16.40 16.21 16.10 16.35 16.92 17.17 17.07 17.01 17.01 17.34 17.31 17.85 18.37 19.66 20.85 20.97 21.32 22.31 23.44 25.82 28.18 30.18 29.79 30.11 29.51 28.53 26.63 25.95
16.70 15.93 16.26 15.72 15.04 15.19 15.31 15.49 16.02 16.36 16.39 15.96 15.43 15.16 15.37 15.11 14.77 15.34 15.75 16.25 15.87 15.60 15.77 16.34 16.99 17.51 18.00 18.38 18.56 19.30 20.91 27.00 30.62 31.51 32.91 31.42 30.42 30.37 30.80 30.21 27.36 26.84 25.68
15.93 14.96 14.93 15.21 14.70 14.61 14.99 15.12 15.35 15.13 14.23 13.75 14.09 14.06 13.47 13.70 14.37 14.90 14.94 15.10 14.86 14.71 14.49 15.76 17.06 17.26 18.04 18.85 19.68 22.94 28.49 30.78 32.78 35.64 32.78 30.26 29.95 30.86 31.47 29.22 26.30 26.77 26.26

GFSGL_sfc_wetblb_012.txt.gz
Wetbulb
49.16 43.13 43.35 43.00 43.34 43.56 44.42 43.31 42.13 40.99 40.36 39.83 39.47 39.08 38.79 38.56 38.58 38.58 38.11 37.70 37.02 37.21 37.26 36.17 35.40 35.85 35.02 35.13 35.10 34.64 33.76 33.33 30.31 32.69 34.48 35.66 34.91 35.03 36.01 37.08 36.99 36.15 36.91
43.55 43.25 41.99 42.55 43.29 43.31 42.15 41.37 40.80 39.67 39.72 39.06 38.62 38.40 37.94 37.57 37.62 37.16 36.62 37.08 36.43 35.88 35.78 35.16 34.41 34.23 33.48 33.97 33.73 32.92 32.89 33.46 31.36 29.67 32.41 33.22 33.63 35.30 35.22 34.41 34.83 35.27 35.11
43.10 42.57 42.95 43.23 42.72 41.36 40.26 39.80 39.60 38.98 38.32 38.14 38.19 37.48 36.80 36.44 36.35 36.20 36.14 36.50 36.54 36.05 35.42 34.44 33.80 33.09 32.30 32.88 32.71 32.69 33.13 33.05 32.85 31.82 31.32 34.07 34.63 34.35 34.04 33.91 32.97 33.14 33.76
42.25 43.72 42.26 41.75 40.88 39.89 39.18 38.67 38.33 38.13 37.75 37.46 37.16 36.37 35.79 35.61 35.32 35.22 36.16 36.61 36.58 36.01 35.31 34.50 33.75 32.70 32.28 32.42 32.68 32.93 32.89 32.37 32.22 31.66 31.98 32.62 32.54 33.43 32.93 31.01 29.56 32.10 31.85
42.13 41.58 40.10 39.78 39.31 38.52 37.95 37.35 37.32 37.54 36.89 36.80 35.88 35.37 35.33 35.05 34.82 35.61 36.66 36.55 35.85 35.14 34.86 34.37 33.92 33.51 33.32 33.82 32.87 32.28 32.07 31.09 31.81 31.41 31.56 30.91 30.57 30.12 28.58 30.21 29.25 30.27 31.37
40.64 38.83 37.83 37.80 37.66 37.17 36.78 36.52 36.63 35.87 35.86 35.35 34.71 34.27 34.16 33.74 32.56 34.64 35.26 35.21 34.94 34.03 33.12 33.46 33.84 33.65 33.37 34.11 34.06 33.87 33.15 31.26 31.37 31.21 30.05 28.09 27.89 28.74 29.51 29.21 28.81 27.26 25.36
37.71 37.47 37.23 36.96 35.89 36.03 36.10 35.94 35.25 35.09 34.97 34.20 33.83 33.63 33.09 33.03 32.54 33.93 34.39 34.36 33.91 33.28 32.92 32.75 32.54 33.02 33.52 32.26 32.56 33.79 34.33 35.30 34.39 31.33 28.28 27.72 27.59 28.95 29.61 29.56 28.32 27.38 26.91
36.87 36.48 36.48 35.86 34.83 35.20 35.26 34.46 34.27 34.44 33.80 33.91 33.19 32.72 32.32 32.21 31.61 32.87 33.63 33.89 33.45 33.20 33.08 32.84 32.30 32.24 32.30 31.86 31.72 32.47 32.23 31.97 31.65 30.99 29.75 29.74 30.68 31.61 30.77 29.23 28.63 28.34 29.25
35.84 35.54 35.42 35.06 34.30 34.27 33.69 33.48 33.31 33.32 33.35 33.04 32.65 31.69 31.26 32.05 30.71 31.91 32.72 32.74 32.48 32.45 32.81 32.98 32.52 31.66 32.55 33.50 31.87 30.79 29.64 29.90 31.89 31.96 32.65 33.35 32.96 32.23 31.27 28.84 27.16 25.83 24.23
35.06 34.56 34.88 35.10 34.12 33.47 33.18 32.70 32.05 33.08 32.25 32.37 31.58 31.63 29.95 30.75 30.63 31.39 32.14 32.07 31.27 31.42 32.25 32.56 32.86 32.16 32.94 33.49 30.91 29.01 27.36 27.52 28.58 29.94 30.06 29.66 30.18 29.99 31.17 29.69 28.74 24.93 24.23
34.46 34.13 33.64 33.86 33.28 32.92 32.27 32.17 31.96 31.95 31.45 31.23 30.66 31.41 30.80 30.54 30.49 31.16 31.68 31.45 30.84 30.28 30.53 30.34 31.30 32.31 32.63 32.04 31.32 28.45 27.18 29.37 29.17 28.15 27.24 27.85 28.58 29.35 29.56 29.42 28.65 27.02 24.43
33.29 32.40 32.13 32.21 31.35 31.60 31.46 31.13 31.04 31.09 30.35 29.93 30.00 30.47 31.11 30.78 30.24 30.32 31.36 31.77 32.06 30.00 29.45 30.36 31.06 31.82 30.87 30.26 29.10 28.96 29.94 29.62 27.14 25.96 25.40 25.57 26.81 27.20 28.19 28.83 28.25 27.81 27.98
31.93 31.01 30.81 30.92 30.62 30.86 31.12 30.58 30.88 30.15 29.29 28.79 28.51 28.49 28.86 29.69 29.99 30.16 30.96 31.82 31.95 30.48 30.38 31.00 31.39 30.19 29.09 27.79 27.97 28.51 27.98 26.53 25.40 23.64 23.27 25.13 26.51 27.74 27.84 27.93 28.98 29.02 28.62
30.62 30.21 30.20 29.98 29.92 30.39 30.32 30.21 29.97 29.09 28.60 28.02 27.68 27.20 27.81 28.18 28.74 29.65 30.09 30.62 31.30 30.44 30.41 30.30 29.28 28.05 27.51 27.12 26.77 27.00 26.73 26.24 24.98 23.82 23.42 24.53 26.02 26.90 26.64 27.62 26.00 26.50 25.33
30.17 29.85 29.89 29.91 29.84 29.46 29.06 29.42 29.26 29.65 28.82 27.64 27.60 27.43 26.45 26.06 27.64 29.65 29.97 29.49 29.75 29.59 28.97 27.46 25.68 24.99 24.42 24.69 25.16 25.57 26.04 25.77 24.09 24.00 23.06 22.84 23.05 24.62 25.01 26.48 26.06 25.70 23.73
29.28 29.47 29.57 29.38 29.20 28.87 28.77 28.76 27.25 27.08 27.68 27.61 27.57 27.35 27.67 28.50 28.95 29.47 29.89 30.24 29.64 28.96 25.74 23.92 23.33 23.52 22.81 22.89 22.63 23.05 23.94 24.57 23.81 23.49 22.92 23.41 23.03 23.05 23.62 25.41 25.42 24.69 23.75
29.64 29.29 28.94 28.31 28.05 27.82 27.28 26.49 25.33 27.39 26.89 26.18 26.12 26.70 27.26 27.38 27.97 28.39 29.25 28.34 27.98 26.26 23.27 22.66 22.18 22.33 22.10 22.29 22.41 22.65 22.92 23.93 24.18 23.48 23.32 23.38 23.72 24.32 22.89 23.27 24.01 24.55 24.31
28.97 27.92 28.46 27.88 27.80 27.68 26.80 25.82 25.32 24.14 23.31 24.33 25.98 25.44 26.10 26.53 27.08 28.19 27.39 26.05 23.34 23.63 22.26 21.50 21.62 21.92 21.91 21.75 22.20 22.61 23.14 23.34 22.97 23.01 23.69 23.85 23.07 22.97 22.76 22.98 23.59 23.28 24.35
28.66 28.24 28.17 27.77 27.31 26.72 26.14 25.05 24.53 23.94 23.24 23.15 23.99 25.05 25.52 25.98 27.49 27.30 25.85 22.50 20.99 20.95 21.47 21.49 22.12 21.94 21.71 21.98 22.60 22.86 22.55 22.18 23.08 23.05 22.56 23.05 23.52 23.49 22.75 23.26 23.68 25.30 26.13
28.84 27.50 26.91 26.65 25.99 25.27 24.69 23.70 23.52 22.97 22.37 22.58 22.50 22.51 23.33 24.84 23.69 22.92 22.68 22.01 21.23 21.11 21.26 21.38 21.78 21.97 21.97 21.84 22.21 22.31 22.25 22.12 22.10 22.37 22.82 23.26 23.86 24.22 23.39 23.74 24.59 24.97 25.68
27.24 26.37 24.46 25.45 24.81 23.80 23.37 23.06 22.68 21.99 21.73 21.84 21.97 23.04 24.57 22.99 21.43 21.07 20.97 21.06 20.86 20.88 21.14 21.28 21.36 21.44 21.66 21.81 21.79 21.73 21.48 21.71 21.80 22.24 22.39 23.18 23.91 23.34 24.87 25.80 26.58 27.27 27.68
26.04 24.84 24.37 23.72 23.27 22.63 22.95 22.65 21.80 21.40 21.34 21.01 21.60 22.32 23.59 21.75 21.13 20.56 20.55 20.68 21.09 21.38 21.73 21.23 20.95 21.13 21.53 21.42 21.47 21.47 20.94 20.65 21.55 22.49 22.76 22.84 23.34 24.76 26.15 27.03 28.18 28.98 29.43
24.60 23.65 22.82 22.70 22.01 21.78 21.79 21.65 21.21 21.04 21.08 21.21 21.16 20.64 20.63 20.18 20.11 19.70 19.47 20.07 20.42 20.66 21.25 20.92 20.44 20.45 21.50 22.25 22.80 22.29 21.03 21.09 22.38 23.03 22.22 22.80 24.02 25.63 27.47 29.53 30.74 29.76 28.04
23.19 22.56 21.78 21.44 20.90 21.23 20.77 20.78 20.77 20.38 20.17 20.08 19.90 19.58 19.18 19.14 19.00 18.94 19.26 19.94 19.99 20.54 20.73 20.53 20.66 20.07 20.42 21.02 22.20 23.24 23.37 23.43 23.83 23.84 25.39 27.99 30.20 31.34 31.45 31.48 31.20 29.41 28.39
22.30 21.70 21.01 20.52 19.74 19.61 19.68 19.91 19.84 19.83 19.39 18.70 18.19 17.85 18.32 18.28 18.18 18.87 19.43 19.65 19.58 19.62 20.08 20.43 20.47 20.45 20.40 20.77 21.04 21.75 23.42 26.59 30.03 31.07 32.38 32.43 31.43 31.33 31.84 31.45 29.47 29.12 29.04
21.15 20.45 20.13 19.89 19.42 19.13 19.13 18.93 18.81 18.38 17.60 17.73 17.89 17.93 17.41 17.36 18.20 18.82 18.91 19.33 19.60 19.24 18.38 19.70 20.79 20.67 21.18 21.84 22.43 24.44 28.49 30.88 32.73 34.96 32.64 31.96 30.73 31.64 31.10 29.73 28.24 28.52 28.23

GFSGL_sfc_wetblb_015.txt.gz
Wetbulb
53.33 49.34 47.13 45.79 47.08 45.14 45.28 44.48 43.35 43.36 42.69 41.75 41.22 40.77 40.24 39.97 39.68 39.11 38.96 38.66 38.00 38.17 38.37 37.66 36.36 36.62 35.69 35.28 35.07 34.54 33.40 32.89 29.22 31.68 34.09 35.42 34.54 34.32 35.24 36.28 36.61 35.57 35.77
51.50 47.52 44.97 44.54 44.14 44.28 43.39 43.23 43.02 41.95 41.86 40.95 40.48 39.96 39.56 38.91 38.50 37.97 37.60 38.02 37.30 36.73 36.82 36.95 35.78 35.76 34.34 34.29 33.82 32.99 32.58 32.95 31.13 28.87 32.16 32.59 33.27 34.05 34.64 34.22 34.88 35.48 34.02
46.77 43.64 43.09 42.43 42.56 42.45 42.26 41.46 41.98 41.06 40.16 39.79 39.68 39.08 38.24 37.54 37.21 37.31 36.94 36.79 37.01 37.03 36.65 35.62 34.85 34.22 32.88 33.02 32.86 32.35 32.86 33.60 32.84 30.90 29.94 32.43 32.70 34.23 33.67 33.42 32.76 33.13 33.90
43.91 42.48 41.43 41.42 41.42 40.82 40.27 41.10 40.40 39.85 39.12 39.10 38.73 37.77 37.00 36.48 36.25 36.20 36.66 36.91 37.25 37.25 36.72 36.04 34.86 33.87 32.67 32.33 31.83 31.93 32.53 31.37 31.35 29.90 29.47 29.91 31.56 33.24 31.94 29.90 28.79 30.77 30.33
42.56 41.42 41.65 41.36 41.06 40.65 40.03 39.52 39.33 39.34 38.63 38.15 37.04 36.46 36.05 35.74 35.61 34.78 36.01 36.21 35.85 35.64 35.68 35.30 34.99 35.22 34.76 34.43 32.75 32.15 31.55 30.20 29.71 29.17 28.73 30.02 28.82 28.27 27.45 28.65 27.56 28.53 29.15
41.37 40.60 39.89 39.87 39.72 38.81 38.24 37.66 38.07 37.47 36.95 36.39 35.80 35.04 34.70 34.77 33.15 34.63 35.11 34.16 34.28 34.08 33.44 33.70 34.07 34.62 34.42 35.10 35.31 34.98 33.52 30.26 29.58 29.50 29.97 27.21 27.35 27.84 27.93 27.36 26.45 26.23 24.17
38.31 38.09 39.60 38.33 37.77 37.44 37.38 37.39 36.72 36.20 36.13 35.22 34.41 34.15 33.85 34.17 32.73 33.80 34.55 33.33 33.03 33.49 33.13 32.85 32.72 33.51 33.85 32.66 33.40 34.18 33.84 34.82 34.97 30.77 28.11 27.54 26.52 27.42 27.53 26.67 27.59 26.25 24.81
36.56 37.98 37.42 37.56 36.42 36.71 36.81 36.11 35.51 35.60 34.80 34.09 33.57 33.43 33.20 33.61 31.53 32.82 33.70 32.67 32.96 33.26 33.26 32.99 32.21 32.08 32.48 32.39 31.47 30.93 31.70 31.52 31.27 31.28 29.78 28.96 29.22 30.21 31.01 30.49 27.74 26.81 27.27
35.06 36.32 36.07 36.60 36.18 35.84 35.17 34.69 34.54 34.00 33.39 33.07 33.02 32.76 32.25 32.43 31.46 31.89 32.51 31.60 31.65 31.89 33.00 32.88 32.65 32.03 33.54 34.28 31.30 29.54 29.22 29.08 32.35 33.00 32.80 33.50 34.23 34.03 32.46 28.97 25.49 24.75 23.48
36.19 36.37 36.80 36.66 35.70 34.69 34.10 33.25 33.21 33.28 32.32 32.38 32.05 32.48 31.79 30.86 32.18 31.55 32.02 30.90 30.01 30.61 31.48 31.92 33.69 32.62 33.90 33.85 30.80 28.51 26.17 26.73 27.51 28.27 29.15 29.71 30.41 29.87 32.26 29.67 28.10 24.82 23.62
36.26 35.69 35.54 35.23 34.23 33.78 32.96 32.83 32.67 32.12 31.98 31.80 31.32 32.20 31.98 31.82 30.99 31.59 31.79 30.37 29.80 29.59 29.54 29.73 30.93 33.20 33.10 33.35 32.51 28.35 26.98 29.03 28.98 27.45 26.86 26.93 27.53 27.90 28.63 28.54 28.41 27.18 24.53
34.34 33.35 32.94 32.82 32.86 32.94 32.23 31.97 31.74 31.44 30.91 30.75 30.58 30.73 31.78 31.70 31.72 31.22 31.28 31.97 32.38 29.79 28.99 29.99 30.35 32.37 32.46 31.82 30.15 30.13 30.63 30.40 26.77 25.67 24.86 24.35 24.52 25.09 26.31 27.30 27.40 27.29 27.65
33.02 32.28 31.59 31.65 31.75 32.21 31.80 31.29 30.72 30.56 29.69 29.43 28.91 28.66 29.10 30.12 30.23 31.39 31.55 32.21 32.24 30.51 30.57 31.09 31.94 31.40 30.99 28.85 29.07 29.88 29.79 26.39 25.40 23.94 23.68 23.90 24.97 25.52 25.59 26.00 27.66 28.32 28.01
31.56 30.73 30.90 30.59 30.85 31.03 30.92 30.72 30.21 29.35 28.74 28.17 27.83 27.34 27.72 28.17 28.59 29.32 29.16 29.69 30.86 30.49 30.29 29.25 29.42 29.75 29.23 28.34 27.17 27.00 26.40 26.23 25.69 24.62 23.64 24.35 25.00 24.09 23.65 25.05 24.60 24.94 24.61
31.15 30.79 30.58 30.71 31.04 30.38 30.08 29.83 29.06 29.67 28.29 26.94 26.86 26.35 25.56 25.15 26.95 29.49 29.20 28.51 29.15 29.49 29.17 26.63 25.47 24.91 24.22 24.36 24.73 24.94 25.25 25.42 24.41 24.53 23.92 23.07 22.67 23.25 23.40 24.20 24.29 24.53 23.12
30.05 30.19 30.51 30.30 29.97 29.44 28.93 28.67 28.80 27.83 27.71 28.09 28.00 26.95 26.71 28.29 29.19 29.31 29.58 30.25 30.45 30.11 25.90 23.36 23.00 23.04 22.61 22.69 22.49 22.59 23.42 24.22 23.94 23.92 22.92 22.72 22.61 22.38 22.48 23.68 24.15 23.14 22.46
30.52 29.81 29.26 29.64 29.01 28.34 27.64 26.86 25.73 28.27 29.04 28.17 27.21 27.10 27.34 27.64 28.04 28.31 29.14 29.62 28.94 27.75 22.83 22.20 21.60 22.02 22.00 22.35 22.63 22.61 21.88 23.12 23.51 23.13 22.87 22.29 22.57 22.85 22.60 21.63 22.48 22.72 22.36
29.79 30.40 29.45 28.85 28.33 27.88 26.89 26.12 25.80 24.69 23.65 24.60 27.30 27.14 27.42 27.39 27.41 28.51 28.87 27.27 23.12 23.83 22.39 21.55 21.20 21.78 21.79 22.03 22.37 22.07 22.05 22.25 22.15 22.12 22.48 22.98 22.57 21.99 21.60 21.58 21.98 21.99 22.17
29.63 29.08 29.04 28.14 27.41 26.49 26.30 25.51 25.09 24.57 23.80 23.52 24.40 25.94 26.71 26.97 28.06 28.48 27.48 22.81 21.21 20.98 21.58 21.31 21.86 21.84 21.79 22.38 22.26 22.02 21.67 21.26 22.63 22.81 21.79 22.27 22.56 22.65 21.83 22.29 22.52 25.57 26.22
28.71 27.81 27.47 26.82 26.14 25.50 25.07 24.29 24.07 23.47 22.75 22.87 22.93 22.96 23.74 24.29 23.11 22.89 22.87 22.23 21.49 21.21 21.39 21.10 21.59 21.75 21.62 21.78 21.69 21.48 21.02 21.08 21.17 21.53 21.82 22.26 22.55 22.97 22.64 23.11 23.64 23.80 24.20
27.92 26.78 25.02 25.71 24.91 24.16 23.68 23.59 23.21 22.36 21.99 22.09 22.29 23.81 25.88 22.97 21.36 21.27 21.18 21.16 21.04 20.91 20.81 20.87 20.91 20.95 21.21 21.51 21.41 20.92 20.37 20.22 20.82 21.16 21.41 22.01 22.85 22.30 23.53 24.23 25.04 25.93 26.67
26.65 25.35 24.75 24.04 23.74 23.37 23.26 22.98 22.32 22.01 21.84 21.53 22.07 22.99 24.82 21.92 21.14 20.67 20.70 20.80 21.09 21.28 21.45 21.13 20.59 20.70 21.25 21.25 20.86 20.24 19.62 19.48 20.16 20.88 21.40 21.99 22.40 23.07 24.20 24.96 25.79 27.70 29.45
25.34 24.30 23.62 23.38 22.78 22.80 22.82 22.55 22.04 21.86 21.33 21.25 21.38 21.09 20.96 20.30 20.15 20.00 19.96 20.30 20.59 20.76 21.16 21.05 20.61 20.25 21.32 22.00 22.24 21.61 20.28 20.07 21.20 22.37 21.63 21.72 22.58 23.66 24.99 27.90 30.04 29.16 27.77
24.00 23.22 22.59 22.41 21.88 21.50 21.56 21.23 21.36 21.66 21.17 20.68 20.31 20.02 19.35 19.31 19.29 19.40 19.69 20.31 20.40 20.45 20.83 20.78 21.16 20.71 20.89 20.93 21.63 22.31 22.83 23.02 23.66 23.62 24.52 25.80 28.27 31.07 29.86 29.86 28.70 27.79 27.53
23.06 22.40 21.97 21.45 20.83 20.59 20.53 20.68 20.63 20.62 20.20 19.72 19.15 18.92 19.07 19.01 18.57 19.13 19.84 20.35 20.09 20.36 20.46 20.82 20.74 20.59 20.52 21.32 21.51 22.15 23.61 27.82 30.00 30.98 32.17 30.42 30.36 30.02 29.01 28.22 27.25 27.09 26.80
21.93 21.40 21.12 21.01 20.43 20.19 19.84 19.57 19.55 19.31 18.61 18.89 19.07 19.13 18.68 18.24 18.59 19.47 19.73 20.00 20.36 19.63 18.56 19.74 21.03 21.03 21.53 21.86 23.14 25.56 29.43 31.29 33.05 34.16 30.03 30.40 29.80 29.87 29.11 27.32 26.15 26.45 25.32

GFSGL_sfc_wetblb_018.txt.gz
Wetbulb
49.92 49.66 47.94 45.25 45.60 45.47 45.02 44.20 42.48 42.24 41.40 40.12 37.27 36.48 36.10 35.85 35.93 34.97 34.56 34.93 33.99 33.71 33.24 32.99 32.49 32.33 31.00 30.26 29.67 29.33 28.25 27.48 25.68 28.29 30.13 30.99 29.63 30.12 32.15 32.14 34.02 33.19 34.24
47.92 46.60 45.18 45.88 45.32 44.50 42.92 42.10 41.76 40.78 40.20 39.50 36.74 36.56 36.05 35.89 34.61 34.30 33.31 33.75 33.55 32.45 32.41 32.14 32.02 34.43 29.53 29.24 28.33 27.56 27.16 27.34 26.98 25.95 29.01 29.41 28.43 29.79 31.17 30.61 33.93 35.01 33.06
46.71 45.26 44.77 43.94 43.05 42.32 41.23 40.99 40.81 39.62 38.47 36.16 36.00 35.98 35.44 35.35 34.66 33.77 33.02 32.90 32.96 32.35 32.14 31.17 30.83 30.24 28.24 27.75 27.30 26.82 27.71 30.66 28.25 27.31 26.79 29.15 29.30 30.21 30.38 32.29 30.74 30.49 32.04
42.89 43.52 42.54 42.53 41.64 40.42 39.61 39.67 39.28 38.18 37.32 35.29 35.07 34.88 34.91 35.16 34.75 33.77 33.45 33.00 32.25 32.87 33.16 32.16 30.93 30.03 28.79 27.37 28.27 27.43 29.29 27.44 27.73 26.81 26.62 27.24 28.33 30.29 29.81 26.94 26.54 27.39 27.82
41.18 41.34 40.58 40.54 40.15 39.32 38.29 38.06 38.05 37.55 35.12 34.48 34.10 34.02 34.22 33.97 34.74 32.61 33.32 32.52 30.99 30.51 30.73 31.22 31.14 33.01 35.73 34.38 31.98 28.27 28.46 27.44 26.15 25.50 27.47 27.33 28.62 26.25 25.54 26.31 24.96 26.03 26.74
41.51 39.28 38.86 38.48 38.50 37.38 37.31 36.66 36.06 34.15 32.95 34.47 33.84 32.78 32.33 34.15 35.10 34.97 34.26 31.21 30.47 28.90 28.21 29.01 29.99 33.30 32.65 35.51 35.42 35.45 33.77 29.51 26.98 26.91 28.62 25.32 25.37 25.61 23.60 24.68 24.53 23.41 22.79
38.28 37.70 37.34 37.48 36.54 36.38 36.01 34.75 33.44 33.02 33.48 32.40 31.82 31.60 32.00 31.78 34.31 33.58 34.15 30.59 29.03 28.01 27.90 28.48 29.44 32.26 32.20 29.29 32.35 34.12 33.19 34.42 34.13 30.08 26.04 25.75 24.74 25.21 24.66 24.52 25.89 27.13 25.43
36.34 36.50 36.80 36.32 35.47 35.50 34.49 33.71 33.42 32.32 31.40 30.79 30.99 31.84 31.53 32.45 33.20 32.79 33.48 28.85 27.56 27.63 27.74 28.05 27.29 27.24 28.46 30.73 29.13 26.79 27.82 28.56 29.26 29.51 27.92 27.11 27.01 29.14 30.02 30.22 28.16 26.04 26.23
35.89 36.42 35.81 35.63 34.81 33.97 33.13 31.25 31.55 30.83 30.86 31.21 31.39 30.48 28.56 27.80 32.23 32.07 31.49 27.31 26.40 25.89 28.17 27.95 28.39 27.65 32.86 34.61 30.18 24.64 26.79 26.53 31.12 32.43 32.56 33.29 33.78 33.45 32.36 28.51 24.82 22.98 22.55
34.97 35.35 35.28 34.94 33.85 31.43 31.21 29.60 31.08 31.61 30.42 30.31 29.07 27.96 30.97 26.40 32.04 32.11 31.01 27.70 24.68 25.07 26.24 27.31 32.38 31.23 33.72 34.20 29.76 27.75 24.46 24.72 25.22 26.19 27.30 27.38 28.54 26.85 31.30 27.06 25.56 22.33 21.91
36.00 34.67 33.57 32.74 31.86 31.31 31.25 31.01 28.83 27.51 27.35 26.54 26.68 27.09 27.02 27.53 26.61 32.08 32.05 27.72 26.15 25.95 25.61 25.76 26.98 32.57 33.29 33.64 33.40 26.50 25.79 28.57 28.62 25.73 24.34 24.57 25.03 25.09 25.38 25.82 25.86 24.62 23.31
32.58 31.79 31.31 31.79 32.20 30.53 27.26 26.96 26.87 26.30 25.78 25.17 24.71 24.64 25.55 25.45 31.33 30.92 31.99 31.95 31.91 26.47 25.57 26.17 26.33 32.34 32.53 32.18 30.45 30.63 31.14 30.90 24.38 23.62 23.18 22.90 23.05 23.16 24.13 24.82 25.29 24.95 25.72
31.11 30.06 28.57 28.31 28.30 28.11 26.86 26.03 25.23 25.61 24.40 23.68 24.05 22.76 23.07 25.31 24.51 31.43 31.68 31.76 31.30 28.21 27.07 29.97 31.58 31.46 30.74 28.39 29.35 30.32 29.62 22.90 23.08 22.32 22.87 22.57 22.79 23.59 23.99 23.61 24.14 24.68 25.15
27.89 27.11 26.58 26.33 26.56 26.65 26.40 25.56 23.88 23.11 22.32 22.78 22.45 21.78 21.73 22.45 22.74 24.22 25.90 24.92 29.01 27.97 29.29 24.98 28.74 28.87 29.07 27.55 25.61 24.63 23.13 23.47 23.76 22.80 22.23 23.34 24.32 23.72 22.38 23.10 22.81 22.87 22.28
26.82 26.03 26.25 26.42 25.21 23.82 24.22 23.58 23.79 23.70 24.05 22.13 21.90 22.15 20.42 20.02 23.49 28.56 28.16 26.40 25.75 28.71 28.75 23.80 22.14 20.93 20.76 21.64 21.95 22.11 22.50 22.73 22.29 22.62 22.51 22.57 22.54 22.30 22.47 23.24 22.63 22.77 21.58
25.64 25.20 24.88 23.82 23.89 23.62 22.52 22.39 29.11 28.36 28.41 28.24 28.12 25.78 24.35 27.28 28.99 29.28 29.40 30.03 30.85 30.59 24.82 20.19 18.51 19.01 19.71 20.45 20.60 20.82 21.59 22.29 21.64 22.23 21.92 21.60 21.38 20.88 21.03 22.52 23.22 21.15 20.34
23.62 23.81 24.64 24.99 22.69 22.00 22.10 21.33 19.82 23.44 29.93 29.44 28.98 28.42 28.36 28.19 28.46 28.60 29.44 30.21 29.34 27.45 20.08 18.12 17.77 18.72 19.18 19.63 19.53 20.04 19.71 20.84 21.81 21.40 21.15 20.73 21.02 21.34 22.08 20.36 20.80 21.23 20.70
24.96 30.18 22.98 22.33 21.73 21.39 21.44 20.95 20.13 19.59 18.81 18.99 25.18 26.74 28.14 28.35 28.08 28.82 29.36 26.95 20.47 21.61 20.21 19.02 17.30 18.54 19.08 18.87 19.25 19.74 20.49 20.70 20.51 20.12 20.51 21.72 21.18 20.74 20.34 20.40 20.85 20.73 21.34
23.78 23.41 22.44 21.52 21.12 22.19 21.19 20.67 19.96 19.77 18.73 18.28 19.23 23.06 24.93 26.92 27.50 27.50 27.00 19.91 19.16 19.04 19.52 18.30 18.33 18.56 18.69 19.13 19.62 20.11 20.31 20.04 21.39 21.31 19.75 20.47 20.83 21.17 20.55 21.22 21.47 24.84 25.58
24.27 28.12 25.49 21.17 20.85 20.52 20.17 19.67 19.49 18.45 17.98 17.52 18.05 18.50 19.91 21.84 20.86 20.05 20.11 19.64 19.19 19.02 19.33 17.97 18.52 18.31 18.68 19.20 19.49 19.84 19.59 19.57 19.31 19.46 19.72 20.56 21.06 21.34 21.13 21.76 22.32 22.14 22.64
21.92 21.65 25.58 20.70 19.82 19.77 19.36 18.84 18.60 17.83 17.29 17.41 17.82 21.12 26.67 21.48 18.84 18.54 18.56 18.81 18.66 18.70 17.08 17.92 17.80 18.18 18.90 19.01 19.25 19.16 18.76 18.82 19.10 19.42 19.40 20.08 21.06 20.94 21.94 22.23 22.80 23.87 25.10
20.73 20.48 20.53 19.51 19.63 19.57 19.11 19.19 18.26 18.16 18.13 17.68 17.94 20.70 24.69 18.66 17.90 17.94 18.48 18.69 18.91 19.19 18.54 18.66 17.95 18.77 19.11 19.35 19.59 18.96 18.60 18.49 18.91 19.25 19.66 20.39 20.99 21.52 22.51 22.87 23.56 25.30 27.79
19.50 19.23 20.00 19.42 19.50 20.87 18.37 18.26 17.75 17.82 17.74 17.83 18.00 19.11 19.27 17.65 17.50 17.60 18.12 18.34 18.65 18.56 18.54 19.23 19.32 18.98 20.00 20.78 21.28 20.75 19.16 18.81 20.38 21.44 20.64 20.78 21.41 22.33 24.76 27.21 27.78 26.39 25.99
18.86 18.81 18.90 18.47 18.47 18.20 17.18 17.14 17.46 19.92 19.47 18.67 17.50 18.06 16.65 16.80 16.80 17.20 17.24 15.69 17.58 16.12 19.19 19.75 20.22 19.80 20.29 20.23 20.59 21.05 21.92 22.38 22.99 23.80 25.75 28.61 28.69 28.95 28.46 28.24 26.60 25.39 24.88
17.92 17.22 18.00 16.73 16.76 16.59 16.66 16.83 17.04 17.25 17.76 18.23 17.99 18.10 17.33 17.37 16.51 14.81 14.82 16.17 16.97 18.28 19.75 20.15 19.74 19.32 19.66 20.28 20.66 21.42 22.87 28.10 31.08 32.00 30.41 24.51 25.89 28.31 28.81 27.28 26.48 25.59 23.86
17.25 16.51 16.17 16.77 15.94 15.99 16.01 16.12 16.57 16.68 16.38 15.73 15.90 14.86 15.64 15.87 15.86 14.89 16.00 16.67 17.96 18.97 18.81 19.32 20.15 20.08 20.12 20.47 21.68 24.73 29.62 31.59 32.94 35.54 31.09 26.04 25.81 27.70 28.74 28.27 27.65 26.25 25.49

GFSGL_sfc_wetblb_021.txt.gz
Wetbulb
53.57 50.03 48.31 47.24 46.03 45.23 44.26 44.19 43.93 43.77 42.27 40.63 40.14 39.11 38.07 35.61 34.36 33.90 33.47 33.46 33.00 32.69 32.29 32.09 31.78 31.46 30.44 29.66 28.51 27.91 26.80 25.59 23.42 25.78 27.07 28.24 27.25 28.18 29.91 30.85 32.45 32.00 33.18
49.21 47.63 46.86 46.50 45.71 45.08 44.32 43.77 43.45 41.62 41.38 40.26 39.49 38.19 36.90 34.75 33.66 32.83 32.64 32.70 32.25 32.14 31.97 31.38 31.24 33.63 28.92 28.36 27.42 26.34 25.53 25.80 24.39 24.53 26.66 27.56 27.26 27.72 29.27 29.12 31.37 33.98 33.00
47.48 46.59 45.73 45.11 44.72 43.81 42.53 42.01 41.78 40.59 39.49 39.47 37.90 36.44 35.58 33.75 33.02 32.22 32.27 32.26 32.75 31.89 31.29 30.33 30.19 29.40 27.82 27.07 26.43 25.74 26.45 29.25 26.64 25.85 26.13 28.37 27.94 29.10 28.78 29.72 30.61 29.57 31.14
46.26 45.58 44.25 43.61 42.28 40.85 41.00 40.16 40.06 39.65 38.43 37.13 36.67 35.65 34.14 33.56 33.40 33.03 33.58 33.04 31.84 31.72 31.29 30.85 29.93 28.91 27.65 26.71 26.84 26.65 27.81 26.07 25.76 25.92 25.83 25.92 27.27 28.89 29.20 26.47 25.95 27.12 26.78
44.16 43.52 41.92 41.11 41.09 39.89 39.62 39.07 39.02 38.91 37.34 36.12 34.78 34.10 32.61 32.78 34.22 33.48 33.75 32.07 30.73 30.25 30.30 29.79 29.80 32.05 35.28 33.93 31.29 27.66 26.77 26.12 25.58 24.19 24.90 25.95 27.08 25.49 24.51 26.05 24.47 25.58 26.42
41.38 39.86 39.01 38.43 38.43 38.32 37.92 37.42 36.25 35.29 34.71 34.12 33.50 31.82 31.30 34.67 37.05 36.61 33.99 31.27 30.80 28.68 27.28 27.92 28.40 32.78 32.16 35.32 35.25 35.14 33.58 27.56 23.24 26.37 26.19 25.48 24.51 24.59 22.82 24.68 24.12 23.36 22.83
37.11 37.08 37.14 37.29 36.74 37.80 35.96 34.58 33.85 33.03 33.05 32.46 31.94 31.71 30.95 33.12 36.09 35.30 34.70 30.59 28.00 26.58 26.90 27.14 28.20 31.11 31.43 27.69 31.65 34.26 33.62 34.45 33.88 29.67 25.59 24.68 24.06 25.18 24.56 23.66 25.77 26.58 25.74
35.98 36.37 36.60 36.22 35.92 35.50 35.48 34.34 33.19 32.19 31.71 31.08 30.46 30.52 30.69 33.40 34.96 34.11 33.92 26.71 26.47 26.44 26.64 26.25 25.55 25.44 27.12 30.00 28.09 27.44 28.20 27.79 28.05 28.83 26.71 26.20 26.35 28.56 29.81 28.79 26.68 25.55 25.71
36.15 36.55 37.28 37.04 35.67 34.62 33.22 32.79 32.87 31.74 30.04 29.39 29.66 30.23 29.19 29.38 33.43 33.02 30.53 26.60 26.30 25.47 26.67 26.69 27.46 26.60 32.15 34.04 29.75 24.45 25.36 25.81 30.43 32.40 32.75 33.30 33.54 32.93 31.50 27.53 22.96 21.49 20.67
36.02 35.96 35.98 35.51 34.56 33.15 32.46 31.06 29.94 29.81 30.06 31.08 28.20 26.72 30.79 25.10 33.01 32.45 30.37 27.26 24.78 25.04 25.68 26.72 31.26 30.56 33.26 33.84 29.55 26.06 23.70 23.75 24.83 25.39 26.08 26.83 27.67 26.16 30.40 25.95 23.73 20.98 20.77
35.90 35.48 34.94 33.85 31.92 31.05 29.78 30.24 30.28 29.27 27.54 25.16 24.76 24.31 24.61 25.78 26.22 31.98 32.25 26.68 25.93 25.45 25.31 25.48 26.46 32.14 33.03 33.48 32.93 26.56 25.81 28.69 27.99 23.22 23.46 23.85 24.46 24.66 25.08 25.31 25.00 23.18 21.66
33.35 31.66 30.74 30.73 31.67 30.86 29.41 27.01 25.43 24.63 23.33 22.75 22.76 22.87 23.31 23.70 30.93 30.74 32.45 32.09 31.27 25.88 25.34 25.43 25.83 31.91 32.04 31.65 29.74 30.58 31.18 29.53 23.62 22.83 22.46 22.49 22.86 22.66 23.21 23.91 24.62 24.06 24.16
30.76 29.85 29.59 29.57 28.33 26.93 24.89 24.02 23.32 23.24 22.45 22.07 22.80 21.02 21.27 23.32 22.53 30.35 30.37 31.04 30.48 27.26 25.81 28.88 31.47 30.88 29.67 26.96 28.63 29.46 28.57 22.41 22.19 21.29 21.59 21.37 21.83 22.83 23.37 23.29 23.56 23.82 23.47
28.50 26.46 25.29 25.32 24.78 24.35 24.45 23.93 22.23 21.49 20.78 21.56 21.43 20.16 19.52 20.83 21.67 23.00 25.24 24.27 28.18 27.48 28.49 25.76 27.90 27.21 26.93 26.16 24.47 23.92 22.70 22.50 22.34 21.73 21.22 22.17 22.92 22.17 21.75 22.62 21.77 22.35 21.48
24.77 24.43 24.56 24.39 22.99 22.25 23.14 22.38 23.04 22.23 22.43 21.13 21.08 21.45 19.83 19.76 23.26 28.19 27.82 26.37 25.52 28.02 28.31 23.08 20.69 20.12 19.67 20.65 21.24 21.51 21.72 21.93 21.15 20.94 21.07 21.05 21.17 21.37 21.29 21.99 21.60 21.55 20.69
23.80 23.79 23.26 22.48 22.16 21.93 21.20 21.47 29.44 28.65 29.27 28.77 28.31 25.40 24.19 27.06 28.83 29.25 29.53 30.25 31.04 30.14 22.47 19.05 17.89 18.19 18.57 19.16 19.47 19.59 20.21 21.11 20.25 20.71 20.32 19.98 19.75 19.65 19.89 21.32 22.59 20.89 19.43
22.78 23.19 24.00 23.59 21.45 20.69 20.73 19.99 18.81 22.01 28.64 28.97 28.76 28.57 28.60 28.46 28.81 28.82 29.54 29.75 28.02 26.15 19.43 17.20 16.64 17.35 17.89 18.41 18.29 18.03 17.75 19.29 19.97 19.99 19.23 18.81 18.94 19.42 21.24 19.60 20.24 20.42 19.90
23.78 28.19 21.48 20.90 20.08 19.73 20.21 19.71 19.11 18.91 18.00 18.10 24.11 26.48 27.62 27.76 27.93 28.14 27.89 24.81 19.80 20.89 19.21 17.93 16.13 17.41 17.78 17.49 17.45 17.47 18.23 19.08 19.35 19.21 19.50 20.20 19.87 19.33 19.21 19.35 19.87 19.84 20.37
22.28 21.34 20.46 19.88 20.31 21.28 20.12 19.67 19.14 18.80 17.60 17.24 18.41 22.08 24.06 26.69 27.23 26.08 25.32 19.13 18.00 17.89 18.39 16.97 17.34 17.15 17.10 17.12 17.20 17.11 17.63 18.38 20.43 19.72 18.02 18.86 19.28 19.74 18.98 19.66 20.25 23.92 24.82
23.64 27.73 23.57 20.03 19.81 19.48 19.24 18.93 18.54 17.38 16.92 16.57 17.22 17.54 19.32 21.45 19.43 18.53 19.00 18.41 17.86 17.81 18.15 16.85 17.33 17.23 16.51 15.75 16.32 17.49 17.72 18.09 17.85 17.93 18.15 18.91 19.48 19.65 19.34 19.86 20.78 20.96 21.55
20.32 21.70 25.49 19.59 18.93 19.07 18.54 18.09 17.69 16.88 16.39 16.45 16.72 20.01 25.82 19.26 17.13 16.92 16.98 17.40 17.38 17.58 16.30 17.36 17.22 16.61 15.93 15.99 17.33 17.52 17.55 17.35 17.73 18.17 18.58 19.07 19.39 19.15 20.51 21.31 21.78 22.64 23.39
19.68 19.53 19.79 18.77 18.77 18.79 18.66 18.42 17.33 17.13 17.07 16.59 16.89 19.31 23.67 17.43 16.59 16.47 17.25 17.63 18.05 18.51 18.24 17.88 17.01 16.78 17.78 17.99 18.03 17.67 17.25 17.32 17.90 18.42 19.65 20.73 20.48 21.29 22.03 23.26 24.41 26.19 26.79
18.37 18.56 19.18 18.57 18.60 20.29 17.33 17.18 16.71 16.80 16.81 16.85 16.91 17.86 18.08 16.62 16.63 16.54 17.06 17.30 17.45 17.48 18.14 18.94 18.44 17.97 18.67 19.56 20.12 19.84 18.18 17.95 19.26 20.80 20.55 20.58 22.19 23.43 27.44 27.41 27.29 27.06 25.96
18.01 18.08 18.07 17.46 17.43 17.11 16.11 16.19 16.26 18.77 18.54 17.58 16.53 17.10 16.10 16.25 16.37 16.67 16.23 14.48 16.05 16.23 18.57 19.33 19.77 19.21 18.94 18.98 19.43 19.84 20.70 21.35 22.58 23.33 25.48 28.23 28.97 27.35 27.04 27.90 28.04 27.23 25.91
16.91 16.37 16.98 15.70 15.67 15.34 15.41 15.52 15.78 16.16 16.64 17.23 17.23 17.28 16.55 16.57 15.77 14.19 13.74 14.53 14.63 16.50 17.81 18.95 19.37 19.22 19.00 19.15 19.71 20.84 21.95 27.25 30.69 31.41 32.74 30.63 27.75 26.82 27.73 28.07 28.34 27.83 26.96
16.30 15.48 15.08 15.58 14.76 14.75 14.81 14.94 15.47 15.68 15.28 14.59 14.83 13.17 14.39 14.80 15.12 14.41 14.16 14.31 14.55 16.11 16.08 17.91 18.47 18.53 18.70 19.21 21.34 24.49 29.37 31.27 32.34 35.13 34.34 30.39 28.95 28.41 29.29 30.40 29.40 28.67 28.23

GFSGL_sfc_wetblb_024.txt.gz
Wetbulb
55.78 55.94 49.22 48.62 47.68 48.17 47.27 46.76 45.08 44.95 43.18 42.15 41.71 41.16 40.26 38.63 37.16 36.39 35.18 34.53 32.12 31.55 31.60 32.07 31.62 31.53 30.58 29.58 28.47 27.58 26.35 24.91 22.48 24.43 25.47 27.02 26.43 26.91 29.09 29.48 30.89 30.31 31.18
50.90 48.83 47.81 46.94 46.44 46.14 45.43 44.82 44.22 42.23 42.34 41.60 40.70 40.03 39.50 37.39 36.28 35.61 34.31 34.21 31.75 31.26 31.37 31.64 31.35 33.34 29.23 28.21 27.23 26.21 25.29 24.88 23.89 23.25 24.97 25.50 25.97 27.21 27.23 27.22 30.18 32.29 31.40
47.10 46.64 45.52 45.16 45.36 45.05 44.60 42.86 43.16 41.69 41.05 40.75 39.86 38.85 36.75 35.77 34.76 33.94 33.46 31.68 31.10 31.39 31.69 31.83 31.67 29.84 28.25 27.40 26.15 25.15 25.11 28.14 25.68 24.91 25.29 25.97 26.03 26.67 27.41 27.57 28.30 29.34 30.52
45.52 45.16 44.16 45.67 45.12 44.07 42.64 42.80 41.32 41.14 40.29 39.68 38.83 37.01 35.75 34.69 34.07 33.62 32.09 30.98 31.00 31.60 32.39 31.27 30.10 29.46 27.60 26.51 26.36 25.73 26.89 25.37 25.14 24.74 24.82 24.10 24.38 27.21 26.97 25.94 24.81 26.92 26.53
43.83 43.82 42.25 41.78 41.34 40.62 40.19 39.76 40.08 39.36 38.19 37.05 35.91 34.84 34.35 34.07 34.39 33.73 32.00 31.00 31.40 31.01 31.08 30.48 30.03 30.66 34.90 33.40 30.51 27.35 26.67 25.90 24.82 22.36 24.97 23.07 25.92 25.47 24.22 25.11 23.94 25.05 25.93
41.72 40.69 40.37 39.02 38.96 38.27 37.93 36.53 35.70 35.32 34.85 34.53 33.64 33.32 33.51 35.92 38.27 37.12 33.83 31.74 30.83 29.43 28.65 27.67 27.43 31.75 31.50 35.20 35.49 35.08 33.06 27.20 22.05 22.06 19.72 24.93 24.78 24.33 24.81 24.00 23.66 22.73 22.19
37.92 38.13 37.68 37.09 35.92 35.62 35.42 35.15 34.29 33.33 33.47 32.45 32.04 32.14 33.19 34.62 37.13 36.46 34.28 30.27 28.70 26.89 26.56 26.36 27.13 29.62 29.24 27.10 30.98 33.97 33.19 34.55 34.12 30.46 25.68 24.83 24.13 24.91 24.71 22.89 24.39 25.80 24.32
36.35 36.57 36.62 36.23 35.89 36.23 35.52 34.01 33.23 33.07 32.37 32.12 31.80 32.14 33.05 34.41 35.86 35.29 33.03 27.27 25.79 25.14 25.78 24.74 24.55 25.53 27.07 29.88 28.29 26.72 27.73 27.91 27.92 28.09 26.66 26.45 26.17 27.36 29.12 28.54 25.89 24.85 25.13
36.26 36.61 37.10 37.19 36.26 35.59 34.24 33.31 33.80 33.31 32.36 31.58 31.83 30.86 31.61 31.85 34.52 33.95 29.79 25.69 25.64 24.94 25.74 25.62 26.87 26.21 31.44 33.68 28.94 25.22 25.82 25.89 30.51 32.75 32.95 33.38 33.64 33.51 31.73 27.03 22.63 21.57 20.05
36.26 36.30 36.66 36.48 35.74 34.61 34.18 33.49 32.89 31.78 30.22 30.63 29.27 29.04 31.09 26.37 33.72 32.78 29.89 26.13 24.08 24.71 24.96 25.96 30.37 29.70 32.69 33.52 29.33 26.24 23.40 23.34 24.55 24.82 24.67 25.21 27.02 25.60 30.30 25.89 22.46 19.83 19.85
36.31 35.59 34.85 34.74 33.44 32.50 31.25 30.82 29.81 29.03 28.45 26.68 24.63 24.01 24.44 24.38 24.87 32.22 32.41 26.36 25.63 25.32 24.81 25.01 25.88 31.38 32.82 33.03 32.44 25.09 24.96 27.82 24.70 22.36 22.76 23.04 23.79 24.06 24.58 24.85 24.77 21.80 21.08
34.07 33.28 32.11 31.46 31.52 30.48 29.01 28.34 26.84 24.19 22.15 21.31 21.37 21.30 22.53 22.33 30.69 31.10 32.48 31.79 30.95 25.56 24.95 25.07 25.09 31.43 31.71 30.87 28.43 29.80 30.58 28.93 22.72 21.95 21.63 21.57 21.87 21.62 22.29 23.16 24.10 23.76 24.04
30.48 29.44 29.26 29.32 28.65 26.88 24.01 22.16 21.77 21.98 21.40 21.24 22.78 20.71 20.89 23.01 22.18 28.75 29.85 30.63 30.34 27.09 25.85 28.08 31.47 30.44 28.78 25.76 27.71 28.63 27.90 21.48 21.44 20.38 20.62 20.69 20.96 21.70 22.20 22.18 22.83 23.40 23.05
28.17 26.73 25.11 24.56 23.77 23.22 23.84 23.24 21.75 21.28 20.80 21.59 21.50 20.18 19.06 20.65 21.48 23.03 25.13 24.36 28.29 27.75 28.48 25.04 26.94 25.96 25.83 25.31 23.63 23.21 22.25 21.78 21.67 21.21 20.43 21.31 22.17 21.30 20.84 21.86 20.95 21.48 21.23
24.53 24.00 23.68 23.37 21.75 21.47 22.38 21.77 22.76 21.07 21.82 20.94 20.76 21.22 19.45 19.47 23.23 27.90 27.62 26.36 25.35 27.81 26.27 21.53 19.59 19.21 18.73 19.60 20.30 20.76 20.87 20.88 20.14 20.22 20.08 20.63 20.69 20.62 20.25 20.97 20.54 20.49 19.62
23.47 23.26 22.28 21.59 21.08 21.53 21.11 21.51 29.78 29.37 29.85 29.16 28.82 25.25 24.26 27.40 29.22 29.45 29.88 30.26 29.89 29.65 21.25 18.10 16.81 17.14 17.38 17.98 18.30 18.53 19.05 19.79 18.91 19.36 19.36 19.01 18.68 18.39 18.55 20.34 21.46 19.81 18.58
22.17 22.47 23.44 23.06 20.75 19.95 20.16 19.74 18.73 21.85 27.99 28.18 28.11 28.17 28.48 28.39 28.54 28.77 29.09 28.74 26.54 25.03 18.51 16.30 15.66 16.16 16.77 17.14 17.08 16.70 16.35 17.64 17.67 18.73 18.18 17.83 18.14 18.52 20.16 18.20 18.84 19.47 18.87
23.22 27.71 21.18 20.43 19.46 19.14 19.80 19.18 18.63 18.36 17.08 17.38 23.44 25.94 27.00 27.33 27.86 27.68 26.91 23.85 18.81 19.97 18.26 16.99 15.07 16.39 16.57 16.22 16.18 16.00 16.58 17.11 17.63 17.75 18.39 19.11 18.31 17.85 17.62 17.87 18.67 18.58 18.73
21.66 20.80 19.87 19.21 19.52 20.22 19.47 18.86 18.32 17.73 16.69 16.40 17.73 21.44 23.71 26.52 26.55 24.99 24.36 18.00 16.85 16.81 17.34 15.92 16.32 16.03 15.93 15.98 16.01 15.25 15.14 16.16 19.21 18.69 16.14 17.42 18.13 18.15 17.64 18.42 18.76 23.04 24.24
22.16 25.79 22.41 19.46 19.41 18.78 18.51 18.25 17.59 16.45 16.08 15.81 16.38 16.64 18.47 20.52 17.89 17.20 17.72 17.21 16.75 16.80 17.22 16.06 16.56 16.43 15.76 15.12 14.55 15.00 15.60 16.40 16.35 16.63 17.12 18.75 19.23 19.36 18.75 18.78 19.62 20.40 21.06
20.79 22.09 24.42 19.06 18.37 18.25 17.91 17.44 16.90 15.95 15.54 15.56 15.79 18.92 25.26 17.95 16.09 15.79 15.86 16.27 16.46 16.82 15.78 16.68 16.70 16.08 15.18 14.23 15.12 15.64 16.27 15.94 16.40 17.13 18.51 19.46 19.70 19.88 21.44 21.48 21.92 22.02 23.05
19.23 19.12 19.15 18.03 17.98 18.10 17.90 17.26 16.43 16.33 16.21 15.70 15.97 18.27 23.00 16.65 15.81 15.69 16.38 16.77 17.24 17.65 17.40 17.89 16.92 16.24 16.59 16.54 16.82 16.36 16.03 16.02 17.03 18.87 19.56 20.32 21.20 22.12 22.20 22.48 24.52 26.34 26.31
17.83 17.87 18.38 17.81 17.79 19.71 16.56 16.22 15.80 15.85 15.96 16.08 16.05 16.91 17.23 16.11 16.09 16.06 16.49 16.61 16.57 16.18 16.52 17.34 17.40 16.99 18.10 19.02 19.29 18.76 17.60 17.24 18.57 20.21 19.57 20.59 22.43 23.63 25.23 26.70 26.24 26.83 27.03
17.36 17.40 17.29 16.75 16.93 15.93 15.21 15.31 15.30 17.83 17.69 16.73 15.79 16.41 15.67 15.88 15.98 16.15 15.78 13.44 14.69 12.89 15.50 16.67 17.58 17.76 18.47 18.72 19.22 20.60 21.35 20.96 21.77 22.15 23.09 26.30 29.69 29.79 28.52 27.81 27.91 28.13 27.88
16.16 15.73 16.32 14.99 15.01 14.54 14.55 14.69 14.84 15.23 15.78 16.41 16.28 16.51 15.70 15.54 14.92 13.32 12.65 13.16 12.92 13.77 14.76 16.04 16.13 15.51 16.84 17.95 18.71 20.11 22.13 27.26 29.98 30.74 31.68 32.37 30.89 29.54 28.96 28.65 28.95 29.35 28.55
15.51 14.80 14.41 14.87 14.05 14.03 14.01 14.15 14.62 15.03 14.61 13.53 13.99 12.27 13.36 13.64 14.01 13.30 13.02 12.86 13.20 14.25 13.70 15.10 15.66 14.26 14.53 17.36 20.02 23.31 28.37 30.04 30.73 33.54 34.00 33.10 30.88 29.87 29.77 29.95 28.78 28.22 28.32

GFSGL_sfc_wetblb_027.txt.gz
Wetbulb
49.04 52.37 52.31 49.86 49.76 48.78 48.38 46.98 45.81 45.84 45.24 43.77 43.08 42.69 41.33 39.90 39.09 37.80 37.42 35.70 34.81 34.11 33.69 32.29 32.49 30.66 29.77 29.37 28.77 28.58 26.74 25.27 22.84 23.94 24.66 25.90 25.57 26.71 28.54 28.78 29.83 28.60 29.62
50.00 53.86 50.34 47.31 46.86 46.81 47.33 45.78 44.67 44.12 43.90 43.11 42.74 41.61 40.37 39.21 38.49 36.91 36.17 35.23 34.13 33.45 33.04 32.91 32.48 32.55 29.24 29.56 28.81 26.49 25.81 24.96 23.88 21.92 23.51 24.90 25.15 26.42 26.73 26.17 29.23 31.33 30.25
47.85 46.43 46.03 45.24 45.66 45.66 44.70 44.52 44.66 42.94 43.31 42.49 41.49 39.68 37.93 37.17 36.31 35.92 35.51 34.24 33.78 33.09 32.45 31.54 31.04 29.66 28.57 27.81 26.76 25.73 25.20 27.38 24.43 23.86 24.20 25.17 25.41 25.58 25.67 26.51 26.53 27.80 29.57
44.69 44.29 43.76 44.25 44.68 44.87 44.88 44.03 43.05 42.42 41.44 40.12 38.09 36.88 36.10 35.53 34.99 34.44 33.93 32.84 32.52 32.41 32.14 31.57 31.07 30.66 28.50 27.46 26.30 25.36 25.90 24.76 24.54 24.33 24.43 23.17 23.93 25.82 25.42 24.84 24.71 26.23 26.08
41.92 41.30 40.89 43.05 43.44 43.94 41.89 41.04 40.80 39.89 37.94 36.48 35.99 35.73 35.32 35.39 35.42 34.03 33.65 32.65 31.57 30.98 31.09 30.77 30.20 30.44 33.80 32.41 29.37 26.85 26.14 25.46 24.69 21.72 23.50 21.60 23.36 25.08 24.40 25.26 23.70 24.79 25.26
37.90 37.56 39.91 39.96 39.34 38.40 36.94 36.45 36.63 36.15 36.23 36.27 35.71 34.93 34.57 36.12 37.87 36.82 33.88 31.39 30.75 29.95 29.03 28.43 27.68 30.30 30.35 33.98 34.73 35.17 32.51 25.10 20.46 19.50 17.44 22.96 24.23 24.03 24.37 24.04 23.71 22.84 22.24
36.46 37.37 37.56 36.97 36.00 35.80 36.18 36.32 35.88 35.02 34.88 33.70 33.79 34.43 35.06 36.38 38.13 36.68 34.38 30.58 28.96 28.18 28.19 27.30 27.50 29.07 29.02 26.78 30.72 33.39 32.83 34.40 34.06 28.81 25.05 24.27 23.94 25.19 25.18 24.06 24.66 24.26 24.62
35.99 36.03 36.45 36.34 35.96 36.25 35.95 35.42 34.30 33.95 33.04 32.70 32.41 32.54 32.51 34.51 36.37 35.48 32.35 28.97 27.62 26.43 26.82 24.85 24.66 25.46 26.66 28.92 27.83 26.34 27.05 27.33 27.54 27.53 25.96 26.43 26.54 27.47 27.75 28.10 27.07 24.55 24.96
36.12 36.78 37.52 37.37 36.35 35.74 34.12 33.31 33.64 33.02 32.80 32.72 32.90 32.61 32.76 33.34 35.89 35.36 30.40 27.00 26.12 25.71 26.12 25.49 26.32 25.78 30.72 33.32 28.55 24.21 25.80 26.03 30.18 32.69 32.90 33.28 33.61 33.40 31.80 26.85 22.13 21.01 19.65
34.74 35.56 36.37 36.54 35.23 34.05 34.37 33.93 33.93 33.56 32.22 32.99 31.65 31.28 33.14 30.11 34.72 34.11 30.47 26.38 23.89 24.89 24.94 25.89 29.76 29.06 32.27 33.32 27.97 25.18 22.62 22.88 24.16 24.32 24.36 24.62 26.60 25.03 29.97 25.41 20.56 18.29 20.00
35.55 35.69 35.25 35.43 34.59 34.30 33.73 33.13 32.03 30.76 29.58 27.51 25.63 24.74 24.44 26.16 24.92 32.44 32.73 26.13 25.67 25.47 25.18 25.20 26.00 30.91 32.52 33.14 32.26 23.82 24.42 26.96 25.37 21.45 21.92 22.20 23.12 23.30 23.69 24.07 24.14 19.03 20.54
33.95 32.73 32.42 32.82 33.68 31.55 29.44 28.21 27.04 25.43 23.95 22.42 21.50 21.54 21.77 21.29 31.26 31.63 31.95 31.12 30.11 25.83 25.29 25.37 24.93 31.37 32.04 31.05 28.29 29.05 29.94 28.75 21.88 21.18 20.93 20.87 21.18 20.98 21.59 22.29 23.18 22.81 23.33
30.40 29.28 28.91 28.59 27.71 25.40 24.66 22.70 22.48 21.89 21.23 21.23 22.57 20.34 20.82 22.89 22.06 28.28 29.54 30.37 29.97 27.28 26.18 28.58 31.53 30.28 28.63 25.56 27.13 28.22 27.51 20.61 20.67 19.60 19.89 20.13 20.41 20.65 21.04 21.07 21.76 22.52 22.26
27.02 24.37 23.76 23.24 22.41 21.89 23.47 22.99 21.26 20.53 20.11 21.29 21.08 19.69 18.57 20.51 21.37 23.23 25.40 24.27 28.25 27.84 28.15 24.15 26.15 25.57 25.35 24.67 22.91 22.41 21.41 20.97 21.02 20.56 19.68 20.61 21.42 20.43 20.15 21.01 19.68 20.34 20.12
23.05 22.80 22.15 22.02 20.55 20.48 21.79 21.10 21.91 19.94 21.53 20.86 20.62 21.04 19.66 19.47 23.58 28.12 27.73 26.44 25.22 27.75 25.46 20.65 18.76 18.25 17.86 18.49 19.23 19.76 19.87 20.02 19.24 19.21 18.80 19.36 19.77 19.70 19.48 20.07 19.52 19.41 18.71
22.62 22.51 21.86 20.95 20.91 21.55 21.59 21.84 30.63 30.06 30.32 29.70 28.48 24.88 24.47 27.37 29.17 29.45 29.62 29.77 29.32 28.82 20.91 17.28 16.01 16.32 16.46 16.95 17.29 17.56 18.10 18.89 17.80 17.82 17.70 17.61 17.48 17.47 17.82 19.60 20.49 18.33 17.53
21.88 22.17 23.04 22.60 20.22 19.51 19.65 19.23 18.16 21.64 28.45 28.28 28.35 28.35 28.29 28.03 28.22 28.48 28.54 27.86 25.82 24.35 17.64 15.45 14.88 15.40 15.92 16.20 16.24 15.54 15.26 16.47 15.74 16.21 16.38 15.88 16.66 17.53 19.64 17.19 17.67 18.09 18.11
22.88 27.16 20.60 19.78 18.85 18.83 19.22 18.43 18.09 17.83 16.44 16.72 22.86 25.46 26.65 27.21 27.83 27.45 26.50 23.22 17.78 19.03 17.29 16.05 14.26 15.63 15.84 15.52 15.34 15.05 15.69 15.86 15.87 15.88 15.95 17.79 17.58 16.47 16.68 17.25 17.92 18.07 18.11
21.19 20.40 19.31 18.76 18.94 19.89 18.86 18.22 17.58 16.91 15.90 15.72 17.02 20.78 23.18 26.17 26.13 24.67 23.83 16.90 15.82 15.81 16.38 15.08 15.53 15.57 15.45 15.65 15.46 14.61 13.98 14.29 17.15 18.16 15.92 16.31 18.04 17.85 17.53 18.15 18.64 23.07 23.94
22.19 26.07 22.60 19.51 18.89 18.17 17.95 17.53 16.72 15.73 15.36 15.03 15.53 15.72 17.57 19.79 17.12 16.27 16.68 16.18 15.78 15.86 16.45 15.20 16.06 16.05 15.56 14.97 14.55 14.60 14.24 14.85 15.04 15.56 16.25 18.29 19.42 20.30 20.14 20.62 20.43 20.36 20.77
21.06 21.82 24.41 18.64 17.80 17.61 17.30 16.75 16.15 15.11 14.67 14.70 14.96 18.01 24.93 17.57 15.47 15.09 15.11 15.40 15.58 16.00 14.98 15.80 15.81 15.85 15.35 14.59 14.71 14.44 14.99 14.73 15.12 15.55 17.57 19.12 19.96 20.37 22.15 22.59 22.15 22.23 22.44
19.41 18.96 18.56 17.41 17.37 17.55 17.11 16.51 15.69 15.55 15.42 14.92 15.22 17.35 22.64 16.12 15.35 15.33 15.94 16.20 16.48 16.75 16.07 16.22 15.25 15.04 16.32 16.26 16.26 15.72 15.50 15.22 15.88 17.30 18.48 18.67 19.33 21.34 23.20 23.51 23.19 24.66 26.87
17.37 17.17 17.79 17.17 17.17 19.42 16.01 15.55 15.09 15.06 15.23 15.38 15.25 16.14 16.55 15.65 15.71 15.68 16.09 16.08 15.91 15.37 15.09 15.56 14.70 14.62 15.31 16.22 18.49 18.25 17.61 18.15 19.14 19.85 18.55 18.97 21.07 22.25 24.44 26.72 28.19 27.51 27.23
16.75 16.86 16.78 16.21 16.34 15.38 14.63 14.73 14.58 17.12 16.98 15.97 15.14 15.72 15.01 15.26 15.27 15.50 15.19 12.52 13.67 10.76 13.80 14.36 14.95 14.10 14.69 15.22 17.51 19.77 20.67 21.15 21.76 21.93 21.78 22.73 26.88 29.98 31.16 29.49 28.62 28.05 27.98
15.77 15.41 15.87 14.68 14.72 14.13 14.04 14.05 14.13 14.48 15.17 15.73 15.63 15.84 15.10 14.88 14.19 12.48 11.87 12.45 11.61 12.21 13.22 14.14 14.31 13.39 12.60 12.75 15.52 18.19 20.77 25.50 28.22 29.36 29.94 30.47 31.28 31.52 30.63 29.55 29.11 28.91 27.22
14.93 14.38 14.04 14.42 13.68 13.60 13.49 13.62 14.14 14.55 14.20 12.95 13.36 11.81 12.56 12.86 13.20 12.60 12.44 11.93 11.64 12.97 12.72 13.97 14.06 12.77 12.62 13.38 16.04 20.82 26.88 29.04 29.18 31.28 31.98 31.99 31.49 31.34 30.91 30.27 29.82 28.19 27.49

GFSGL_sfc_wetblb_030.txt.gz
Wetbulb
47.28 47.34 48.51 51.78 55.00 51.17 49.65 48.80 47.29 46.31 46.04 45.02 44.70 44.02 42.96 42.16 41.00 39.36 37.43 36.69 35.70 35.41 34.85 34.51 33.51 33.22 32.35 30.55 30.13 28.76 27.92 26.82 23.86 24.47 24.82 25.26 25.06 26.12 28.09 28.05 29.35 27.81 28.43
46.29 47.52 49.16 52.81 48.46 49.00 49.18 46.08 45.53 44.00 43.58 44.11 43.22 42.48 41.02 40.26 39.02 37.55 36.64 36.42 35.66 34.73 34.12 33.93 33.23 33.51 31.74 31.33 30.42 27.41 26.31 25.07 24.56 22.18 23.23 24.10 24.74 26.12 26.18 25.79 28.89 30.82 29.16
45.10 45.62 47.41 49.20 47.86 47.22 46.73 45.50 45.40 44.48 43.97 43.74 43.33 41.31 39.73 38.91 37.68 36.96 36.40 36.08 35.65 35.45 34.73 33.70 32.71 32.04 30.41 29.76 29.41 27.68 25.98 27.73 24.06 23.57 23.26 24.69 24.88 25.24 25.03 25.39 25.67 26.39 29.07
44.26 44.76 44.73 46.32 46.64 46.20 45.08 44.19 43.53 43.30 42.29 41.42 40.03 38.91 38.19 37.64 37.06 36.53 35.36 34.24 33.81 33.36 33.06 32.38 31.84 31.51 30.82 30.08 28.99 27.14 26.37 24.96 24.12 23.84 23.81 23.07 23.81 25.42 24.82 24.76 24.14 25.26 25.59
41.49 41.60 41.96 43.83 44.77 43.43 42.28 41.48 40.80 39.48 38.17 37.67 37.26 36.96 37.10 36.85 36.80 35.61 35.08 34.35 33.46 32.00 31.72 31.24 31.06 31.80 33.12 32.27 30.17 27.93 26.83 25.31 24.89 21.26 22.91 22.07 22.18 24.13 24.31 25.24 23.72 24.51 24.94
36.83 37.41 38.83 38.45 38.84 39.17 38.31 37.73 37.35 37.03 37.21 37.31 37.15 37.25 36.92 37.34 38.86 37.77 34.26 31.95 31.40 30.49 29.77 28.92 28.91 30.60 31.29 33.41 34.16 34.77 31.51 25.14 21.15 19.18 17.48 22.48 23.58 23.99 22.57 23.49 23.37 22.54 22.72
35.92 35.85 36.50 35.99 35.64 36.27 36.75 36.69 36.50 35.97 36.14 36.12 36.91 36.47 36.61 37.45 38.68 37.26 34.96 31.16 30.15 29.09 28.70 28.24 28.76 29.61 29.30 26.74 30.09 33.20 32.77 34.28 33.82 27.35 24.73 23.79 23.51 23.99 23.26 22.06 24.08 24.67 23.97
36.35 36.27 36.59 36.51 36.18 36.37 35.88 34.92 34.51 34.69 34.57 34.12 33.88 34.40 34.66 36.90 38.02 37.22 34.91 29.90 28.91 28.68 28.59 26.92 26.41 26.56 27.65 28.43 27.72 27.04 27.42 27.21 27.60 27.81 26.02 26.03 25.60 26.25 26.84 27.76 26.29 24.55 24.62
35.78 37.02 37.18 36.95 35.68 34.90 33.73 33.29 33.07 32.60 32.73 32.57 33.32 32.87 32.30 32.79 36.85 34.49 30.65 28.44 27.72 26.97 27.15 26.48 26.89 26.23 30.03 32.58 28.67 24.28 25.81 25.86 29.82 32.30 32.43 32.76 32.89 32.83 31.37 26.06 21.29 19.95 19.50
34.70 34.65 35.56 35.12 34.24 32.60 32.46 32.11 32.81 32.73 31.95 32.33 32.06 32.30 35.49 32.67 35.86 34.57 29.94 27.37 24.92 25.07 25.02 26.38 29.48 28.43 31.78 32.78 28.47 25.97 22.41 22.59 23.81 23.91 23.54 24.06 25.61 24.15 29.62 24.78 18.57 16.50 19.20
36.17 35.48 35.26 35.20 34.11 33.16 32.42 33.02 32.13 31.18 30.36 29.60 28.43 26.86 27.25 26.94 28.47 33.56 33.77 26.05 25.36 24.99 24.87 24.84 25.85 30.21 32.12 32.75 32.38 23.64 24.10 26.62 24.45 20.75 20.98 21.45 22.41 22.42 22.93 23.34 23.58 16.49 19.71
34.03 33.06 32.73 33.20 34.35 32.70 30.60 29.31 28.01 26.30 24.73 22.91 22.17 21.81 22.20 22.33 31.71 32.62 32.09 30.81 30.02 26.01 25.35 25.44 25.02 30.95 31.41 30.63 27.80 28.94 29.58 27.51 20.99 20.39 20.19 20.11 20.51 20.23 20.90 21.67 22.66 22.08 22.37
29.77 28.49 28.17 26.83 25.23 24.34 22.81 21.59 21.78 21.37 21.12 21.22 22.36 19.80 19.94 22.35 21.50 29.54 29.89 30.31 29.77 27.00 26.12 28.51 30.53 29.25 27.57 24.33 26.38 27.39 26.17 19.55 19.86 18.88 19.22 19.31 18.63 19.32 19.89 20.22 20.79 21.61 21.15
25.74 22.57 22.17 21.84 20.86 20.78 23.02 22.43 20.88 20.25 20.15 21.33 20.96 19.10 18.19 20.20 20.87 22.87 25.08 23.84 27.99 27.52 27.88 23.31 25.52 24.65 24.33 23.61 21.86 21.36 20.34 20.04 20.44 19.93 18.83 19.79 20.48 16.99 19.39 20.35 18.83 19.56 18.89
22.19 22.02 21.33 21.12 19.90 20.23 21.44 20.53 21.59 18.81 20.85 20.15 19.66 20.30 19.05 18.96 23.33 27.41 27.10 26.22 24.84 27.33 24.05 19.76 17.89 17.36 16.79 17.50 18.12 18.69 18.83 19.14 18.36 18.32 17.74 17.90 18.66 18.89 18.78 19.41 18.76 18.55 17.68
21.98 22.11 21.34 21.07 20.98 21.99 21.87 22.12 31.36 30.59 30.73 29.58 27.84 24.45 24.39 27.33 29.06 29.09 29.23 29.01 28.47 27.84 19.85 16.30 15.04 15.26 15.46 16.02 16.50 16.86 17.28 18.02 16.98 16.77 16.27 15.73 16.07 16.35 16.74 18.69 20.27 18.37 16.86
21.30 21.86 22.52 22.40 20.08 19.23 19.45 18.90 17.92 21.88 28.44 28.64 28.61 28.36 28.28 27.93 28.17 28.33 28.03 27.31 25.74 23.49 16.69 14.49 13.88 14.42 15.06 15.45 15.27 14.16 14.26 15.53 12.64 13.94 13.85 14.24 15.81 15.54 18.82 17.44 18.02 18.42 18.09
22.46 26.64 20.33 19.32 18.43 18.10 18.37 17.69 17.46 17.11 15.91 16.16 22.59 25.40 26.67 27.24 27.77 27.26 26.44 22.43 16.95 18.27 16.45 15.23 13.40 14.64 15.11 14.96 14.89 14.65 14.99 14.91 14.57 14.21 13.42 14.51 17.39 16.96 15.67 17.88 19.88 19.58 18.12
21.08 20.22 19.08 18.37 18.32 19.38 18.25 17.62 16.89 16.28 15.24 15.01 16.28 20.23 22.76 26.08 26.01 24.72 23.60 15.98 14.98 15.01 15.64 14.23 14.74 14.49 15.02 15.76 15.69 14.12 12.55 13.02 15.57 16.66 15.01 15.64 17.31 18.01 18.24 20.31 21.38 25.18 25.50
21.65 25.25 22.34 19.04 18.32 17.61 17.48 16.97 16.08 15.03 14.64 14.32 14.87 15.03 16.89 19.41 16.93 15.76 16.05 15.50 15.04 15.12 15.71 14.49 15.20 14.62 14.61 14.83 14.45 13.83 13.43 13.83 13.83 13.58 14.44 16.75 18.27 18.84 19.58 20.69 21.91 22.35 22.11
20.93 21.45 24.18 18.33 17.42 17.13 16.82 16.18 15.53 14.50 14.04 14.13 14.37 17.30 24.59 17.38 15.16 14.69 14.73 14.99 15.07 15.32 14.25 14.72 13.96 13.33 11.75 11.53 14.11 13.76 14.14 13.99 14.85 14.52 15.00 16.08 17.46 17.52 20.10 21.60 22.74 23.76 24.01
19.71 18.88 18.26 17.14 16.93 17.18 16.64 15.92 15.14 14.95 14.79 14.32 14.66 16.64 22.45 15.76 15.08 14.94 15.61 15.90 16.07 16.25 15.36 15.32 13.60 12.22 11.96 11.42 13.91 14.76 14.79 14.42 17.22 18.82 16.51 16.98 17.92 19.36 21.38 22.33 23.49 24.10 25.55
17.37 17.10 17.56 16.76 16.77 19.30 15.60 15.04 14.55 14.43 14.61 14.83 14.76 15.61 16.00 15.18 15.33 15.13 15.63 15.73 15.55 15.05 14.43 14.58 13.25 12.58 12.14 11.90 12.42 15.97 16.17 17.26 19.08 20.23 19.01 18.85 19.34 20.58 21.50 22.99 27.85 28.52 27.47
16.84 16.82 16.61 15.89 16.06 15.16 14.24 14.31 14.17 16.67 16.57 15.61 14.69 15.09 14.35 14.67 14.81 14.97 14.79 12.28 13.22 11.03 12.75 13.21 13.61 12.13 12.90 12.72 13.71 15.81 18.52 20.02 21.04 21.00 20.48 20.26 22.28 26.65 28.29 29.71 29.57 28.70 27.94
16.08 15.45 15.70 14.62 14.61 13.99 13.77 13.72 13.69 13.79 14.74 15.37 15.28 15.30 14.65 14.49 13.77 12.35 11.34 11.84 11.67 11.93 12.50 13.20 13.18 12.15 11.13 10.73 11.65 14.06 18.01 23.26 25.30 27.69 28.52 27.93 27.99 29.15 30.21 30.29 30.34 29.68 28.69
15.19 14.52 13.98 14.19 13.49 13.34 13.23 13.23 13.77 14.13 14.00 12.79 12.85 11.37 12.40 12.53 12.95 12.26 12.10 12.03 11.71 12.77 12.35 13.46 13.45 11.78 11.53 12.30 13.60 17.23 24.66 27.79 28.49 30.23 29.90 30.24 29.70 30.11 30.40 30.20 30.75 29.75 28.68

GFSGL_sfc_wetblb_033.txt.gz
Wetbulb
48.23 48.66 49.89 51.89 53.46 55.06 53.75 54.40 54.75 53.54 51.91 50.86 50.19 48.84 47.98 46.61 46.18 45.46 43.89 41.09 37.99 37.57 36.75 35.65 35.02 34.52 34.54 33.79 33.50 32.22 32.17 32.40 31.47 32.98 32.93 33.46 32.97 34.09 34.88 35.84 35.54 35.34 35.34
46.81 47.90 49.03 51.59 52.47 51.02 51.76 51.12 49.79 48.89 47.80 47.75 46.66 46.01 45.41 44.54 43.82 42.41 40.25 38.92 37.32 35.74 36.03 35.45 34.47 35.38 33.91 33.55 32.95 31.66 31.32 30.60 30.33 30.34 31.29 31.94 31.57 33.37 33.66 33.10 33.72 34.42 34.39
45.40 47.14 48.26 49.09 49.93 49.38 48.94 47.35 47.35 46.51 45.90 45.51 44.93 43.27 42.67 41.27 40.12 39.26 37.79 37.67 37.18 36.53 35.87 35.27 34.07 33.72 32.55 32.13 31.56 31.30 30.47 30.67 29.51 29.61 30.10 30.82 31.68 32.50 32.60 32.96 32.58 33.04 32.64
43.18 45.32 46.12 47.23 48.21 47.91 46.86 45.13 45.15 45.31 44.98 44.87 43.58 41.03 39.68 38.77 38.16 37.84 37.68 36.93 35.52 35.07 34.57 34.07 33.59 33.27 32.74 32.13 31.68 31.24 30.94 29.54 29.74 29.16 29.42 30.49 30.90 32.33 31.58 30.15 29.55 31.64 30.89
39.59 40.24 40.95 43.40 43.88 42.97 41.72 41.22 41.31 41.32 40.23 39.94 39.07 38.31 38.10 37.78 37.67 36.52 36.22 35.32 33.95 33.58 33.26 32.91 32.27 32.38 33.34 32.87 32.08 30.88 30.54 29.87 29.85 30.55 29.72 29.58 29.60 29.96 29.39 30.32 28.33 29.25 30.21
37.57 37.02 37.99 38.66 39.18 38.71 38.58 38.46 38.30 38.17 38.17 38.29 37.59 37.88 37.96 38.91 40.38 39.13 35.44 32.93 32.14 31.32 30.43 30.92 31.38 32.92 33.28 34.81 35.32 35.19 33.59 31.31 30.72 29.54 29.81 28.41 29.23 29.39 29.65 28.40 27.94 26.86 24.70
36.86 36.95 37.36 37.46 37.04 37.26 37.47 37.13 36.68 36.77 37.57 37.43 37.85 38.30 37.65 38.04 39.61 38.61 36.47 32.84 31.81 31.29 30.92 30.27 30.28 31.72 31.51 30.06 30.83 32.37 33.05 34.00 34.28 32.51 29.49 29.07 28.38 29.62 29.71 27.79 28.33 27.78 25.98
37.10 37.07 37.22 36.79 36.22 36.17 35.81 35.57 35.84 35.91 35.47 35.38 35.66 35.93 36.18 37.87 39.31 38.18 35.78 31.51 30.67 30.46 29.95 29.54 29.85 29.77 29.95 30.51 31.16 31.09 31.32 31.04 31.01 30.75 31.16 30.93 31.13 31.29 30.56 30.10 29.40 28.85 28.86
35.16 35.69 35.99 35.71 34.75 34.43 33.73 33.80 34.26 33.57 33.20 32.54 32.84 32.62 32.77 33.56 37.14 35.94 31.70 29.83 28.99 28.48 29.10 29.34 29.23 29.22 30.08 31.77 31.46 30.11 29.56 29.68 30.70 31.90 32.07 32.54 32.84 32.73 32.11 29.60 27.13 25.45 23.36
35.03 35.49 35.45 35.04 34.10 32.56 32.65 32.30 33.16 33.12 32.21 33.09 32.05 32.01 35.15 33.13 34.48 33.20 30.18 29.07 27.92 28.10 28.71 28.82 29.75 30.37 31.17 32.34 31.68 29.94 26.52 27.04 27.94 28.24 28.27 28.15 28.42 27.70 29.47 28.39 26.87 23.41 22.69
35.58 35.27 35.11 35.12 33.84 32.89 32.24 32.34 32.00 31.62 31.29 30.03 29.81 30.07 30.40 31.50 33.72 35.07 32.19 28.85 28.38 27.93 27.82 27.72 28.75 30.15 31.78 32.63 31.92 27.29 27.00 29.49 27.02 25.58 25.56 25.77 26.34 26.59 27.08 27.17 26.74 25.31 22.51
34.35 33.83 33.76 33.75 34.56 33.46 31.67 30.40 29.03 28.12 26.39 25.32 25.14 25.22 26.02 27.63 33.52 33.54 32.64 31.32 30.86 28.51 27.67 28.64 28.87 30.85 30.79 29.72 28.41 28.40 29.17 28.27 25.00 23.82 23.62 24.08 24.67 24.86 25.67 25.93 25.88 25.83 26.13
29.50 27.53 26.83 26.46 26.32 26.35 25.88 25.44 25.56 25.52 25.05 24.80 24.79 23.57 23.82 25.05 26.30 30.78 30.99 30.71 29.92 29.08 29.06 29.69 29.53 28.16 27.06 25.04 25.74 26.80 26.01 23.42 22.80 22.17 22.53 23.57 24.27 24.46 24.26 24.59 25.44 25.71 25.11
25.53 25.07 25.30 25.07 24.41 24.84 25.94 25.73 24.94 24.24 24.03 24.12 23.50 22.30 22.47 23.63 24.78 26.41 27.68 27.77 28.65 28.83 28.67 26.95 26.24 24.81 23.70 23.76 22.84 22.83 22.95 23.03 23.18 23.00 22.11 22.83 23.40 23.45 23.54 24.68 23.31 24.16 23.11
24.62 24.51 24.24 23.83 23.60 23.91 24.38 24.57 24.70 23.48 24.80 23.57 22.95 23.33 22.86 23.32 26.21 29.04 28.71 28.48 28.29 28.43 25.46 23.13 21.63 20.79 20.40 20.48 20.99 21.54 22.08 22.14 21.76 21.74 20.69 20.56 20.97 22.00 22.53 23.71 22.84 22.99 21.80
24.31 24.38 24.69 24.57 25.01 25.54 26.08 26.23 31.67 31.19 30.84 29.70 28.29 26.48 26.30 27.96 29.05 28.80 28.93 28.61 27.77 27.28 22.42 19.83 19.24 19.17 18.74 18.98 19.23 19.87 20.49 20.74 20.59 20.12 19.94 19.55 19.22 19.85 20.55 22.40 24.05 23.17 22.24
24.04 24.06 25.55 24.32 23.71 23.69 23.32 23.29 22.89 24.60 28.75 28.87 28.54 28.10 28.13 27.82 28.20 28.25 27.75 26.98 25.27 23.29 19.69 18.89 18.18 18.32 18.58 19.07 19.25 19.16 18.80 19.75 18.75 18.71 18.35 18.14 18.63 19.08 20.59 21.11 21.87 22.36 23.46
24.55 26.76 23.26 22.47 22.09 21.71 21.59 21.04 20.97 20.52 19.64 20.07 22.98 25.94 26.67 27.21 27.54 26.73 26.08 22.19 19.58 19.88 18.70 18.12 18.15 18.56 18.91 18.99 19.08 18.84 19.02 18.87 18.60 18.27 18.26 18.18 18.14 20.01 20.33 20.64 21.60 22.56 23.54
23.69 22.67 21.97 21.65 21.31 21.81 20.98 20.26 19.88 19.24 18.76 18.58 19.55 21.58 23.33 25.74 25.80 24.42 22.92 18.78 17.36 17.33 17.89 18.24 18.58 18.65 18.74 18.93 18.96 18.42 17.66 17.19 18.63 19.83 18.97 17.87 18.90 19.74 19.94 21.00 22.48 24.86 25.92
23.74 25.24 23.18 21.81 21.24 20.21 20.14 19.75 19.00 18.25 17.86 17.76 18.00 18.15 19.63 21.43 19.86 18.86 18.63 18.00 17.64 17.63 17.91 18.04 18.45 18.68 18.48 18.04 17.81 17.66 17.76 18.13 18.34 18.13 18.24 18.48 18.91 19.85 19.96 20.56 21.73 22.19 23.31
23.53 24.54 24.06 20.56 20.08 19.79 19.52 19.01 18.32 17.59 17.37 17.42 17.48 18.94 24.32 20.43 18.13 17.47 17.40 17.68 17.78 17.82 18.03 17.97 18.22 17.94 17.61 16.79 16.23 16.60 17.07 17.81 17.97 17.97 19.28 19.12 18.91 18.77 20.70 21.38 22.35 23.10 24.22
21.94 20.96 20.19 19.47 19.26 19.26 18.94 18.44 17.90 17.56 17.39 16.88 17.38 18.16 22.19 18.71 17.56 17.36 17.61 17.96 18.49 18.64 18.87 18.32 17.81 17.55 17.23 16.41 16.21 16.00 16.18 16.82 17.90 19.13 20.39 20.76 20.51 20.85 21.62 22.05 23.21 24.08 25.09
20.19 19.31 19.13 18.67 18.82 20.69 18.22 17.63 17.29 17.01 16.94 17.11 17.19 17.37 17.68 17.34 17.41 17.09 17.21 17.72 17.83 18.06 17.97 17.38 16.89 16.27 17.19 16.17 16.42 15.88 15.55 16.92 19.29 20.87 20.11 20.41 20.85 21.73 22.44 22.67 23.98 25.76 28.57
19.59 19.20 18.55 17.99 17.87 17.45 17.04 16.79 16.82 17.73 18.30 17.40 16.89 16.91 16.51 16.62 16.79 16.80 16.88 17.03 16.54 16.56 16.47 16.21 16.30 15.89 16.11 16.07 16.91 16.95 16.90 18.21 20.00 20.48 20.59 20.25 21.14 22.42 24.57 26.51 27.57 28.90 29.53
19.11 18.20 17.91 17.28 16.92 16.68 16.37 16.07 15.93 15.92 16.22 16.60 16.59 16.37 16.23 16.24 15.86 15.88 15.80 15.73 15.39 15.38 15.55 15.87 16.16 15.77 14.70 13.92 14.29 15.06 17.14 21.54 23.10 24.56 26.24 27.05 27.10 26.96 26.85 27.89 28.99 29.87 29.93
17.73 17.13 16.87 16.35 15.68 15.67 15.53 15.42 15.51 15.80 15.62 15.84 15.33 14.77 14.89 14.90 15.19 15.45 15.25 15.03 14.83 15.25 15.26 16.16 16.15 14.98 14.62 15.26 15.99 17.63 23.55 26.75 27.75 29.43 29.09 28.66 28.19 29.06 29.31 29.47 29.81 29.90 30.24

GFSGL_sfc_wetblb_036.txt.gz
Wetbulb
51.33 51.99 53.01 54.30 55.69 55.48 55.07 54.52 54.66 56.14 57.10 57.30 57.22 56.89 56.41 53.77 52.16 51.08 50.24 48.53 46.99 43.44 41.35 39.24 36.82 37.30 35.76 35.57 35.14 34.40 33.61 34.25 32.46 31.84 32.91 33.27 33.28 33.97 36.55 37.91 38.49 37.86 38.03
49.23 50.69 52.15 53.65 54.54 54.24 52.91 53.17 53.79 53.85 54.03 53.17 52.42 52.29 52.23 51.04 49.84 48.53 47.27 45.79 43.19 41.39 40.78 39.21 37.88 36.56 35.06 34.99 34.96 33.69 33.16 32.41 31.91 30.32 31.54 31.68 31.83 33.81 34.64 34.84 35.69 36.50 36.75
47.75 49.48 50.74 51.88 53.00 53.35 52.10 51.81 51.59 50.36 49.45 48.50 48.44 48.28 48.16 48.17 47.06 46.09 43.81 42.63 39.18 38.65 37.08 37.47 36.19 35.07 33.69 33.72 32.92 32.45 32.03 32.80 31.51 30.93 31.54 32.65 32.37 33.19 32.52 34.31 35.45 35.94 35.99
45.36 46.45 46.79 48.32 49.78 49.87 49.39 48.52 48.55 48.12 47.35 46.48 46.15 45.22 43.97 43.78 42.34 39.89 39.45 38.55 37.71 37.48 36.71 36.56 36.83 34.67 33.47 33.09 33.08 32.40 32.67 32.77 32.33 31.20 31.18 31.81 32.47 33.18 33.20 31.89 32.15 34.72 33.62
42.11 42.29 43.42 45.09 45.63 45.38 44.68 44.50 43.76 43.04 42.71 41.77 40.48 39.57 39.50 39.18 38.64 38.02 37.50 36.47 36.10 35.59 34.82 34.31 34.14 34.96 36.23 34.56 34.15 32.60 32.46 31.36 31.82 31.97 31.11 31.38 31.01 31.22 31.52 33.33 30.99 31.79 32.66
40.85 39.54 41.16 42.36 42.43 41.13 41.96 41.49 41.31 41.10 41.07 39.42 38.90 38.88 39.04 39.08 40.09 39.44 37.27 36.01 34.76 33.78 31.97 32.26 32.89 34.14 34.84 36.08 36.63 35.76 34.28 33.37 32.38 31.22 31.06 30.11 31.16 32.21 32.65 31.43 30.26 28.83 26.84
39.47 38.51 39.28 39.78 39.13 38.28 38.46 38.38 37.99 38.10 38.54 38.48 38.66 39.02 38.88 39.64 41.02 39.60 37.45 34.31 32.87 32.10 31.78 31.50 32.42 33.61 32.78 31.75 32.79 33.73 34.55 35.77 36.04 33.90 31.24 31.48 31.32 32.10 31.89 29.92 29.48 28.78 27.97
37.74 37.63 38.17 38.34 36.80 36.49 36.25 35.83 35.24 35.42 35.73 35.90 35.65 37.29 37.68 38.78 39.81 38.54 36.23 32.24 31.67 31.56 31.73 32.08 31.67 31.12 31.68 31.22 31.37 31.57 32.03 32.72 33.51 33.43 33.07 33.00 33.10 33.20 32.54 32.12 31.02 30.31 31.34
36.05 36.36 36.86 36.51 35.52 35.12 34.38 34.08 34.46 33.52 33.11 32.71 33.37 33.41 32.69 33.39 37.07 36.09 32.59 31.19 29.85 29.73 31.36 31.77 31.37 30.85 30.73 32.09 32.10 31.75 31.59 32.33 33.74 32.80 32.75 32.74 33.11 33.41 33.15 31.37 28.61 28.19 26.71
35.31 35.50 35.76 35.95 34.77 33.32 33.33 32.65 33.67 33.45 32.52 33.42 32.23 32.18 34.70 32.58 33.71 33.30 32.09 31.31 30.15 30.35 30.89 31.08 30.23 30.94 30.95 32.15 32.67 31.92 29.83 30.23 30.77 30.53 31.20 31.35 31.38 30.83 30.71 30.47 29.95 26.44 25.61
36.48 36.19 35.94 35.68 34.86 34.10 33.36 34.11 33.83 33.38 32.70 32.09 31.96 31.99 33.13 34.51 34.23 33.49 32.13 31.60 31.01 30.44 29.79 29.75 30.74 30.32 31.64 32.62 32.01 31.17 29.36 30.62 30.22 29.06 29.05 29.01 29.56 30.07 30.54 30.96 30.43 28.61 25.21
35.83 35.23 35.07 35.71 35.96 35.33 34.36 33.54 33.25 32.80 31.36 30.15 29.80 30.01 31.58 34.08 34.33 33.51 32.90 32.09 31.05 29.86 29.37 30.62 31.10 30.82 30.89 30.04 29.48 29.04 29.46 29.61 28.83 27.07 26.57 27.24 28.26 29.17 30.14 30.17 29.79 29.63 29.56
34.12 32.53 33.25 32.87 32.38 32.83 32.41 31.73 31.35 31.53 30.75 29.74 28.97 28.59 28.25 28.67 30.77 31.24 31.46 30.91 30.62 30.78 30.83 30.68 29.61 28.37 27.64 27.18 26.49 27.27 27.19 26.77 25.90 25.29 26.03 27.49 28.90 29.21 28.72 28.31 29.85 29.57 29.04
32.08 31.49 31.78 31.52 31.14 31.54 31.41 31.56 31.33 30.89 30.06 29.01 28.16 27.39 27.52 27.76 29.08 30.38 30.45 31.00 29.88 30.18 29.73 30.24 27.49 25.72 24.46 25.12 25.01 25.62 25.95 26.29 26.01 26.30 26.43 27.04 27.59 27.32 27.20 28.76 27.54 28.09 27.38
31.58 31.03 30.64 30.53 30.43 30.10 30.12 30.49 29.70 29.55 29.68 28.65 27.79 28.05 27.76 27.68 29.07 30.40 30.11 30.06 30.62 29.63 28.75 27.07 25.31 24.69 24.38 24.56 24.85 25.26 25.96 26.08 25.34 26.23 25.23 24.89 24.87 25.57 26.19 27.99 27.08 26.33 24.88
30.55 30.33 30.60 30.49 30.88 31.28 31.32 31.16 31.96 31.52 30.68 29.69 28.37 28.83 28.75 28.83 29.23 29.02 29.01 28.75 27.95 27.62 25.80 23.82 23.55 23.66 22.98 23.16 23.26 24.13 25.09 24.85 25.31 24.95 24.52 24.30 23.66 23.79 24.29 25.88 26.65 26.08 25.40
30.55 30.32 29.98 29.50 30.16 30.00 29.48 29.34 28.03 28.53 29.16 29.00 28.36 28.06 28.16 28.03 28.51 28.43 28.03 27.37 25.78 25.01 23.17 23.11 22.30 22.50 22.81 23.30 23.91 24.02 23.75 24.82 24.08 23.30 23.56 23.15 22.84 22.66 23.20 23.86 25.22 25.61 25.95
30.12 29.22 29.78 29.33 29.24 28.52 27.72 26.98 26.97 25.97 25.22 25.62 25.00 26.42 26.57 27.14 27.62 26.92 26.39 24.48 23.35 23.22 22.12 21.64 22.26 22.76 23.12 23.53 23.99 23.91 24.04 24.18 24.16 23.78 23.37 23.21 22.71 22.17 22.23 23.14 24.46 24.29 25.20
29.70 29.36 29.36 28.79 27.98 27.51 26.59 25.68 25.48 24.60 24.48 24.38 24.59 24.70 24.84 25.34 26.21 25.10 23.77 22.55 21.27 21.21 21.66 21.73 22.67 22.83 23.35 23.86 23.93 23.88 23.29 22.75 23.15 22.75 23.05 22.56 22.88 22.67 22.21 23.04 23.93 25.26 25.82
28.81 27.73 27.78 27.68 26.95 25.42 24.91 24.63 24.56 24.19 23.70 23.66 23.29 23.14 23.76 24.32 23.73 23.38 23.01 21.95 21.38 21.47 21.61 21.77 22.40 22.83 23.10 23.35 23.44 23.12 22.65 22.82 23.08 23.31 23.26 23.54 23.71 23.56 22.53 22.67 23.11 23.31 23.22
28.36 27.99 27.15 25.86 25.35 24.87 24.88 24.68 24.16 23.52 23.13 22.93 22.74 22.95 23.95 24.01 22.36 21.81 21.38 21.47 21.36 21.48 21.94 22.11 22.34 22.65 22.86 22.73 22.45 22.03 21.66 22.06 22.36 23.01 23.16 23.39 24.13 22.88 23.65 23.68 23.07 23.17 23.27
28.02 27.26 25.56 24.81 24.70 23.98 23.95 23.75 23.45 22.78 22.50 21.94 22.40 22.43 22.44 22.54 21.72 21.29 21.25 21.49 22.06 22.26 22.69 22.36 22.26 22.58 22.65 22.11 21.80 21.39 20.70 20.52 21.47 22.25 23.16 23.27 23.81 24.12 24.33 24.35 24.25 23.92 24.38
26.61 25.10 23.91 23.83 24.23 24.17 23.46 22.79 22.77 22.41 22.10 21.95 21.80 21.34 21.43 21.18 21.31 20.83 20.73 21.38 21.73 21.97 22.54 22.15 21.71 21.37 22.36 22.27 22.19 21.32 20.25 20.51 21.80 22.41 22.06 22.22 22.66 23.49 24.12 23.64 24.06 24.24 25.14
25.43 24.53 23.63 23.59 23.03 22.62 22.39 22.19 22.38 20.90 21.41 21.47 21.29 20.99 20.79 20.77 20.85 20.91 21.12 21.93 21.82 22.05 22.16 21.77 21.37 21.01 20.62 20.70 21.69 22.18 22.53 21.93 21.85 21.81 21.47 21.11 21.06 22.37 23.51 23.81 25.49 26.99 27.09
24.52 23.95 23.21 22.98 22.42 22.56 21.78 21.91 21.51 21.29 21.05 20.55 20.35 20.19 20.71 20.74 20.55 21.25 21.66 21.59 21.12 20.88 20.81 21.02 21.13 21.05 20.28 19.72 19.24 19.21 20.28 22.47 23.35 23.90 24.59 24.89 25.15 26.14 27.16 27.55 27.45 27.79 28.67
23.42 23.24 23.03 22.01 21.71 21.56 21.49 21.36 20.96 20.78 20.35 21.08 20.76 21.12 20.82 20.54 20.75 21.17 21.38 21.07 20.56 20.83 20.65 21.09 21.46 20.89 20.14 20.19 20.38 21.14 24.08 26.23 27.16 29.19 29.16 28.50 27.75 28.01 28.75 29.19 29.35 29.44 29.67

GFSGL_sfc_wetblb_039.txt.gz
Wetbulb
50.69 51.65 52.62 53.74 54.78 55.72 55.39 55.27 54.57 54.75 55.42 56.17 56.43 56.62 56.86 57.20 56.05 54.37 53.76 53.04 52.71 51.10 47.61 45.49 41.23 40.17 38.76 38.29 36.96 36.76 35.50 36.20 33.61 32.13 33.50 33.82 34.06 34.77 35.71 36.40 36.88 36.29 36.69
49.13 50.36 51.66 53.05 53.95 54.44 53.94 53.22 53.14 52.96 53.17 52.55 52.44 52.49 52.68 52.90 52.43 51.47 50.04 48.35 48.43 44.61 43.50 41.40 39.09 39.30 36.18 36.76 36.53 34.37 34.13 34.37 34.23 31.90 32.73 32.53 32.67 32.87 33.36 33.77 35.12 36.26 35.72
47.32 48.20 49.50 50.41 51.43 51.60 51.18 51.53 52.00 51.74 51.13 50.38 49.73 48.52 48.34 48.10 48.08 47.94 46.18 45.09 44.09 42.46 41.17 39.44 36.75 36.36 35.46 34.80 34.49 33.57 33.48 34.03 33.14 32.93 32.02 32.77 32.92 34.06 33.61 34.36 34.28 34.95 36.24
44.97 45.37 46.05 47.10 47.60 47.68 47.65 47.79 47.51 48.07 47.76 46.49 45.39 43.37 43.79 42.08 41.20 41.13 40.19 39.48 38.44 38.14 38.06 37.50 37.16 36.44 35.12 34.12 33.90 33.05 32.73 32.12 32.01 31.65 31.98 32.49 32.89 34.24 33.70 31.80 31.50 34.00 33.20
43.36 43.04 43.62 45.10 45.05 45.06 44.96 44.60 44.36 44.23 43.57 43.61 42.00 41.11 40.44 39.78 39.77 38.82 38.04 37.16 36.29 35.71 35.99 35.88 35.60 36.24 37.03 35.95 34.11 32.86 32.83 32.43 32.36 31.95 31.75 31.72 31.66 31.57 30.78 32.42 30.90 31.20 31.64
41.61 41.26 42.22 42.79 42.26 41.60 41.81 41.76 41.47 41.11 41.36 41.45 40.72 40.15 39.71 39.74 40.44 39.84 38.03 36.75 35.89 34.33 33.33 33.62 34.90 36.12 37.09 37.71 37.13 36.53 35.41 33.27 32.84 32.75 31.89 29.68 30.44 31.20 31.82 30.64 29.97 28.37 25.87
39.43 39.49 40.08 40.15 39.19 38.92 39.03 38.17 38.14 38.58 38.88 38.65 39.34 39.66 39.38 39.79 40.96 39.87 37.96 34.61 33.77 32.47 32.31 32.13 32.37 34.36 33.62 32.98 34.83 35.09 36.18 36.38 35.55 33.41 31.23 30.91 30.28 31.27 30.92 29.39 28.57 28.06 27.12
38.22 38.74 38.97 38.62 37.87 37.54 36.96 36.24 35.95 35.69 35.29 35.02 34.35 34.69 35.91 38.15 39.39 38.23 36.30 32.05 31.62 31.45 32.00 31.95 31.84 31.55 31.68 31.24 31.14 31.71 32.13 32.43 32.80 33.31 32.15 31.74 31.77 32.22 31.39 30.85 29.91 29.54 30.09
35.99 36.02 37.18 36.98 35.99 35.54 34.90 34.80 34.88 33.78 33.18 32.75 33.33 32.89 32.47 33.69 37.13 36.56 33.43 31.74 30.87 30.89 31.49 31.64 31.33 30.94 31.89 32.26 31.62 31.84 30.73 30.92 34.53 33.72 33.48 33.61 33.59 33.83 33.48 30.37 27.49 25.95 25.09
35.77 36.06 36.43 35.23 35.20 33.86 33.93 33.23 34.47 34.08 32.94 33.55 31.47 32.18 34.00 32.40 34.77 34.11 32.71 31.51 30.09 30.27 31.04 31.22 30.76 31.01 31.31 32.09 31.61 31.34 29.45 29.36 29.68 29.19 29.05 30.40 31.45 30.54 32.48 29.35 27.59 24.50 26.06
36.83 36.89 36.63 36.33 35.77 35.17 34.30 34.00 33.71 33.25 32.47 32.23 32.19 32.38 33.65 34.44 33.61 33.74 33.04 31.41 30.63 29.93 29.26 28.89 29.98 30.84 32.00 32.52 32.14 30.04 28.91 29.90 28.87 27.49 27.21 27.06 27.19 27.84 28.39 28.91 28.86 26.80 26.09
37.05 36.75 36.63 36.91 36.89 36.56 35.12 34.49 34.59 34.05 32.03 31.12 30.95 30.98 32.63 33.23 34.24 33.41 33.48 32.67 31.68 29.19 28.70 29.47 30.23 31.12 30.78 30.41 29.62 30.17 29.81 29.43 27.04 26.06 24.81 24.80 26.03 27.64 28.98 30.16 30.18 29.90 29.83
36.16 36.05 35.51 34.74 34.58 34.61 33.56 32.87 32.22 32.60 31.53 30.16 29.36 29.15 28.44 29.20 30.38 31.49 31.69 31.39 31.34 30.06 30.23 30.58 30.00 29.17 28.86 28.11 28.22 27.73 27.96 25.58 24.72 23.70 24.16 25.97 27.79 28.36 27.00 26.79 28.66 29.18 28.80
34.13 33.06 33.06 32.55 32.54 32.65 32.43 32.49 31.86 31.34 30.13 29.02 28.01 27.56 27.79 27.94 28.92 30.05 30.15 30.64 30.85 30.39 30.18 30.26 28.13 27.51 27.06 26.07 25.74 25.68 25.01 24.81 24.59 24.56 24.78 25.58 26.15 25.78 25.83 27.68 26.95 26.91 26.55
32.98 32.44 32.04 31.99 31.78 31.03 31.35 31.28 30.10 29.53 29.57 28.56 27.84 27.71 26.98 27.29 28.58 30.02 29.55 28.93 29.12 29.40 28.17 27.25 25.27 24.29 23.69 24.13 24.22 24.50 24.84 25.17 24.42 25.16 25.22 24.78 24.96 25.04 25.30 26.94 26.49 25.97 24.07
31.55 31.36 31.74 31.78 31.85 31.98 31.77 30.50 32.15 31.50 30.89 30.23 29.85 28.91 28.60 28.82 29.90 29.86 29.66 29.59 29.18 28.76 25.13 23.87 22.98 23.25 22.73 22.89 23.00 23.68 24.76 25.49 25.11 25.43 24.47 23.96 23.53 23.47 23.15 23.92 24.48 24.27 24.09
31.85 31.37 30.72 30.47 30.98 30.87 30.09 29.75 28.30 28.44 29.39 29.00 28.52 28.13 28.43 28.54 28.96 29.19 28.92 28.45 28.22 26.45 22.98 22.60 21.96 22.31 22.44 22.90 23.37 24.51 23.95 24.98 25.83 23.80 23.58 23.52 23.52 22.57 22.61 22.40 23.00 23.59 23.77
31.87 32.48 30.79 30.49 30.56 29.79 28.53 27.61 27.35 26.21 25.48 25.88 26.14 25.87 27.26 27.27 27.93 28.04 27.47 26.46 23.76 24.51 22.62 21.43 21.46 22.36 22.55 22.77 24.04 23.87 24.04 24.16 24.20 24.11 23.42 22.87 22.84 22.95 22.42 22.06 22.42 22.29 22.45
30.64 29.86 30.49 29.72 28.71 28.67 27.47 26.56 25.95 25.02 24.66 24.71 25.06 26.08 25.85 26.04 26.93 27.09 26.04 22.56 21.49 21.28 21.93 21.46 21.93 22.17 22.42 23.11 24.15 23.92 23.95 22.97 23.34 23.17 22.65 22.37 22.58 22.68 21.86 22.23 22.43 24.53 24.73
30.54 29.96 29.66 28.02 27.01 26.14 25.34 24.98 24.77 24.37 23.96 23.95 23.96 23.84 24.14 24.35 23.98 24.08 24.04 22.74 21.66 21.50 21.82 21.37 21.93 22.28 22.33 22.44 22.77 23.51 22.84 22.49 22.31 22.25 22.98 23.16 23.35 23.47 22.47 21.99 21.88 21.38 21.63
29.42 28.59 28.92 26.75 25.97 25.44 25.15 24.78 24.54 23.60 23.41 23.58 23.36 24.24 24.35 22.96 22.88 22.61 21.92 21.82 21.58 21.51 21.48 21.78 21.98 22.19 22.41 22.26 21.98 21.76 21.42 21.33 21.52 21.29 21.23 21.56 22.79 21.90 22.84 23.25 22.76 22.33 22.12
29.13 28.48 27.04 25.66 25.51 24.50 24.47 24.31 23.50 23.17 23.15 22.74 22.98 23.71 24.41 22.40 22.05 21.73 21.73 21.83 22.21 22.31 22.22 21.95 21.80 22.13 22.31 21.89 21.48 20.97 20.18 19.74 20.10 20.31 20.45 20.95 21.99 22.66 22.82 22.71 22.52 22.34 22.51
28.41 27.02 25.21 24.81 24.64 25.18 24.36 23.35 22.89 22.82 22.85 22.86 22.64 22.42 22.47 21.88 21.75 21.39 21.36 21.61 21.66 21.76 22.41 22.21 21.67 21.15 22.02 21.92 22.05 21.28 19.82 19.38 19.97 20.53 20.27 20.32 20.39 20.89 21.38 21.13 21.32 21.47 21.95
27.31 25.92 24.63 24.23 23.74 23.87 23.36 22.75 22.63 22.64 21.99 22.40 22.19 22.20 21.56 21.44 21.32 21.41 21.44 21.89 22.06 22.21 22.25 21.97 21.72 20.66 20.72 20.43 21.17 21.33 21.46 21.51 21.93 21.69 21.27 20.14 19.31 19.74 20.20 20.77 21.81 21.99 22.15
26.17 25.34 24.35 23.60 23.17 23.40 22.84 22.36 22.17 22.17 22.09 21.89 21.51 21.41 21.27 21.54 21.32 21.66 22.00 22.03 21.67 21.33 20.98 21.10 21.34 20.61 19.76 19.09 19.26 19.45 20.80 23.92 23.80 23.89 23.19 22.20 20.93 20.60 21.29 22.97 24.58 25.55 25.98
25.41 24.75 24.25 23.53 22.53 22.28 21.85 21.88 21.62 21.42 21.03 21.98 22.11 22.03 21.93 21.57 21.58 21.84 22.15 22.06 21.50 21.38 20.95 21.45 21.18 20.41 20.31 20.66 20.81 22.17 25.66 27.18 27.29 28.99 28.44 27.70 25.98 25.43 26.19 26.63 27.19 27.65 27.96

GFSGL_sfc_wetblb_042.txt.gz
Wetbulb
45.36 45.92 46.70 48.17 49.94 51.01 50.78 50.25 50.70 52.29 52.83 52.65 52.53 52.03 53.81 54.22 54.95 54.06 53.43 52.76 52.24 50.97 49.06 48.61 43.14 42.15 40.91 39.83 39.28 38.89 38.45 39.42 36.44 32.48 33.68 34.49 34.36 35.22 36.58 37.02 37.47 37.05 37.26
43.96 44.42 45.83 47.37 48.36 50.20 48.15 48.14 49.96 51.10 51.11 49.75 50.00 49.74 49.72 49.94 50.63 50.06 49.43 48.41 48.78 45.78 43.74 42.17 40.42 40.10 38.99 38.49 37.21 36.16 36.52 37.43 37.02 32.66 32.88 32.76 33.67 34.64 34.82 34.25 35.57 36.68 35.96
42.43 42.51 43.50 44.30 44.43 44.93 44.19 44.54 45.48 45.83 45.21 43.94 43.13 43.55 43.76 44.23 45.22 43.65 43.41 43.60 43.46 42.89 41.72 40.15 39.27 37.89 36.28 36.06 36.18 35.67 35.90 35.83 35.06 35.09 32.51 32.71 32.48 33.48 33.67 34.24 34.07 34.23 35.40
41.43 40.96 41.20 42.01 41.82 42.21 42.43 42.40 42.54 42.04 41.25 40.34 39.80 39.05 39.08 39.03 39.76 39.40 39.66 38.75 38.30 38.17 38.15 37.91 37.44 36.88 35.87 35.61 35.76 33.84 33.65 33.24 33.22 33.13 32.54 32.43 32.99 33.83 33.42 32.04 30.61 32.83 31.72
40.08 40.15 40.47 41.29 40.71 40.47 40.46 40.38 40.55 41.05 40.62 39.70 38.65 38.53 38.97 39.65 39.31 38.09 37.56 37.21 36.43 35.91 36.15 36.51 36.49 37.58 37.63 36.60 34.78 33.35 33.37 32.47 32.40 31.87 31.66 31.66 31.57 30.24 29.17 30.43 29.35 29.20 29.00
39.99 39.67 41.01 39.93 40.32 39.75 39.95 39.87 38.56 39.16 39.73 40.41 40.15 39.90 39.50 40.12 40.77 39.97 37.04 35.32 34.98 34.27 32.82 32.91 34.21 36.61 38.69 39.14 38.12 37.04 35.13 33.03 32.14 31.68 31.06 27.78 27.84 28.15 28.51 27.05 25.63 23.71 21.89
38.80 39.08 39.30 38.97 37.72 37.62 37.53 37.05 36.96 36.59 36.59 36.43 37.70 38.60 38.52 39.15 40.32 39.24 37.26 33.58 32.55 32.24 32.19 32.19 32.80 34.49 33.71 33.08 36.89 37.05 36.76 36.89 35.50 32.07 28.81 28.11 27.08 27.11 27.19 25.33 25.51 23.29 23.32
37.33 37.32 37.72 37.28 36.48 36.47 36.16 35.61 35.12 35.02 34.52 34.26 33.91 34.59 35.73 37.70 39.39 38.16 35.95 31.75 31.62 31.64 31.76 31.70 31.34 31.34 31.84 31.52 31.43 31.64 31.42 30.93 31.21 31.98 28.82 28.51 28.55 29.19 28.25 26.38 26.17 25.44 26.49
35.65 35.24 35.82 35.45 35.36 35.21 34.60 33.97 34.23 33.42 32.81 32.42 32.68 32.60 33.07 34.30 36.98 36.13 31.61 28.09 28.95 30.09 31.58 31.97 31.55 31.33 32.95 33.10 30.09 28.33 28.01 28.10 33.94 34.57 33.64 33.98 34.10 33.88 33.03 26.77 21.20 18.70 20.83
35.79 35.62 35.71 35.77 35.08 33.67 33.82 33.20 33.73 32.73 32.09 32.33 31.71 32.34 33.43 28.09 34.84 34.33 31.90 29.93 28.10 28.77 29.14 29.26 31.52 30.00 31.99 32.52 29.48 27.29 26.15 25.27 26.23 26.40 26.06 27.37 28.99 27.48 32.61 27.11 22.35 13.60 14.63
37.09 36.85 36.38 36.22 34.74 34.20 33.73 33.22 32.97 32.02 29.79 23.25 28.31 30.65 31.59 28.81 30.34 34.88 34.22 27.54 26.04 25.76 25.32 25.46 27.20 31.92 32.43 32.59 32.09 25.66 26.24 27.42 26.82 23.72 23.51 23.28 23.31 23.26 23.86 24.47 25.36 18.01 12.70
36.95 36.57 36.50 36.53 36.62 34.99 32.72 31.53 27.35 27.12 25.30 24.85 25.02 24.69 25.81 27.73 33.21 33.24 33.39 32.21 31.54 25.70 25.31 25.57 27.41 31.37 30.59 30.53 28.80 30.05 30.02 28.78 23.30 22.49 21.45 20.76 20.56 20.65 22.26 23.80 27.29 26.50 27.19
33.71 32.64 32.28 31.92 31.69 31.45 28.00 26.35 25.26 25.98 24.78 23.69 23.89 22.21 21.62 23.92 24.41 31.35 31.67 31.56 31.05 26.99 26.41 28.99 29.89 29.70 29.38 26.05 28.11 28.77 28.36 21.37 21.18 20.21 21.01 19.53 19.45 19.82 19.38 19.87 21.95 28.19 28.56
29.15 27.60 27.54 27.42 27.10 26.76 26.56 25.53 24.36 23.68 22.86 23.13 22.75 21.83 20.88 22.25 23.32 25.02 26.09 24.82 29.92 27.85 28.24 25.14 27.92 28.17 27.67 26.04 24.82 23.65 22.17 21.10 20.99 20.43 20.87 22.52 22.88 18.38 19.21 20.41 19.58 26.37 25.88
27.54 26.78 26.72 26.94 25.83 25.30 26.78 26.77 24.11 24.24 25.56 22.28 22.20 22.28 20.95 21.46 25.54 28.79 27.97 26.28 25.06 27.56 26.39 23.13 21.66 20.54 19.52 20.82 21.03 21.25 21.27 21.84 20.72 20.94 22.03 23.02 24.01 23.80 23.97 25.36 25.08 25.20 23.94
26.39 25.74 25.12 25.01 25.83 25.69 25.04 24.67 31.91 30.89 30.93 30.59 30.31 26.94 25.53 28.86 30.08 30.21 30.15 30.02 29.97 29.54 22.84 20.09 17.94 17.97 18.48 19.93 20.61 21.12 22.01 24.65 24.34 24.20 24.03 23.18 22.64 23.00 23.02 23.65 24.29 23.39 22.21
25.54 25.28 25.36 27.03 25.27 24.79 24.72 24.07 22.86 25.93 29.94 29.38 28.68 28.38 28.57 28.64 29.15 29.39 29.36 29.13 29.00 27.83 19.68 17.47 16.89 17.55 17.96 18.35 17.52 16.36 22.59 23.98 24.72 24.03 22.88 22.76 23.32 23.02 22.91 22.12 22.15 22.09 21.46
26.55 31.74 24.87 24.53 23.89 23.66 23.43 22.74 22.03 21.43 20.30 20.36 26.40 25.75 27.11 27.81 27.79 28.38 28.48 26.97 21.00 22.05 20.16 18.43 15.67 17.38 17.42 15.84 15.18 17.06 23.12 23.60 23.35 23.45 23.13 22.97 22.63 22.15 21.88 21.55 21.67 21.04 20.68
25.58 24.86 24.35 23.57 23.28 24.00 22.83 22.31 21.83 21.54 20.86 20.13 20.63 24.33 25.97 26.93 27.30 28.11 27.90 21.21 19.39 18.89 19.33 16.72 17.16 16.22 15.52 14.64 14.97 13.84 21.81 22.79 23.10 22.88 22.90 22.48 22.20 21.97 21.45 21.36 20.54 23.89 24.39
26.52 29.41 27.24 23.16 23.20 22.72 22.30 21.79 21.46 21.10 20.17 19.40 19.59 19.66 20.45 21.57 21.06 21.28 21.59 20.49 19.33 18.96 19.20 16.94 17.30 16.31 14.71 10.36 11.45 12.65 14.78 18.11 18.05 16.08 17.37 18.03 19.92 19.95 20.60 20.70 20.86 20.35 20.41
25.69 25.93 28.67 23.01 22.05 21.99 21.91 21.89 21.73 20.03 19.29 19.35 19.41 22.15 26.42 21.31 20.15 19.89 19.32 19.08 18.88 18.80 16.52 17.23 15.51 14.01 11.07 11.42 10.96 13.47 15.44 17.69 17.55 16.53 17.42 17.90 18.35 18.27 20.35 21.27 21.40 21.44 21.20
26.00 25.10 24.17 22.38 22.33 22.51 22.01 22.54 21.16 20.55 19.83 19.40 19.29 21.81 25.79 20.34 19.04 18.74 19.22 19.30 19.41 19.42 17.33 16.83 14.38 13.72 13.77 12.72 13.25 12.81 13.85 16.09 17.38 16.64 16.73 17.97 18.87 20.01 21.04 21.23 21.29 21.04 20.89
25.88 24.58 23.64 22.35 22.31 24.24 22.43 21.45 20.41 20.04 19.82 19.90 19.50 20.61 20.79 19.28 18.80 18.59 18.97 18.88 18.62 16.96 17.10 17.67 15.90 15.18 14.32 15.12 14.49 14.78 16.87 17.94 18.21 18.10 17.91 18.64 19.11 19.51 19.80 19.11 19.20 19.12 19.85
25.82 24.51 22.57 21.77 21.67 21.08 21.42 21.12 20.42 22.29 21.06 20.42 19.75 20.34 19.03 18.57 18.29 18.53 17.81 14.79 16.84 14.62 16.74 16.97 17.24 16.36 17.49 16.71 17.05 17.42 18.61 19.19 19.92 19.86 19.40 19.25 18.73 19.36 18.94 18.53 18.76 19.33 19.94
25.01 22.90 22.19 21.16 21.15 21.45 20.66 20.81 20.20 19.76 20.40 20.64 20.46 19.97 18.85 18.76 18.23 16.38 15.87 16.22 15.85 15.86 16.39 17.64 17.70 17.07 16.07 15.49 16.65 18.12 20.62 24.57 24.66 24.63 23.61 21.63 19.84 18.96 19.14 19.68 19.77 20.06 21.24
24.16 23.10 22.38 21.29 20.49 20.58 20.72 20.03 19.48 19.37 19.20 18.85 19.12 17.43 17.54 17.71 17.95 16.80 16.68 18.61 22.17 21.56 16.79 18.64 18.90 17.06 17.16 18.30 19.97 22.07 26.36 28.12 27.99 29.75 28.99 27.75 26.29 25.49 25.22 24.56 24.45 24.99 25.64

GFSGL_sfc_wetblb_045.txt.gz
Wetbulb
42.31 42.86 43.85 45.53 47.40 48.98 47.02 47.26 48.14 49.11 48.35 48.03 48.46 48.48 48.59 49.55 50.36 50.83 50.86 52.13 51.96 50.94 50.00 50.30 46.12 45.05 42.74 41.61 41.37 41.68 42.22 42.93 41.17 33.83 34.87 35.74 35.69 37.84 39.29 38.07 38.50 38.12 38.17
41.57 41.83 42.75 43.50 43.85 45.76 44.40 42.91 44.31 44.22 42.51 41.83 42.16 43.01 44.12 45.79 46.51 47.96 47.54 47.26 47.39 45.30 45.11 43.24 41.15 41.27 39.42 39.25 38.94 38.10 38.62 38.81 37.54 33.99 33.49 33.36 34.48 35.71 36.22 35.69 36.95 38.42 37.87
40.79 40.64 41.30 41.16 41.17 40.91 41.14 41.54 41.49 40.79 39.61 39.26 38.99 38.62 38.92 41.03 41.77 42.11 42.13 41.87 42.25 42.06 41.70 41.07 39.62 38.72 37.36 37.12 37.16 37.03 37.11 37.62 35.99 35.44 32.67 32.72 32.06 33.36 33.59 34.93 34.92 35.03 35.88
40.06 39.70 39.73 39.31 39.19 39.44 39.83 39.94 40.26 39.73 38.67 38.20 38.05 38.02 38.35 38.18 37.95 38.22 38.32 38.32 38.30 38.01 38.14 38.05 37.78 37.58 36.72 36.22 35.60 34.50 34.15 34.25 34.14 34.13 32.73 32.41 33.21 33.94 34.07 32.72 32.19 33.35 32.58
39.30 39.66 40.27 39.92 38.81 38.75 38.74 38.59 38.83 39.46 40.20 40.40 39.28 39.70 39.76 39.88 38.96 35.53 35.27 34.81 34.84 35.82 36.26 36.90 37.24 38.11 38.38 37.32 35.31 33.87 33.79 33.15 33.30 32.73 32.14 32.08 31.98 31.88 31.11 31.79 30.63 29.76 28.72
39.32 39.21 40.14 39.50 38.78 38.38 38.65 38.59 38.60 38.64 38.95 38.61 38.57 39.06 37.73 38.98 40.22 39.30 35.91 34.59 34.35 34.19 33.31 33.80 34.97 36.00 38.42 39.69 38.47 37.27 35.78 33.48 32.43 32.03 31.48 30.30 30.43 29.82 29.21 28.80 26.63 23.12 21.69
38.45 38.25 38.24 37.96 37.33 37.12 37.21 36.78 36.54 36.29 36.28 35.77 36.67 37.79 37.91 38.32 39.51 38.73 37.17 33.51 32.81 32.12 32.33 32.33 32.53 33.86 33.23 32.17 35.97 36.92 36.68 37.34 35.59 33.10 29.61 29.06 27.54 26.80 25.21 24.19 25.90 23.11 23.06
36.59 36.81 37.06 37.01 36.50 36.44 36.11 35.62 35.43 35.26 34.26 34.12 34.22 35.04 36.64 38.14 38.96 37.67 35.68 28.11 29.40 30.30 30.63 28.90 30.56 30.31 31.79 31.80 31.43 31.29 31.03 30.65 30.61 31.68 30.62 28.34 27.12 27.79 27.81 26.26 25.85 25.06 26.06
35.44 35.47 35.84 36.14 35.57 35.41 34.69 34.32 34.13 32.73 31.87 32.00 32.77 33.14 33.15 34.49 36.45 35.64 30.04 24.63 24.97 26.03 27.84 29.19 29.36 29.34 32.80 32.79 29.88 28.54 28.13 27.98 32.47 35.26 33.76 34.00 34.13 34.43 32.76 26.08 20.63 17.77 19.98
35.29 35.40 36.02 36.01 35.24 33.86 33.58 32.69 33.17 32.85 32.02 32.24 31.34 25.95 32.29 23.17 35.29 34.61 30.52 27.78 25.23 26.06 26.30 26.52 32.24 29.53 33.04 33.35 27.30 24.97 24.26 23.93 25.34 25.43 24.62 25.87 27.47 26.19 31.99 26.42 21.68 13.06 12.59
36.69 36.25 35.91 35.57 34.64 34.05 33.48 33.45 32.16 25.82 22.81 26.70 29.44 30.44 26.57 27.20 29.89 35.04 33.32 26.32 24.50 24.17 24.02 24.53 26.77 32.28 32.29 32.26 31.64 24.67 25.71 26.92 26.06 22.97 22.70 22.30 22.09 22.08 23.03 23.57 24.54 15.57 9.26
37.00 36.70 36.34 34.53 34.47 33.57 31.99 30.62 25.86 24.60 23.64 23.39 23.25 22.81 23.98 25.51 32.37 32.74 32.92 32.28 30.86 25.42 25.16 25.96 26.48 31.28 30.58 30.59 28.63 29.71 29.58 27.96 22.57 22.01 20.97 20.09 19.76 19.06 20.76 22.11 25.85 22.45 21.83
33.93 32.78 32.50 32.81 32.65 31.68 29.35 27.95 24.57 23.86 22.97 22.47 23.12 21.06 20.69 23.05 23.17 31.51 32.24 32.26 31.41 26.73 25.77 28.91 30.23 29.96 29.42 26.37 27.63 28.54 27.86 20.83 20.59 19.57 20.64 18.54 17.84 18.16 17.40 18.26 20.25 23.59 22.64
31.14 28.21 25.92 25.17 25.06 24.77 24.62 24.74 22.97 22.16 21.56 22.20 21.96 20.95 19.74 21.32 23.36 24.57 25.56 24.31 28.75 27.28 28.08 23.80 27.44 28.65 27.85 25.99 24.14 23.28 21.76 20.74 20.28 19.78 20.32 21.96 22.50 17.43 18.37 19.34 16.79 20.60 20.58
26.29 25.23 25.13 25.48 23.78 24.74 26.12 23.36 23.65 23.21 23.92 21.53 21.64 21.74 20.36 21.07 24.96 28.66 28.05 26.15 24.77 27.49 26.19 22.11 21.00 20.07 19.04 20.35 20.75 20.96 21.24 21.82 20.21 20.13 20.80 21.97 23.67 23.90 23.69 25.09 24.66 23.43 21.46
25.30 24.83 24.16 23.35 23.10 24.27 24.53 24.19 31.54 30.88 31.28 30.98 30.66 26.29 25.43 28.73 30.28 30.26 30.32 30.36 30.29 30.23 23.23 19.82 17.69 17.37 17.83 19.30 19.82 20.26 20.98 21.75 23.34 24.23 24.04 23.10 21.97 22.35 22.32 23.72 24.21 22.81 20.87
25.20 24.14 24.31 26.19 24.19 23.55 23.94 23.52 22.51 25.82 30.63 30.06 29.27 28.59 28.59 28.45 28.98 29.08 29.57 29.43 29.20 27.97 20.41 17.29 15.98 16.35 16.84 17.30 16.02 14.10 14.34 20.72 24.29 23.93 23.45 22.97 22.99 23.02 22.49 21.01 21.20 21.58 20.12
25.69 30.67 24.43 24.02 23.46 23.08 23.50 22.57 21.54 21.02 20.26 20.61 26.72 27.34 27.49 28.15 28.12 28.34 28.87 27.73 21.21 21.49 19.36 17.68 14.67 16.01 15.93 14.57 13.25 13.15 15.16 17.77 22.79 22.82 22.76 22.41 22.29 21.86 21.04 20.90 20.93 19.55 19.04
27.64 26.51 24.56 23.31 22.73 23.57 22.05 21.68 21.64 21.40 20.97 20.53 20.95 24.08 25.75 27.71 27.89 28.02 28.70 21.94 19.78 18.57 18.53 16.05 16.25 15.34 14.40 13.51 13.85 10.70 9.42 14.03 16.18 18.15 17.96 14.99 15.85 13.12 19.28 19.58 19.97 23.04 23.69
27.90 29.59 27.42 23.41 23.04 21.83 21.32 21.30 20.65 20.98 20.92 20.38 20.06 20.01 20.76 21.72 20.93 20.87 21.12 20.13 18.92 18.29 18.38 16.06 16.31 15.02 13.04 9.59 9.73 10.24 11.21 14.60 15.08 15.60 14.63 14.72 14.74 14.72 17.42 18.11 19.37 19.43 19.93
28.20 28.87 30.35 23.70 22.83 22.31 21.60 21.15 21.01 20.53 19.97 19.91 19.75 22.08 26.61 21.81 20.18 19.47 18.91 18.42 18.15 18.03 15.84 16.08 14.75 12.62 8.99 7.81 7.23 9.75 12.28 14.64 14.94 15.54 15.32 16.04 15.34 15.86 18.15 19.26 19.62 20.14 20.35
27.97 27.44 27.23 24.57 23.84 22.73 21.95 21.72 21.02 20.62 20.42 19.73 19.82 21.54 26.06 21.00 19.06 18.62 18.81 18.67 18.74 18.73 16.73 16.08 13.80 12.03 11.45 10.42 11.38 10.85 11.24 13.40 14.73 15.07 14.67 14.91 16.21 17.89 18.58 18.82 19.22 19.49 19.59
27.24 26.25 25.79 24.07 23.61 24.89 23.36 21.39 20.38 20.20 20.16 20.35 20.04 20.56 20.79 19.08 18.63 18.18 18.49 18.45 18.10 16.50 16.30 16.48 15.00 13.95 13.39 13.09 12.44 12.30 13.61 15.76 16.80 17.33 17.01 17.08 17.48 17.83 18.40 17.81 17.75 17.53 17.97
26.99 26.08 25.22 24.04 23.13 22.37 21.82 21.08 20.59 22.60 21.03 20.88 19.87 20.05 19.05 18.55 18.26 18.24 17.51 14.68 15.86 14.06 15.44 15.77 16.09 15.35 16.47 15.86 15.89 14.00 15.72 17.93 19.36 19.47 18.84 17.81 17.25 18.16 18.45 18.28 18.29 18.44 18.37
27.73 25.98 24.35 23.20 22.74 23.05 21.65 21.52 20.17 19.84 20.92 20.69 20.27 19.78 19.23 18.67 17.82 16.15 15.55 15.62 14.96 15.62 17.15 17.35 16.65 16.05 15.09 14.44 15.32 16.12 19.52 24.13 24.52 24.75 23.43 21.04 19.43 18.70 19.01 19.69 19.82 20.05 20.04
27.36 26.37 24.28 22.84 21.82 21.55 21.14 20.59 20.17 19.78 19.64 19.16 18.81 18.01 18.45 17.91 17.67 16.35 16.10 15.91 16.15 19.23 18.49 18.25 17.95 15.90 15.38 16.00 16.91 19.71 25.80 28.20 28.43 30.31 29.57 28.26 26.61 25.68 25.49 24.80 24.12 23.76 23.79

GFSGL_sfc_wetblb_048.txt.gz
Wetbulb
41.15 41.80 42.74 43.23 44.65 44.48 43.42 43.91 44.82 42.74 42.16 41.93 43.29 44.22 44.89 45.45 46.45 47.45 47.27 47.45 48.57 49.25 47.99 49.11 47.04 46.10 44.87 44.15 43.68 43.36 43.16 43.31 42.48 37.22 36.32 36.64 37.28 39.84 41.60 39.28 40.85 40.37 40.61
40.35 40.85 41.42 41.47 41.69 41.67 40.92 40.71 41.01 39.78 39.66 39.22 39.35 39.64 40.43 41.25 41.44 42.35 43.46 43.83 45.06 44.17 43.78 43.00 41.21 41.83 40.03 39.87 39.77 39.49 39.78 40.23 39.30 35.95 34.22 34.26 35.01 36.99 36.97 36.80 38.01 39.01 38.26
39.79 39.99 39.68 39.27 39.32 39.08 39.38 39.86 39.89 39.00 38.27 38.13 38.22 37.98 38.02 38.41 38.34 38.53 39.95 40.08 40.00 39.94 40.27 40.19 39.53 39.34 38.32 37.94 37.73 37.49 37.14 37.98 36.14 35.97 33.05 33.30 32.82 34.09 33.02 34.86 35.11 36.36 37.69
39.13 38.96 38.01 37.95 38.08 38.17 38.59 38.78 39.30 38.60 37.71 37.59 37.80 37.97 37.97 36.90 36.43 36.23 36.02 35.28 36.15 37.51 37.72 37.62 37.48 37.24 36.77 36.33 35.51 34.56 34.53 34.73 34.58 34.55 33.61 33.02 33.17 33.24 33.89 33.40 32.92 34.75 34.33
38.72 39.26 39.27 39.36 38.27 38.33 37.86 38.37 38.22 37.94 37.89 38.18 37.68 37.73 37.86 38.99 38.04 34.20 34.34 34.02 34.61 35.29 35.81 37.05 38.40 39.30 39.77 38.44 35.81 34.16 33.96 33.36 32.98 32.88 32.71 32.58 32.48 32.21 31.48 33.20 31.83 31.55 31.11
39.32 39.22 39.43 38.98 38.79 38.59 38.33 38.34 37.93 37.64 37.91 38.41 38.15 37.85 38.21 38.64 39.63 38.60 35.86 34.60 34.57 34.17 33.36 33.41 34.83 36.01 37.29 40.42 39.46 38.60 37.00 33.89 32.60 32.17 31.55 30.50 30.79 31.15 30.96 30.06 28.26 25.21 22.51
38.04 38.07 38.06 38.00 37.36 37.29 37.34 36.89 36.25 35.77 36.06 35.87 36.27 37.69 38.01 38.46 39.31 38.27 36.28 33.40 32.52 31.86 31.02 29.06 31.08 33.05 32.63 32.52 35.26 36.23 36.33 37.89 36.65 32.52 29.87 28.18 27.05 26.67 26.15 22.88 24.30 20.67 21.97
36.91 36.80 37.45 37.25 36.63 36.68 36.24 35.49 34.73 34.45 34.11 34.27 34.31 34.94 36.12 37.72 38.65 37.33 34.84 26.05 24.09 22.51 23.05 21.80 22.59 26.50 31.49 31.83 27.83 28.06 28.43 28.32 29.00 30.73 29.50 27.69 27.30 27.08 26.63 24.34 24.53 23.52 25.52
35.62 35.80 36.45 36.64 35.93 35.55 34.47 33.64 33.24 32.44 32.49 32.49 33.18 33.37 32.87 28.56 35.64 34.60 27.69 19.56 21.86 22.29 25.77 26.66 26.87 26.77 32.58 33.69 27.41 25.71 25.61 25.74 31.21 34.54 33.06 33.26 33.65 33.73 32.00 25.61 19.97 16.44 19.34
35.42 35.78 36.44 36.35 35.37 33.82 33.26 32.41 33.01 32.39 32.01 28.91 23.67 21.00 31.22 20.45 35.46 34.05 29.27 26.38 24.01 24.43 24.12 24.98 32.69 30.36 33.61 33.77 26.23 24.53 23.36 23.89 25.04 25.43 24.48 25.30 26.55 25.51 30.91 25.99 21.16 11.64 11.88
36.25 36.38 36.06 35.59 34.24 33.82 33.05 32.74 29.42 27.88 28.94 29.16 29.89 30.14 24.20 26.62 28.93 34.23 32.88 26.23 24.39 24.15 24.16 24.88 26.63 32.64 32.30 31.83 31.39 24.49 25.49 26.61 25.70 22.45 22.07 21.55 21.48 21.49 22.74 23.45 23.94 14.35 7.35
36.67 36.22 35.20 34.62 34.25 33.75 31.38 29.83 25.56 22.62 22.47 22.88 23.11 22.43 22.85 23.43 31.70 32.08 32.86 32.14 30.41 25.57 25.42 25.93 26.04 31.26 30.95 30.70 27.96 29.72 29.95 28.15 21.84 21.14 20.53 19.64 19.26 18.18 20.31 21.42 24.89 21.71 20.48
36.10 35.64 32.24 31.53 31.58 30.21 27.01 26.11 26.28 24.81 22.22 21.91 23.18 20.83 20.44 22.83 22.76 31.12 32.26 32.59 32.01 26.61 25.72 28.79 30.97 30.95 30.34 26.75 27.73 28.83 26.42 20.62 20.10 18.78 19.78 17.68 16.98 17.20 16.08 17.33 19.45 22.19 20.43
31.89 30.62 29.97 28.80 27.53 26.03 25.65 24.53 22.78 21.94 21.18 22.16 21.80 20.96 19.57 21.05 23.18 24.36 25.70 24.13 28.44 27.34 28.08 23.33 26.57 27.35 27.09 25.39 23.53 22.81 21.54 20.54 19.78 18.64 19.57 21.47 22.12 15.86 18.27 21.64 22.52 24.12 16.54
30.10 27.69 24.26 24.19 24.39 22.60 23.57 22.30 23.30 22.22 22.57 21.41 21.34 21.40 20.09 20.79 24.28 28.72 28.12 26.05 24.84 27.66 26.56 22.20 20.17 19.32 18.77 19.76 20.31 20.74 21.02 22.00 19.79 19.72 20.16 21.68 23.44 23.54 23.19 20.77 24.02 23.84 19.42
27.29 24.69 23.86 23.26 22.25 23.93 25.04 24.45 30.86 30.59 31.74 31.16 30.18 25.45 25.08 28.59 30.71 30.49 30.38 30.56 30.58 30.57 23.93 19.76 17.09 16.70 17.07 18.52 19.00 19.26 19.73 20.89 20.10 23.43 23.43 23.57 22.77 22.50 22.63 23.65 23.14 19.07 19.30
27.25 24.79 24.29 25.44 22.32 22.83 23.54 23.23 22.72 25.89 31.83 31.24 30.68 30.08 29.74 29.13 29.48 29.34 29.34 29.80 29.60 27.39 19.78 17.41 15.49 15.47 15.76 16.35 15.21 12.80 12.57 15.80 14.44 20.23 23.18 22.72 22.70 22.62 22.07 20.71 19.18 19.75 19.50
27.32 30.89 25.31 24.89 23.74 23.38 23.72 23.62 22.63 21.06 20.32 20.35 26.71 29.52 29.05 29.28 28.91 28.91 29.15 28.51 22.27 21.83 18.80 17.14 14.25 15.26 15.22 13.89 12.33 11.59 12.64 14.62 14.65 16.29 14.32 21.23 21.97 21.50 20.73 18.70 18.26 16.74 17.36
28.98 28.77 27.61 25.36 24.52 25.19 23.96 22.67 21.03 20.62 19.91 19.63 19.89 24.07 26.19 28.36 28.42 28.28 27.97 21.63 20.30 19.29 18.54 15.74 15.87 14.92 14.07 13.14 12.77 9.37 7.30 10.50 11.23 8.55 8.76 11.38 11.37 10.10 14.72 16.12 17.04 21.61 21.73
29.34 30.54 29.43 26.27 24.71 24.08 22.37 21.70 20.92 20.04 19.50 18.97 19.21 19.43 20.36 21.74 20.33 20.61 20.68 19.73 18.74 18.04 17.84 15.75 15.93 14.64 12.96 9.61 8.67 8.15 8.96 12.39 12.29 11.05 11.14 10.75 11.44 10.10 13.44 14.74 15.99 15.83 17.01
28.75 29.68 31.61 26.31 25.20 24.27 22.68 22.13 21.46 20.58 19.25 18.95 19.27 21.80 25.97 21.14 20.08 19.51 18.69 18.14 17.64 17.49 15.66 15.71 14.49 12.43 9.85 7.62 6.00 7.67 9.94 11.98 12.09 12.49 12.64 13.12 10.97 12.27 15.07 16.40 17.19 17.85 18.08
29.38 28.79 29.69 26.02 25.21 24.28 22.80 22.27 21.40 21.13 20.40 19.29 19.30 21.11 26.88 22.00 20.06 18.94 18.44 18.17 18.25 18.21 16.46 15.94 13.68 12.22 11.21 9.57 9.99 9.10 9.70 11.32 12.22 12.00 12.62 13.23 13.53 15.26 16.21 16.76 17.27 17.51 17.79
28.40 27.62 27.17 25.38 24.83 26.28 24.68 22.18 21.22 20.92 20.15 19.53 19.57 20.44 20.90 20.01 19.36 18.02 17.97 18.04 17.78 16.51 16.04 15.97 14.14 13.35 12.96 12.45 11.34 11.22 11.55 13.73 15.05 15.85 16.04 16.25 16.50 16.71 16.90 16.25 16.69 16.76 17.10
27.71 27.24 26.87 26.97 24.56 23.73 23.35 22.81 21.96 23.27 20.94 20.63 20.28 20.27 19.39 19.04 18.73 18.51 17.38 14.78 15.58 13.88 15.26 15.48 15.87 14.32 15.11 15.11 15.19 13.72 14.09 15.41 17.29 18.20 17.93 17.20 16.81 17.68 17.83 17.95 17.94 17.91 18.06
28.72 28.52 27.87 26.53 25.37 25.40 23.20 23.33 22.21 21.23 21.67 21.13 20.76 20.04 19.58 19.21 18.77 17.31 15.99 16.12 15.00 14.42 16.19 17.67 16.16 15.70 14.96 14.22 14.74 15.05 17.99 23.34 23.83 23.80 22.42 19.69 18.34 17.97 18.52 19.33 19.63 19.84 20.14
29.02 28.09 27.48 26.70 25.39 24.40 23.13 22.57 22.02 20.78 20.45 19.91 19.86 19.04 19.22 19.56 19.83 20.35 18.70 17.12 16.04 16.41 16.48 17.99 17.68 15.93 15.18 15.59 15.89 17.83 25.01 27.87 28.10 30.20 29.64 28.62 27.16 26.14 25.56 24.48 23.53 22.96 22.50

GFSGL_sfc_wetblb_051.txt.gz
Wetbulb
40.17 41.18 41.29 41.78 42.38 41.97 41.63 41.62 40.96 40.23 40.06 39.96 40.49 41.23 41.58 41.58 42.67 44.31 44.62 44.80 46.20 46.47 45.72 45.63 43.53 44.00 43.33 42.74 42.88 42.72 42.84 43.14 41.56 39.46 37.67 37.54 38.27 40.52 40.99 40.54 42.96 41.56 44.21
39.52 40.54 40.19 40.41 40.52 40.34 39.81 39.62 39.56 38.62 38.69 38.52 38.77 38.74 38.77 39.01 39.02 39.43 40.28 40.64 40.76 40.27 42.34 42.42 40.97 41.99 40.33 40.03 39.98 39.39 39.40 40.09 38.99 37.48 35.08 35.20 35.47 37.25 37.68 38.23 39.74 40.46 39.68
39.24 39.18 38.67 38.47 38.52 38.28 38.43 38.76 38.68 38.09 37.59 37.75 37.93 37.31 36.76 36.92 36.70 36.76 36.86 37.25 38.80 38.62 38.06 37.35 37.60 38.41 37.86 37.87 37.65 37.09 36.85 37.48 36.28 36.26 34.22 34.04 33.62 34.96 34.00 35.18 36.15 36.80 38.61
38.83 37.94 37.19 37.11 37.33 37.25 37.85 38.01 38.22 37.91 37.33 37.16 37.02 36.98 37.20 35.86 35.17 34.93 34.72 34.30 35.41 36.80 36.98 36.77 36.57 36.91 36.57 35.86 34.91 34.75 34.72 34.75 34.83 34.83 34.03 33.38 33.87 33.48 34.14 33.77 33.19 34.82 35.07
38.79 37.84 37.66 38.36 38.36 38.16 38.66 39.19 38.56 37.11 37.09 36.83 37.06 38.51 38.69 38.50 38.06 34.96 35.36 35.56 35.64 35.66 35.73 36.32 37.85 40.12 40.72 39.05 35.83 34.31 34.33 33.74 33.76 33.44 33.33 33.42 33.12 32.70 31.87 33.33 32.16 32.80 32.80
39.58 39.27 39.36 39.10 39.08 38.53 38.54 38.15 37.96 37.52 37.84 38.20 38.29 37.74 37.97 38.06 39.55 38.41 36.26 34.69 34.48 33.85 32.79 32.69 34.65 35.82 36.26 40.06 40.03 39.69 37.54 32.66 32.48 32.18 31.59 30.52 30.66 31.13 31.62 30.97 29.49 26.70 23.36
38.26 38.29 38.30 38.13 37.66 37.57 37.48 36.91 36.15 35.89 36.38 36.16 36.77 37.85 37.44 37.51 38.76 37.73 35.99 32.98 31.69 28.42 25.78 25.35 30.58 31.94 31.66 28.27 32.92 34.26 34.07 35.62 35.47 29.82 26.71 25.95 25.51 25.26 23.64 21.52 23.69 20.23 21.69
37.15 37.20 37.69 37.50 36.93 36.94 36.32 35.24 34.56 34.61 34.37 34.60 34.64 34.22 33.11 36.08 37.65 36.77 33.70 23.37 23.51 25.35 23.93 18.78 19.32 21.40 26.46 27.87 26.07 26.45 26.73 26.49 29.14 29.67 27.33 26.59 26.26 26.32 25.89 23.15 23.76 22.45 25.10
36.05 36.21 36.86 37.03 36.28 35.75 34.34 33.45 33.33 33.14 32.94 32.65 32.61 30.35 25.21 25.43 35.29 34.07 26.92 18.98 21.57 21.62 24.64 24.63 25.60 26.20 33.73 33.87 27.04 25.37 24.92 25.37 30.60 33.25 32.79 32.93 33.22 33.40 31.41 25.09 23.00 16.40 18.94
35.75 36.16 36.73 36.87 35.70 33.97 33.27 32.73 33.03 32.84 31.25 27.15 23.47 20.13 30.68 20.23 34.94 33.41 28.04 25.36 22.59 23.03 23.47 24.82 31.72 30.88 33.46 33.24 26.04 24.28 23.07 23.81 24.87 24.97 24.04 24.68 25.67 24.67 29.40 25.42 20.87 11.13 11.15
36.54 36.66 36.43 35.75 34.31 33.67 32.82 32.74 31.73 30.21 29.77 27.07 25.64 22.86 22.79 26.24 27.58 34.06 33.21 26.31 24.75 24.53 24.47 25.39 26.61 32.35 32.39 31.96 31.36 24.03 25.03 26.22 25.03 21.96 21.50 21.00 21.02 21.60 22.86 24.15 23.38 12.90 6.41
36.34 36.00 35.19 34.65 34.72 33.67 31.77 29.05 25.31 23.55 23.29 23.59 22.97 22.50 22.50 22.10 30.56 31.66 33.01 32.15 30.55 25.68 25.54 25.58 25.83 31.56 31.49 31.04 27.73 29.91 30.17 26.82 21.08 20.21 19.65 19.26 19.12 17.87 19.47 20.27 23.19 20.52 19.31
35.38 34.67 32.12 33.70 33.40 32.03 28.13 25.53 24.74 23.20 22.05 21.87 23.11 21.05 20.61 22.96 22.48 30.92 32.02 32.08 31.20 26.91 26.03 28.44 30.24 30.14 30.74 26.98 27.89 29.00 26.12 20.07 19.55 18.08 18.80 16.78 16.23 16.50 15.67 16.88 19.26 21.74 18.91
34.73 31.93 30.51 29.50 30.15 27.59 28.51 27.00 24.46 22.67 21.14 21.90 21.78 21.11 19.60 20.80 22.23 23.93 25.69 24.16 28.37 27.81 28.37 23.67 26.75 26.38 26.63 25.28 23.30 22.50 21.34 20.52 19.57 17.98 18.76 21.05 21.66 15.48 18.39 25.04 22.80 24.05 23.25
31.10 30.31 29.39 28.84 29.42 24.09 23.62 22.64 23.28 21.50 22.42 21.53 21.24 21.33 20.09 20.10 24.06 27.70 27.90 26.01 24.53 27.59 26.99 22.74 20.17 19.11 18.40 19.07 19.67 20.17 20.23 21.13 19.17 19.10 19.08 21.59 23.74 23.94 23.55 24.32 23.65 23.62 20.21
30.28 29.18 26.16 23.81 23.44 23.25 23.65 24.07 30.09 29.88 32.70 32.34 30.07 25.21 24.54 28.60 30.63 31.24 30.92 30.83 30.97 30.95 24.34 20.78 18.06 16.53 16.43 17.51 18.00 18.32 18.71 19.70 18.85 17.90 18.95 23.44 22.95 22.77 22.67 23.45 24.24 16.55 16.81
31.20 27.44 25.14 26.51 23.07 23.18 24.48 24.30 23.02 26.22 32.89 32.25 31.90 31.73 31.17 29.87 30.12 30.14 29.83 29.99 30.54 28.22 19.68 17.66 15.91 15.24 15.19 15.58 14.89 12.14 11.57 14.56 10.53 12.20 12.23 13.78 20.37 22.27 22.14 21.10 20.08 16.73 17.86
31.89 33.02 25.81 25.42 23.44 23.20 24.15 23.60 23.01 22.44 21.86 21.71 28.00 30.69 31.36 30.67 30.10 29.75 29.76 29.00 22.93 23.37 19.03 17.10 14.52 15.18 14.88 13.81 12.26 11.15 11.88 13.16 12.34 12.95 9.01 8.69 10.33 12.73 18.18 17.98 16.86 14.99 15.18
32.04 30.50 29.19 27.46 26.07 24.93 24.03 23.71 22.73 21.39 20.06 19.57 19.62 23.75 26.56 29.89 29.73 29.52 28.75 20.98 20.00 19.55 19.19 16.43 15.80 14.72 13.88 12.78 12.75 9.90 7.32 9.45 9.84 7.00 4.83 5.17 8.82 5.08 13.50 13.58 14.12 20.01 20.31
32.90 32.50 30.84 27.59 26.79 26.62 25.22 23.32 21.56 20.26 19.64 18.89 18.85 18.81 19.71 22.18 20.26 20.12 20.50 19.54 18.61 18.36 18.02 15.64 15.85 14.72 13.04 9.79 9.06 8.39 7.82 10.55 10.26 9.78 9.94 8.47 9.63 8.02 11.01 12.17 13.75 13.54 14.90
31.22 30.72 32.51 27.28 26.53 26.57 25.78 24.39 23.16 20.83 20.36 19.77 19.67 21.53 25.41 19.93 19.42 19.32 19.14 18.46 18.09 17.80 16.50 16.10 14.53 12.64 10.28 8.47 6.29 6.76 8.72 10.29 10.70 10.27 9.16 10.29 8.79 8.98 12.80 14.43 15.75 16.49 16.75
31.09 30.80 31.42 28.01 26.97 25.64 24.96 24.48 23.26 21.98 21.17 20.53 20.27 21.26 27.42 23.40 20.82 19.91 19.08 18.61 18.77 18.80 17.84 17.21 15.06 12.97 11.68 9.98 9.84 8.58 8.73 9.89 10.88 9.47 10.54 11.41 12.04 14.15 15.66 16.04 16.45 16.69 16.95
30.85 30.33 30.60 29.60 27.81 29.29 26.91 23.84 23.13 22.37 21.71 21.16 20.56 21.13 21.13 20.60 20.24 19.13 19.06 19.13 18.88 18.88 18.57 18.54 17.55 16.06 13.93 12.71 11.84 11.31 12.16 14.03 14.79 15.17 14.98 15.57 15.93 16.15 16.47 16.02 16.34 16.41 16.77
29.25 29.44 29.85 28.78 26.71 26.46 26.68 24.29 23.23 24.32 22.43 22.16 21.48 21.35 20.78 20.29 20.29 20.10 19.72 18.84 19.20 19.34 18.76 18.83 18.79 17.36 16.72 15.71 15.59 14.12 13.69 14.92 16.43 16.78 16.13 16.27 16.15 17.43 18.13 18.36 18.31 17.96 17.96
29.46 29.57 28.85 27.88 27.88 28.80 26.23 25.85 23.80 22.97 23.12 22.48 22.01 21.31 20.94 20.37 19.90 19.82 20.14 20.06 20.15 20.01 19.71 19.41 18.80 17.66 17.31 15.90 15.43 14.63 17.05 23.25 24.14 23.53 21.34 18.28 17.79 17.63 18.07 19.29 19.68 19.72 19.81
28.99 29.28 29.18 28.75 27.73 27.63 26.71 25.99 24.86 22.82 21.71 21.27 21.04 20.68 20.32 20.09 20.30 20.34 19.97 20.19 20.18 20.22 19.95 20.13 19.27 17.35 16.14 15.68 15.67 17.73 25.24 27.60 27.49 29.34 29.01 28.42 27.12 25.96 25.69 24.49 22.64 21.33 21.05

GFSGL_sfc_wetblb_054.txt.gz
Wetbulb
39.66 40.21 40.30 40.89 40.99 40.80 40.26 39.61 39.26 38.94 39.13 39.28 39.70 39.83 39.82 39.68 40.62 42.32 42.60 43.76 45.64 44.26 43.61 43.07 43.04 43.52 42.70 42.48 42.96 43.04 42.73 43.07 41.52 40.65 38.57 37.93 38.60 40.05 40.57 41.69 42.56 42.81 44.21
38.91 39.16 39.14 39.37 39.38 38.94 38.47 38.29 38.32 37.68 37.96 37.97 38.04 37.71 37.58 37.70 37.45 38.02 38.56 38.78 38.81 38.43 39.05 40.66 39.73 41.53 40.00 40.09 40.14 39.45 39.45 39.94 39.33 37.48 35.25 35.70 35.57 37.12 38.19 38.67 40.27 40.87 40.42
38.68 38.06 37.58 37.32 37.11 36.69 36.93 37.34 37.66 37.37 37.11 37.52 37.16 36.24 35.72 35.77 35.41 35.29 35.30 35.76 36.35 36.00 35.59 35.06 34.95 35.20 34.45 36.06 37.11 36.64 36.66 37.20 36.44 36.44 34.83 34.68 34.24 35.27 34.73 35.66 36.64 36.97 38.78
38.26 37.42 36.60 36.36 36.66 36.48 36.96 37.15 37.50 37.03 36.33 36.17 36.68 38.18 36.81 34.69 34.97 35.55 35.90 36.20 36.64 37.04 37.84 38.51 37.63 34.94 33.54 32.91 34.49 34.59 33.77 34.66 34.82 34.94 34.23 33.78 34.22 34.31 34.82 34.13 33.51 35.49 35.37
38.33 37.59 37.07 37.55 37.56 37.93 39.30 39.07 37.83 36.82 36.33 38.11 38.30 38.52 38.51 38.55 37.17 35.98 36.35 36.32 36.17 35.31 35.32 36.46 37.48 39.45 40.81 39.05 36.27 34.85 34.79 34.21 34.19 33.87 33.25 33.37 32.94 32.50 31.98 33.06 32.08 32.54 33.10
40.05 39.61 39.69 39.36 39.25 38.87 38.71 38.34 37.99 37.79 38.15 38.60 38.12 37.80 37.78 38.22 39.24 38.49 36.29 34.33 33.39 31.94 31.70 31.60 33.91 33.83 34.58 39.11 38.70 38.94 37.43 32.50 30.08 25.03 25.04 26.96 26.83 27.23 27.63 26.77 25.33 22.00 21.26
38.63 38.60 38.57 38.39 37.97 37.84 37.56 36.94 36.29 36.23 36.71 36.55 37.03 37.34 36.30 37.16 38.33 37.37 35.67 31.20 25.78 23.78 24.05 24.21 28.61 30.49 28.79 25.99 32.00 33.28 33.02 35.00 34.69 28.68 25.31 24.69 24.29 24.56 22.39 20.41 22.88 19.47 21.13
37.46 37.67 37.97 37.72 37.28 37.09 36.27 35.29 34.97 35.19 34.88 34.78 33.61 31.06 32.02 35.48 37.15 35.79 32.53 20.57 24.39 24.91 19.29 16.50 18.13 20.29 25.77 27.01 25.70 25.92 25.98 25.95 29.23 28.75 26.33 26.00 25.88 26.12 25.62 22.36 23.41 22.01 24.81
36.43 36.92 37.36 37.33 36.63 35.95 34.56 33.76 33.93 33.60 33.21 32.33 30.18 25.99 24.25 24.63 34.99 33.65 26.04 18.17 21.35 21.09 23.62 25.00 26.04 26.86 34.31 33.44 26.86 24.99 24.19 25.21 30.24 32.72 32.19 32.34 32.36 32.35 30.94 24.77 19.66 15.82 18.68
36.13 36.53 37.16 37.21 36.12 34.36 33.56 32.88 33.29 33.00 31.54 28.71 23.96 21.67 29.90 19.76 34.21 32.68 27.45 24.70 21.88 23.06 23.48 25.41 31.68 30.70 33.34 32.97 25.63 23.90 22.19 23.27 24.71 24.09 23.32 23.84 24.53 23.76 28.53 24.77 19.94 10.60 11.15
36.83 36.82 36.85 36.36 34.83 33.74 32.98 32.88 31.91 29.16 24.13 20.56 20.86 20.75 21.78 25.32 26.51 33.97 32.88 26.00 25.07 24.69 24.79 25.33 26.51 32.36 32.21 31.99 30.60 23.23 24.40 25.50 24.56 21.11 20.49 20.10 20.91 22.74 23.44 23.75 22.87 11.98 5.84
36.63 36.34 35.66 34.86 34.84 33.63 32.06 29.81 29.00 27.86 27.06 26.34 23.28 22.79 22.80 21.33 29.57 31.66 33.23 32.57 30.75 25.81 25.32 25.40 25.90 31.44 32.01 31.65 27.48 29.76 30.00 24.94 20.52 19.56 19.04 19.06 18.76 17.60 18.92 19.60 22.42 20.09 18.79
35.71 34.95 34.16 33.97 33.52 32.35 29.31 27.40 25.21 23.11 22.95 22.61 23.35 21.30 20.86 22.91 22.00 30.35 32.11 31.98 31.00 26.89 25.93 28.15 30.31 29.60 29.22 25.99 27.85 28.46 25.62 19.70 19.14 17.67 18.51 16.27 15.72 16.24 14.82 16.05 18.53 21.26 19.24
34.55 33.50 32.57 32.40 32.09 30.59 28.02 26.70 25.55 24.11 21.87 22.28 22.31 21.34 19.66 20.72 21.36 23.54 25.44 24.16 28.25 27.90 28.42 23.53 27.14 26.19 26.24 24.94 22.79 22.18 21.13 20.74 19.84 17.63 17.92 20.62 21.22 14.90 16.65 24.75 23.63 18.44 18.29
33.15 32.37 30.71 31.77 32.47 28.26 27.60 26.24 26.08 22.99 23.18 22.25 21.56 21.48 19.91 19.78 23.46 26.77 27.03 26.10 24.31 27.43 27.74 23.16 20.86 19.20 18.49 19.12 19.53 20.09 19.77 20.36 18.48 18.60 18.23 19.51 22.62 23.54 23.84 24.75 24.03 23.19 21.62
31.48 30.46 30.19 29.28 27.73 26.24 23.81 22.98 30.05 30.25 31.31 31.78 31.03 25.05 24.39 28.15 30.15 31.37 31.59 31.21 31.18 31.50 24.39 21.16 18.56 16.87 17.12 17.49 17.68 17.76 18.00 18.80 17.79 16.49 14.64 14.70 16.99 17.65 18.82 21.92 23.88 22.31 16.38
32.76 30.92 30.12 30.02 24.79 23.51 23.40 23.58 22.97 26.84 33.47 33.42 32.78 32.42 31.72 29.92 30.41 30.63 30.73 30.44 30.79 29.76 20.58 17.26 15.96 15.76 15.91 16.70 15.88 14.18 11.81 13.93 9.49 9.56 7.82 7.74 11.56 11.64 20.71 15.33 18.37 19.15 16.28
33.57 34.87 30.02 28.25 24.85 23.52 24.17 24.44 23.96 23.32 22.93 23.50 29.80 31.80 32.73 32.52 31.39 30.69 30.52 29.63 22.71 24.70 19.79 17.70 15.02 16.42 16.63 15.45 14.24 13.53 12.30 12.46 11.28 11.63 7.00 5.29 5.23 5.35 11.51 16.19 16.63 11.64 13.48
34.33 33.48 31.47 27.88 26.58 26.05 25.37 24.86 24.26 23.13 22.16 21.13 20.14 24.07 27.75 31.87 32.19 31.27 31.22 21.89 20.23 19.32 19.49 17.29 16.77 16.61 15.41 14.75 14.87 12.62 8.49 8.80 8.64 5.87 2.95 2.94 5.88 1.39 9.60 11.37 12.53 19.30 19.44
35.42 35.25 33.74 29.31 27.42 27.07 25.94 25.32 24.81 24.05 22.50 20.89 20.41 19.95 20.31 23.12 20.57 20.46 20.56 19.94 18.97 18.20 18.20 16.55 16.48 16.51 15.84 13.64 9.62 9.08 8.77 9.93 9.40 8.55 8.39 6.64 7.62 5.87 8.19 10.11 11.94 11.64 13.55
34.88 34.24 35.54 30.22 28.60 27.59 26.86 25.79 25.72 24.51 23.53 22.45 21.44 22.11 25.58 20.93 19.91 19.40 19.57 19.82 19.52 18.67 17.34 16.73 15.44 14.71 13.98 11.37 6.64 8.20 10.40 10.14 9.19 8.73 8.44 8.87 6.85 7.67 11.53 13.47 14.72 15.53 15.88
33.51 32.13 33.25 30.89 29.07 27.37 27.19 26.22 24.99 24.34 23.61 22.52 21.86 22.05 28.29 24.63 21.88 21.16 20.95 20.68 20.02 19.71 19.06 18.83 17.94 16.30 13.28 11.83 11.27 10.76 10.83 10.36 10.95 10.65 10.25 10.74 11.50 12.89 14.56 15.31 15.87 16.18 16.48
32.19 30.96 31.40 30.95 29.11 29.88 29.68 27.77 26.38 24.66 23.56 22.92 22.10 21.95 22.07 21.94 21.99 21.06 20.76 20.31 19.63 19.91 19.37 18.67 18.26 17.17 15.74 14.79 14.53 13.09 12.67 14.23 14.76 14.76 14.43 14.79 15.20 15.77 15.86 15.45 15.64 16.04 16.33
30.74 30.75 30.67 30.80 29.83 29.89 29.60 28.51 26.38 26.79 23.91 23.03 22.39 22.26 21.48 20.68 20.99 21.10 20.62 20.44 20.60 18.90 17.66 17.94 19.09 18.90 18.96 17.87 15.81 13.42 13.19 14.07 15.24 16.22 15.39 15.38 15.04 16.34 16.84 17.59 17.62 17.89 17.38
28.80 29.11 29.85 29.84 28.64 29.14 28.48 28.38 26.91 25.82 25.07 23.98 22.87 21.88 21.10 20.87 20.97 20.90 20.89 20.96 20.58 19.49 19.72 19.02 17.64 17.03 15.81 15.38 15.67 14.53 16.03 22.92 23.35 22.94 19.93 18.11 17.82 16.66 17.44 18.60 19.04 19.55 20.21
27.33 29.56 29.74 29.39 28.44 28.90 28.39 28.15 26.94 26.32 25.28 24.63 22.82 21.63 20.92 21.14 21.20 21.24 20.19 20.41 19.67 19.96 19.15 19.32 17.43 16.21 15.23 15.09 15.21 17.06 24.51 27.11 27.23 28.53 28.03 27.37 26.45 25.97 24.78 23.25 21.88 20.84 20.70

GFSGL_sfc_wetblb_057.txt.gz
Wetbulb
43.42 43.89 44.40 44.23 43.90 43.77 43.24 42.63 42.25 42.07 42.13 42.07 42.18 42.19 42.20 42.64 44.15 45.97 46.15 46.34 45.73 45.29 45.39 45.92 44.61 44.43 43.70 44.40 45.37 45.53 45.74 45.91 44.79 43.12 41.21 40.31 41.58 40.94 41.75 43.20 44.36 43.94 43.97
42.23 42.57 42.44 42.58 42.43 41.97 41.33 41.09 41.21 40.90 41.00 40.69 40.37 40.28 40.26 40.40 41.06 42.28 41.93 41.94 41.99 41.41 41.78 41.99 41.13 41.98 41.68 42.14 43.07 42.12 41.55 41.30 42.05 40.50 38.37 38.80 38.46 38.87 38.98 40.21 40.49 40.79 41.11
41.48 41.33 40.92 40.59 40.59 40.32 40.12 40.19 40.49 40.34 40.10 39.98 39.54 38.73 38.30 38.37 38.56 38.87 39.20 39.24 39.16 39.28 39.23 39.21 38.80 39.42 38.97 39.55 39.63 39.53 38.93 39.25 39.99 39.72 37.79 37.85 37.74 36.98 38.11 37.74 37.57 38.15 39.41
40.62 40.01 39.52 39.57 39.53 39.62 39.65 39.71 39.63 39.45 39.07 39.32 39.93 39.27 37.76 37.10 37.66 37.79 38.01 38.12 38.37 38.79 39.36 40.00 39.16 38.32 38.11 38.30 37.98 37.81 37.69 38.01 38.00 37.90 36.53 36.33 35.90 35.39 36.03 35.36 35.57 36.77 36.37
39.69 39.31 39.12 39.31 39.44 40.33 39.98 39.32 38.95 38.81 39.26 39.44 39.08 39.01 39.34 38.49 37.69 37.54 37.77 37.42 36.95 36.41 36.57 37.50 37.90 40.25 40.44 39.70 38.04 36.99 36.86 36.43 36.56 36.37 35.53 35.58 35.15 35.00 32.57 34.86 34.35 35.00 35.70
39.98 39.79 40.23 40.07 40.13 40.09 39.61 39.04 38.82 38.73 38.81 38.93 38.37 38.43 38.26 38.73 39.50 39.47 37.01 35.50 34.70 34.33 34.25 34.03 34.50 33.67 35.51 38.27 38.24 38.72 37.56 35.16 32.56 32.62 33.05 32.31 31.49 31.72 32.10 31.52 31.49 30.91 30.51
40.13 40.12 39.71 39.42 38.86 38.62 38.26 37.63 37.28 37.38 37.89 37.63 37.40 37.33 37.54 38.12 38.65 37.77 35.22 31.52 30.09 30.15 30.96 32.13 31.91 31.86 31.00 30.58 33.32 33.10 34.22 35.15 34.83 33.24 31.21 30.94 30.53 30.85 30.28 30.15 30.02 29.94 29.55
38.73 38.88 38.84 38.59 38.00 37.55 36.85 36.19 36.20 36.49 35.98 35.48 34.36 34.66 36.21 37.10 37.46 35.65 32.11 28.46 27.90 27.65 27.92 27.34 30.55 30.63 32.60 30.63 30.28 30.02 30.06 32.20 32.43 31.82 32.05 31.79 32.01 32.06 31.66 30.95 30.62 30.14 30.48
37.78 38.01 38.19 38.06 37.29 36.44 35.33 34.93 35.17 34.98 34.26 32.89 31.43 31.17 31.08 33.21 35.13 33.68 29.29 27.97 27.72 27.78 29.09 30.52 31.90 32.24 34.33 32.56 29.83 28.04 27.89 29.20 31.47 32.21 31.78 31.69 31.64 31.54 32.47 31.49 29.40 27.82 25.96
37.41 37.80 38.05 37.89 36.95 35.37 34.70 33.91 34.52 34.18 32.79 31.13 28.97 27.51 32.08 29.37 34.47 33.11 29.73 28.53 27.20 27.57 28.52 29.41 32.21 32.85 32.95 32.85 29.64 27.98 26.67 27.92 28.88 27.87 27.46 27.15 26.80 27.45 29.07 28.75 28.74 26.30 26.02
37.95 37.62 37.54 37.34 35.94 34.69 34.00 33.85 33.26 31.97 29.97 28.09 28.47 26.91 27.89 30.31 30.96 34.95 32.54 28.87 28.54 27.82 28.20 28.55 29.84 32.38 32.15 31.80 29.96 28.01 27.89 29.17 26.94 25.61 25.37 25.83 27.10 27.86 28.44 28.46 27.62 26.90 25.43
37.27 36.88 36.59 35.83 35.55 34.35 33.26 31.96 31.33 29.81 28.44 28.53 28.24 27.72 27.99 27.15 29.95 32.53 34.08 32.83 31.97 28.96 28.00 28.80 29.56 31.02 30.94 31.83 29.16 29.72 29.98 26.11 25.16 23.99 23.61 24.57 25.51 26.53 27.35 27.40 27.05 27.74 27.02
36.52 35.89 35.00 34.82 34.18 33.52 31.58 30.10 28.70 27.24 26.83 26.76 27.08 26.10 25.79 25.93 26.04 30.66 33.16 32.87 32.19 29.73 29.18 29.46 30.51 29.37 28.49 26.75 28.01 28.33 25.62 24.45 23.37 22.67 23.08 24.30 25.56 26.22 24.98 25.74 26.91 26.94 27.13
35.59 34.62 34.15 33.43 32.63 31.72 30.86 29.49 27.60 26.15 25.56 25.81 25.78 25.50 25.00 24.68 25.00 26.16 28.24 29.17 29.74 29.89 29.68 28.85 29.01 27.58 26.47 26.37 24.77 24.43 24.46 24.62 24.31 23.86 23.56 24.72 25.52 25.27 25.55 26.45 25.18 25.69 25.02
35.05 33.98 33.41 33.31 33.39 30.99 29.93 28.38 28.03 27.87 27.57 26.20 25.80 25.75 24.27 23.68 25.71 27.60 28.07 27.93 28.70 29.23 29.70 27.01 25.58 24.14 23.22 22.90 22.96 23.25 23.71 23.87 23.22 24.23 23.44 23.36 23.89 24.75 25.01 26.41 25.43 24.86 23.24
33.93 33.38 32.82 32.76 32.38 31.35 29.22 28.54 32.55 32.47 32.23 32.63 31.34 27.25 26.27 28.68 30.39 31.78 32.65 32.83 32.04 31.81 27.55 25.34 24.36 22.80 21.95 21.77 21.25 21.50 22.03 22.37 22.54 22.83 22.53 22.39 22.67 23.02 23.19 24.14 24.88 24.40 22.50
34.15 33.18 32.92 32.41 31.05 30.51 28.23 27.07 26.10 27.93 33.24 33.45 33.67 33.89 31.56 28.65 31.96 31.93 31.93 31.81 31.49 31.09 26.19 24.75 22.61 21.75 21.48 21.20 21.03 20.84 20.49 21.42 20.32 20.16 20.45 20.69 20.43 20.29 21.41 21.78 22.12 22.20 21.54
35.17 35.71 33.24 33.46 31.22 29.40 27.77 26.61 26.10 25.82 25.56 27.76 32.80 33.19 33.81 33.61 33.04 32.27 31.91 31.19 26.80 27.39 24.78 23.76 22.84 22.16 21.60 21.28 21.08 20.44 20.66 20.58 19.50 19.57 19.46 18.79 17.99 17.73 18.74 19.54 20.36 19.65 20.00
35.01 34.25 33.81 32.64 31.09 30.07 27.97 26.62 26.41 26.10 25.76 25.74 24.38 27.00 30.85 34.41 34.14 33.71 32.76 27.31 24.47 23.34 22.84 22.77 22.43 22.00 21.42 21.21 21.04 20.72 19.56 19.21 19.07 18.02 17.65 17.02 17.39 16.56 16.73 17.45 17.73 20.17 21.17
35.99 35.68 35.40 31.97 30.07 29.20 27.11 26.55 26.21 25.99 25.59 25.31 24.58 24.31 23.29 26.11 23.67 24.85 25.11 23.99 22.98 22.36 21.89 21.93 22.11 22.03 21.58 20.98 20.63 19.19 17.91 17.63 17.94 17.74 17.29 16.85 17.08 16.29 15.35 15.78 16.63 16.81 17.67
35.47 35.38 36.73 32.45 30.62 29.52 28.05 26.59 26.49 26.41 26.26 25.92 25.68 25.71 27.23 23.43 23.18 22.68 22.55 22.23 22.21 22.31 22.89 22.36 22.16 21.73 20.93 20.09 19.06 17.60 17.05 18.14 18.06 17.10 17.08 17.29 16.53 15.09 16.06 16.66 17.33 17.96 18.19
34.89 34.86 35.47 34.05 31.48 30.13 29.35 28.76 27.84 26.76 25.80 24.94 24.83 24.56 29.97 27.31 23.66 22.89 22.43 22.54 23.26 23.47 23.87 23.25 22.97 21.75 20.64 19.48 18.95 18.28 18.03 17.96 18.37 17.00 16.68 16.07 16.06 16.82 17.18 17.87 18.28 18.66 18.75
33.99 32.96 32.57 33.38 31.64 31.82 30.78 28.89 27.98 27.61 27.10 26.91 25.93 24.45 24.07 25.18 25.43 23.90 23.56 23.69 23.31 23.54 23.35 22.76 22.34 21.66 21.56 19.93 19.54 19.48 18.63 19.21 19.77 19.16 18.12 18.45 18.01 18.10 18.42 18.14 18.29 18.22 18.56
32.42 31.73 31.24 31.56 30.46 30.07 30.11 30.01 29.09 29.49 28.20 27.40 26.52 25.73 23.99 23.57 23.51 23.26 23.03 23.93 23.46 23.96 23.14 22.06 21.86 21.70 22.10 21.54 21.16 20.09 18.42 18.67 18.94 18.65 17.84 17.95 17.76 18.69 19.50 19.75 19.58 19.65 19.37
30.42 30.65 30.19 31.12 30.58 31.48 30.46 30.74 29.16 28.35 28.29 26.98 26.09 25.48 24.97 23.61 23.07 23.35 23.78 23.68 23.48 23.08 22.47 22.26 22.25 21.55 20.62 19.10 19.08 19.17 20.03 22.94 23.35 21.08 19.78 19.05 19.16 19.72 20.29 20.57 20.81 21.33 21.09
29.59 29.43 29.84 30.38 29.99 29.66 29.50 29.30 28.94 28.04 27.33 27.37 26.42 25.98 25.25 24.14 23.31 23.88 23.76 23.24 22.67 22.68 22.46 22.31 22.16 20.89 19.66 19.42 18.99 19.43 23.86 26.07 26.90 28.65 28.15 27.16 25.34 24.08 23.37 22.37 21.58 21.25 21.72

GFSGL_sfc_wetblb_060.txt.gz
Wetbulb
49.60 49.83 50.10 50.03 50.07 50.65 50.91 49.92 49.05 48.09 47.63 47.32 47.14 47.40 47.34 47.88 49.49 51.19 49.18 48.80 48.53 48.12 48.23 47.98 47.33 48.98 49.05 48.85 49.77 48.26 48.17 49.21 46.70 43.07 43.36 43.95 45.30 45.18 44.86 45.05 44.98 45.07 45.28
48.27 48.34 48.49 48.53 48.41 48.55 48.34 47.51 47.15 46.90 46.22 45.77 45.56 45.44 45.68 45.91 47.20 48.12 47.21 47.38 47.49 46.68 46.43 46.67 45.41 45.94 46.44 47.00 47.42 46.79 46.45 46.27 46.82 44.80 42.34 43.09 42.01 42.24 42.34 42.09 42.07 42.40 43.47
46.90 46.98 46.66 46.72 46.84 46.91 46.41 46.08 45.83 45.62 45.32 44.70 44.33 43.82 43.44 43.65 44.45 44.62 44.75 44.35 44.28 43.90 43.91 43.68 42.94 44.05 43.94 44.30 44.27 43.90 43.87 43.12 43.44 42.31 40.40 40.77 40.20 39.21 38.87 40.68 40.77 40.85 41.29
45.06 45.44 45.32 45.37 45.36 45.46 45.23 44.82 44.58 44.52 44.27 44.16 43.61 42.41 41.32 40.93 41.05 41.04 41.47 41.67 41.43 41.49 41.78 41.79 41.74 41.88 41.52 41.30 41.02 40.92 40.92 41.64 41.14 41.00 39.07 38.87 37.74 37.38 37.42 36.44 39.49 40.34 39.31
44.65 43.98 43.28 44.07 43.98 43.42 42.87 43.02 43.10 43.20 42.90 42.12 41.04 40.89 40.64 40.22 39.90 39.97 39.99 39.80 39.53 38.90 39.34 39.41 39.77 40.98 40.68 40.57 40.31 39.73 39.92 39.93 38.89 39.22 38.49 38.54 37.59 36.56 35.28 37.12 37.22 37.61 38.56
44.41 43.75 44.05 43.30 43.25 42.91 42.54 41.16 40.45 40.51 40.30 40.28 40.15 39.94 39.52 39.98 40.49 40.04 39.49 38.95 38.87 38.43 37.58 37.25 37.60 36.79 38.61 38.77 38.68 38.29 37.99 37.82 35.42 36.60 37.69 36.91 35.75 35.68 36.01 34.79 33.96 33.05 32.76
44.00 43.84 43.23 42.80 41.66 41.13 40.59 39.41 38.98 39.10 39.44 38.77 38.75 39.38 38.76 39.14 39.41 38.46 37.11 36.78 35.56 34.53 35.11 35.40 34.39 34.16 33.73 33.91 34.29 34.07 35.19 35.74 35.31 35.89 34.28 34.34 33.78 33.87 33.35 32.74 32.67 32.38 31.93
43.18 43.00 42.70 41.41 40.17 39.63 38.40 37.66 37.66 37.99 37.75 37.36 37.38 38.57 38.11 37.82 37.76 35.60 33.86 33.22 32.71 32.54 32.81 33.55 34.72 34.50 34.48 32.92 32.82 32.78 33.43 34.65 34.57 34.49 35.10 34.84 35.09 35.28 34.60 33.51 32.76 32.26 33.05
41.53 41.77 41.45 40.43 39.07 37.88 36.80 36.52 36.67 36.50 35.71 35.62 35.82 35.86 36.21 36.49 35.68 33.79 32.96 33.80 32.25 32.07 32.79 33.91 34.63 35.10 34.63 32.47 32.20 30.21 30.98 32.17 32.91 32.08 31.80 31.75 31.78 31.74 32.91 33.50 31.44 29.46 28.56
40.92 41.02 41.05 40.26 38.63 37.16 36.44 35.33 36.03 35.55 34.19 34.51 33.39 34.07 34.71 35.98 34.93 33.54 32.48 32.02 30.38 30.86 31.58 32.65 32.95 34.07 33.29 33.45 32.54 30.99 29.12 30.80 31.55 30.94 30.82 29.90 29.30 29.96 29.67 30.68 30.89 28.28 28.36
41.35 40.94 40.08 39.37 38.10 36.52 35.57 35.18 34.97 34.20 33.54 33.52 32.86 32.37 32.73 34.30 34.95 33.94 32.18 31.30 31.26 30.63 31.05 31.04 32.04 32.68 32.59 32.19 31.79 30.88 30.24 31.80 30.02 28.90 28.84 29.42 29.92 30.52 31.18 31.09 30.58 30.45 28.92
40.49 39.54 38.82 38.31 37.14 35.91 34.66 33.71 33.58 32.84 32.56 32.40 32.12 32.25 33.03 33.31 33.45 35.35 35.15 33.27 32.56 31.30 30.16 30.93 31.63 31.38 30.97 32.06 32.02 30.11 30.53 28.34 28.71 27.68 27.13 27.68 28.21 29.16 30.16 30.33 29.66 30.28 30.73
38.53 37.77 37.46 36.69 35.81 35.09 33.96 32.83 31.84 32.38 32.98 31.65 30.74 31.03 31.05 30.53 31.39 33.74 35.03 35.23 34.34 31.30 31.51 30.83 31.39 30.12 28.85 28.68 28.79 29.23 27.92 28.03 27.00 25.90 26.31 27.45 28.81 29.93 28.94 28.97 29.55 29.29 29.10
38.26 37.44 36.42 35.26 34.32 34.05 33.79 32.84 32.73 31.44 31.18 30.93 30.44 30.07 30.35 29.52 29.17 30.28 32.40 33.50 33.00 31.96 31.09 31.69 30.94 29.71 27.57 28.26 27.48 27.29 27.40 27.68 27.03 27.06 26.81 27.70 28.45 28.29 27.91 29.12 27.62 27.98 26.99
37.77 36.50 35.11 34.67 34.86 33.20 32.98 32.77 33.07 32.80 32.52 30.72 30.57 30.79 29.56 28.52 29.48 30.81 30.67 30.17 30.93 31.15 30.99 30.25 29.61 28.61 27.93 27.04 26.63 26.64 26.99 26.83 26.00 26.88 26.45 26.32 26.19 26.89 27.28 28.62 27.92 27.36 25.86
36.04 35.63 35.25 34.75 35.27 33.66 32.45 32.83 34.37 33.54 33.52 33.53 33.12 31.46 30.24 31.42 31.02 32.02 31.91 31.73 32.97 33.06 31.00 29.12 28.55 28.36 26.69 26.36 25.67 25.60 26.09 25.53 26.22 26.24 26.16 25.96 25.35 25.74 26.04 26.73 26.95 26.23 25.76
35.38 35.75 35.75 35.35 34.49 33.43 32.27 32.43 30.35 32.42 34.88 34.64 34.35 34.24 32.82 30.17 32.06 32.50 33.17 33.61 33.46 32.40 29.15 29.61 28.33 27.67 26.77 26.21 25.92 25.78 25.39 26.15 26.42 25.08 25.16 25.12 24.95 24.45 23.97 24.07 24.94 24.84 24.49
35.94 36.86 35.28 35.47 34.98 34.41 34.00 33.02 31.85 31.05 29.29 30.39 33.99 34.57 34.94 34.19 32.04 32.98 32.88 32.46 29.71 30.63 28.84 28.02 28.48 28.37 27.28 26.52 26.31 25.74 25.74 25.53 24.90 24.41 24.34 24.09 23.45 22.94 22.42 22.81 23.77 23.14 23.45
36.12 35.46 35.33 35.70 35.77 35.66 34.17 32.11 30.69 29.38 28.48 28.96 29.23 31.88 34.83 34.99 34.93 34.71 34.08 30.36 28.43 27.60 27.50 27.43 28.03 27.42 26.70 26.53 26.28 25.99 25.44 25.11 25.05 24.34 23.86 22.98 22.89 22.58 22.04 22.47 22.68 23.25 23.50
37.42 36.65 36.36 34.20 33.08 32.54 31.26 30.47 30.39 29.87 29.14 29.00 28.52 27.95 28.04 30.03 29.30 31.44 32.06 31.07 29.14 28.40 28.38 27.33 26.98 26.58 26.42 26.52 26.11 25.27 24.57 23.95 23.63 23.71 23.73 23.78 23.56 23.27 22.16 21.83 22.20 22.07 22.58
39.20 38.39 37.45 34.72 32.74 32.29 30.95 29.40 29.06 27.77 27.36 27.43 27.90 29.44 30.70 27.74 27.08 26.90 27.14 27.46 27.68 27.31 27.41 26.64 27.05 26.69 26.62 26.19 25.45 24.60 23.53 23.67 24.30 24.13 23.96 24.15 23.47 22.07 22.50 21.97 21.81 21.69 21.70
37.55 36.85 36.38 35.67 33.74 31.94 31.29 30.38 29.34 28.36 28.60 27.39 26.92 26.83 31.74 30.65 27.34 26.01 25.67 25.66 25.97 26.48 27.73 27.65 27.59 27.17 27.11 26.06 25.25 24.37 23.41 23.41 24.31 24.59 23.96 23.24 22.81 22.48 22.08 21.83 21.92 22.06 21.99
36.19 35.48 34.81 35.08 33.56 33.49 32.44 31.11 29.76 29.07 29.24 29.25 28.56 27.78 28.62 30.07 29.84 27.27 26.03 26.09 26.13 27.12 27.91 27.07 26.94 26.92 26.98 25.99 25.73 25.29 24.49 24.98 25.65 25.80 24.46 23.85 23.25 22.62 22.40 21.91 21.98 21.35 21.44
35.09 34.24 33.40 33.28 32.81 32.13 31.94 31.47 30.72 30.82 30.11 30.09 29.04 28.86 29.19 29.13 28.31 27.42 27.27 27.87 27.79 28.31 27.29 26.93 26.33 26.38 26.40 26.27 26.66 26.06 25.33 25.02 25.32 24.75 23.43 22.84 22.75 23.05 22.54 22.14 22.13 21.75 21.71
33.86 33.39 32.65 32.73 32.62 33.20 32.35 32.30 32.09 31.67 31.29 30.45 30.04 29.57 29.86 29.55 28.68 27.86 26.97 27.30 26.97 26.78 26.55 26.18 26.43 26.00 25.54 24.64 24.82 25.36 25.80 25.75 24.51 23.57 22.83 22.27 21.72 21.94 22.39 23.26 23.47 23.58 23.09
33.15 32.46 31.57 31.70 31.77 31.62 31.49 31.62 31.93 31.65 31.11 31.11 30.45 29.82 29.27 28.77 28.26 28.43 27.99 26.93 26.26 25.81 26.27 26.56 26.45 25.81 25.29 25.18 24.49 23.94 25.10 25.83 26.32 27.39 27.10 26.16 24.19 23.44 23.49 23.39 23.52 23.71 23.60

GFSGL_sfc_wetblb_063.txt.gz
Wetbulb
52.29 52.29 52.00 51.67 51.60 52.13 52.26 51.99 51.24 50.33 49.46 48.93 48.54 48.65 48.65 48.86 50.03 51.25 50.59 50.33 49.79 49.02 49.08 48.72 48.16 50.03 50.05 49.94 50.51 50.31 50.10 50.18 48.10 44.26 44.61 44.92 45.65 44.15 44.13 44.34 44.51 43.76 44.99
51.41 51.17 50.94 50.85 50.44 50.28 50.39 49.92 49.37 49.10 48.20 47.53 47.05 46.79 46.92 47.05 47.89 48.76 48.37 48.92 48.95 48.13 48.03 48.18 47.04 47.58 47.44 48.00 48.37 47.59 47.25 46.56 46.39 44.60 42.83 43.04 41.75 41.80 42.33 41.76 41.93 42.67 42.99
49.65 49.45 49.16 48.97 49.00 49.00 48.93 48.38 47.83 47.48 47.13 46.51 45.78 45.31 44.88 44.71 45.48 45.91 46.25 45.97 45.78 45.32 45.21 44.54 44.31 45.37 44.30 44.63 44.69 44.42 43.84 43.27 43.25 41.98 39.54 41.41 40.60 39.05 38.46 39.95 40.53 40.41 41.75
47.20 47.75 47.67 47.74 47.73 47.64 47.56 46.84 46.52 46.48 46.02 45.69 45.13 44.09 43.15 42.81 42.77 42.83 43.44 43.54 42.81 42.42 42.38 42.56 42.08 42.01 41.74 41.64 41.33 41.20 41.40 41.21 41.26 41.17 39.80 39.09 38.05 38.01 38.08 36.77 38.40 39.89 38.55
46.77 46.14 45.77 46.13 45.79 45.59 45.24 45.25 45.05 44.68 44.58 43.96 42.69 42.11 41.98 41.49 41.17 41.16 41.43 41.42 40.86 40.13 40.10 39.55 40.40 41.06 41.01 40.98 40.08 39.51 39.43 38.68 38.17 38.90 38.79 38.59 37.02 36.48 35.03 36.29 34.45 35.15 36.65
46.89 46.21 46.24 45.30 44.70 44.04 43.69 43.09 42.42 42.23 41.78 41.52 41.08 40.93 40.59 40.62 40.64 40.83 40.62 39.78 39.61 39.01 37.76 37.85 37.80 38.36 38.71 38.81 38.62 37.96 36.68 36.58 34.87 35.19 35.81 35.36 35.39 34.05 34.10 32.00 31.22 30.28 29.88
46.52 46.26 45.43 44.76 43.88 43.24 42.94 42.00 40.68 40.11 40.11 39.61 39.63 39.87 39.56 39.53 40.51 39.61 39.66 38.48 36.42 35.98 34.97 35.56 34.53 33.98 34.07 33.38 34.54 34.62 36.16 35.82 35.52 34.70 32.12 31.91 31.33 31.91 31.42 31.10 30.62 29.95 29.14
45.49 45.21 44.74 43.91 42.61 41.85 41.01 39.57 38.93 39.08 38.77 38.29 38.51 39.36 38.85 38.54 38.38 37.11 36.20 34.41 33.21 32.98 33.16 33.06 34.09 34.13 33.47 32.88 32.47 32.07 32.48 33.81 34.07 34.35 33.65 33.11 33.01 33.49 32.56 31.78 30.35 29.80 30.68
44.25 44.19 43.81 42.99 41.53 40.43 39.22 38.25 37.86 37.40 36.76 36.37 37.20 37.79 37.03 36.93 36.58 34.68 33.46 33.41 32.45 32.08 32.98 33.87 34.56 34.94 34.70 33.23 32.05 29.74 29.91 31.30 33.26 32.42 31.77 31.65 31.73 31.94 32.11 30.60 29.56 27.73 26.37
43.55 43.50 43.37 42.47 41.05 39.34 38.14 36.29 36.71 36.25 34.46 35.07 34.10 34.97 36.24 36.19 35.23 34.09 33.31 31.95 30.66 30.35 31.30 32.67 33.54 34.02 33.73 33.74 31.67 29.77 27.61 28.87 29.91 29.80 29.24 28.99 29.15 29.02 30.01 28.29 28.51 24.99 26.52
43.55 43.14 42.37 41.50 40.25 38.96 36.85 36.06 35.66 34.44 33.63 34.04 33.52 33.46 34.14 34.88 34.79 34.70 33.11 30.63 30.33 29.59 29.61 29.78 31.05 33.20 33.05 32.72 32.82 29.58 29.13 30.44 29.77 27.41 26.67 26.65 27.03 27.90 28.23 28.48 28.22 27.51 25.43
42.83 41.77 40.83 40.34 39.30 37.55 35.82 34.56 34.24 33.29 32.57 32.77 32.92 32.41 33.15 33.96 35.28 35.81 34.90 33.59 32.73 30.13 29.23 29.93 30.56 31.75 31.68 32.35 32.66 32.38 30.98 29.80 27.22 25.94 25.28 25.35 25.82 27.20 28.21 28.43 28.17 28.34 28.79
40.94 40.12 39.67 39.04 37.99 36.58 34.91 33.73 32.94 33.09 32.96 33.71 31.77 31.02 31.02 31.48 32.03 35.32 35.93 36.42 35.28 31.63 30.07 30.80 31.56 31.34 30.35 29.87 30.73 30.88 30.45 27.00 25.57 24.43 24.53 25.81 27.33 28.21 26.52 26.36 27.63 28.09 28.60
39.73 39.24 38.41 36.90 36.01 35.26 34.48 33.82 32.86 32.25 32.96 33.15 30.66 30.04 31.07 29.97 29.33 30.08 32.26 33.56 35.32 33.08 31.98 30.56 31.40 31.35 30.48 29.26 27.63 27.79 26.82 26.09 25.33 25.01 25.08 25.80 26.39 26.50 25.95 27.23 25.67 26.13 26.35
39.03 37.96 36.56 36.41 35.86 33.73 33.50 33.16 33.01 34.77 35.32 32.56 31.32 31.07 30.06 28.92 29.20 31.16 30.63 30.54 31.02 31.26 30.75 29.25 28.52 28.14 27.09 26.49 25.87 25.73 25.70 25.57 24.44 25.15 24.60 24.66 25.25 25.41 25.87 26.73 26.22 25.11 23.30
37.70 37.33 35.90 34.76 35.44 33.56 32.66 32.49 36.55 37.06 36.12 35.96 35.22 32.60 30.59 32.94 32.44 33.35 33.11 32.98 32.83 32.92 29.70 28.15 27.70 27.67 26.97 25.99 25.16 24.70 24.93 25.46 24.78 25.54 25.17 24.87 24.08 24.10 24.36 25.20 24.97 23.62 22.97
36.16 35.16 35.12 35.10 34.76 33.48 32.89 32.56 32.56 34.52 35.73 34.44 34.79 34.90 34.44 31.91 32.86 32.65 33.16 33.07 33.07 33.77 29.21 28.08 27.77 27.69 26.67 25.64 25.10 24.90 24.45 25.37 24.41 24.57 23.77 23.17 23.07 22.65 23.37 22.36 22.61 22.91 22.51
36.63 37.16 35.32 35.21 35.12 34.45 33.81 33.32 33.99 31.18 29.81 30.91 35.06 35.27 35.53 35.30 33.87 33.01 33.50 33.53 30.04 31.43 28.84 27.82 27.97 27.93 27.41 26.29 25.82 25.26 25.13 24.85 24.21 23.61 22.89 22.07 20.95 21.20 20.69 20.94 21.46 20.28 21.05
36.46 35.96 36.00 35.55 35.20 35.22 34.23 33.86 34.17 31.76 30.55 29.94 30.52 33.08 35.11 35.65 35.75 34.14 33.97 29.95 28.20 27.82 27.95 27.98 28.13 27.79 27.25 26.80 26.29 25.95 24.98 24.91 24.45 23.26 22.37 21.17 21.99 21.99 20.89 20.75 20.88 23.88 23.77
37.53 37.01 37.01 35.18 34.89 34.66 34.27 33.33 31.95 31.36 30.93 30.26 28.98 28.77 30.99 33.35 31.19 31.30 32.05 31.31 29.60 28.60 28.04 27.51 27.68 27.71 27.08 27.20 26.90 26.32 25.20 24.73 23.60 22.62 22.75 23.26 23.37 22.59 21.14 20.76 21.79 21.63 22.21
38.35 37.52 37.91 35.49 34.40 34.04 33.33 31.90 31.26 30.37 29.59 28.71 28.55 28.77 31.34 28.96 29.66 30.20 31.10 31.31 30.78 29.72 29.09 28.68 28.28 27.81 27.66 27.57 26.96 26.13 25.13 24.54 24.00 23.59 24.12 24.31 23.89 23.22 23.34 23.08 22.48 21.89 21.97
38.67 37.57 37.02 35.78 34.16 32.99 32.79 32.27 31.21 30.53 30.20 30.10 30.23 28.75 33.42 30.50 27.90 27.24 27.41 28.20 29.21 29.28 29.00 28.11 27.87 28.13 28.25 27.59 26.79 26.03 24.89 24.22 24.36 24.28 24.25 24.64 24.23 23.88 23.43 22.43 21.95 22.08 21.94
36.57 35.74 35.00 35.22 34.33 34.49 33.32 32.14 30.87 30.42 29.68 29.71 30.06 29.24 28.34 30.77 30.94 29.09 26.77 26.78 26.45 26.57 26.88 26.95 27.78 27.97 28.50 28.31 28.15 26.85 25.38 24.84 25.29 25.61 24.96 25.15 24.28 23.52 23.02 22.11 21.86 21.64 21.63
35.47 34.57 33.86 33.62 33.15 32.83 32.49 32.11 31.22 31.39 30.59 30.66 30.78 30.61 30.17 29.50 30.81 31.35 30.67 29.00 27.98 28.65 27.59 27.71 27.25 27.23 27.35 27.60 27.07 26.63 26.30 26.46 26.46 25.90 24.97 24.76 23.86 23.91 23.96 23.00 22.13 21.62 21.74
33.38 33.47 32.83 32.65 32.55 33.21 32.57 32.71 32.12 31.87 31.57 31.24 31.09 30.95 30.78 30.92 30.96 31.06 30.77 29.20 29.33 28.59 27.60 26.96 27.14 26.89 26.69 26.41 26.60 26.89 27.01 27.89 25.49 24.62 24.28 24.03 22.51 21.55 21.62 21.85 21.88 21.96 21.83
33.24 32.90 32.76 32.40 32.12 32.12 31.94 31.76 31.71 31.73 31.33 31.52 31.48 31.15 30.91 30.58 30.33 30.31 29.24 28.45 28.40 28.24 27.50 27.06 26.92 26.84 26.66 26.60 26.05 25.45 27.03 27.56 26.65 27.93 26.37 24.33 22.43 21.76 22.26 22.18 22.42 22.42 22.16

GFSGL_sfc_wetblb_066.txt.gz
Wetbulb
49.66 48.63 48.92 48.81 49.73 50.06 50.04 48.88 47.99 46.97 46.35 45.99 45.72 45.52 45.37 45.24 45.84 46.67 49.43 49.28 49.25 48.50 48.29 47.98 47.48 49.03 48.65 47.96 47.43 47.48 46.23 47.90 46.70 43.18 43.79 43.56 42.61 41.64 41.56 42.86 43.34 42.93 44.02
48.77 48.48 48.19 48.04 47.51 47.50 47.53 47.37 46.72 46.14 45.52 44.61 44.33 44.14 44.14 43.98 44.06 44.10 45.15 45.38 47.89 47.22 47.30 46.84 45.76 47.29 45.43 45.06 44.43 42.62 42.72 40.88 41.19 42.90 41.34 40.95 40.09 38.12 37.20 40.48 41.38 42.21 41.75
46.51 46.05 46.20 46.05 46.15 46.06 45.85 45.51 45.45 44.68 44.09 43.72 43.17 42.51 42.04 41.94 41.74 41.70 42.38 42.56 41.88 41.30 41.50 41.14 40.82 41.43 39.72 39.86 40.86 41.37 39.63 41.34 39.99 39.73 37.54 39.26 38.43 36.63 37.50 39.10 39.41 36.23 40.08
44.70 44.41 43.99 44.23 44.81 44.36 44.96 44.61 44.54 44.34 43.48 43.01 42.27 41.45 40.84 40.24 40.39 40.55 41.21 40.39 40.08 40.47 40.45 39.26 39.01 39.03 40.82 40.57 40.47 39.98 40.36 39.32 39.15 39.15 37.94 36.63 36.80 36.15 36.98 34.42 32.63 35.16 33.36
43.55 42.97 42.59 42.74 42.66 43.04 42.90 42.64 43.03 42.41 42.03 41.64 40.70 41.09 41.72 41.17 41.20 40.86 41.36 41.19 40.35 39.54 39.05 39.59 39.71 40.24 41.62 41.08 39.02 38.32 38.24 36.59 36.27 36.30 35.87 36.22 35.72 34.61 31.82 31.67 28.99 29.07 30.42
43.23 42.87 43.37 42.74 42.05 41.29 40.95 40.70 40.10 40.08 39.95 39.94 40.78 40.70 40.26 40.59 41.11 41.67 40.94 39.71 39.54 38.10 36.51 35.18 35.87 36.97 38.06 39.35 38.76 38.00 36.68 34.85 33.73 33.91 34.52 33.08 31.09 29.03 28.45 26.82 26.20 22.69 23.01
43.22 43.52 43.04 42.35 41.41 40.90 42.02 41.55 38.46 37.53 39.62 39.40 39.46 39.62 39.28 39.71 41.59 40.93 41.18 37.65 35.85 34.38 34.02 31.63 32.40 33.81 32.62 30.49 34.39 36.36 35.76 36.17 35.43 30.47 27.08 26.39 26.58 27.47 26.80 25.95 25.85 23.48 24.73
42.76 42.67 42.39 41.59 40.53 40.21 40.87 39.86 37.76 39.06 38.65 38.25 38.28 38.65 38.16 38.52 39.75 38.83 38.13 33.76 32.72 31.51 31.43 31.09 29.21 28.88 30.39 30.90 29.72 29.25 29.56 30.55 31.47 31.90 28.94 28.21 28.31 28.76 28.36 27.90 26.74 26.07 26.77
41.97 41.68 41.56 40.84 39.55 39.11 39.22 37.06 37.37 37.66 37.20 36.72 37.36 37.17 36.13 36.10 37.42 36.66 32.17 29.11 29.74 29.39 29.65 31.16 32.57 31.93 34.68 33.79 29.72 27.42 26.57 28.77 33.61 33.04 32.16 32.08 32.08 32.07 30.96 26.48 22.95 20.37 21.52
41.57 41.41 41.16 40.23 39.16 39.08 38.55 36.08 36.95 36.77 34.85 35.15 33.80 33.84 36.93 33.25 36.79 35.20 32.57 29.59 28.44 28.14 28.58 30.65 34.09 33.05 34.59 34.20 28.95 25.65 24.50 25.35 26.87 26.77 26.04 27.26 28.04 27.10 30.33 25.44 22.37 15.13 18.27
41.89 41.25 40.24 39.44 39.38 38.44 35.34 35.43 35.86 34.73 33.81 33.26 32.88 32.61 31.17 33.02 32.22 35.43 34.64 28.35 27.41 26.60 26.42 26.92 29.02 33.65 33.44 33.06 32.80 27.01 27.25 27.53 28.47 25.37 23.50 23.17 23.40 24.23 24.28 25.23 25.77 18.19 14.91
40.85 39.86 38.93 38.52 39.31 37.96 35.64 34.65 34.40 33.49 32.55 32.53 31.81 30.28 31.10 31.37 35.70 35.96 35.20 33.37 32.38 27.59 26.91 27.36 28.19 32.97 32.54 32.47 31.83 32.78 31.24 30.41 25.35 23.66 22.83 22.24 21.42 21.34 22.58 23.50 25.93 24.60 23.69
38.82 37.76 37.75 38.91 37.82 36.65 35.01 34.17 33.25 33.07 32.23 31.84 31.33 28.65 28.26 29.36 29.77 36.52 37.11 36.18 35.05 30.14 27.13 29.73 32.17 32.67 31.56 29.81 31.40 32.33 31.40 26.46 23.94 22.40 21.90 21.05 20.64 21.27 20.46 21.01 22.96 24.37 23.16
37.13 36.38 37.99 37.31 36.27 35.53 34.66 34.16 33.21 32.22 31.97 32.13 30.35 27.74 27.41 27.51 27.13 28.11 31.05 31.73 35.90 33.81 32.50 27.95 30.30 31.15 31.40 28.90 27.89 27.40 25.87 24.63 22.98 21.43 21.74 23.13 23.45 19.50 20.91 21.83 19.07 20.77 18.33
36.73 35.90 36.59 36.34 36.42 34.02 33.86 33.45 32.93 33.77 34.35 32.83 30.57 28.95 28.13 26.47 27.21 29.74 29.54 29.33 29.54 31.29 29.76 27.25 26.75 26.52 25.85 25.15 24.31 24.16 23.99 23.76 21.88 21.71 21.51 22.11 23.67 22.75 23.63 21.26 21.46 18.46 16.24
36.75 36.09 35.92 35.16 35.32 33.49 32.51 32.44 36.61 36.29 37.49 38.11 36.85 31.97 29.55 32.79 34.48 34.46 33.87 33.50 34.25 34.17 28.76 26.25 25.78 25.82 25.61 25.34 24.52 23.95 23.39 24.25 21.82 21.14 19.67 19.51 19.59 18.74 19.38 19.98 18.77 16.43 15.67
36.92 36.24 35.68 34.61 34.16 32.57 31.95 31.66 31.08 34.21 37.99 37.02 36.50 35.43 34.42 31.63 34.57 33.67 34.21 34.17 34.19 33.42 27.90 27.32 27.03 26.85 26.68 26.14 24.39 22.71 20.92 21.91 17.32 17.12 15.50 14.11 14.10 14.93 21.37 16.91 16.85 16.71 15.83
37.60 37.53 35.14 34.83 34.59 33.54 32.74 32.34 32.63 32.06 30.61 31.45 35.46 34.79 35.71 35.95 35.18 33.46 33.81 33.49 28.68 30.89 29.08 27.95 26.69 27.04 26.55 25.52 24.46 23.48 22.23 20.64 19.68 18.03 14.60 13.76 14.16 13.10 13.21 15.25 15.83 13.95 13.59
36.49 36.27 36.01 35.63 34.81 34.89 33.72 32.76 32.54 32.43 29.51 28.72 28.94 32.99 35.77 36.57 36.49 35.99 34.30 29.27 28.57 28.10 28.04 26.53 27.27 26.54 26.22 26.06 25.20 23.91 22.64 21.55 18.42 17.55 17.70 16.52 15.33 13.53 16.15 16.29 15.57 23.20 22.02
37.26 37.04 37.19 35.18 34.65 34.59 33.59 32.85 32.57 32.47 30.95 29.47 27.94 29.05 30.10 32.74 30.72 31.30 31.63 28.93 28.39 27.78 27.75 27.39 27.61 27.74 27.36 26.61 25.52 24.34 23.48 24.66 21.77 19.19 18.70 18.43 20.40 18.89 19.59 17.46 17.14 16.29 19.33
37.92 37.19 38.05 35.52 34.72 34.62 34.26 33.32 33.12 32.44 31.54 30.96 30.65 29.61 32.72 30.81 30.87 30.72 30.45 29.90 29.45 29.22 28.56 27.15 27.34 27.77 27.74 27.27 26.71 26.18 25.52 25.11 24.28 23.57 22.00 21.67 21.49 20.80 21.58 22.68 22.89 22.78 22.23
38.35 37.23 36.99 35.92 34.76 34.06 34.06 33.72 32.82 32.06 31.80 31.05 30.12 29.20 33.93 31.41 28.30 29.41 30.13 30.53 31.16 31.38 31.18 29.48 28.37 27.77 28.16 27.39 26.88 25.81 25.58 24.94 24.53 23.95 23.54 23.81 22.99 23.38 23.93 23.38 22.74 22.36 22.04
36.44 36.06 35.54 35.61 34.55 35.13 34.35 32.91 32.22 31.77 31.50 31.29 31.29 31.03 30.51 31.71 31.79 30.30 28.91 29.07 26.92 28.34 27.46 27.35 26.60 26.42 27.83 27.90 28.00 27.03 25.47 25.09 25.39 25.28 24.21 23.88 23.54 23.38 23.42 22.51 22.18 21.39 20.92
35.12 34.28 33.96 33.94 33.69 33.53 33.08 32.69 31.89 32.20 31.18 30.78 30.37 30.61 30.33 29.54 30.65 31.20 30.97 30.36 28.17 26.22 26.88 26.10 26.33 27.33 27.67 27.78 27.61 27.67 27.42 27.05 26.78 26.25 25.67 24.28 23.26 24.38 24.66 23.37 22.13 21.23 20.95
31.97 32.39 32.44 32.49 32.62 33.39 32.50 32.06 31.67 31.36 31.37 31.03 30.83 30.72 30.50 30.45 29.80 29.51 30.38 31.30 28.51 27.04 27.85 27.57 27.90 27.42 27.02 26.68 26.87 26.78 26.86 28.15 26.74 26.05 24.82 23.63 22.75 22.87 22.54 21.74 21.15 21.27 21.02
31.07 31.02 31.11 31.25 31.10 31.39 31.53 31.43 31.39 31.21 30.85 30.94 30.51 30.07 29.93 29.48 28.30 28.49 27.76 27.72 27.52 27.58 27.45 27.29 27.14 26.91 26.65 26.49 26.55 27.01 28.60 29.08 28.27 29.35 24.89 23.09 22.24 21.78 21.44 20.30 19.87 20.09 20.13

GFSGL_sfc_wetblb_069.txt.gz
Wetbulb
50.21 49.80 49.64 49.55 50.18 49.77 49.01 49.04 47.68 47.29 46.90 46.37 45.73 45.18 44.75 44.40 44.54 44.77 46.26 46.88 46.99 46.65 46.31 47.66 48.17 49.00 48.54 47.95 47.68 47.72 46.93 47.13 46.72 42.92 43.45 43.30 41.10 41.27 41.57 42.59 43.11 42.66 43.52
47.49 47.82 47.55 47.83 47.85 47.34 47.30 47.17 46.95 45.19 45.36 44.92 44.23 43.83 43.62 43.37 42.82 42.83 44.42 44.15 45.92 46.77 46.75 47.00 45.92 47.07 44.94 44.83 45.24 43.49 42.14 39.86 42.89 42.25 41.63 40.68 39.53 38.77 37.04 40.16 41.37 42.20 40.97
46.12 45.76 45.76 45.50 45.43 45.87 45.54 45.84 45.44 44.15 43.31 43.16 43.24 42.69 42.01 41.54 41.16 41.08 41.65 41.54 40.80 40.79 42.22 42.23 42.53 42.78 40.59 39.95 40.27 41.64 41.16 40.05 37.41 36.47 37.49 39.14 37.81 37.32 37.56 38.43 39.18 35.61 38.96
44.18 43.92 43.66 43.47 43.62 43.20 43.38 43.76 43.48 43.39 42.80 42.05 41.48 40.97 40.49 40.17 40.34 40.39 40.48 39.23 39.09 39.17 38.93 38.71 38.59 38.99 38.87 39.53 40.27 40.16 40.51 39.47 39.53 38.41 37.91 36.52 36.70 36.38 36.45 31.71 31.85 32.47 31.46
43.20 42.74 42.42 42.42 42.16 41.88 41.76 41.64 41.57 41.44 41.10 40.54 39.93 40.18 40.37 40.15 40.71 39.64 41.28 41.18 40.47 39.53 39.64 39.72 39.29 40.42 41.98 41.17 39.15 38.41 38.38 36.91 36.40 36.26 35.76 36.33 35.78 34.69 30.22 30.17 27.94 27.56 28.54
42.49 42.17 42.33 41.67 41.28 40.72 40.30 39.74 39.57 39.34 38.78 38.87 38.91 40.34 40.26 40.69 41.74 42.09 41.67 40.30 39.64 38.26 36.95 36.49 36.93 37.84 39.15 40.06 39.40 39.11 37.48 36.38 35.09 34.42 32.00 31.88 29.75 28.62 27.84 26.60 25.75 22.40 22.90
42.19 42.24 42.01 41.26 40.52 39.90 39.85 38.92 37.56 36.60 36.85 36.88 38.05 39.79 39.36 40.14 42.10 42.15 41.94 38.31 36.63 35.15 33.63 31.88 32.26 34.19 32.31 30.44 35.83 36.25 36.03 37.64 35.66 31.89 27.62 26.80 26.90 27.56 26.83 25.76 25.52 22.62 24.20
41.90 41.96 41.79 40.93 39.94 39.48 38.91 38.16 39.28 35.67 35.62 35.52 37.21 38.85 38.08 39.14 41.24 40.83 39.35 34.64 33.48 33.08 31.36 28.43 27.19 27.82 29.31 29.83 29.22 29.34 29.69 30.07 30.95 31.58 28.85 28.36 28.60 28.48 28.61 27.95 26.56 25.28 25.85
41.81 41.54 41.26 40.62 39.25 38.25 37.47 37.15 37.93 34.97 35.50 36.96 37.90 37.56 36.40 37.12 39.15 39.01 34.30 30.82 28.47 27.28 29.26 31.17 32.10 30.62 34.30 34.29 29.12 27.58 27.40 29.38 33.54 33.94 33.07 33.11 33.09 32.86 30.89 26.58 23.56 20.50 20.83
41.72 41.02 40.68 40.18 39.02 37.14 36.78 37.53 36.15 35.95 35.73 36.12 34.20 34.77 37.23 34.79 38.04 36.63 32.06 28.88 27.07 27.54 28.32 29.66 35.42 33.33 36.21 34.42 28.23 26.19 24.59 25.32 27.04 26.40 25.81 27.19 27.84 27.55 30.85 25.77 23.45 14.33 17.00
41.40 40.90 39.94 39.13 37.78 36.63 36.55 36.79 35.09 34.91 34.72 33.82 33.50 33.40 34.29 34.55 33.77 36.56 35.52 29.14 27.76 27.17 26.92 27.63 29.09 35.44 35.11 34.31 32.90 25.96 26.58 27.14 29.02 24.86 23.38 22.92 23.73 24.67 24.64 25.33 25.74 18.14 13.02
40.45 39.45 38.48 37.96 38.42 37.08 36.83 35.25 34.99 34.46 33.66 33.17 32.71 31.61 32.28 31.52 35.27 36.58 36.00 33.67 31.69 26.80 26.48 26.88 28.16 34.52 34.13 33.95 32.34 32.91 32.17 30.59 24.78 23.43 23.00 22.94 22.34 22.58 23.63 23.98 25.63 23.82 23.12
38.47 37.90 37.39 37.18 37.28 37.32 35.92 34.98 33.99 33.90 33.00 32.23 31.59 30.58 29.46 29.67 29.85 36.83 37.00 35.91 35.00 28.45 27.08 29.50 32.46 33.96 33.12 31.16 32.09 32.83 33.12 26.62 24.35 22.75 22.80 22.41 23.32 24.05 21.78 20.35 22.15 23.66 21.96
36.67 35.82 36.04 35.84 36.53 36.10 35.44 35.03 34.09 33.08 32.50 32.20 31.54 30.46 28.70 27.76 27.76 28.67 32.19 34.31 36.21 33.92 32.41 29.52 30.92 31.67 31.37 29.00 28.57 27.96 26.23 25.68 24.16 22.68 22.67 24.21 24.53 20.43 22.34 21.54 18.27 20.01 17.26
35.93 35.33 34.85 36.00 37.09 34.93 34.84 34.42 33.93 34.72 35.00 32.98 32.78 31.78 28.67 26.15 27.99 30.70 30.23 29.83 30.03 32.66 30.90 27.70 27.14 26.92 26.41 26.09 25.44 24.89 24.67 24.70 23.47 23.56 23.55 23.31 23.87 24.15 23.81 20.76 20.54 17.38 15.62
36.97 36.34 36.54 36.29 36.49 34.67 33.62 33.15 37.63 36.98 37.83 38.08 37.26 33.54 30.76 33.83 34.57 35.06 34.74 34.34 34.92 35.55 30.47 26.19 25.66 26.18 26.02 26.16 25.55 24.77 24.23 25.38 24.29 23.75 22.76 22.13 22.16 20.51 20.41 19.46 17.31 15.19 13.97
37.56 36.84 36.43 35.69 34.79 33.41 32.55 32.26 31.53 34.67 37.76 38.09 38.42 37.73 36.58 32.87 35.79 36.36 35.46 34.76 34.73 34.83 28.18 26.14 26.23 26.52 26.64 26.79 25.59 24.46 23.65 24.17 24.67 22.98 22.01 20.11 17.98 16.10 21.70 16.76 15.99 15.77 14.20
38.13 38.40 35.77 35.55 34.99 33.84 32.91 32.56 32.76 32.04 32.04 33.63 37.56 36.54 36.56 35.36 34.61 35.09 34.69 34.31 29.27 31.56 27.88 27.05 26.58 27.18 27.47 26.29 25.30 25.12 24.65 23.24 23.17 22.90 19.97 17.93 16.94 17.69 17.05 12.64 12.87 10.15 10.01
37.36 36.25 36.75 36.12 34.92 34.90 33.52 32.91 32.80 32.53 31.83 30.35 29.82 33.98 36.82 36.72 36.45 36.46 34.98 28.42 27.55 26.96 27.43 27.96 28.69 27.24 26.53 27.49 27.52 26.37 24.78 23.84 23.26 21.54 21.12 19.93 17.84 16.39 18.01 17.35 15.09 22.93 20.78
37.57 37.46 37.61 35.52 34.60 34.55 33.62 32.88 32.49 32.39 32.02 30.50 29.32 29.65 29.62 33.02 31.31 31.45 31.99 29.39 28.10 28.33 28.42 27.97 28.17 28.20 27.77 28.27 28.06 26.49 25.31 25.62 25.50 23.00 22.74 22.03 20.70 19.13 20.14 19.54 18.70 17.23 17.04
37.88 37.36 38.44 36.10 34.67 34.54 34.24 33.24 33.15 32.89 32.65 32.16 31.52 30.64 32.90 30.77 31.27 31.23 31.25 31.26 29.73 28.71 28.53 28.38 27.96 27.65 27.81 25.28 24.04 23.81 24.61 25.08 24.49 23.88 23.14 22.01 21.92 21.92 22.26 21.96 20.53 20.71 21.40
35.51 37.40 36.99 36.45 34.80 34.13 34.20 34.22 33.68 33.29 33.11 32.70 32.30 30.94 34.85 32.87 31.52 31.80 31.44 31.08 31.07 30.58 30.25 29.72 29.01 29.01 29.32 28.13 27.75 26.66 25.21 24.40 24.62 24.41 22.40 23.11 23.58 23.39 23.35 22.32 22.44 22.41 22.06
33.01 34.58 35.55 35.74 35.20 35.74 34.98 34.03 33.44 33.10 32.82 32.60 32.25 31.12 31.50 32.33 31.98 30.13 28.73 29.47 29.44 30.44 30.94 30.82 31.13 29.68 27.96 27.90 27.28 26.68 24.94 24.79 24.88 24.87 24.37 23.94 23.62 23.78 23.69 22.82 22.75 22.03 21.42
32.30 32.44 33.48 34.19 33.84 33.87 33.82 33.62 32.92 33.24 32.32 31.97 31.57 31.51 31.18 31.15 31.88 31.95 31.83 31.44 30.61 30.09 28.42 28.54 28.82 26.49 26.10 27.36 27.03 26.03 25.53 24.86 25.77 26.43 25.31 24.20 24.13 24.70 24.34 23.29 22.66 22.10 21.62
31.42 31.52 31.75 32.06 32.67 33.83 32.99 32.54 32.03 31.82 31.78 31.39 31.13 30.89 31.04 30.95 30.14 30.08 30.36 30.79 30.29 28.61 26.22 26.68 27.70 26.72 27.13 26.76 27.18 27.08 27.80 29.21 27.22 26.86 26.54 25.76 24.66 23.58 23.36 23.12 22.66 22.29 21.25
30.66 31.38 31.56 31.57 31.28 31.52 31.67 31.67 31.60 31.38 30.79 30.84 30.45 30.23 29.88 29.38 29.23 29.62 29.00 28.34 27.81 26.79 26.35 26.44 26.42 25.55 25.51 26.03 26.42 27.54 29.27 29.80 29.56 30.28 26.86 24.11 22.78 22.37 22.46 21.60 20.93 20.56 19.82

GFSGL_sfc_wetblb_072.txt.gz
Wetbulb
47.87 47.65 48.19 49.14 50.02 49.78 49.33 49.10 48.28 47.28 46.62 46.24 46.03 45.50 45.24 45.12 44.67 44.18 44.55 46.50 46.18 45.94 45.43 45.55 46.46 47.27 48.35 47.72 48.11 48.22 47.52 47.22 47.74 42.68 43.18 42.60 41.27 41.44 41.81 42.77 42.83 42.65 42.91
47.03 47.41 47.81 48.16 48.60 47.71 47.93 48.12 46.58 45.93 45.67 45.58 44.43 44.14 43.52 43.57 42.91 43.08 43.56 45.43 44.81 44.91 45.48 44.82 44.75 46.36 45.48 45.23 45.59 44.43 43.07 42.66 44.66 42.11 41.56 40.42 39.48 38.99 39.04 40.13 41.31 41.76 40.07
45.78 45.90 45.48 45.41 45.34 45.25 45.11 44.77 44.76 44.12 43.72 43.48 43.41 42.60 41.92 41.44 41.46 41.28 41.61 41.96 41.22 41.21 42.06 43.67 43.02 43.73 41.77 41.69 42.43 42.14 41.71 41.20 40.35 40.32 37.59 39.14 37.75 37.89 37.88 38.20 38.99 35.46 37.96
44.35 44.25 43.75 43.39 43.61 43.51 43.52 43.13 42.89 42.77 42.03 41.43 40.96 40.38 40.52 40.02 39.89 39.60 39.75 38.74 38.60 38.50 38.63 38.78 39.73 40.77 40.70 40.43 40.84 40.74 40.75 39.85 40.01 38.54 37.94 36.79 36.77 36.61 36.19 32.35 34.60 31.41 30.91
43.11 42.87 42.88 42.83 42.48 42.24 41.95 41.75 41.56 41.35 41.16 40.38 39.52 39.22 39.18 39.37 39.85 38.39 39.52 39.75 40.36 39.78 39.83 39.41 39.07 40.11 41.96 41.33 39.78 39.01 39.20 37.78 36.87 36.50 36.07 36.24 35.89 34.55 30.89 31.20 28.58 27.75 28.14
42.45 42.34 42.46 41.74 41.16 40.80 40.24 39.67 39.26 38.81 38.47 38.44 38.14 38.45 38.34 40.15 42.46 42.61 41.98 40.74 40.25 39.04 37.69 37.06 37.65 38.28 40.11 40.60 40.19 39.42 38.52 37.14 35.72 35.53 34.49 33.63 30.32 29.61 28.31 27.04 26.25 23.07 23.94
42.05 41.94 41.60 40.98 40.34 39.54 39.23 38.44 37.40 36.59 36.28 36.30 36.57 37.45 37.48 39.59 42.34 42.58 42.99 39.59 37.95 36.55 35.27 33.99 34.29 34.69 33.06 30.81 36.72 36.42 36.95 38.23 36.33 33.86 30.67 29.41 28.03 28.38 27.34 26.31 25.60 23.78 24.40
41.58 41.65 41.33 40.50 39.63 38.89 38.16 37.20 35.87 35.03 34.99 34.78 35.28 36.17 36.66 39.06 42.68 41.89 41.19 35.53 34.11 33.51 33.11 32.01 26.45 26.54 29.69 30.02 29.47 29.37 29.04 29.62 30.19 31.30 29.45 28.93 28.82 28.63 29.00 28.05 26.68 25.53 25.89
41.58 41.46 41.27 40.38 38.88 38.01 37.08 36.13 35.65 34.93 33.93 34.22 35.26 35.67 36.80 37.56 41.43 41.03 37.04 33.48 33.20 32.43 31.58 29.71 29.31 28.64 33.31 34.61 28.96 28.47 28.55 29.84 34.11 34.58 34.08 34.76 34.86 34.18 30.88 27.16 24.66 22.29 22.28
42.05 41.66 40.97 40.21 39.33 37.62 36.58 35.27 35.09 37.07 34.97 35.52 33.95 35.12 37.88 35.92 39.87 39.57 35.07 31.35 29.78 28.41 29.50 30.71 36.19 32.03 36.05 35.19 28.35 27.04 25.48 26.78 27.58 27.20 26.77 27.47 27.42 28.22 31.71 26.29 25.37 19.99 21.65
41.04 40.53 39.77 39.36 38.50 37.41 35.63 34.69 34.65 36.44 35.40 34.58 34.22 34.08 35.19 35.75 36.32 38.26 35.74 28.14 27.45 26.79 27.33 28.90 30.06 36.91 36.86 35.65 32.35 26.24 26.76 27.53 29.31 25.80 23.89 22.92 23.35 24.57 25.24 25.71 26.38 21.98 16.82
40.50 39.80 38.56 37.47 38.24 37.28 35.45 34.23 35.77 35.40 34.58 34.13 33.85 33.38 33.65 34.09 37.49 38.29 36.92 34.07 31.91 26.83 26.47 27.98 29.08 34.77 35.42 34.90 33.09 32.47 33.02 31.09 25.22 23.72 22.84 22.30 22.36 23.27 25.14 26.50 26.86 26.16 25.01
38.09 37.44 36.56 36.35 36.73 36.30 35.12 35.00 34.97 35.02 34.29 33.46 32.76 32.34 31.59 32.09 30.56 37.13 37.61 37.01 34.97 27.64 26.56 29.04 31.69 34.46 34.75 33.18 33.87 34.03 34.48 26.94 24.60 22.76 22.50 22.14 22.68 23.65 23.76 24.95 25.91 25.38 21.95
36.48 35.51 35.08 35.23 35.10 34.54 35.60 35.73 34.91 33.99 33.51 33.12 32.30 31.75 31.41 30.26 29.44 29.23 32.17 33.62 35.84 32.92 31.60 29.52 31.78 32.62 32.41 29.71 29.48 28.93 27.22 26.05 24.69 22.90 22.68 23.90 25.23 24.30 24.80 24.86 21.82 21.41 17.55
35.66 34.62 34.23 34.98 36.59 34.70 35.73 35.32 34.83 35.72 35.79 33.77 33.39 33.29 31.49 29.71 29.33 31.55 31.24 30.59 31.45 32.85 30.62 27.63 26.75 26.85 27.16 26.82 25.96 25.26 24.60 25.35 25.51 24.06 23.65 23.84 24.68 25.91 25.55 24.02 21.81 16.96 16.43
37.33 36.49 36.68 36.78 37.35 35.66 34.63 34.23 38.46 38.01 38.41 38.79 38.12 35.52 33.04 35.69 35.37 35.61 35.56 35.73 36.32 36.58 31.49 26.69 26.06 25.78 25.69 26.19 25.71 25.24 24.86 25.89 24.60 24.90 24.46 23.93 23.90 24.01 23.34 22.13 18.99 16.22 16.24
38.21 37.51 37.07 36.72 36.00 34.70 33.81 33.29 32.51 35.17 39.00 38.70 39.03 38.81 37.96 34.95 37.06 36.40 36.25 35.96 35.77 35.35 30.72 26.85 25.92 25.61 25.63 25.92 25.39 24.74 24.18 24.77 25.15 23.74 24.09 22.68 21.85 21.80 23.89 22.01 20.60 20.57 19.28
39.16 39.57 36.91 36.71 36.10 35.15 33.86 33.41 33.36 32.80 32.24 32.90 37.58 38.70 39.13 38.23 36.44 36.62 36.63 35.71 29.94 32.21 29.82 28.07 26.95 26.77 26.47 26.30 25.77 25.67 25.05 22.92 22.02 22.28 21.42 21.82 20.79 21.15 20.85 20.83 19.10 17.96 19.23
38.76 37.93 37.90 37.09 35.78 35.89 34.13 33.42 33.14 32.90 32.68 32.81 32.21 36.09 38.87 38.67 36.62 35.69 35.70 29.72 28.84 28.00 28.51 27.93 26.89 26.30 26.56 26.66 26.99 26.46 25.32 23.21 20.52 21.19 22.47 20.27 18.26 16.86 19.17 20.58 17.72 22.83 21.30
38.42 38.57 38.36 36.45 34.99 34.83 33.82 33.08 32.68 32.61 32.47 32.23 31.69 32.22 32.08 35.62 32.81 32.65 31.97 30.08 28.64 28.03 27.86 27.98 28.73 29.13 28.52 27.53 26.96 26.84 25.80 25.55 24.18 21.75 20.70 20.01 19.85 18.06 18.38 20.31 20.75 20.22 19.72
35.12 37.56 39.07 36.74 34.95 34.42 34.28 33.28 33.23 32.92 32.69 32.64 32.60 32.62 33.56 31.04 32.24 32.13 31.91 32.05 30.94 29.56 29.28 28.88 28.72 29.02 29.03 28.48 28.06 26.00 24.97 24.50 24.10 23.59 21.27 21.58 19.45 17.76 21.03 22.45 22.57 21.89 21.44
33.65 34.64 36.67 36.96 35.26 34.08 34.09 34.18 33.65 33.20 33.17 33.10 33.17 33.05 36.62 33.89 31.56 31.86 31.89 31.82 32.06 32.09 31.24 30.32 29.83 29.61 29.52 28.88 27.45 24.99 23.21 23.33 22.30 21.61 21.61 20.13 20.45 22.58 23.46 22.92 22.66 22.31 22.19
31.69 31.56 32.80 34.73 35.44 36.07 35.21 34.32 33.75 33.48 33.34 33.38 33.32 32.06 32.60 32.86 32.52 31.66 31.95 32.47 32.39 31.96 31.98 30.68 30.51 29.96 30.03 30.40 30.42 29.66 28.50 27.93 26.77 24.94 22.35 22.74 23.22 23.64 24.06 23.29 22.94 22.63 22.53
32.03 30.76 31.53 32.78 33.93 34.34 34.61 34.20 33.73 34.13 33.35 33.02 32.47 32.17 31.58 32.05 32.55 32.30 31.59 30.63 30.68 30.85 30.71 30.89 31.25 31.26 28.26 28.44 28.22 28.08 27.71 25.20 25.44 24.94 24.78 24.31 24.23 25.13 24.49 23.80 23.51 23.29 22.78
31.11 30.76 30.95 31.31 31.95 32.99 33.52 33.69 33.20 32.85 32.53 32.04 31.88 31.56 31.60 31.41 31.15 31.03 30.75 30.71 30.84 30.58 29.36 29.01 28.82 27.82 26.40 25.91 25.95 25.82 26.87 29.20 26.09 25.90 25.46 24.99 24.70 24.67 24.35 23.87 23.16 23.22 22.53
29.80 30.09 31.06 31.30 31.29 31.61 31.74 31.85 31.90 31.83 31.44 31.44 30.88 30.59 29.63 28.93 28.76 29.42 28.64 27.87 28.02 28.86 28.71 25.98 25.86 25.11 24.70 24.57 24.24 25.05 29.57 30.72 30.01 29.97 25.98 25.09 24.25 24.02 23.86 22.59 21.81 22.00 21.41

GFSGL_sfc_wetblb_075.txt.gz
Wetbulb
47.43 47.39 47.52 47.72 48.53 49.10 49.75 49.51 47.95 47.58 47.46 47.78 47.49 46.83 45.94 45.30 44.36 43.69 44.00 44.63 45.64 45.40 45.18 45.02 45.47 46.18 45.80 46.40 47.35 48.28 48.13 47.24 48.20 42.30 43.13 43.10 42.08 42.35 42.44 42.89 42.85 42.64 42.56
46.24 46.47 47.03 47.65 47.98 48.03 48.28 48.46 47.04 46.87 46.13 46.00 45.64 44.42 43.67 43.25 42.66 42.18 42.34 43.65 44.41 44.07 44.63 44.61 44.82 45.87 44.18 43.83 45.40 45.05 44.10 43.29 45.17 41.91 41.24 40.50 39.59 39.61 39.72 40.43 41.51 40.99 39.43
44.95 45.29 45.20 45.18 45.40 45.45 45.57 45.53 45.88 44.85 44.17 43.04 42.91 42.47 42.09 41.73 41.34 40.78 40.93 41.43 40.90 40.66 40.93 42.62 42.23 42.76 42.61 42.40 42.94 42.74 42.20 41.79 41.21 41.17 37.91 39.16 37.94 38.18 38.28 38.30 38.59 35.36 36.21
43.80 43.96 43.76 43.46 43.74 43.68 43.51 43.31 43.23 42.59 41.67 41.14 41.03 40.75 40.30 39.56 39.16 38.75 38.98 38.30 37.64 37.84 38.01 38.12 40.54 41.30 41.46 41.02 41.26 41.09 41.07 40.33 40.50 39.75 38.28 37.17 37.00 36.97 37.08 34.04 35.18 32.00 31.01
43.07 42.81 43.06 42.60 42.35 42.27 42.04 41.60 41.38 41.07 40.71 40.23 39.18 38.71 38.60 38.69 39.14 37.92 38.27 37.90 38.52 39.74 39.61 39.54 39.74 40.73 42.05 41.59 40.42 39.68 39.84 38.71 37.42 36.93 36.22 36.39 36.00 34.99 33.03 31.37 31.16 28.88 28.67
42.36 42.55 42.76 42.00 41.40 40.90 40.25 39.70 39.33 38.90 38.48 38.19 37.76 37.98 37.50 39.55 42.20 43.52 42.11 40.53 40.82 39.97 38.56 38.24 38.98 40.34 40.88 41.32 40.40 39.94 39.21 37.60 36.34 36.03 35.29 35.10 33.52 31.72 29.48 28.71 27.61 24.87 25.24
41.93 42.01 41.87 41.26 40.45 39.72 39.29 38.44 37.50 36.76 36.30 36.22 36.15 36.71 36.60 36.98 42.09 43.12 43.14 40.56 39.19 37.88 36.58 35.25 35.26 36.10 33.90 32.08 36.82 36.96 37.92 38.80 37.70 35.43 34.02 30.30 28.98 29.38 27.81 26.22 26.31 25.82 24.55
41.26 41.38 41.29 40.46 39.59 38.71 37.90 37.19 35.91 35.01 35.15 34.69 34.79 35.38 35.51 37.08 41.83 43.18 42.60 36.08 34.59 34.03 34.19 33.40 33.06 31.06 29.10 29.81 28.80 28.97 28.50 29.23 29.73 30.50 29.19 28.03 28.61 28.47 28.66 28.53 27.67 25.98 26.26
40.84 41.18 40.98 40.10 38.79 37.78 36.85 35.99 34.83 34.20 33.66 33.70 34.41 34.32 34.03 34.36 40.88 42.19 37.94 33.76 33.67 33.44 32.57 31.94 30.90 27.79 31.76 34.83 29.19 28.86 28.38 29.94 34.52 35.21 35.02 35.61 35.17 34.57 31.82 28.09 25.29 23.57 23.27
40.42 40.97 40.67 40.09 39.25 37.76 36.62 35.09 34.56 34.46 34.23 33.09 33.99 33.34 36.32 35.20 40.68 41.17 38.26 33.93 32.83 32.38 31.54 31.06 34.80 30.25 34.63 35.68 28.29 27.39 26.56 27.15 28.03 27.37 26.78 28.00 27.05 29.37 33.47 26.55 25.85 19.25 21.59
40.35 40.38 39.59 39.38 38.83 37.94 35.64 34.00 34.12 34.02 34.11 35.26 34.76 34.36 34.70 36.83 36.80 40.70 39.72 30.13 30.15 29.64 28.92 27.76 28.97 36.89 36.73 36.14 33.31 26.66 27.14 27.94 29.63 26.26 24.09 23.05 23.85 25.10 25.27 25.49 25.77 21.74 19.21
39.01 38.83 38.42 37.71 38.29 36.82 34.98 34.52 32.87 33.46 34.88 35.15 34.88 34.60 35.04 35.89 38.79 38.85 39.01 35.19 31.90 26.57 26.24 26.99 28.12 35.22 36.98 36.26 34.22 32.22 32.64 30.63 26.38 24.45 23.29 22.84 22.86 23.94 25.32 25.90 26.56 26.17 26.02
37.42 37.06 36.40 35.87 35.83 35.20 34.43 33.46 33.00 33.60 35.17 34.31 33.48 33.45 33.17 33.35 33.59 39.02 39.55 38.29 35.91 28.12 25.51 28.37 31.84 33.66 35.63 34.49 35.31 34.87 34.35 27.35 25.20 23.52 23.14 23.00 23.63 24.49 25.35 25.61 26.01 26.45 25.67
36.36 35.44 34.59 34.27 34.01 33.62 33.37 34.35 34.85 35.00 34.38 33.78 32.97 32.81 33.09 32.07 32.16 32.08 32.70 33.45 36.81 33.22 31.57 27.82 31.14 32.23 34.02 31.24 30.67 30.38 28.45 27.04 25.67 23.74 22.98 23.82 25.16 24.74 25.12 26.21 25.41 25.03 24.09
36.24 34.64 33.77 33.83 35.36 33.80 34.18 35.19 35.56 36.66 36.86 34.47 34.10 34.06 32.78 31.49 31.95 33.98 32.74 30.66 29.32 30.85 28.77 26.29 26.52 26.86 27.30 27.15 26.24 25.44 24.95 26.00 26.41 24.71 23.51 23.71 24.58 25.74 25.77 24.99 24.76 22.90 20.26
37.35 37.28 36.83 36.43 37.17 36.03 35.35 35.00 39.05 38.63 39.28 39.38 38.55 36.19 34.65 37.18 37.38 37.17 36.61 35.74 36.41 36.43 30.16 25.69 24.82 25.54 25.51 26.52 26.76 26.15 24.95 26.01 24.37 24.46 23.14 23.07 23.41 23.58 22.92 22.89 22.49 20.30 20.69
38.61 38.58 37.47 36.65 36.56 35.45 34.50 34.14 33.62 35.20 39.52 39.13 39.37 39.54 38.96 35.72 37.92 37.45 37.18 36.63 36.59 36.68 32.36 30.09 26.54 25.67 26.14 26.64 25.44 24.65 23.86 24.18 23.80 23.78 22.99 21.36 20.92 21.26 24.02 22.96 22.11 22.07 20.70
37.52 39.91 38.07 37.20 37.20 36.43 34.97 34.47 34.27 33.45 32.88 34.26 38.48 38.88 39.35 39.47 38.63 37.63 37.53 36.62 31.44 33.64 30.85 29.78 28.18 28.01 26.84 26.01 25.51 25.41 25.20 24.09 23.35 23.04 21.96 20.01 19.54 19.21 18.02 19.18 19.41 18.63 18.55
34.74 37.08 38.72 38.18 36.93 37.19 35.22 34.25 33.94 33.44 33.24 33.45 32.51 36.15 38.74 39.44 39.51 38.67 38.05 32.80 30.57 28.98 29.09 28.86 28.19 27.60 27.21 26.94 26.46 25.35 24.80 24.30 22.73 20.78 20.50 20.90 19.24 17.71 18.60 19.63 18.44 23.05 20.79
33.93 35.44 37.77 37.31 35.77 35.17 34.52 33.66 33.17 32.99 32.87 32.92 32.55 33.09 33.70 36.69 34.72 33.73 32.97 30.94 29.77 29.11 28.61 28.50 28.32 27.60 27.38 26.03 25.68 26.44 25.73 26.05 25.31 22.55 22.66 21.17 18.36 17.06 18.65 19.15 19.15 17.71 19.03
33.24 33.92 35.76 36.47 35.44 34.69 34.53 33.54 33.53 33.11 32.84 32.82 33.17 33.97 35.96 33.63 33.38 33.33 32.16 30.64 30.28 29.88 28.64 27.64 27.75 28.27 28.77 28.73 27.74 27.33 27.01 26.63 25.55 25.41 23.55 21.10 20.17 18.71 19.71 21.12 21.59 21.25 21.35
32.24 32.49 33.07 33.76 35.44 34.59 34.22 34.40 33.72 33.27 33.14 33.00 33.29 33.56 37.14 35.14 32.76 32.86 32.38 32.05 32.31 32.55 32.00 30.07 29.02 28.99 29.83 29.64 29.20 28.61 27.85 26.05 25.23 25.53 23.38 22.35 21.34 20.85 21.66 21.19 21.36 21.54 22.36
31.03 30.64 31.30 31.71 32.36 34.82 35.29 34.72 33.95 33.58 33.29 33.35 33.52 32.90 33.60 34.40 32.80 31.93 32.55 33.04 32.94 32.58 32.23 30.81 31.19 31.65 31.61 31.06 30.70 28.80 26.25 25.27 26.04 26.37 23.68 22.40 21.57 22.26 22.57 22.07 22.30 22.37 22.17
29.74 30.14 30.73 30.96 31.55 32.21 33.54 34.28 34.14 34.41 33.61 33.33 33.14 33.03 32.44 33.09 33.24 32.83 32.47 32.67 32.69 33.00 32.85 32.46 31.88 31.64 31.12 30.24 30.81 30.90 30.39 29.85 29.64 28.11 27.11 24.20 22.92 24.45 23.05 22.88 23.01 23.08 23.11
30.45 30.49 29.43 29.45 30.26 30.29 32.04 33.56 33.66 33.51 33.29 32.76 32.61 32.47 32.52 32.18 32.32 32.37 32.08 31.77 31.21 31.11 30.42 30.52 31.19 31.20 31.30 29.97 28.19 27.26 27.66 30.30 26.46 25.25 24.30 23.23 22.58 22.78 23.57 22.86 22.81 22.97 22.67
28.56 27.64 28.31 29.28 30.16 30.68 30.93 31.83 32.52 32.50 31.97 31.98 31.67 31.68 31.52 31.19 30.83 30.77 30.01 29.97 29.88 29.87 29.61 28.77 27.37 27.43 27.32 26.46 26.26 26.42 29.49 30.92 30.24 29.77 24.31 22.60 21.78 22.99 23.21 22.15 21.51 21.49 21.12

GFSGL_sfc_wetblb_078.txt.gz
Wetbulb
46.57 46.81 47.13 47.74 48.61 49.92 50.28 49.80 49.45 49.72 50.80 49.26 48.71 47.45 46.79 46.06 45.72 45.53 44.84 44.66 45.18 45.06 44.70 44.60 45.18 45.36 45.53 45.58 47.84 47.37 46.56 47.66 47.21 42.82 43.44 43.41 42.94 43.29 42.98 43.12 43.34 42.77 42.81
44.97 45.28 45.89 46.63 46.99 47.10 47.34 47.50 47.37 47.24 47.13 46.97 46.43 45.49 44.54 44.32 43.04 42.54 42.14 42.33 43.15 43.19 43.43 43.40 43.53 45.36 43.25 43.24 43.35 43.38 44.26 44.12 44.91 42.76 41.37 40.64 40.12 40.57 40.69 41.04 41.68 40.87 39.69
44.24 44.62 44.76 44.97 45.13 45.38 45.66 45.64 45.47 44.70 44.08 44.22 43.78 43.11 42.20 41.94 40.91 40.11 40.24 40.19 39.91 39.30 39.57 40.13 41.30 41.14 40.52 40.97 42.73 43.18 42.68 42.23 41.89 41.66 38.43 39.41 38.35 38.71 38.65 38.87 38.69 37.16 35.32
42.61 43.01 43.30 43.51 43.91 43.79 43.54 43.46 43.31 42.89 42.09 41.47 41.30 40.85 40.33 39.47 39.00 38.65 38.56 37.78 37.08 37.27 37.49 37.57 39.22 41.65 42.11 41.75 41.64 41.73 41.57 40.40 40.73 40.35 39.01 37.62 37.39 37.49 37.60 35.26 35.56 33.90 31.19
42.21 41.99 42.42 42.42 42.06 42.01 42.08 41.78 41.46 41.01 40.52 40.09 39.17 38.62 38.36 38.50 38.89 37.80 38.22 37.71 37.33 38.79 39.93 39.71 40.15 41.01 42.30 42.07 40.89 40.35 40.26 39.42 37.88 37.27 36.61 36.75 36.15 35.29 34.58 34.09 32.96 30.16 28.08
40.86 41.68 42.38 42.02 41.43 41.04 40.64 39.88 39.51 38.99 38.34 38.02 37.66 37.72 37.27 39.47 42.54 43.37 40.92 37.94 38.98 40.38 39.49 38.88 39.99 41.06 41.30 41.89 41.11 40.68 39.81 38.12 36.84 36.28 35.94 35.80 35.47 34.30 31.91 31.05 27.11 23.87 24.95
40.35 41.06 41.73 41.40 40.73 40.03 39.49 38.50 37.71 37.02 36.51 36.44 36.27 36.67 36.37 36.68 42.24 43.19 43.22 38.53 37.18 38.39 37.39 36.29 36.17 37.14 35.01 34.49 37.37 37.39 38.33 38.40 38.35 36.41 35.10 34.05 32.96 31.69 28.99 26.05 26.41 26.47 25.75
40.16 40.65 41.19 40.73 40.07 39.15 38.07 37.37 36.08 35.13 35.43 34.89 34.99 35.40 35.39 36.71 41.90 42.70 42.83 36.72 34.03 34.24 34.92 34.43 34.26 32.70 32.25 31.99 28.95 28.44 27.95 29.51 29.19 30.30 30.54 29.87 29.40 29.84 29.47 28.80 27.98 26.68 26.14
39.57 39.81 40.30 40.27 39.12 37.92 37.16 36.21 34.95 34.33 33.72 33.80 34.27 34.22 33.92 34.17 41.23 42.38 38.83 33.76 34.00 33.90 33.78 33.94 33.42 32.10 33.60 35.62 28.76 27.74 27.60 28.67 34.93 36.16 35.95 35.76 35.36 34.57 31.54 28.00 26.51 23.63 23.91
39.41 40.22 40.16 39.83 39.53 38.28 37.66 35.56 34.31 33.89 34.03 32.78 33.97 33.69 35.77 31.96 39.75 42.06 39.02 34.67 33.51 33.73 33.12 32.20 35.78 30.99 33.72 36.48 27.02 26.11 25.42 26.34 27.35 27.57 26.83 27.08 28.44 31.31 34.16 27.66 27.71 24.62 23.58
39.12 39.47 39.30 39.04 39.16 39.07 35.97 34.21 33.79 33.71 33.14 32.46 34.05 34.74 35.72 34.81 34.73 41.49 41.50 34.04 33.61 31.91 31.96 30.98 30.96 36.77 35.80 36.94 33.00 25.32 26.34 27.93 29.88 25.60 23.84 24.00 24.26 25.79 25.46 26.11 27.06 23.64 19.69
38.18 37.88 37.74 37.65 37.79 37.07 35.25 33.95 32.91 33.80 34.74 34.74 35.63 35.33 35.86 36.53 39.35 40.14 41.58 37.46 34.81 29.65 29.19 28.52 27.84 34.71 37.36 37.68 34.73 32.35 32.63 31.05 26.81 24.64 23.34 22.50 22.23 23.36 25.06 26.29 26.62 26.08 26.03
36.99 36.37 35.95 35.88 35.42 34.92 34.13 35.56 33.84 34.50 35.28 35.15 34.33 34.21 33.86 34.50 35.05 40.37 40.40 40.36 36.68 27.79 26.10 28.53 31.74 34.26 36.61 36.15 36.35 35.60 34.27 25.88 24.50 23.20 23.07 23.33 24.40 24.52 25.10 25.15 25.89 26.40 26.23
38.60 38.12 35.42 33.84 33.93 33.83 35.81 35.90 35.85 35.18 35.17 34.58 33.70 33.51 34.04 33.28 33.40 33.75 36.06 37.97 39.11 34.42 32.40 28.51 31.08 31.84 33.48 32.28 32.04 31.95 29.25 27.18 25.71 23.44 22.22 23.22 24.29 23.06 24.64 25.79 24.46 24.53 23.04
38.48 38.41 36.71 35.57 35.05 33.08 32.30 34.94 35.82 37.16 37.50 35.42 34.83 34.66 33.58 32.70 33.05 35.47 34.67 33.30 32.52 32.09 28.71 26.72 26.47 26.35 27.15 27.04 26.22 26.18 25.20 26.28 26.47 24.31 22.63 22.62 24.15 25.38 25.53 25.20 24.47 22.20 18.71
35.24 37.39 38.61 37.34 36.91 35.87 35.12 35.21 39.23 39.07 39.92 40.12 39.07 36.87 35.18 37.42 37.97 38.01 38.11 37.60 37.16 36.68 29.04 26.30 25.01 25.68 26.34 26.62 26.39 25.94 25.03 25.95 24.78 25.72 22.87 22.43 22.99 23.49 23.40 23.03 21.79 20.81 19.45
33.10 34.02 36.70 37.87 36.94 35.84 34.67 34.48 34.34 35.97 39.98 39.64 39.94 39.57 38.85 36.38 38.56 38.82 38.46 38.24 38.04 36.88 31.12 28.38 26.28 25.88 26.17 26.32 25.35 24.53 23.67 24.60 24.23 22.75 22.71 21.52 21.22 20.37 23.38 21.02 19.31 18.94 18.35
32.76 34.57 34.44 37.29 37.60 37.09 35.42 35.06 35.08 34.44 33.85 34.60 39.15 39.50 39.98 39.88 38.79 38.02 38.96 38.26 34.18 35.39 32.43 31.35 30.16 27.95 26.89 26.22 25.56 25.00 24.44 23.67 23.33 23.50 21.58 19.21 18.88 19.48 16.06 18.16 19.20 15.59 13.90
32.34 32.79 33.62 34.85 37.55 37.91 36.04 34.79 34.73 34.31 34.12 34.15 32.83 36.76 39.69 39.93 40.01 39.88 39.10 34.72 32.26 31.08 31.28 30.91 30.14 29.41 28.65 27.96 27.16 26.00 25.43 24.64 23.93 21.62 21.44 20.05 18.83 14.57 16.34 17.99 16.75 23.15 20.02
32.33 33.85 34.42 33.93 34.68 35.50 35.24 34.31 33.67 33.55 33.44 33.46 33.00 33.52 33.58 36.91 35.12 35.71 35.93 34.23 32.51 31.66 30.91 30.36 30.03 29.34 28.54 27.70 26.95 26.56 24.73 25.45 25.13 22.89 22.16 21.39 20.48 18.35 16.01 17.08 18.07 16.83 17.06
32.01 31.75 33.20 33.13 32.96 34.18 34.66 34.15 33.76 33.22 33.08 33.17 33.60 34.40 36.46 34.12 34.09 34.46 33.81 32.94 32.22 31.59 30.65 29.24 29.21 28.27 27.77 27.24 26.58 25.86 25.58 25.49 25.88 25.47 24.11 22.91 20.29 16.61 19.05 20.64 19.46 19.53 16.93
30.92 30.60 30.48 31.47 32.17 32.45 33.49 34.35 33.95 33.28 32.88 32.85 33.42 33.63 37.57 35.80 34.06 34.00 33.98 33.34 31.67 30.84 30.86 30.10 29.90 29.38 29.35 29.09 28.32 27.59 27.03 26.86 26.99 25.66 25.44 24.84 24.42 22.48 21.86 20.85 20.67 19.86 18.53
29.58 29.00 28.37 29.46 31.15 32.49 32.28 32.72 33.86 33.54 33.23 33.25 33.57 33.10 33.26 34.36 34.05 33.46 33.75 33.75 32.54 31.74 31.18 30.59 30.20 29.59 30.01 29.95 30.33 30.06 29.00 27.28 27.29 27.38 25.83 24.29 23.53 22.69 22.39 21.47 20.93 19.59 19.70
28.15 28.37 28.91 29.60 30.85 31.04 31.22 31.60 32.92 34.30 33.81 33.41 33.37 33.16 32.74 33.25 34.07 33.37 32.81 33.12 33.03 33.24 33.38 32.65 32.42 31.71 32.02 31.93 31.79 31.07 30.43 29.98 28.82 27.85 27.58 25.49 23.56 25.03 22.78 21.94 21.73 21.40 21.99
27.86 27.86 29.19 29.24 28.21 28.47 29.66 30.43 31.39 33.20 33.53 33.22 33.05 32.87 33.05 32.74 32.66 33.19 33.03 32.77 32.68 32.56 32.40 32.67 32.82 32.55 32.15 31.00 30.39 30.47 30.70 31.92 29.85 28.94 28.38 26.14 24.79 24.65 23.15 22.39 21.77 22.33 21.77
29.52 28.27 27.17 27.63 27.23 28.12 29.38 30.00 30.22 31.84 32.49 32.66 32.41 32.45 32.27 31.83 32.00 32.07 32.04 31.84 31.61 31.38 30.84 30.81 30.43 30.03 29.58 29.38 28.35 28.66 30.86 31.94 31.48 30.13 26.01 24.36 22.97 22.95 22.99 21.87 21.55 22.36 21.15

GFSGL_sfc_wetblb_081.txt.gz
Wetbulb
48.10 48.75 49.48 50.10 50.24 52.11 53.76 53.60 53.95 53.81 53.98 52.96 52.09 50.71 49.73 49.07 49.18 49.03 48.44 47.57 47.92 48.48 48.88 48.95 48.86 49.49 49.79 50.06 50.81 50.86 49.97 50.16 46.99 45.74 45.53 45.30 45.04 44.85 44.46 44.29 44.31 43.67 43.70
46.30 47.63 48.28 48.82 50.08 50.47 51.13 51.31 51.28 51.53 52.02 52.28 50.91 49.17 47.95 47.35 46.88 46.83 46.02 46.20 46.84 46.79 46.76 46.91 47.06 47.11 48.08 48.52 48.88 48.22 47.41 48.14 47.20 46.18 43.72 42.11 41.95 42.39 42.23 42.19 42.13 41.22 40.61
45.52 45.98 47.06 47.57 48.23 48.64 48.74 48.61 48.55 48.47 48.56 47.86 47.67 46.67 45.45 44.66 43.63 43.50 43.41 43.10 43.38 43.15 43.38 43.88 45.07 45.77 45.81 45.82 46.17 46.23 46.59 45.13 45.08 45.03 42.30 41.97 41.06 40.52 40.00 40.07 39.37 38.22 36.40
43.64 44.63 45.28 46.06 46.83 47.03 46.72 46.51 46.15 45.65 45.13 44.95 44.85 43.87 43.25 42.52 42.32 42.12 42.01 41.96 41.76 41.72 41.82 42.15 42.82 44.04 44.59 44.41 43.68 43.86 43.57 42.83 42.52 42.35 41.46 39.87 39.31 39.00 39.19 36.98 36.70 36.38 34.53
42.26 43.02 44.08 45.15 45.30 45.42 45.37 45.21 44.68 44.44 44.03 43.61 42.81 42.41 42.15 42.02 41.39 41.67 41.69 41.75 41.75 41.65 41.89 42.05 42.13 42.16 42.62 43.12 42.58 42.37 42.05 41.44 41.04 40.16 39.12 38.71 37.58 36.41 36.21 36.29 36.06 33.76 32.73
41.45 41.92 43.16 44.13 44.52 44.33 44.15 43.45 43.10 42.70 42.19 42.02 41.92 41.71 41.42 41.19 43.09 42.99 42.16 41.81 41.63 41.77 41.80 41.39 41.58 42.29 42.44 42.64 42.04 41.56 41.23 39.81 38.79 38.64 38.58 37.59 37.63 37.16 34.85 34.32 32.82 32.14 35.06
40.90 41.72 42.31 42.88 43.25 43.19 42.98 42.24 41.84 41.48 40.93 41.10 40.78 40.82 40.72 41.72 44.19 44.55 43.94 41.79 40.97 40.75 40.40 39.72 38.21 38.64 37.69 38.18 39.52 39.03 38.99 38.23 38.90 38.86 37.33 37.13 35.71 35.41 33.59 31.11 32.29 33.27 30.87
40.32 41.00 41.85 42.30 42.37 42.63 41.78 41.40 40.78 40.23 40.36 39.94 39.67 39.91 40.34 40.16 43.35 43.93 43.85 41.86 39.03 36.36 36.95 36.86 36.80 34.98 34.69 34.39 32.94 33.01 32.76 34.16 33.62 34.23 36.48 35.52 35.37 35.31 35.51 35.06 34.16 31.82 30.51
39.74 40.35 40.89 41.48 41.43 41.33 40.73 40.44 39.84 39.05 38.74 38.50 38.42 38.40 38.45 38.98 42.56 43.28 40.85 36.46 36.55 36.36 37.42 37.30 36.44 34.97 36.18 36.69 32.48 31.38 31.67 33.06 36.14 36.51 35.51 35.43 35.40 34.93 33.99 32.96 30.97 29.18 27.46
39.28 39.90 40.30 40.81 40.87 40.69 41.37 39.21 38.44 38.20 37.50 37.58 36.35 36.53 38.08 37.83 40.89 42.74 40.77 37.31 35.70 35.56 35.63 35.02 37.42 34.59 36.91 37.80 32.13 31.44 30.07 30.79 31.61 31.77 31.98 31.12 32.83 35.69 34.02 32.42 31.90 30.13 28.99
39.37 39.63 39.59 40.13 40.06 40.35 39.65 38.35 37.89 37.52 37.12 35.68 35.67 35.56 36.45 37.33 37.93 42.06 42.38 37.14 36.59 34.82 34.91 34.15 33.33 38.30 35.96 36.70 34.31 30.93 30.62 31.68 31.93 29.87 28.94 28.52 29.27 30.52 30.32 29.76 31.00 30.82 28.92
37.98 38.93 38.77 39.13 39.04 39.37 38.70 37.38 36.81 37.00 36.35 35.50 35.86 36.56 37.70 38.04 39.58 40.58 42.48 39.97 38.39 34.94 34.22 34.85 33.44 36.93 37.69 37.25 36.24 32.89 32.90 32.13 30.94 28.86 27.61 27.16 26.71 27.61 28.81 29.62 29.32 29.61 29.80
36.42 37.55 39.23 38.14 37.49 37.47 37.15 37.23 36.30 36.68 36.39 35.80 35.84 35.99 35.67 36.19 37.14 40.81 41.67 42.62 39.60 33.52 33.69 33.98 34.15 35.57 36.74 37.73 37.40 36.10 34.40 30.56 29.29 27.53 26.82 26.58 27.38 28.50 29.05 28.60 28.88 29.01 29.23
35.54 36.45 37.59 38.43 38.32 36.71 36.77 37.28 36.72 35.99 35.91 35.75 34.95 35.25 35.73 35.06 35.32 35.96 38.52 40.05 40.34 35.98 32.81 33.08 33.59 34.02 35.23 35.26 35.51 35.65 32.06 30.56 28.90 28.02 27.00 27.30 26.95 27.02 27.21 28.61 28.08 28.19 28.22
33.84 33.85 35.30 37.39 37.88 37.12 35.37 36.35 36.86 38.02 38.34 36.41 36.19 36.40 35.12 34.29 35.11 37.07 36.86 36.15 36.73 35.37 31.90 30.34 30.51 30.30 30.38 31.32 31.15 30.86 30.82 31.24 30.25 28.95 27.56 26.13 25.90 26.64 26.68 28.19 28.39 27.70 26.36
31.32 32.17 32.79 34.68 36.51 37.54 36.42 35.69 39.08 39.42 40.03 40.56 39.84 38.20 36.69 38.79 38.84 39.01 39.04 38.79 39.10 38.45 29.95 28.21 27.91 28.90 29.09 29.36 29.36 28.65 28.40 29.08 29.09 29.68 28.41 27.49 26.54 26.67 27.02 27.13 27.15 26.88 25.96
30.67 30.97 32.05 32.77 33.10 35.79 36.24 34.77 34.50 36.63 40.35 40.30 40.54 39.97 39.20 37.66 39.38 39.06 39.06 39.21 39.45 38.90 31.00 29.77 29.69 28.64 28.70 28.84 29.67 29.43 28.54 28.58 28.88 28.59 28.61 27.55 27.02 26.45 27.29 26.33 26.39 25.92 25.01
30.60 32.07 31.67 32.43 33.47 34.24 35.97 35.34 35.16 34.79 34.27 35.85 39.91 40.34 40.49 39.76 38.74 39.41 39.40 39.19 35.99 37.48 33.64 31.42 30.11 29.57 28.89 28.68 29.13 29.09 29.10 28.35 27.51 27.51 26.99 26.68 26.40 26.18 24.87 25.51 25.22 24.20 24.71
29.78 30.14 31.43 32.57 32.99 34.35 34.43 35.67 35.25 34.87 34.64 35.49 33.61 37.93 40.44 40.73 40.48 39.54 39.65 36.20 34.02 33.44 33.27 32.92 32.18 31.45 30.40 30.17 29.92 29.72 29.55 28.49 28.64 27.52 27.23 26.06 25.64 24.84 24.03 24.97 25.09 25.49 24.44
29.73 30.91 32.61 31.10 30.96 31.92 33.43 33.80 34.50 34.02 33.86 32.97 33.12 34.62 34.24 38.22 36.32 36.78 37.26 35.77 33.89 33.34 33.39 33.18 32.63 32.49 31.73 31.20 30.92 30.22 29.36 29.53 29.20 27.63 27.25 27.07 26.25 24.08 24.21 23.73 23.50 23.44 24.55
29.94 30.38 32.62 30.62 29.21 30.07 31.83 32.41 33.68 33.86 33.02 32.94 32.98 34.71 36.61 34.84 35.00 35.23 35.43 34.99 34.19 33.58 33.05 33.19 32.88 32.40 32.19 31.60 31.05 30.18 29.19 29.35 29.32 29.17 28.27 27.04 26.56 24.20 24.09 24.42 24.04 23.30 23.44
29.45 30.42 31.14 29.41 29.17 29.71 30.76 31.80 32.06 33.22 33.27 32.67 33.25 33.78 37.73 36.23 34.49 34.46 34.83 34.70 34.85 34.80 34.35 33.30 32.98 32.08 31.54 31.04 30.25 29.83 29.36 29.30 29.50 29.16 28.78 27.75 27.01 25.92 24.66 23.95 23.62 23.45 23.20
29.82 30.13 28.96 28.12 27.84 29.42 30.50 31.09 31.69 31.60 33.06 33.34 33.47 33.11 33.41 34.59 34.48 33.94 34.19 34.64 34.38 33.40 33.37 32.99 32.46 31.47 31.86 31.87 31.99 31.39 30.18 29.77 30.62 30.81 29.28 28.08 27.36 27.04 26.42 25.60 24.53 23.92 23.26
29.65 28.39 27.74 28.11 28.66 29.52 30.72 30.57 30.58 32.05 32.29 33.17 33.28 33.19 33.08 33.56 34.23 33.92 34.05 34.45 34.33 33.43 32.27 32.03 32.08 31.57 31.18 31.29 31.73 32.11 32.14 32.81 32.28 31.01 30.59 28.83 27.56 27.91 26.56 25.84 25.16 24.36 24.03
28.52 28.14 27.72 27.70 28.47 28.66 28.03 27.90 29.11 30.18 31.12 32.43 32.92 32.98 33.41 33.41 33.48 33.98 33.78 33.47 33.31 33.02 32.70 33.00 32.96 32.58 32.25 32.06 32.25 32.51 32.27 32.46 30.92 30.32 30.26 28.98 27.52 26.81 26.27 25.44 24.71 24.26 23.98
29.73 28.85 27.62 27.12 26.73 27.19 27.49 27.49 28.55 29.99 30.58 31.81 32.75 32.89 32.97 32.70 32.78 33.05 33.18 32.70 32.48 32.54 32.70 32.54 32.60 32.70 32.56 32.70 32.39 32.02 32.94 33.61 32.49 31.82 30.20 28.80 27.14 26.62 25.78 25.08 24.24 24.70 24.05

GFSGL_sfc_wetblb_084.txt.gz
Wetbulb
51.59 52.49 52.70 52.72 53.18 54.15 56.26 57.70 58.40 59.00 59.23 59.38 58.64 56.55 55.92 55.23 54.81 53.88 52.57 51.36 51.18 51.79 51.69 52.44 52.37 52.80 53.01 53.43 53.18 51.73 51.43 52.12 48.64 49.31 48.38 47.84 48.56 47.61 45.87 45.70 45.63 44.74 44.59
50.35 51.69 52.04 52.44 52.61 53.21 53.60 54.30 55.63 57.02 57.24 56.65 55.66 54.35 53.52 52.94 52.28 51.13 49.70 49.79 50.05 49.60 50.06 50.44 50.53 50.15 50.87 51.85 51.64 50.16 50.54 51.07 49.43 46.74 46.20 44.82 44.76 44.71 43.92 43.06 42.66 41.52 41.10
48.31 49.44 51.03 52.03 52.09 52.35 52.47 52.44 52.46 52.88 54.18 54.56 54.11 52.78 51.28 49.93 49.97 49.61 48.63 48.26 48.58 49.19 48.89 48.34 48.85 49.07 49.27 49.57 49.77 49.49 49.36 48.02 48.54 47.40 46.59 45.80 44.05 42.82 41.93 41.50 40.25 38.76 37.16
47.44 48.31 48.52 49.80 50.78 51.40 51.85 51.31 51.12 51.27 51.25 51.53 51.47 49.81 48.99 48.84 48.13 47.74 47.64 47.09 46.89 46.90 46.22 46.85 47.39 47.81 48.81 49.00 48.05 47.83 47.59 46.83 46.62 45.66 45.37 43.05 42.04 41.21 41.02 38.99 37.84 37.78 35.41
45.42 46.86 47.19 48.19 49.21 50.42 50.52 50.57 50.02 49.83 49.56 49.61 48.69 48.27 46.92 46.52 46.01 46.30 46.06 46.12 45.89 45.46 45.26 45.79 46.36 45.78 44.21 46.36 46.19 46.40 45.35 44.47 43.89 42.98 41.64 40.65 39.76 38.36 37.87 38.25 37.47 35.84 34.59
43.82 45.06 46.31 47.06 47.77 48.45 49.45 49.62 49.12 48.40 48.07 47.95 47.28 46.89 46.36 44.95 44.45 45.30 46.08 45.92 45.66 45.31 44.45 44.60 44.59 42.41 43.45 44.16 43.72 42.64 43.87 43.21 41.57 40.53 40.47 39.56 39.82 39.24 37.80 36.19 35.22 33.93 34.44
43.50 44.72 45.10 45.49 45.87 46.88 47.97 47.78 47.57 47.66 47.27 46.46 46.62 46.49 45.21 45.59 44.58 44.76 44.59 45.03 44.57 44.42 44.10 43.63 43.18 42.75 42.06 43.10 41.86 41.58 41.14 40.10 40.43 41.33 39.32 39.42 39.10 38.82 37.00 34.69 34.03 34.85 36.35
43.25 44.02 44.61 44.28 44.34 45.75 46.36 46.60 46.94 46.95 46.00 45.70 45.47 45.48 45.42 45.13 45.15 45.24 44.45 44.80 43.42 40.04 39.85 40.43 42.22 40.58 39.31 39.14 37.25 36.18 37.71 38.12 37.87 38.75 40.63 40.48 39.15 38.02 37.84 37.50 37.37 38.03 35.80
41.53 42.15 43.09 43.49 43.27 44.40 45.09 45.87 46.85 45.79 45.26 44.90 45.34 44.45 44.27 44.13 44.34 44.90 44.48 42.47 40.12 38.94 38.86 41.57 42.15 40.47 38.96 38.70 35.64 34.64 35.21 35.73 36.84 36.31 36.00 36.33 36.54 36.86 38.53 37.59 35.48 34.42 32.92
40.09 40.78 42.26 42.94 42.89 43.12 44.36 44.90 45.51 44.90 44.21 44.41 42.22 43.67 43.26 43.55 43.20 44.09 43.11 40.65 38.11 37.90 40.50 40.94 39.81 39.45 39.21 39.24 35.67 36.21 33.81 34.45 35.24 36.13 35.73 36.17 37.09 36.34 34.53 36.32 36.54 34.80 33.23
39.32 40.34 41.10 42.57 42.83 43.08 43.59 44.17 43.13 43.09 42.50 41.81 40.64 39.67 41.43 42.30 42.85 43.42 43.22 40.35 39.13 37.47 37.62 38.07 39.04 39.48 39.05 39.86 37.87 35.57 34.24 35.39 34.04 33.78 32.92 32.66 34.09 35.46 34.62 33.46 34.37 34.87 33.15
38.01 38.70 39.73 41.38 41.97 41.77 42.39 43.03 41.36 41.83 40.97 39.92 39.19 38.77 38.96 41.15 41.49 42.06 43.13 41.59 40.76 37.73 37.56 38.82 39.17 38.95 38.53 37.69 38.01 35.84 34.02 33.84 34.15 32.32 31.46 31.11 30.93 31.34 31.75 32.36 31.71 32.36 32.48
36.84 36.47 37.33 38.51 40.16 42.02 40.61 41.21 39.53 39.94 39.94 38.92 37.24 38.03 38.90 39.68 40.46 41.32 42.22 43.50 41.62 38.91 39.78 39.27 38.52 38.31 39.51 37.39 38.16 36.03 34.63 33.47 32.24 31.02 30.44 30.90 31.47 32.20 32.17 31.22 31.31 31.16 31.24
35.37 35.81 36.19 36.44 37.00 39.60 39.68 38.98 38.46 37.42 37.30 37.35 35.83 36.28 37.45 36.65 36.85 37.29 40.36 41.45 42.81 40.15 36.80 36.50 37.26 37.56 37.66 37.82 37.54 37.06 34.89 34.09 32.14 31.42 31.22 31.65 30.81 29.91 29.92 31.24 30.41 30.52 30.51
34.70 34.58 34.81 35.06 34.64 35.61 37.24 38.02 37.61 38.83 38.80 37.53 37.25 37.30 36.66 35.35 36.63 38.36 37.80 38.29 39.45 38.02 34.08 32.59 32.81 33.47 33.22 34.52 35.88 36.37 35.91 34.04 31.95 31.72 30.69 29.17 28.49 28.98 29.05 30.63 30.49 30.41 29.59
33.33 34.04 34.24 34.05 34.57 33.56 33.82 35.79 39.89 39.95 40.53 40.88 40.90 39.35 38.58 40.50 40.44 39.92 39.83 39.92 40.48 39.67 31.25 29.16 29.89 30.72 30.67 32.04 32.32 33.46 34.04 33.96 32.98 32.67 31.77 31.03 29.64 28.72 28.95 29.46 30.30 29.65 29.15
32.90 33.15 33.55 33.53 33.81 33.29 32.14 32.52 33.99 37.50 39.93 40.53 40.48 40.76 40.65 38.83 40.37 40.12 40.15 40.07 40.24 40.58 31.87 30.59 29.15 29.16 30.18 31.95 32.75 33.27 32.40 32.47 32.94 32.72 32.61 32.04 31.29 30.39 29.75 28.84 28.73 28.94 28.61
32.77 32.73 32.05 32.41 32.73 32.51 31.97 32.34 33.82 34.41 34.35 35.56 39.93 40.46 40.87 40.53 39.58 39.81 39.88 39.97 37.12 38.95 35.30 32.12 31.33 30.69 31.61 32.13 32.65 32.97 32.90 32.34 31.02 31.15 31.54 31.87 31.33 30.63 28.90 29.05 28.79 28.12 28.14
30.96 30.27 30.50 31.54 32.75 32.87 32.16 31.28 32.82 33.46 34.45 34.92 35.48 37.17 40.69 41.31 40.84 40.15 40.22 36.86 35.47 35.34 35.32 33.13 32.62 32.97 33.58 33.36 33.09 33.20 33.09 32.29 31.72 31.23 31.10 30.62 30.44 30.33 29.28 29.37 29.18 28.37 27.85
31.61 31.22 31.09 31.61 31.98 31.06 30.18 29.79 30.09 31.12 33.21 34.02 33.95 34.32 35.55 38.37 36.91 37.00 37.27 36.96 35.44 35.10 35.08 34.30 33.62 33.60 34.22 34.39 33.62 32.92 32.38 31.99 31.76 31.33 31.33 31.10 30.62 30.01 29.06 28.54 28.14 27.58 27.69
30.48 30.09 31.02 31.71 31.51 30.82 29.64 29.29 30.03 30.42 31.27 33.03 33.68 34.51 36.48 33.93 34.45 35.74 36.23 35.97 35.61 34.89 34.68 34.74 34.47 33.95 34.74 34.69 33.80 32.59 32.08 32.50 32.54 32.11 31.55 31.10 30.76 29.27 29.04 29.20 28.80 27.70 27.96
29.69 28.57 28.93 29.95 31.26 29.87 28.71 28.89 29.77 31.25 31.46 31.89 33.36 33.93 36.83 34.52 32.65 33.95 35.43 36.04 36.10 35.99 35.73 35.14 34.88 34.40 34.45 34.45 33.85 33.21 32.48 31.80 31.86 31.94 31.74 31.10 30.55 30.00 29.48 28.73 28.07 28.31 27.67
28.96 29.63 30.11 30.53 30.52 29.80 28.92 29.33 29.95 31.03 31.21 31.84 32.37 33.17 32.04 32.16 32.92 32.97 34.26 35.66 35.87 35.58 35.55 34.77 34.58 33.97 34.64 34.73 34.39 33.73 32.57 32.05 32.31 32.55 31.81 31.26 30.52 30.06 29.82 28.83 28.16 27.59 27.02
29.58 29.69 29.31 29.10 29.02 29.16 29.47 30.03 31.26 30.86 30.62 31.01 31.72 32.75 32.58 32.42 32.68 33.19 34.17 35.02 35.18 34.84 34.73 34.30 34.42 34.17 33.96 33.81 33.80 33.85 33.60 33.51 33.47 32.78 32.68 32.20 31.13 30.68 30.44 29.27 28.77 28.42 27.84
29.65 29.62 29.46 29.52 29.32 29.28 29.31 29.53 29.34 29.49 29.26 30.04 31.33 32.46 33.22 32.98 33.00 33.82 34.16 34.52 34.62 34.17 33.28 33.12 33.53 33.71 33.40 32.86 33.07 33.30 32.81 33.12 32.99 32.74 32.90 32.31 31.63 31.03 30.53 29.94 29.34 28.58 27.61
30.75 29.53 28.82 28.62 28.10 28.06 27.83 28.02 28.32 28.60 29.47 30.94 31.83 32.24 32.90 32.58 32.69 33.38 33.82 33.49 33.38 33.45 33.26 33.06 33.00 32.77 32.72 32.56 32.38 32.73 33.77 33.86 33.19 33.26 32.59 32.09 30.78 29.96 29.54 28.54 28.16 27.59 26.76

GFSGL_sfc_wetblb_087.txt.gz
Wetbulb
51.17 52.33 52.93 53.24 53.95 54.48 55.93 58.13 59.50 60.79 61.79 60.86 60.90 61.03 59.57 58.50 58.57 57.99 56.74 55.36 54.70 53.29 53.11 53.04 52.73 53.25 53.17 53.53 53.58 53.15 52.51 52.36 49.32 50.42 50.13 49.24 49.15 48.94 46.73 46.62 46.26 45.24 45.25
49.43 50.70 51.67 53.02 53.42 53.71 53.87 54.68 56.15 57.14 58.50 59.39 59.38 58.44 57.22 56.46 56.80 56.33 54.94 53.06 52.42 51.39 51.24 51.88 51.92 51.72 51.76 52.35 52.08 51.18 50.65 50.65 49.34 47.81 48.04 46.05 46.40 46.22 44.87 43.70 42.97 42.00 41.45
48.93 49.40 49.77 51.04 52.05 52.60 52.97 53.23 53.60 54.41 55.77 56.55 56.39 55.12 54.19 53.94 53.91 53.51 51.60 50.72 50.84 50.71 50.67 50.04 50.19 50.00 49.29 50.15 50.11 50.13 49.54 49.11 49.57 47.92 45.53 46.23 45.15 43.79 42.54 42.31 41.16 39.79 38.42
46.22 47.78 48.38 48.48 49.14 51.01 52.10 52.20 51.82 52.27 52.66 53.82 54.44 53.94 52.15 50.67 50.69 49.42 49.06 49.09 49.32 48.93 48.51 48.59 48.53 48.48 48.63 49.16 48.64 48.94 48.56 47.80 47.67 46.26 45.52 43.74 43.45 42.61 42.22 39.66 38.45 39.02 36.72
45.17 45.76 46.54 47.73 48.76 49.24 50.59 51.33 51.40 50.78 50.98 51.60 51.21 50.29 49.20 48.17 47.39 47.41 47.86 47.46 46.90 46.61 46.43 46.65 47.00 46.73 45.45 47.19 48.15 47.70 46.88 45.49 44.89 44.11 43.11 41.92 40.81 38.95 38.46 39.33 37.76 36.48 35.98
44.60 44.98 46.25 46.83 47.17 47.85 48.60 49.97 50.61 49.95 49.62 49.29 48.92 48.77 47.59 46.70 46.45 47.30 47.25 46.29 46.42 45.84 44.94 45.26 45.15 43.21 43.45 44.38 44.27 43.74 45.74 44.38 42.99 41.63 40.73 39.84 40.06 39.70 38.63 36.56 35.67 33.62 33.64
43.76 44.77 45.28 45.75 45.55 46.16 47.28 48.02 48.93 49.56 49.59 48.38 48.34 47.87 47.27 46.93 45.61 46.37 46.31 46.52 45.70 45.07 43.97 43.88 43.55 43.63 43.78 43.46 43.30 42.74 42.19 41.90 41.22 42.57 39.90 39.61 38.82 39.28 37.33 35.25 34.63 34.54 34.51
42.90 43.14 43.79 44.02 44.21 45.00 45.71 46.65 47.51 48.69 48.90 48.26 47.61 47.43 46.92 46.46 45.42 45.78 45.40 45.14 44.36 42.51 41.98 42.02 42.44 40.95 40.82 41.75 40.15 38.31 37.83 38.11 38.32 39.23 40.61 40.90 40.41 39.22 38.17 37.20 35.72 35.21 34.10
41.36 41.30 41.96 42.65 42.77 43.79 44.15 44.98 46.18 46.86 47.38 47.24 47.22 46.70 45.96 45.93 45.25 45.48 44.36 42.66 39.98 38.93 39.53 40.37 42.02 41.66 41.87 41.89 38.06 35.79 36.28 36.32 36.48 36.36 36.89 38.01 38.23 39.95 39.67 36.77 35.33 33.23 31.28
38.58 39.20 40.92 41.59 41.98 41.81 42.73 42.87 43.67 44.97 45.37 46.10 44.79 45.32 45.50 44.96 44.58 45.33 44.68 42.72 39.61 38.83 40.00 40.64 42.16 42.07 41.96 41.23 37.05 35.55 33.29 33.10 33.89 34.51 34.82 35.55 36.68 35.99 36.27 34.16 34.50 31.85 31.58
38.73 38.88 39.29 40.41 40.86 41.44 41.70 42.37 42.67 43.06 43.56 43.56 43.40 42.84 43.61 44.04 44.31 44.76 45.12 42.28 39.62 38.48 38.99 39.25 40.27 41.21 41.18 41.44 39.16 36.32 35.26 34.78 34.68 32.98 31.89 31.96 32.75 33.13 31.59 30.93 32.23 32.71 30.48
37.42 37.33 37.86 38.43 39.23 39.80 40.60 41.24 41.90 41.38 41.18 41.75 41.56 41.33 41.18 42.84 43.87 44.07 44.82 43.85 42.09 38.45 37.09 38.18 38.72 40.77 40.23 41.00 40.29 37.77 36.13 35.63 32.30 30.59 29.29 28.42 28.42 29.99 29.52 30.04 30.03 30.29 30.37
36.01 35.92 36.82 37.27 37.44 38.30 38.02 39.02 39.09 40.03 39.20 40.13 40.07 39.70 39.30 39.76 41.44 43.43 44.13 44.42 42.93 38.75 39.11 39.60 40.73 39.90 40.27 39.31 39.39 38.45 35.83 31.45 30.77 29.46 28.47 28.61 29.76 30.66 29.96 28.64 28.69 29.35 29.06
34.76 35.08 35.85 35.41 35.92 36.19 36.92 37.85 37.16 38.01 37.63 37.49 37.20 36.78 38.67 38.64 38.97 39.50 40.87 42.76 43.39 40.96 40.03 37.96 38.37 38.43 39.55 37.49 36.49 36.64 32.95 32.07 30.12 29.49 28.84 29.50 29.74 28.40 28.22 29.10 27.59 27.62 27.25
34.33 34.45 34.79 35.46 35.16 35.05 35.45 35.08 35.16 36.56 38.54 37.58 37.70 37.76 37.11 36.17 37.20 39.44 39.78 38.99 40.05 40.22 36.82 34.78 34.90 35.02 35.23 35.07 35.00 34.85 34.03 32.12 30.18 29.39 28.38 27.62 27.35 27.77 28.08 28.98 28.40 27.39 25.77
33.33 33.98 34.45 34.66 34.76 34.64 34.66 34.73 36.36 36.22 37.43 39.64 40.58 40.37 39.23 40.67 41.55 40.91 40.75 41.21 41.38 41.75 33.39 31.67 32.30 33.36 32.95 33.11 33.35 33.93 33.69 33.82 31.48 30.41 29.32 28.06 26.41 26.78 27.56 27.80 28.11 26.34 25.11
33.23 33.62 34.02 33.83 33.47 33.02 32.72 31.22 30.15 33.47 36.11 36.79 39.34 40.40 41.02 40.82 40.32 41.29 40.94 40.75 41.30 41.53 32.75 31.65 30.43 29.88 30.35 31.08 32.08 33.17 33.02 33.53 32.35 31.62 30.64 30.01 28.10 27.56 28.09 27.10 27.09 26.74 25.78
33.24 33.42 31.47 30.65 30.87 31.48 32.00 31.18 30.86 30.33 30.10 31.88 36.48 38.39 39.73 40.89 40.76 40.24 40.86 40.72 37.56 39.74 34.42 33.02 31.24 30.33 30.30 30.56 30.89 31.71 32.59 32.15 31.54 31.59 31.09 30.68 29.43 28.36 27.26 27.18 27.15 25.12 24.76
32.48 32.75 32.03 30.85 30.67 31.02 31.48 31.83 30.64 29.62 29.67 30.76 32.07 34.92 37.71 39.50 39.99 41.00 40.79 37.64 35.66 35.47 36.13 33.90 33.91 32.75 31.08 30.86 31.40 32.31 32.62 31.53 30.57 30.15 30.26 30.15 29.63 28.97 27.80 27.52 27.62 29.06 28.09
32.87 33.37 32.33 30.37 30.21 30.95 31.26 30.99 30.01 28.61 28.97 29.90 30.47 31.64 34.34 34.86 33.25 35.33 37.10 36.94 35.77 35.57 36.19 36.00 34.21 33.58 32.92 32.86 32.89 32.35 32.00 31.74 30.67 30.18 30.06 29.70 29.38 29.14 28.07 27.10 27.66 26.89 26.39
32.48 31.11 31.34 29.94 29.25 29.68 30.58 30.68 29.79 28.53 28.21 29.16 30.00 31.61 35.00 34.32 32.74 33.48 35.11 35.82 35.97 35.77 35.80 35.64 34.64 33.97 33.87 33.86 33.72 32.63 31.36 31.13 31.15 30.93 30.36 30.08 29.85 28.33 28.41 27.99 27.44 27.49 27.36
30.80 29.39 29.06 28.90 29.57 29.76 29.81 30.48 28.58 28.04 28.24 28.83 30.58 31.01 33.47 34.01 33.52 32.63 33.51 35.46 36.22 36.60 35.91 35.06 34.56 34.07 33.89 33.89 33.77 32.96 31.86 31.28 31.38 31.61 31.04 30.27 29.64 28.97 28.26 28.11 27.66 26.93 26.47
30.06 29.26 29.07 29.37 29.82 30.27 29.71 29.59 28.74 28.10 28.75 30.00 31.01 30.42 30.71 31.38 32.92 32.80 32.68 34.12 35.59 35.84 35.27 34.42 34.64 34.37 34.70 34.58 34.51 33.84 32.47 31.86 32.33 32.39 31.45 30.31 29.79 29.16 28.90 28.15 27.66 26.80 26.22
30.25 29.05 28.74 29.08 29.37 29.11 29.05 28.99 29.25 29.98 30.13 30.51 29.65 29.39 30.13 31.25 32.93 33.04 32.57 32.68 33.58 33.55 33.55 33.83 34.62 34.43 34.08 33.99 34.24 34.32 33.93 33.29 33.24 32.47 32.23 31.24 30.01 30.16 29.46 29.02 28.14 27.23 27.21
29.92 29.44 29.41 29.62 29.51 29.03 29.20 29.11 29.03 28.86 28.81 28.91 28.23 28.65 29.97 31.36 32.97 32.91 32.05 31.82 31.82 31.92 32.48 33.25 34.02 34.07 33.71 33.49 33.58 33.66 33.30 33.88 32.98 32.55 32.39 31.93 31.15 30.91 30.52 29.63 29.20 27.99 27.73
30.21 30.22 30.44 28.80 27.75 27.55 27.42 27.31 27.45 27.95 28.14 28.33 28.88 29.87 31.04 31.61 32.44 33.04 32.24 31.77 31.78 31.80 32.08 32.38 32.75 33.23 33.37 33.15 33.12 33.09 34.13 34.24 33.22 33.79 32.65 32.14 31.60 31.10 30.55 29.55 28.97 28.59 27.09

GFSGL_sfc_wetblb_090.txt.gz
Wetbulb
47.45 49.22 49.81 50.57 51.13 51.61 51.93 53.70 56.46 58.12 58.88 60.01 60.41 59.82 60.31 61.18 61.06 59.77 58.37 56.81 56.65 55.00 53.33 53.66 52.46 51.87 51.36 51.47 51.86 51.15 50.16 49.82 47.22 46.41 47.04 46.14 46.61 46.18 46.01 45.88 46.22 45.32 45.62
46.51 46.70 47.89 49.45 49.99 50.11 50.39 51.09 52.11 52.72 55.18 56.65 58.20 59.25 59.22 58.85 58.83 58.24 56.58 55.77 55.21 53.48 52.37 50.91 50.77 51.74 50.61 51.00 50.53 49.32 48.96 49.03 48.43 46.41 46.66 44.91 44.79 44.63 44.23 43.48 43.24 42.68 42.25
44.03 45.57 46.08 45.98 46.35 47.94 49.04 49.90 50.30 50.60 51.53 53.71 55.06 55.81 55.69 55.50 55.98 56.36 55.61 53.53 53.10 50.91 50.07 49.98 49.70 49.28 48.34 48.04 48.36 48.05 47.33 47.87 48.21 46.30 42.98 45.30 42.41 42.94 42.14 42.21 41.34 39.97 39.06
42.57 43.01 43.68 44.31 44.93 45.58 47.31 48.70 49.03 49.11 49.22 50.29 51.95 53.42 52.90 51.72 51.59 51.50 50.18 49.46 48.83 48.11 48.30 48.41 48.35 47.79 47.09 47.11 46.99 46.29 46.31 45.12 46.23 45.74 44.71 42.82 42.31 42.10 41.78 39.29 38.49 39.19 37.73
41.73 41.86 42.55 43.74 44.36 44.97 45.54 46.63 48.32 48.04 47.83 48.46 49.28 48.88 48.88 48.79 48.36 48.20 48.15 47.87 47.44 47.13 47.82 47.53 47.45 47.10 46.90 47.20 46.47 45.52 44.99 45.18 44.01 42.31 42.17 41.05 40.10 38.27 37.99 39.06 37.88 36.89 36.91
41.06 41.69 43.05 43.35 43.57 43.48 44.01 44.64 45.30 46.81 46.76 46.46 46.24 46.52 45.73 46.29 47.52 48.10 47.54 46.70 46.36 45.92 45.12 45.08 44.11 43.84 44.73 46.16 45.64 46.12 45.53 44.10 42.51 41.13 39.97 39.89 39.91 39.58 38.91 36.85 35.81 33.73 34.15
40.37 41.06 41.65 42.18 42.18 42.43 43.03 43.37 43.80 44.14 45.62 45.15 44.85 45.08 44.64 44.30 46.98 47.82 47.49 45.43 44.98 44.40 43.20 43.17 42.62 42.92 42.26 41.24 44.06 43.90 43.38 43.79 43.69 42.02 37.93 37.83 38.14 38.25 37.38 35.11 34.61 34.14 34.61
39.12 39.56 40.13 40.18 40.26 41.09 41.42 41.61 42.00 42.94 43.26 44.17 44.02 44.10 43.54 44.30 46.48 46.76 46.78 42.27 41.63 39.79 39.02 39.45 39.25 38.31 39.14 40.40 39.13 35.90 35.85 36.60 37.59 38.90 39.42 38.36 38.82 38.91 38.13 37.02 35.51 34.63 32.57
37.01 36.88 38.20 38.82 38.64 39.28 40.09 41.21 42.12 42.45 43.37 44.39 44.55 43.87 42.35 42.21 45.64 45.83 44.40 38.65 37.87 38.36 39.34 39.95 39.91 38.75 41.99 43.56 38.45 33.96 34.50 34.31 37.16 37.27 38.18 40.08 41.49 41.14 39.46 36.40 33.82 32.95 31.23
35.42 35.85 36.60 37.35 37.74 38.39 39.99 40.10 40.92 41.62 42.17 43.50 43.61 43.61 43.66 42.53 44.98 45.67 43.54 40.02 38.59 38.80 39.44 39.61 42.16 40.25 42.76 43.05 35.35 34.03 31.93 32.33 32.36 31.79 31.79 34.40 36.52 36.54 40.23 32.47 31.02 32.27 29.47
34.95 35.24 35.31 35.57 35.32 35.77 36.34 37.79 39.98 40.62 41.39 41.62 42.01 42.14 42.71 43.23 43.17 45.79 45.44 41.18 39.69 38.24 37.61 37.58 39.21 43.29 43.07 42.10 39.76 34.43 32.91 33.41 34.32 30.82 30.18 29.91 30.00 29.45 28.26 28.95 30.43 27.72 22.73
33.62 33.58 33.06 33.03 34.24 34.75 32.98 34.27 35.91 38.72 39.00 40.22 40.64 41.46 42.28 42.59 44.30 45.09 45.74 44.54 42.08 37.92 36.90 37.59 38.09 42.30 41.85 41.47 40.81 38.71 39.07 36.87 30.24 29.41 27.12 26.74 26.93 25.83 24.54 25.88 28.29 27.26 27.54
31.57 31.13 31.29 32.27 32.53 32.60 31.03 30.97 32.94 35.77 35.70 36.33 37.80 38.62 40.01 40.34 41.23 44.28 45.05 45.58 43.78 39.01 38.41 38.66 39.42 41.64 41.47 40.45 41.84 39.93 38.13 31.32 29.26 27.26 26.25 24.39 24.33 25.50 25.45 23.98 24.94 26.75 25.78
30.00 29.79 30.39 30.15 31.01 30.81 31.67 31.88 31.27 31.33 32.80 34.11 35.14 35.65 37.52 38.36 38.46 39.02 41.82 43.59 44.67 41.74 39.70 39.12 39.68 39.74 39.99 38.87 39.55 39.41 32.22 30.46 28.38 27.81 26.26 26.63 26.40 23.79 23.37 23.43 21.47 22.31 20.18
29.73 29.58 29.65 30.62 29.90 29.82 30.38 30.50 30.87 31.10 32.37 32.56 32.93 35.51 36.47 36.42 37.58 40.02 40.07 40.17 41.77 41.15 38.13 35.49 35.52 35.05 35.17 35.41 34.47 34.21 32.06 30.98 29.08 27.15 26.63 26.14 26.52 26.03 25.90 24.30 23.79 22.03 20.82
29.46 29.80 30.13 30.35 29.85 29.83 29.58 30.17 34.74 35.38 35.88 35.70 35.67 35.49 36.37 39.83 41.35 41.55 41.31 41.82 42.31 42.87 36.23 34.94 33.88 34.02 34.14 34.60 33.50 33.11 32.52 31.74 29.23 27.91 27.07 26.08 24.70 24.39 24.75 23.96 22.34 20.62 22.31
28.68 29.35 29.75 30.96 29.09 28.20 28.27 27.59 27.60 31.08 34.56 34.74 34.80 35.23 36.25 37.48 39.61 40.82 41.19 41.36 41.61 42.26 36.63 34.47 34.13 33.60 33.61 33.87 33.67 33.33 32.50 32.69 31.74 30.22 27.30 25.38 23.81 23.41 26.95 25.90 22.65 22.68 23.86
28.88 33.02 29.54 27.94 27.77 29.67 29.14 28.74 29.17 28.99 28.35 28.90 32.35 33.69 34.60 35.92 38.07 39.63 40.58 40.73 37.90 39.50 37.26 34.09 33.46 33.42 33.19 32.66 32.77 33.21 33.23 32.09 31.22 30.36 29.06 27.88 25.70 25.03 22.87 25.05 25.49 24.20 23.29
28.33 27.92 28.60 31.21 30.99 30.48 29.68 28.11 29.48 29.60 28.53 28.35 29.04 31.07 33.29 34.98 36.36 38.36 38.96 37.22 34.37 35.20 36.51 33.96 34.13 32.86 31.66 31.84 31.94 32.46 32.84 32.23 32.20 31.40 30.59 29.02 27.10 26.53 26.45 26.14 25.29 27.90 27.11
28.49 32.19 32.82 31.32 30.20 29.27 28.74 27.94 28.01 29.16 28.94 27.91 27.79 28.17 30.00 30.99 30.76 31.86 33.85 35.04 34.43 34.55 35.75 34.90 34.47 33.66 32.42 32.16 31.94 31.93 32.09 32.55 31.59 30.97 29.82 29.49 28.95 28.91 27.39 26.03 26.29 26.28 27.33
28.97 29.55 32.43 30.55 29.06 28.27 26.53 26.27 27.21 28.37 28.18 27.19 27.54 29.29 32.20 30.33 30.14 31.71 32.20 33.57 34.38 34.87 35.30 35.91 35.18 34.02 32.98 32.54 32.21 31.89 31.79 31.85 31.09 29.95 29.43 29.13 28.79 28.16 28.32 27.40 27.28 26.90 26.63
29.90 30.75 29.92 28.79 29.11 28.10 27.71 28.19 28.18 28.56 27.88 27.06 27.55 29.05 32.29 30.34 29.99 30.41 31.90 33.02 34.28 35.23 36.21 36.05 35.36 33.66 32.70 32.69 32.78 32.55 32.21 31.77 31.58 30.57 29.41 28.76 29.15 28.81 28.44 27.43 27.07 26.99 26.82
29.89 30.15 29.36 29.21 29.07 29.60 27.84 27.23 26.46 26.36 26.29 26.29 26.64 28.00 30.34 29.37 29.13 29.53 31.20 32.57 33.68 34.56 35.81 35.58 33.25 32.65 33.37 33.67 34.00 33.61 32.60 32.05 32.08 31.84 29.87 29.46 29.04 28.69 28.25 27.45 27.17 26.52 26.35
30.75 29.30 28.35 28.05 27.97 27.87 27.76 27.36 27.40 28.33 27.95 27.79 28.39 27.99 27.98 28.35 28.54 29.45 31.15 33.04 33.48 33.50 35.05 33.36 32.82 32.89 33.05 32.97 33.41 33.53 33.61 33.48 33.27 32.30 31.50 30.69 29.66 29.88 28.39 27.75 27.56 27.44 27.01
28.36 28.19 27.56 27.40 27.69 28.29 27.19 25.83 25.71 26.62 26.29 26.39 26.74 27.37 27.82 28.18 28.70 30.18 31.53 33.18 32.79 32.37 32.39 32.27 32.52 32.62 32.67 32.20 32.48 32.70 33.04 34.00 32.97 32.61 32.34 31.46 30.28 29.73 29.05 28.67 28.34 28.21 27.88
26.48 26.27 27.05 28.30 26.25 25.24 24.53 24.48 24.79 25.11 25.83 26.77 27.37 27.77 28.22 28.68 29.49 30.42 31.29 32.52 32.33 32.00 32.02 32.00 31.95 32.07 31.94 32.21 33.09 33.51 34.77 35.24 33.62 33.85 32.40 31.54 30.19 29.65 29.70 29.57 29.23 28.52 27.84

GFSGL_sfc_wetblb_093.txt.gz
Wetbulb
46.10 47.31 48.65 49.34 50.37 51.09 51.20 52.62 55.12 57.39 58.01 58.45 59.68 60.10 60.19 59.97 60.07 59.96 59.37 59.27 58.45 58.36 57.53 57.05 56.34 54.94 53.99 53.76 53.34 52.28 51.18 50.27 46.90 45.69 46.38 45.97 45.32 45.03 44.90 46.69 45.72 44.46 46.51
43.61 45.50 45.70 46.19 46.68 47.82 48.89 49.62 50.19 50.20 51.72 54.16 55.58 57.07 58.86 59.49 59.79 59.89 59.30 58.76 57.95 56.58 55.53 55.38 54.64 53.77 52.65 52.72 51.39 50.25 50.03 49.91 48.07 45.59 44.47 43.48 44.54 46.01 45.08 44.41 44.03 43.52 43.36
42.32 42.89 43.54 44.01 44.42 44.66 45.55 47.67 48.87 48.68 49.02 50.45 52.60 53.46 55.26 56.41 56.83 58.08 58.48 57.07 56.77 56.41 55.56 54.89 54.09 52.74 51.59 50.23 50.26 50.04 49.28 48.54 46.24 44.53 42.70 43.68 43.40 43.12 42.53 42.68 41.80 40.71 40.04
41.39 41.61 41.99 42.47 43.00 43.71 44.72 45.37 46.47 47.74 47.29 47.69 49.10 50.74 51.63 52.45 53.47 54.69 54.36 53.18 53.63 52.83 52.32 52.84 52.11 51.45 49.97 48.53 48.56 48.29 46.51 45.42 44.38 44.29 43.70 42.99 42.49 42.06 41.84 40.00 39.19 39.84 38.82
40.34 40.79 41.33 42.17 42.78 43.08 43.29 43.80 44.61 45.29 46.60 46.93 46.95 47.93 47.73 48.08 49.00 49.19 49.79 49.79 49.41 48.91 50.00 50.44 50.19 49.60 48.16 49.31 47.90 46.94 46.04 44.56 41.93 39.90 40.78 41.56 40.52 39.05 39.15 39.35 38.69 37.25 37.91
39.25 39.57 40.69 41.10 41.47 41.49 41.97 42.41 42.88 43.43 44.07 45.19 45.36 45.38 45.55 46.33 47.38 48.35 48.32 47.75 47.92 47.60 47.04 47.10 47.69 46.74 47.47 48.92 49.08 48.56 47.81 44.61 42.02 39.76 40.43 40.52 40.27 39.52 37.13 36.44 36.46 34.62 34.84
37.90 38.88 39.09 39.30 39.21 39.72 40.71 41.05 41.03 41.14 41.83 42.20 43.10 43.82 43.83 44.27 46.77 47.84 48.01 46.56 46.09 45.89 44.85 44.68 44.03 44.65 45.12 45.19 47.01 47.13 46.97 47.18 45.54 41.89 40.61 41.05 39.53 38.43 38.29 35.68 35.33 34.59 35.20
36.37 36.11 36.99 37.49 37.54 38.19 38.59 38.90 39.14 41.22 41.52 42.02 42.26 44.23 44.43 43.64 46.37 47.04 47.16 42.61 42.88 42.93 42.12 42.63 42.14 41.02 40.90 41.85 40.49 38.42 38.85 39.75 41.02 41.33 40.04 39.41 38.45 38.41 37.50 38.04 36.67 34.86 32.05
34.92 34.45 35.23 35.53 35.54 36.40 36.64 36.82 38.06 39.93 40.78 41.57 42.72 43.26 43.92 44.25 45.10 46.14 44.98 39.10 38.34 38.20 38.64 40.96 41.65 40.85 42.69 43.69 38.81 34.91 34.63 34.99 39.61 40.02 40.34 41.58 42.80 42.61 40.24 36.51 33.06 33.07 31.22
33.98 34.16 34.76 34.79 34.41 34.50 34.20 34.76 35.90 37.30 39.23 40.93 41.57 42.54 43.50 43.46 44.95 45.55 45.08 40.68 38.45 39.10 40.20 39.39 42.46 39.60 43.32 44.18 37.45 35.23 33.50 32.17 31.98 32.10 33.46 36.93 39.82 39.69 41.75 34.64 32.90 31.36 31.54
33.56 33.38 33.46 33.43 32.44 32.79 32.93 32.63 33.52 33.80 36.12 36.31 38.29 39.54 41.65 42.93 43.53 45.25 46.01 41.68 40.66 39.27 39.23 38.95 39.75 43.40 43.17 44.02 41.06 35.75 34.66 33.51 34.67 30.66 30.18 30.12 30.36 30.78 29.93 30.43 31.33 28.42 28.70
31.96 31.66 31.11 30.61 31.43 33.04 30.42 30.78 30.64 31.51 32.49 32.62 35.36 36.58 38.81 41.38 43.82 44.49 45.25 45.46 43.24 39.92 38.62 39.01 39.01 41.75 43.05 43.21 42.36 38.90 39.25 36.48 31.90 29.96 29.09 28.81 28.07 27.04 25.47 26.89 29.09 28.02 27.42
29.63 29.52 29.34 29.74 29.94 30.17 28.49 28.64 28.72 30.64 30.60 30.97 31.85 33.30 35.38 37.70 39.80 42.26 43.67 44.79 45.61 41.50 40.44 39.82 40.18 41.60 42.95 42.67 42.67 40.41 40.18 32.41 31.47 29.48 28.26 27.85 26.49 27.08 25.77 25.63 25.70 26.96 26.21
27.95 27.92 28.34 27.89 28.81 28.91 29.58 29.81 28.40 28.68 28.73 29.84 29.84 29.53 31.03 33.61 36.37 38.69 39.62 40.71 43.29 44.10 40.89 39.43 40.24 40.99 41.87 40.57 40.37 40.09 35.44 32.36 31.18 29.59 28.58 26.89 26.45 25.89 24.39 24.45 22.93 22.12 19.93
27.39 27.93 28.12 28.82 27.99 27.94 28.50 28.61 29.07 29.47 30.11 31.05 31.61 31.54 30.73 30.95 33.47 37.83 39.67 39.12 39.55 41.45 38.64 36.48 36.99 36.53 36.62 36.64 36.60 37.76 33.58 31.75 31.02 29.37 26.49 26.83 26.73 27.18 26.41 24.54 24.20 20.61 17.64
27.28 27.86 28.61 28.49 28.59 28.29 27.78 27.81 32.30 33.69 34.82 35.30 35.48 33.65 32.80 34.70 35.99 37.13 38.05 39.46 41.60 41.33 38.61 35.55 35.51 35.56 34.77 35.00 34.87 34.61 33.69 33.06 30.66 29.23 27.07 27.14 26.95 26.42 26.00 24.53 22.42 19.32 18.79
26.57 27.52 28.43 30.42 28.43 27.44 26.38 25.24 25.24 28.64 32.84 33.54 34.29 33.89 33.48 34.04 34.87 35.29 36.87 38.96 40.55 41.43 36.59 35.28 34.79 33.50 33.45 34.29 34.33 34.29 33.41 33.04 31.70 29.71 29.30 28.12 26.93 26.06 27.32 25.58 24.26 22.98 19.70
26.98 30.71 28.88 27.70 27.32 26.75 26.31 26.50 27.84 26.48 25.79 27.33 31.37 32.42 33.12 33.14 34.09 34.83 36.00 37.72 35.82 38.72 36.70 35.75 34.74 34.02 34.01 32.94 32.94 33.24 33.56 32.30 31.18 31.18 28.87 27.60 26.39 25.45 24.84 24.63 24.96 24.52 18.36
26.88 27.33 27.51 26.93 28.04 31.14 30.26 29.08 28.69 26.95 26.98 27.67 28.46 29.43 31.28 32.39 32.88 33.64 34.96 32.73 32.71 34.07 35.11 35.55 34.90 34.29 33.55 33.49 33.20 33.51 33.18 32.65 32.27 31.45 29.86 27.85 26.36 25.88 24.49 24.86 24.59 27.67 25.26
27.63 30.12 30.74 29.43 29.51 29.85 29.08 28.11 27.61 26.00 25.74 27.00 27.79 28.15 28.44 29.31 28.32 29.65 31.45 31.98 32.54 33.30 34.17 34.95 34.83 34.56 33.43 32.49 31.95 31.93 32.01 32.69 32.08 31.67 30.80 29.82 27.78 27.02 25.90 25.34 24.88 25.39 25.91
26.75 27.81 30.84 30.31 30.84 29.40 28.72 27.72 27.34 26.65 25.72 26.81 27.74 28.54 31.53 28.60 28.48 29.99 30.31 30.55 31.23 32.98 33.76 34.30 35.13 34.24 33.24 32.49 32.02 31.90 32.01 32.40 32.62 32.17 31.66 30.81 29.44 27.66 27.51 26.43 26.00 25.87 26.10
28.38 28.23 28.23 28.41 29.67 29.41 28.38 28.38 27.87 27.52 27.73 27.17 27.03 27.33 30.96 28.93 29.05 29.71 29.26 29.39 31.37 33.00 34.05 34.52 34.92 34.77 33.71 32.83 32.40 32.18 32.10 32.16 32.31 32.03 31.52 30.89 30.01 29.29 28.11 26.64 26.26 26.02 26.21
28.02 28.02 27.93 29.24 29.16 29.12 28.21 28.04 27.71 26.91 25.72 25.74 25.96 26.46 26.83 27.33 29.42 27.97 28.37 29.33 31.06 32.15 33.80 34.16 34.74 35.00 34.67 33.62 33.46 33.22 32.55 32.49 32.89 32.26 31.16 30.19 29.46 28.85 27.94 26.81 26.34 26.28 25.60
26.85 26.00 25.71 26.33 27.26 27.41 27.30 27.07 27.72 28.55 27.56 27.05 27.39 28.14 27.58 27.29 27.80 27.85 28.49 29.47 30.98 32.02 33.29 33.45 34.35 34.27 33.51 32.98 32.93 33.58 34.19 34.13 33.76 32.67 32.27 30.74 29.45 29.60 27.86 27.37 27.00 26.75 26.33
26.48 25.89 25.54 25.67 26.12 26.87 27.74 26.66 25.78 25.12 24.97 25.35 25.58 26.39 27.39 27.62 27.42 27.95 28.78 29.76 30.88 31.15 31.73 32.72 33.64 33.17 32.80 32.66 32.58 33.23 33.55 33.88 32.78 32.42 32.10 31.29 29.88 29.20 28.10 27.40 27.28 27.07 26.77
25.92 26.47 26.41 26.77 26.43 25.79 25.18 24.32 23.62 24.00 24.37 25.05 25.62 25.66 25.95 26.36 26.92 28.45 29.40 29.92 30.09 30.34 31.55 32.65 32.50 32.43 32.53 32.62 32.54 32.96 34.05 34.33 33.19 34.20 32.22 31.49 29.99 29.05 28.13 27.63 26.94 27.11 27.10

GFSGL_sfc_wetblb_096.txt.gz
Wetbulb
45.77 46.29 46.33 46.86 48.37 50.20 50.49 50.75 51.21 53.53 55.22 56.70 57.76 58.73 59.41 59.51 59.72 59.65 59.65 59.27 58.61 58.39 57.94 57.49 57.19 56.86 56.91 56.10 55.03 53.07 51.42 49.73 47.70 45.61 46.66 45.69 46.19 46.03 45.96 45.80 45.81 44.90 45.57
42.66 43.70 44.01 44.72 45.18 45.25 45.76 47.15 48.87 48.72 49.64 50.09 52.60 54.76 57.24 58.91 59.33 59.20 58.96 59.10 58.46 57.83 57.78 57.00 56.52 55.52 55.77 55.18 54.03 53.08 52.58 50.78 49.05 45.66 45.12 44.94 45.16 44.65 44.38 44.87 44.99 44.29 42.44
41.88 42.01 41.88 42.81 42.98 43.16 43.86 44.75 45.76 46.64 47.50 47.99 49.24 50.85 52.24 53.73 56.27 57.95 59.06 58.97 58.55 58.31 58.01 56.66 56.78 55.05 54.83 53.99 53.42 52.39 51.07 49.51 47.55 46.43 43.53 43.79 43.58 43.92 43.10 43.27 42.49 41.14 40.72
40.54 40.92 41.06 41.12 41.79 42.23 42.82 43.22 43.80 44.57 45.05 45.98 46.75 47.81 48.97 49.79 51.13 52.39 54.68 54.95 55.60 56.49 56.44 56.12 56.25 55.00 55.20 53.33 52.35 51.42 48.94 47.80 45.91 45.68 43.46 42.58 41.63 42.31 42.23 40.42 39.82 40.34 40.00
38.89 38.89 39.06 39.73 40.29 40.76 41.30 41.88 42.54 42.75 43.06 43.97 44.75 45.36 45.85 46.49 47.52 48.08 49.93 51.34 52.01 52.13 51.53 52.34 52.72 51.89 50.54 52.37 51.53 49.37 48.00 47.03 43.34 41.46 40.79 41.16 40.45 39.62 40.04 39.77 39.65 38.82 39.13
37.18 37.42 37.98 38.27 38.73 38.75 39.16 39.77 40.31 40.60 40.93 41.63 42.02 42.91 43.32 45.07 47.03 47.86 47.65 48.01 48.66 49.16 49.20 49.49 50.00 47.68 48.92 50.09 50.28 49.02 49.23 47.03 44.67 41.62 40.34 40.93 41.24 38.86 38.15 38.13 37.03 35.20 35.24
35.80 35.81 35.88 36.20 36.16 36.68 37.66 38.13 38.12 37.99 38.66 38.78 39.88 41.05 42.03 42.93 46.46 47.44 47.51 45.63 46.35 46.88 46.45 46.16 45.82 46.58 47.01 47.69 49.17 49.16 48.96 48.91 48.61 46.28 43.30 41.04 38.74 38.54 38.01 35.61 33.37 32.71 34.88
33.48 34.33 34.36 34.53 34.33 34.77 35.26 34.95 35.40 36.80 37.55 38.48 38.93 40.11 41.82 43.62 46.10 46.63 46.78 43.28 41.91 42.27 43.20 43.97 43.90 42.78 43.36 44.24 43.85 43.14 44.24 45.28 45.34 44.65 44.44 41.60 40.31 40.48 40.24 37.29 36.14 34.61 32.26
31.89 32.99 33.11 33.20 32.70 32.71 32.86 33.00 33.61 34.48 35.16 36.64 38.32 38.68 40.08 41.76 44.30 45.41 45.42 42.05 39.79 38.63 38.95 41.43 43.58 42.69 43.93 45.01 41.25 38.86 38.88 38.72 41.41 42.81 42.72 43.09 43.40 43.11 40.04 36.23 32.66 34.35 31.64
31.34 32.22 33.01 32.67 32.11 31.29 31.35 31.79 32.62 32.72 33.85 35.40 36.71 36.27 39.64 39.79 42.60 44.19 44.83 42.80 40.33 39.91 40.23 38.58 43.11 42.79 44.30 45.09 40.25 38.68 36.91 36.30 35.11 35.58 36.24 39.25 41.74 41.48 42.31 36.91 34.65 34.08 31.84
31.76 31.95 31.62 31.57 30.46 30.09 29.90 30.72 30.18 30.53 31.12 31.06 32.68 33.00 34.38 38.34 39.67 42.57 43.87 43.32 41.80 40.53 40.15 39.91 40.18 43.45 43.88 45.12 42.24 38.65 38.66 34.80 36.01 31.88 31.71 32.08 32.64 33.95 34.93 33.38 33.81 32.12 27.76
29.98 29.82 29.25 29.18 30.02 30.87 28.28 27.97 28.13 27.85 28.51 28.92 29.47 30.60 32.72 34.37 38.57 39.83 41.57 42.31 43.09 41.50 39.68 40.38 40.60 42.16 43.46 44.08 43.28 40.62 40.29 37.69 32.26 30.37 30.42 30.37 30.51 29.89 28.49 29.55 31.06 29.34 28.90
27.10 27.54 28.81 29.55 29.34 28.08 26.74 26.76 26.88 27.54 27.87 28.10 28.96 28.99 29.95 31.44 32.56 36.85 38.90 40.35 41.26 40.27 41.93 41.57 41.29 41.41 42.13 43.22 43.80 41.61 41.04 33.63 32.24 29.49 28.94 29.32 28.88 28.46 27.19 26.18 27.23 27.87 28.00
25.16 25.74 26.94 26.90 28.24 28.16 27.98 28.18 27.45 26.87 26.55 28.42 28.46 28.16 28.26 28.79 30.93 31.41 34.04 36.44 39.46 40.12 40.23 41.03 41.22 40.96 41.75 42.04 42.03 41.29 38.12 33.13 32.71 31.67 29.55 28.26 27.20 25.66 25.33 25.54 24.23 24.93 24.36
24.91 25.59 26.06 27.19 27.03 27.20 27.30 27.42 28.27 28.04 28.56 28.67 29.73 30.16 30.04 29.25 30.88 34.06 34.13 33.53 35.35 37.62 39.84 35.78 36.44 36.42 36.62 37.39 37.38 38.57 36.45 34.29 32.48 31.04 29.11 26.85 27.97 27.20 26.29 23.73 24.64 22.67 19.66
25.58 26.24 26.49 27.35 27.48 28.01 27.85 27.49 31.88 33.11 33.58 33.93 34.12 33.14 33.05 34.21 34.36 34.17 34.61 35.15 35.92 37.62 37.06 34.25 34.71 35.61 35.97 36.15 35.58 35.79 35.16 34.88 32.93 30.66 30.21 28.82 27.31 27.32 26.34 23.21 22.43 22.08 18.99
24.76 25.77 26.40 27.74 27.20 27.24 27.53 25.66 24.79 28.18 32.11 32.65 32.94 33.79 34.10 33.44 33.53 33.39 33.78 34.63 35.70 37.02 35.37 34.95 34.31 34.82 34.99 35.19 34.91 34.14 32.51 33.56 32.63 31.22 30.05 29.21 28.15 26.54 27.25 25.24 24.35 23.25 21.26
25.64 29.25 26.90 26.42 26.40 27.44 27.88 26.46 26.65 27.39 26.56 26.53 30.46 31.70 33.30 34.00 33.07 32.66 33.08 33.61 31.78 34.44 33.39 34.31 34.09 34.55 34.39 34.12 33.44 33.60 33.29 31.71 31.57 30.99 30.62 29.41 28.79 27.72 26.20 25.48 25.45 24.54 23.68
26.21 26.16 26.64 27.09 27.54 28.71 29.18 29.35 28.60 28.39 27.71 26.94 26.56 28.95 31.02 32.76 32.23 32.26 32.64 29.85 30.04 30.43 32.24 32.56 34.82 34.74 34.18 33.91 33.15 32.32 32.57 32.04 31.82 31.23 30.49 29.27 28.52 27.84 27.07 26.70 25.89 27.95 26.06
25.37 28.20 29.07 28.07 27.92 28.35 28.59 29.06 28.95 28.00 26.95 26.12 25.36 26.23 27.56 27.47 27.23 27.01 29.16 29.95 30.11 30.35 31.04 32.55 33.58 34.61 34.47 34.14 33.40 32.79 32.12 32.19 31.72 31.66 30.64 29.33 28.57 28.06 26.69 26.21 25.87 26.01 26.59
25.83 26.40 29.49 27.12 26.72 27.11 27.92 28.10 28.50 26.83 26.71 26.44 26.66 28.48 31.48 29.13 27.96 27.86 28.64 29.64 30.07 29.56 30.38 31.71 33.12 33.93 34.51 33.38 32.97 32.60 32.45 32.28 32.26 31.86 31.26 29.40 28.10 27.07 27.39 27.21 26.14 26.45 26.75
25.21 25.97 26.50 25.88 26.14 27.55 27.99 28.26 27.37 27.27 27.11 26.79 26.99 27.80 30.83 27.71 26.39 26.54 27.49 29.20 28.65 29.44 30.95 31.70 32.56 33.09 33.68 33.04 32.73 32.24 32.16 32.10 32.06 32.08 31.84 30.92 29.03 28.53 27.22 26.86 26.22 25.66 26.51
24.82 26.00 25.64 24.95 25.10 26.88 26.19 26.42 26.37 26.61 26.74 26.97 26.86 26.20 26.36 26.14 26.38 27.11 28.16 26.75 28.48 29.08 30.50 31.58 31.75 32.41 33.94 34.33 33.71 33.13 32.37 32.54 33.25 33.37 32.34 31.36 29.92 29.42 28.34 27.11 26.55 25.98 26.07
27.21 25.76 25.57 25.38 25.67 26.34 26.55 26.37 26.97 27.67 27.06 25.93 24.90 25.19 25.02 25.24 25.48 26.16 27.57 27.82 28.39 29.15 30.32 31.51 31.75 31.89 33.23 33.91 33.41 33.34 33.50 34.00 34.12 33.60 33.26 31.43 30.67 30.83 29.02 27.82 27.21 26.95 26.48
23.63 24.21 24.48 24.40 24.40 24.94 25.39 24.77 25.14 24.74 24.63 24.46 24.53 24.91 24.94 25.31 25.29 25.66 27.21 28.42 28.73 28.96 29.75 30.59 30.98 31.38 32.82 33.24 33.00 32.66 32.81 34.27 33.48 33.02 33.04 32.02 30.85 30.14 29.14 28.36 27.44 27.12 26.65
23.72 23.93 23.39 23.36 23.35 24.07 24.00 23.88 24.12 24.18 23.93 23.22 23.18 23.28 23.65 23.94 24.64 25.39 26.90 28.21 28.95 29.68 30.10 30.05 31.00 31.89 32.64 32.72 32.88 33.10 34.25 35.31 33.92 34.48 32.71 31.56 30.23 29.70 29.08 28.27 27.50 27.16 26.68

GFSGL_sfc_wetblb_099.txt.gz
Wetbulb
44.20 44.74 45.00 45.89 46.73 46.85 46.95 47.89 49.10 50.23 50.84 52.14 54.36 56.20 57.39 58.78 59.41 59.30 59.38 59.30 58.65 58.64 58.39 58.26 58.13 58.38 57.95 57.43 57.41 55.85 54.19 52.75 49.28 46.28 47.22 47.08 47.19 48.09 47.13 46.63 46.83 46.07 47.37
42.74 42.99 43.14 43.56 43.94 43.91 43.91 44.32 45.52 45.83 47.69 48.26 49.31 50.97 52.93 54.55 57.33 58.63 58.61 58.71 58.32 57.89 57.87 57.31 57.11 57.05 56.83 56.53 55.43 54.19 53.00 50.55 49.03 45.58 45.21 45.28 45.86 46.24 45.76 44.56 44.82 44.87 43.96
41.63 41.46 41.10 41.04 41.45 41.66 42.15 42.87 43.89 44.09 44.60 45.49 46.52 47.07 48.16 49.66 50.95 52.99 55.18 57.29 58.24 58.32 58.22 57.61 57.46 56.93 56.10 56.48 55.60 54.93 54.22 51.58 50.59 46.75 43.60 44.65 44.14 45.73 44.09 44.04 42.81 41.23 41.96
39.83 39.27 38.68 38.77 39.49 39.94 40.98 41.53 42.11 42.54 42.38 42.66 43.63 44.65 45.50 46.19 47.09 48.28 49.70 51.31 53.39 54.81 56.42 57.41 57.40 56.79 56.06 55.66 54.95 54.69 53.43 51.76 50.38 48.05 44.18 43.22 42.60 42.98 43.76 41.62 40.50 40.71 39.60
37.93 37.15 36.82 37.39 38.09 38.15 38.51 39.48 40.33 40.52 40.55 41.27 41.56 41.77 42.44 44.02 45.65 45.85 46.19 46.63 48.15 50.43 52.62 53.11 53.95 54.00 52.11 54.94 54.45 53.97 52.33 50.74 48.16 46.26 42.60 41.60 40.63 40.78 42.02 40.76 40.94 38.75 38.62
35.31 34.91 35.45 35.38 35.54 35.64 36.23 36.80 37.26 37.72 38.56 39.35 39.53 40.02 40.37 42.57 45.31 47.00 46.81 45.07 45.31 47.04 48.27 50.00 51.04 48.76 49.75 50.80 51.47 51.29 51.73 50.32 47.94 46.21 42.40 43.39 41.33 40.58 40.85 39.79 37.81 36.29 35.85
32.44 33.80 33.51 33.52 33.29 33.61 34.24 34.43 33.79 34.40 35.61 35.94 37.25 38.35 38.93 40.36 44.53 45.21 46.10 45.24 43.59 43.91 45.38 46.14 46.83 47.53 47.62 48.70 49.97 49.88 49.48 50.25 50.56 47.95 44.52 43.59 41.57 40.78 40.00 36.12 35.38 34.83 35.83
31.10 31.66 32.63 32.30 31.84 32.04 31.81 31.56 31.55 32.78 33.20 34.18 34.88 36.51 37.35 38.91 41.95 43.33 44.26 42.86 43.48 42.29 40.73 42.19 44.05 44.62 44.51 45.69 45.99 44.76 46.28 47.56 47.29 46.92 46.61 44.40 44.43 42.94 42.57 39.81 38.09 34.35 33.10
30.28 30.38 31.39 31.66 30.99 30.81 30.35 29.84 30.39 31.67 31.19 32.04 34.23 34.90 34.43 35.51 40.46 40.66 42.03 41.62 40.91 40.70 41.77 41.52 42.36 43.57 45.07 46.38 43.50 41.46 42.12 41.41 44.99 46.36 45.92 45.52 45.36 44.97 42.26 38.61 35.13 35.99 32.45
29.81 30.27 30.87 30.93 30.22 29.41 29.22 28.94 30.04 29.89 31.07 31.84 32.20 32.29 34.44 33.02 38.12 39.96 40.57 40.82 40.90 41.34 42.37 41.32 42.56 42.75 44.42 45.63 43.11 41.38 39.46 39.26 38.30 38.67 40.40 42.45 43.72 43.28 43.14 40.86 37.45 36.51 32.37
29.18 28.99 29.14 29.31 28.90 28.48 28.05 28.17 27.75 27.49 28.09 27.92 29.17 29.60 30.18 32.54 33.35 37.92 38.92 38.61 39.59 40.06 41.05 41.12 41.07 42.93 43.99 44.59 45.54 41.19 40.85 37.89 39.01 36.62 36.92 34.92 37.17 37.96 38.13 34.87 36.75 37.12 32.63
27.03 26.81 26.62 26.74 27.46 28.12 25.84 25.91 25.97 25.78 25.95 26.45 27.08 28.38 30.24 30.40 34.55 35.15 36.83 37.54 39.08 38.45 38.64 40.40 41.43 42.72 43.00 43.76 44.64 42.87 43.07 39.65 35.02 33.59 33.44 33.51 34.26 34.80 34.54 31.74 31.99 30.56 32.09
25.12 24.90 25.24 26.10 26.93 27.22 25.89 25.45 25.85 25.91 25.71 26.44 27.77 27.78 28.81 29.76 29.25 34.47 35.24 36.03 36.70 35.85 38.04 40.25 41.24 42.33 42.85 43.17 43.78 43.61 42.09 34.86 33.78 32.49 32.75 32.60 32.33 30.54 29.61 28.91 28.32 28.75 28.49
22.98 22.94 23.50 23.26 26.24 26.63 26.88 27.10 26.44 26.23 25.20 27.57 27.60 27.38 27.94 28.88 28.16 28.74 30.88 32.88 34.32 33.86 35.48 36.04 38.32 40.80 42.28 41.76 41.85 43.00 39.37 35.15 34.15 33.54 32.57 30.69 29.16 26.39 25.95 26.35 27.47 25.57 24.95
23.37 23.80 23.83 24.97 24.39 25.22 26.31 26.40 27.08 27.72 27.36 27.26 28.62 28.65 29.44 28.74 30.85 33.73 33.70 32.13 32.49 33.75 34.38 33.59 34.80 35.49 36.34 37.08 37.18 38.85 37.72 35.19 34.28 33.24 30.27 28.81 28.55 27.84 27.58 25.68 24.96 23.48 21.73
24.42 24.85 25.02 26.01 25.70 26.17 26.04 26.45 31.58 33.20 34.64 34.46 34.03 32.31 30.92 33.44 34.81 34.18 34.11 34.08 34.37 35.27 32.49 31.47 33.03 34.78 34.76 35.70 35.52 36.13 35.74 35.65 34.01 32.33 31.34 30.11 29.11 28.15 27.14 25.44 23.72 22.78 22.39
24.27 25.52 26.00 26.79 25.82 25.30 25.48 25.52 25.24 28.74 32.61 32.91 32.88 32.97 33.30 33.16 33.81 34.20 34.06 33.28 33.87 33.93 30.67 31.96 32.28 33.82 34.27 34.99 35.67 35.43 34.85 35.14 33.90 31.78 31.31 30.18 29.62 29.16 28.60 26.11 25.39 24.79 21.72
25.23 28.02 25.55 25.28 25.31 25.80 26.05 26.31 26.51 25.76 25.83 26.80 31.40 31.66 32.42 32.89 33.06 33.30 32.78 32.33 28.80 30.70 30.64 30.54 31.44 32.35 34.21 34.14 34.05 34.10 33.64 31.80 31.86 31.71 31.25 30.36 29.13 28.79 27.56 26.01 25.26 24.44 23.36
24.66 24.56 25.58 26.63 27.20 28.25 27.45 27.00 27.38 27.58 27.39 27.56 27.66 29.38 30.34 31.46 32.27 32.89 32.95 28.46 27.64 28.03 29.53 30.20 31.11 31.94 32.48 34.12 33.09 32.33 32.57 32.08 32.06 31.61 31.35 30.43 29.54 28.90 27.89 26.92 26.36 27.53 25.50
24.32 26.84 27.31 26.71 26.92 25.87 25.65 26.06 26.36 26.66 27.48 27.67 26.11 26.22 27.27 27.96 26.48 26.67 27.20 27.02 28.32 28.78 29.44 29.61 29.69 31.00 32.22 33.08 33.75 32.43 31.95 32.50 32.28 31.83 31.70 30.70 29.91 29.84 28.19 27.34 27.02 26.76 26.21
23.94 24.64 27.76 25.63 24.77 24.81 24.58 25.00 26.42 26.80 27.08 26.07 26.29 27.62 31.07 28.93 28.12 26.87 26.62 26.77 27.25 28.04 29.17 28.49 29.49 30.64 32.18 32.69 33.60 32.43 31.93 32.11 32.15 32.20 31.55 30.68 29.80 28.81 28.85 28.11 27.60 27.65 27.34
24.46 24.74 25.59 25.84 25.78 24.82 24.61 25.72 26.11 26.43 26.49 26.25 26.12 27.27 30.69 28.64 26.28 25.74 26.03 26.38 27.04 27.96 27.14 28.32 29.32 30.43 31.57 32.30 32.60 32.37 32.04 31.99 31.97 31.93 31.80 30.25 29.51 29.27 28.54 27.88 27.23 26.73 26.46
24.91 24.99 25.31 24.47 24.99 25.97 24.40 24.72 25.56 26.13 26.49 26.96 27.10 27.09 26.61 25.51 25.61 25.53 25.98 26.85 27.47 26.74 26.85 28.84 28.60 29.43 31.29 32.45 33.08 32.68 32.12 32.18 32.50 32.71 31.89 30.14 29.13 28.68 28.21 27.13 26.19 25.17 25.37
23.22 23.78 23.40 23.20 24.03 24.22 22.78 23.60 24.90 25.11 24.96 24.92 24.16 24.26 23.87 24.26 24.58 24.78 25.35 25.65 26.93 28.17 28.69 28.83 29.24 29.56 30.86 31.23 32.41 33.19 32.91 33.36 32.68 32.45 32.42 31.37 29.79 29.91 28.42 27.70 26.92 26.05 25.70
20.75 23.11 22.71 22.22 21.80 21.82 22.05 22.87 23.39 23.84 24.42 24.30 23.98 23.49 23.28 23.44 23.54 23.87 24.16 24.35 25.37 27.15 28.50 29.30 29.77 30.06 30.23 30.67 31.65 32.74 32.45 33.76 33.11 32.75 32.43 32.25 30.88 29.67 28.61 27.93 27.42 26.90 26.33
22.98 23.11 22.16 21.79 21.28 20.93 21.38 20.64 20.69 20.86 21.28 22.38 21.93 21.46 21.70 21.86 22.62 23.40 23.99 24.65 25.01 26.98 28.71 29.74 30.19 29.94 30.29 31.21 32.21 33.03 34.36 34.54 33.61 34.63 32.71 32.07 30.91 29.79 29.09 28.38 27.51 26.92 26.19

GFSGL_sfc_wetblb_102.txt.gz
Wetbulb
43.83 43.74 43.47 43.87 44.72 44.93 44.46 44.81 45.48 46.70 47.40 48.27 49.32 50.76 52.09 53.62 55.36 57.63 58.74 58.77 58.48 58.28 58.34 58.25 58.23 58.90 58.71 58.30 58.05 57.76 56.87 56.35 54.02 46.67 47.69 47.96 48.52 49.44 48.55 48.46 49.37 48.82 50.82
42.13 41.58 41.18 41.57 41.87 42.15 42.47 42.92 43.63 43.34 44.38 44.78 45.88 46.77 47.62 48.66 50.05 51.77 52.71 55.34 58.04 57.68 57.88 57.67 57.58 57.88 57.71 58.06 57.44 56.60 56.08 55.49 51.98 45.97 45.24 45.78 46.76 49.02 47.96 47.20 46.69 46.60 46.64
40.84 39.68 38.82 38.83 38.82 39.10 40.33 41.26 41.87 41.83 41.83 42.39 42.99 43.07 44.02 45.05 46.27 47.27 48.27 49.31 51.69 52.93 56.37 57.30 57.45 57.30 56.63 56.74 56.37 55.56 54.37 52.46 51.70 47.11 44.19 45.24 44.70 46.80 45.77 45.51 44.94 43.58 43.90
38.63 37.08 36.16 35.97 36.72 37.10 37.77 38.29 39.07 39.84 39.36 40.21 40.83 40.98 41.62 42.44 44.39 44.95 45.73 45.87 46.34 47.80 50.16 52.49 53.97 56.10 56.76 56.44 56.06 55.79 54.98 53.09 51.81 48.69 44.56 44.61 43.38 44.99 45.63 43.48 41.59 41.65 40.43
35.98 35.28 33.74 35.06 35.29 35.08 35.24 35.53 35.90 36.21 36.84 38.02 38.50 38.88 39.79 40.45 42.23 43.76 44.22 44.63 44.49 44.98 46.24 48.27 50.79 50.88 49.17 51.56 54.88 55.22 54.80 53.79 52.13 50.00 43.74 42.07 42.58 42.53 43.36 43.26 42.94 41.31 41.16
31.88 32.76 33.60 33.47 33.29 32.39 33.07 33.65 33.45 33.77 34.16 35.02 34.98 36.24 37.57 39.50 41.84 42.21 43.40 42.67 43.40 43.65 43.75 45.12 46.45 47.04 48.74 50.17 50.58 50.49 52.93 53.05 50.68 49.58 46.68 44.82 43.72 44.56 44.42 42.31 38.77 37.44 36.90
30.10 30.90 31.43 31.45 31.19 31.12 31.25 30.96 30.48 30.77 32.32 32.17 32.89 34.10 35.48 36.54 40.34 40.99 41.10 41.42 41.60 42.04 41.76 42.22 43.19 44.94 45.57 46.70 48.29 49.23 49.86 50.54 51.24 50.38 48.69 47.70 44.92 44.62 43.62 40.89 37.99 37.24 37.27
29.49 29.51 30.33 30.60 30.28 30.54 30.22 29.56 28.99 29.72 30.33 30.34 31.11 32.54 33.46 34.52 38.53 39.35 40.56 38.74 40.02 40.56 39.60 40.46 41.65 42.69 43.86 44.62 44.82 44.78 46.53 48.62 49.71 49.58 50.27 49.64 48.28 45.40 43.91 43.87 41.83 38.49 33.88
28.90 28.56 29.04 29.23 28.84 28.87 28.33 28.17 28.37 29.03 28.76 28.94 30.66 31.04 30.40 31.27 36.64 37.99 37.73 35.85 37.36 38.14 39.67 40.51 40.62 41.02 43.84 45.42 44.04 42.39 43.41 44.20 45.58 47.70 47.63 47.20 46.44 46.27 45.25 40.79 37.54 37.37 33.12
27.64 27.88 28.35 28.38 27.62 26.60 26.29 26.09 26.72 27.81 28.26 29.00 29.14 29.63 32.19 30.17 34.72 37.05 36.22 33.86 33.72 35.96 39.00 39.40 41.99 42.04 44.25 44.80 43.16 42.94 41.13 41.55 40.52 40.86 42.65 45.14 45.88 45.49 44.40 44.02 39.29 38.04 32.51
27.75 27.05 26.63 26.31 25.26 25.57 25.28 25.81 25.48 26.43 26.97 25.80 27.08 27.45 28.04 29.39 30.48 36.12 36.28 32.96 32.75 33.00 34.60 37.60 39.41 41.78 42.58 43.39 44.61 43.19 42.18 41.73 41.00 38.09 38.15 38.83 39.41 41.76 41.50 39.43 40.64 40.56 33.59
25.03 25.43 24.82 24.44 25.37 26.65 23.57 23.54 23.83 23.59 23.76 24.81 25.27 26.41 27.84 28.53 33.13 34.34 35.72 35.67 35.11 32.47 32.54 34.48 37.30 39.22 40.12 41.54 42.70 44.12 44.62 42.44 37.21 35.85 35.40 36.04 37.09 37.25 35.56 34.67 34.09 32.68 32.64
23.13 22.89 23.07 23.91 24.81 25.04 23.57 24.07 24.32 24.57 23.74 24.52 26.63 26.44 27.38 28.90 28.81 33.64 34.78 34.86 34.85 32.57 32.52 33.86 35.53 36.68 37.85 39.02 41.55 43.21 44.06 37.81 35.78 34.55 34.97 35.14 34.47 35.22 32.96 31.01 30.49 30.73 30.44
22.28 22.06 22.69 22.34 24.28 24.03 24.75 25.59 24.66 24.45 24.13 26.18 26.89 26.87 26.35 28.05 28.21 28.74 28.85 32.62 34.33 33.21 33.30 32.72 34.25 35.53 36.70 37.60 39.75 41.43 41.20 36.81 35.86 35.86 35.56 33.20 31.70 32.24 31.73 30.73 29.34 29.79 28.91
22.85 23.19 23.20 24.28 23.02 23.87 24.99 24.73 26.19 26.42 26.73 28.40 28.98 29.44 28.94 27.86 28.59 32.83 33.64 31.98 32.32 33.03 33.15 31.92 31.38 30.65 30.62 34.46 36.18 37.38 38.75 36.29 35.73 34.56 31.92 30.83 31.53 31.24 30.67 29.68 30.33 29.05 28.39
23.96 24.62 24.48 25.26 24.50 24.94 24.76 25.08 29.87 31.16 32.75 33.33 33.82 32.96 31.48 33.06 34.17 33.96 34.32 34.62 34.58 34.28 31.06 30.06 29.75 30.71 31.86 32.53 34.09 34.74 36.23 36.21 35.05 33.61 32.40 32.00 31.26 30.65 29.24 27.97 28.13 30.18 27.09
23.71 24.52 25.13 25.48 24.67 24.31 25.00 25.14 24.53 27.95 31.53 32.07 32.69 33.45 33.86 33.57 34.15 33.56 33.52 33.97 33.77 33.16 28.04 27.85 29.02 29.17 30.77 31.80 33.03 33.95 33.91 34.97 34.14 33.43 32.40 31.50 30.72 30.18 29.85 27.74 28.12 28.41 26.58
24.23 26.46 24.07 23.85 24.46 25.70 25.90 26.67 25.77 24.80 24.89 26.25 30.62 31.77 32.95 33.44 33.20 32.80 33.16 33.07 28.32 29.01 27.79 27.72 28.32 28.91 29.34 30.63 31.54 33.12 33.32 33.24 32.51 31.83 31.79 31.37 30.47 29.60 28.00 27.61 27.38 27.28 26.23
23.64 23.18 24.77 25.97 25.38 26.49 25.95 24.93 24.94 24.72 25.18 26.34 27.16 29.43 30.22 31.45 32.14 32.44 32.51 27.97 26.28 26.72 27.65 27.45 28.88 29.08 27.94 29.19 31.53 32.51 32.45 31.88 31.96 31.84 31.82 31.25 30.57 30.10 28.47 28.20 27.65 29.16 27.30
22.38 25.91 26.84 25.97 25.71 24.88 24.96 24.50 23.86 24.55 25.19 25.71 26.92 26.74 27.09 27.32 26.00 26.19 27.61 27.40 26.59 26.68 27.26 27.43 28.68 27.90 26.20 29.19 31.56 32.00 32.40 32.17 31.79 31.75 31.76 31.31 30.57 30.69 29.16 28.05 27.74 27.63 27.09
22.78 23.83 27.29 24.29 24.46 25.33 25.27 24.08 23.98 24.35 24.92 25.41 26.21 27.61 30.51 28.34 28.21 28.43 26.45 25.77 25.85 25.89 26.10 27.26 25.21 24.98 24.52 29.09 30.63 31.78 31.99 32.06 31.93 31.83 31.73 31.31 30.58 29.60 29.71 28.91 28.51 28.71 26.63
24.54 24.14 24.48 24.22 24.91 24.87 24.54 25.28 24.36 23.68 24.19 25.05 26.17 27.68 29.65 27.18 26.53 25.41 25.22 25.41 25.80 26.42 26.69 27.33 25.59 25.66 25.26 25.09 29.26 30.10 30.95 31.59 31.98 31.82 31.76 31.29 30.37 30.19 29.35 28.58 28.18 28.12 27.02
23.52 23.90 24.09 23.01 24.17 24.98 23.66 23.54 22.29 23.07 24.14 23.73 24.49 24.79 24.57 24.07 23.95 24.14 24.59 25.11 25.49 25.75 26.58 27.56 27.20 27.41 25.49 26.15 30.50 31.54 30.66 30.83 32.20 32.07 31.80 30.65 29.82 29.34 28.92 28.13 27.83 27.48 26.98
25.60 23.23 23.17 22.84 23.14 23.38 22.03 21.33 22.14 22.55 22.26 22.18 22.78 23.50 24.09 23.69 22.93 23.15 23.56 23.88 24.57 24.58 25.29 26.65 28.16 28.36 28.57 29.06 30.24 31.07 31.54 32.40 32.62 32.01 31.93 30.62 29.66 30.12 28.83 28.18 27.73 27.59 27.05
21.21 22.36 23.01 22.74 21.77 21.31 20.91 20.79 21.00 20.57 20.54 20.42 20.83 21.45 21.57 21.82 21.27 21.67 22.75 23.45 24.06 24.59 25.34 26.27 28.21 29.11 29.22 29.43 29.90 30.32 31.26 33.34 32.54 31.88 31.88 31.65 30.16 29.36 28.66 27.97 27.38 27.20 26.99
19.28 19.94 21.06 21.39 20.63 20.73 20.67 20.53 20.31 19.73 18.77 18.59 19.29 19.33 19.26 19.52 20.11 20.65 21.25 22.43 23.13 23.69 24.01 24.80 26.00 27.54 29.55 30.17 30.24 30.79 32.50 34.17 33.64 34.01 32.06 31.83 30.48 29.25 28.96 28.04 27.32 27.03 26.60

GFSGL_sfc_wetblb_105.txt.gz
Wetbulb
42.26 41.83 41.51 42.16 43.21 43.69 43.34 43.16 43.18 43.90 43.87 44.48 45.64 46.59 47.13 48.01 49.24 50.08 51.28 52.51 53.31 57.14 58.40 58.28 58.28 58.83 58.55 58.97 59.33 58.92 57.91 57.23 54.82 55.74 50.58 50.25 51.56 52.49 51.70 53.60 53.40 54.40 55.25
39.99 39.17 38.91 38.97 39.30 39.64 40.01 40.42 41.27 40.85 41.60 42.15 42.55 42.84 43.53 44.60 46.66 46.88 47.46 48.43 48.64 50.11 51.54 55.07 57.45 57.54 57.88 58.29 58.10 57.40 57.06 57.60 56.25 54.50 47.65 47.20 49.02 51.41 50.64 49.78 49.31 50.34 51.77
38.90 37.77 37.40 37.32 37.18 37.09 37.89 38.30 38.91 39.16 39.22 40.00 40.63 40.58 41.03 41.73 43.63 44.95 45.55 45.83 46.35 47.11 48.23 49.27 50.93 52.46 55.69 57.28 57.26 56.79 56.79 56.15 55.99 52.55 45.08 46.36 45.71 48.77 47.34 47.32 47.27 46.87 47.31
37.78 36.69 35.82 35.77 36.01 36.15 36.66 36.67 36.88 37.78 37.28 37.70 38.05 38.63 39.61 40.38 41.31 42.45 43.06 43.87 44.60 45.28 46.34 47.28 48.44 50.00 50.64 51.22 53.09 56.19 56.17 54.71 53.02 50.59 46.51 45.33 44.75 45.77 47.50 45.14 43.09 44.45 44.00
35.66 35.28 34.62 35.20 35.50 34.90 34.84 35.12 35.12 35.45 36.25 36.20 36.11 36.52 37.73 38.88 39.53 40.42 40.72 41.06 41.63 42.36 44.01 45.15 46.36 46.41 45.91 48.17 49.31 50.43 53.10 53.80 52.35 50.12 45.69 43.81 43.20 43.90 44.94 45.20 44.68 43.06 41.75
32.90 33.16 33.98 33.93 34.03 33.83 33.85 33.46 33.47 33.60 34.42 34.26 34.36 34.68 35.48 36.28 38.81 39.94 39.95 39.45 39.50 39.89 40.14 42.24 43.82 44.46 45.97 47.09 47.73 48.10 49.16 49.17 51.50 50.85 48.21 46.46 46.22 46.57 46.66 44.73 42.83 40.06 38.38
31.93 32.00 32.00 32.13 31.84 32.12 32.27 32.02 31.42 31.66 32.96 32.94 32.98 33.49 33.92 34.84 37.66 38.66 39.07 38.71 38.20 38.60 38.95 39.71 40.80 42.52 43.65 44.20 45.67 46.54 47.44 48.52 49.33 50.99 49.99 48.45 48.60 47.64 46.23 43.55 42.89 43.55 43.86
31.01 30.60 30.91 30.86 30.56 30.98 30.91 30.52 30.76 31.30 31.42 31.75 32.25 32.92 33.28 34.08 36.70 37.46 37.98 37.20 37.00 37.62 38.94 39.42 40.00 40.16 42.06 42.84 43.10 44.28 45.11 46.43 47.98 49.05 50.23 51.67 51.22 48.96 48.51 46.96 45.99 43.53 36.56
29.95 29.45 29.72 29.89 29.47 29.58 29.29 29.31 29.78 29.88 30.29 30.25 31.20 31.70 31.93 32.79 35.79 36.56 36.78 36.02 35.15 35.15 36.34 37.20 38.52 40.01 41.10 41.68 41.41 41.80 42.90 44.12 46.02 46.73 47.50 48.77 49.14 48.49 48.57 45.43 40.67 38.82 34.12
29.30 29.47 29.53 29.42 29.04 28.35 28.56 28.40 29.20 29.11 28.99 30.14 29.71 30.87 31.80 32.31 33.82 35.73 35.99 35.03 33.27 33.48 34.64 35.41 37.40 38.88 40.56 41.31 40.50 40.37 39.70 41.64 43.83 44.01 45.16 46.24 47.47 47.41 46.86 46.02 42.23 41.05 34.36
28.81 28.52 28.28 28.32 27.32 27.29 27.50 27.46 27.42 27.36 27.81 27.58 28.39 29.83 29.88 31.60 32.79 35.51 35.96 34.48 33.43 32.95 32.78 32.99 34.21 36.19 37.04 38.10 38.96 38.94 39.92 42.18 43.13 42.20 41.58 42.05 43.11 44.15 44.78 45.21 43.22 43.60 38.46
26.61 26.84 26.61 26.62 26.62 27.46 26.06 26.55 26.82 26.19 26.15 26.26 26.66 27.89 30.56 31.23 33.10 34.28 35.02 35.27 35.35 32.33 31.55 32.30 32.58 34.66 35.42 35.81 36.28 38.33 39.71 41.90 41.20 39.67 37.87 38.06 38.76 40.48 41.84 40.25 41.86 41.63 41.00
25.03 24.99 25.47 25.99 26.44 26.86 26.28 25.94 26.01 26.58 25.97 26.19 27.09 27.71 29.03 31.19 31.91 33.94 34.72 34.71 35.01 33.17 33.33 33.54 34.38 34.51 34.82 34.81 35.53 36.66 38.19 38.75 38.81 36.70 36.19 37.09 38.28 38.52 34.37 33.23 32.58 32.21 32.71
24.63 24.73 25.75 25.48 27.64 26.54 27.02 27.19 26.35 26.05 25.84 26.56 27.34 28.26 29.25 30.02 30.93 31.68 31.70 32.68 34.37 34.31 34.06 33.88 34.36 34.41 34.09 33.61 33.88 35.50 37.32 37.80 37.45 37.04 36.90 36.49 32.81 33.22 33.29 32.37 32.28 32.86 31.30
24.83 25.20 25.45 25.85 25.41 25.70 26.42 26.28 26.93 28.16 28.66 28.16 29.01 29.79 29.54 29.58 31.18 33.33 33.63 32.80 33.39 34.05 34.55 32.88 31.91 31.53 30.17 31.18 33.04 34.20 35.62 35.89 35.71 36.47 34.52 32.31 32.86 33.10 32.26 32.29 31.98 32.41 31.06
24.86 25.38 24.98 25.86 25.55 25.48 25.52 25.78 29.83 30.70 31.71 31.61 32.06 31.34 31.20 33.34 34.47 34.59 34.48 34.69 34.40 34.75 32.44 30.16 28.68 28.96 29.19 29.83 30.09 31.44 32.65 34.54 34.69 35.40 34.58 33.40 32.66 32.62 32.53 31.88 32.64 32.50 30.13
24.72 24.59 25.25 25.29 24.76 24.74 25.46 25.37 24.87 27.85 30.04 30.32 31.11 31.73 32.18 32.75 33.83 33.81 33.88 33.32 33.95 34.11 30.56 28.71 27.70 27.96 28.78 29.75 29.95 30.35 30.52 32.95 34.00 34.38 32.88 32.48 32.57 31.94 32.10 30.33 31.19 31.72 30.11
24.73 26.01 24.68 24.37 24.75 25.84 25.79 26.16 24.46 24.13 23.98 25.17 28.98 30.06 31.23 32.05 31.88 32.13 32.57 32.63 30.20 30.26 28.70 27.88 27.97 28.45 29.00 29.79 29.72 29.08 30.87 31.83 32.46 32.65 32.17 32.08 31.92 31.86 30.84 29.80 30.53 30.63 29.13
24.41 23.65 24.68 25.64 26.26 26.96 25.79 25.29 25.38 24.77 24.41 24.33 25.75 28.08 29.91 31.35 31.41 31.53 32.16 29.37 28.06 28.13 27.96 27.73 28.29 28.66 29.33 29.84 29.28 29.59 29.92 31.60 32.53 32.13 32.06 31.97 31.88 31.51 30.57 30.61 30.61 31.45 29.07
23.50 25.24 26.59 26.13 25.74 24.47 25.23 25.45 24.78 24.00 24.00 24.35 24.61 25.30 27.20 28.35 27.43 28.02 28.85 28.42 28.26 27.48 27.33 27.36 27.64 28.19 28.93 28.62 28.49 29.53 29.03 31.10 31.59 32.07 32.07 32.13 32.01 31.95 30.93 30.37 30.64 30.84 30.15
23.47 24.20 26.90 24.76 24.62 24.37 24.65 24.01 24.61 24.39 22.87 22.92 23.79 26.50 28.89 26.68 26.45 25.80 26.10 26.46 26.30 26.37 26.56 26.91 27.16 27.56 28.04 27.49 27.58 28.84 28.86 29.68 31.26 31.83 32.07 32.15 32.08 31.48 31.57 30.75 30.48 31.21 29.53
24.83 24.84 24.87 24.46 24.51 23.86 24.06 24.60 23.49 22.71 22.14 22.42 23.24 24.57 27.08 26.03 25.24 25.01 24.97 25.38 26.22 26.91 27.35 27.24 27.06 26.67 27.40 27.70 27.96 27.57 28.26 29.14 30.92 31.23 31.86 32.26 31.96 31.59 30.87 29.85 30.05 30.17 28.41
24.39 24.21 24.12 23.65 24.05 24.65 23.40 23.43 21.97 21.83 22.00 21.99 22.09 21.88 22.44 22.98 24.64 24.33 23.71 24.51 25.18 25.12 25.62 25.49 25.50 25.60 28.22 29.44 28.73 28.20 28.85 29.65 30.48 31.20 31.01 31.84 31.32 31.36 30.42 29.88 29.75 28.29 27.74
26.06 23.21 22.46 22.89 23.37 23.43 21.62 21.36 21.88 22.12 22.07 21.63 21.20 21.02 20.91 21.67 21.53 22.10 22.44 23.29 23.97 24.70 25.34 25.63 25.94 26.11 26.73 28.35 30.20 30.81 31.11 31.54 31.61 31.72 31.82 31.65 31.23 31.59 30.50 29.80 29.67 28.86 28.17
22.08 20.35 20.17 21.41 20.86 20.55 20.34 20.16 20.90 21.15 21.18 20.79 20.34 20.02 20.20 20.71 20.31 20.76 21.72 22.41 22.74 23.14 23.65 24.44 25.37 25.57 26.51 26.94 28.67 30.28 30.86 31.88 31.93 31.65 31.94 31.81 31.11 30.83 30.29 29.82 29.54 29.28 28.26
19.35 19.38 19.39 19.35 19.45 19.41 19.43 19.38 19.98 20.03 19.93 19.98 19.75 19.86 19.67 19.04 19.46 19.91 20.36 20.60 20.80 21.86 22.54 23.22 23.63 23.60 24.67 26.05 28.05 29.96 31.31 32.07 32.81 34.17 32.51 31.80 30.74 30.28 29.92 29.21 28.79 28.33 28.48

GFSGL_sfc_wetblb_108.txt.gz
Wetbulb
40.15 40.29 40.10 40.35 41.34 41.83 42.33 41.45 41.58 42.29 42.82 42.74 43.15 43.62 43.99 45.02 46.87 47.19 47.79 48.69 48.63 49.08 50.75 51.47 52.02 56.20 58.77 59.14 59.08 58.80 58.20 57.87 55.23 56.38 58.02 56.49 54.35 54.62 53.79 55.08 56.09 56.07 56.86
39.32 38.58 38.09 38.19 38.22 38.40 38.70 38.93 40.03 39.24 39.97 40.19 40.60 41.14 41.67 42.23 43.81 44.49 44.93 46.16 46.15 46.56 47.48 48.47 48.97 50.99 51.48 55.60 58.04 57.72 57.51 57.73 56.30 54.62 56.17 53.04 52.43 54.20 54.17 53.27 53.85 54.33 55.80
39.43 38.91 38.46 38.23 37.99 37.33 37.20 37.75 38.62 39.13 39.00 39.54 39.92 39.84 40.12 41.15 41.81 42.52 42.34 42.87 43.14 44.01 45.26 45.80 46.79 48.31 49.28 50.29 49.96 50.47 55.67 56.79 56.84 55.60 54.79 48.23 49.21 49.77 49.03 50.17 50.00 49.30 51.74
38.70 38.13 37.36 36.99 37.10 37.27 37.68 37.72 37.45 38.05 37.80 37.69 37.95 38.25 38.81 39.25 39.94 40.62 40.86 41.35 41.63 41.82 43.06 44.19 44.95 45.57 45.64 46.16 47.86 48.73 50.18 50.26 54.78 54.66 51.16 45.48 46.24 46.46 48.74 46.44 44.41 46.11 46.28
37.64 37.19 36.62 37.58 37.64 37.46 37.05 36.75 36.59 36.81 36.94 37.10 36.78 37.20 37.58 37.99 38.06 38.72 39.41 39.61 40.00 39.97 40.98 41.62 43.02 43.37 43.68 45.59 45.87 46.88 47.77 47.95 48.27 50.69 46.89 44.83 44.96 45.19 45.70 46.80 46.37 45.43 42.86
36.88 36.15 36.24 36.10 35.68 35.41 35.04 34.67 34.77 34.38 34.68 35.64 35.72 35.48 35.06 36.19 37.18 38.32 38.45 37.89 38.38 38.05 38.17 39.62 40.59 41.30 42.67 43.00 44.26 45.15 45.92 45.71 46.12 46.64 48.72 48.39 47.52 48.11 47.61 45.88 45.02 41.14 39.15
35.98 35.11 34.55 34.54 34.38 34.46 34.83 34.72 34.40 34.24 34.80 34.65 34.85 35.09 35.20 36.28 37.02 37.84 38.12 37.63 37.55 37.56 37.50 37.76 38.09 39.54 41.47 41.19 42.24 42.80 43.51 45.19 46.57 47.02 45.91 47.69 49.86 49.19 48.06 45.42 45.12 44.45 45.14
34.90 34.02 34.04 33.84 33.54 33.98 33.88 33.68 33.77 34.02 33.65 33.65 33.82 34.28 34.60 35.33 36.28 36.99 37.38 37.31 37.36 37.34 37.26 37.32 37.23 37.51 39.12 40.20 39.97 39.92 40.38 41.84 43.57 45.51 47.27 48.48 49.61 52.09 49.51 47.94 47.43 45.72 40.45
33.40 33.30 33.31 33.18 32.67 32.74 32.44 32.53 32.82 32.69 32.59 32.72 33.14 33.08 33.24 34.18 35.49 36.01 36.24 36.16 36.01 35.95 36.45 36.76 36.81 36.84 38.14 38.50 37.33 37.95 37.88 38.86 42.09 43.65 44.73 45.74 46.43 47.63 49.63 48.90 44.87 40.80 35.17
32.29 32.47 32.87 32.74 32.04 31.50 31.65 31.44 31.97 32.14 31.80 32.38 32.21 33.16 33.37 33.48 34.97 35.42 36.09 35.51 34.51 34.93 35.93 36.28 36.28 36.04 36.34 36.62 35.58 34.96 34.05 35.80 39.01 40.75 42.91 43.58 45.14 47.55 47.31 48.96 45.70 42.21 41.22
32.17 32.02 31.97 31.92 31.20 31.19 31.39 31.66 31.36 31.17 31.18 31.42 31.70 32.86 33.48 34.48 34.91 35.39 35.74 34.88 34.23 33.82 34.00 33.95 35.04 35.43 35.43 35.72 35.90 33.41 33.25 35.80 37.12 38.78 40.24 41.97 42.54 43.57 45.90 47.54 48.01 45.16 41.62
30.98 30.52 30.56 30.82 30.70 30.72 30.78 31.15 31.24 30.98 30.47 30.62 30.77 31.59 33.24 34.07 34.62 34.99 35.47 35.24 35.27 33.51 33.16 34.07 34.65 34.92 35.24 35.38 35.09 35.44 35.70 35.60 35.58 36.85 36.96 37.51 38.96 40.22 41.86 44.20 45.37 44.01 46.15
29.80 29.63 29.93 30.42 30.56 31.15 30.17 30.04 30.11 30.40 29.89 29.46 29.72 29.96 31.02 32.81 33.87 34.64 35.04 34.79 34.73 34.20 34.66 35.27 35.81 35.70 35.54 35.27 34.83 34.39 34.62 33.99 34.98 35.57 34.16 36.05 38.43 40.45 37.80 33.58 32.88 33.96 33.18
28.45 28.82 29.54 29.42 29.92 30.38 30.25 30.08 29.22 29.40 28.86 28.61 28.86 28.73 29.74 30.75 31.94 33.42 33.61 34.38 34.81 34.79 34.82 35.77 35.45 35.74 34.90 34.43 33.76 34.46 34.82 35.13 33.16 32.79 34.27 36.11 37.87 34.28 34.15 33.61 33.58 34.25 33.32
27.88 28.32 28.63 28.76 28.94 28.60 28.90 29.12 28.84 29.98 29.66 28.69 29.15 29.24 28.65 29.08 31.20 33.82 33.86 33.88 34.94 34.58 34.77 34.52 33.84 33.14 31.79 31.78 32.11 32.78 33.78 34.19 33.63 33.06 33.42 33.53 34.78 34.54 33.67 33.45 33.90 33.78 33.53
27.14 28.15 27.88 28.09 28.29 27.99 28.20 28.71 31.07 30.82 31.48 31.07 31.20 30.52 30.34 31.96 32.95 33.35 34.21 34.62 34.46 34.67 32.60 31.78 31.55 31.07 30.12 30.26 30.13 30.99 31.92 31.76 32.46 31.32 32.11 32.59 33.30 33.41 33.30 32.23 32.75 33.25 33.62
26.66 26.98 27.58 27.50 27.47 27.58 27.35 27.04 26.00 28.66 29.98 30.21 30.28 30.54 30.96 31.23 31.90 32.36 32.67 32.51 33.15 33.30 31.14 30.64 29.75 29.51 29.47 30.33 30.65 30.46 30.31 31.27 31.55 31.88 31.86 32.11 32.43 32.65 32.52 32.11 31.90 32.12 32.47
27.28 27.26 26.66 26.76 27.34 27.58 27.25 27.19 26.35 25.13 24.82 26.57 29.82 29.73 30.22 30.79 31.00 31.53 32.00 31.93 29.87 31.36 30.52 29.46 29.07 29.47 29.50 29.89 30.45 30.27 30.67 31.06 30.44 30.91 31.16 32.03 32.04 32.02 32.01 32.10 32.14 32.02 31.56
26.72 26.29 26.66 27.22 27.61 27.71 27.68 26.64 26.62 26.06 25.74 25.99 27.43 28.40 29.51 29.79 30.42 31.17 32.16 30.03 28.24 27.96 28.68 28.62 28.90 29.35 29.40 29.75 29.81 30.50 30.16 29.96 30.20 29.89 31.21 31.73 32.11 32.06 32.21 32.68 32.56 33.47 32.53
26.33 26.16 26.87 27.18 27.17 26.76 26.11 25.51 25.54 25.30 25.38 25.36 24.96 25.16 26.51 27.83 26.57 27.08 27.79 27.73 27.15 27.24 27.64 27.61 27.87 28.55 28.61 28.82 29.12 29.37 28.98 29.29 29.46 30.11 30.89 31.58 32.01 32.05 32.05 32.46 32.66 32.30 31.39
25.93 26.29 27.38 27.14 25.92 25.85 25.38 24.60 25.02 25.22 24.41 24.33 24.17 25.66 27.46 25.28 24.84 25.26 25.69 26.03 25.91 26.00 26.61 27.11 27.42 27.85 28.36 28.38 28.39 28.58 28.22 28.33 28.83 29.57 30.88 30.96 31.59 31.80 32.71 33.06 32.26 32.22 31.88
26.40 26.30 26.24 25.46 25.79 25.03 24.78 25.54 24.77 24.14 23.66 23.41 23.84 24.65 26.16 24.37 23.55 23.77 24.77 25.67 25.91 26.50 27.28 26.86 26.51 26.50 26.54 27.02 27.96 28.33 28.54 28.34 29.20 29.92 30.65 30.40 30.55 31.89 32.39 32.70 31.91 32.41 30.94
26.45 26.04 25.75 25.24 25.13 25.87 24.86 24.63 23.66 23.32 23.14 23.13 23.47 23.40 23.53 23.26 22.83 22.81 22.88 23.82 24.57 24.96 25.68 25.84 25.66 25.73 26.84 27.22 28.66 29.14 28.85 28.95 29.98 31.01 30.24 29.72 30.58 31.52 32.50 31.56 30.99 30.65 29.85
26.57 25.38 24.13 23.65 23.82 24.09 23.55 22.74 22.75 23.20 23.20 22.93 23.17 22.84 22.73 22.57 22.49 22.86 23.37 23.80 23.99 24.90 25.47 25.70 25.92 25.77 26.57 27.14 27.99 28.77 29.97 31.22 31.99 31.72 31.35 30.13 30.13 31.63 32.48 31.44 30.64 30.43 29.91
25.03 23.07 22.13 22.22 22.27 22.00 21.77 21.75 21.84 22.24 22.41 22.33 22.31 22.21 22.59 22.79 22.65 23.01 23.30 23.50 23.52 23.69 23.81 24.46 25.21 25.37 25.70 25.85 26.38 26.97 27.59 28.81 30.05 31.22 31.55 31.25 30.98 31.60 31.84 30.95 30.56 29.81 29.19
22.42 21.11 20.84 21.30 21.20 21.39 20.91 20.69 20.95 21.62 21.22 22.19 22.59 23.03 23.04 22.81 22.87 23.19 23.33 23.31 23.17 23.33 23.56 24.50 24.93 24.74 24.84 25.38 26.09 27.42 29.01 30.03 30.72 31.75 32.09 31.76 31.52 31.91 31.70 30.66 30.56 29.84 29.32

GFSGL_sfc_wetblb_111.txt.gz
Wetbulb
39.24 38.71 38.68 39.07 39.49 39.55 39.52 40.08 40.13 40.73 40.59 40.51 41.09 41.51 42.10 42.24 43.65 44.50 44.03 45.34 45.29 46.17 47.40 47.63 48.46 49.77 50.16 51.85 52.14 54.15 57.44 57.26 54.59 55.67 56.64 57.19 54.94 55.56 55.15 56.18 56.57 56.69 57.30
38.44 38.25 38.18 38.73 38.58 38.12 38.17 38.04 39.25 39.43 40.05 39.59 39.66 39.84 39.97 41.00 41.76 41.82 41.27 42.24 42.28 42.28 43.24 44.67 45.54 47.39 48.12 49.24 48.34 48.40 49.82 50.40 53.64 54.16 55.97 52.89 53.77 54.22 55.48 54.64 54.64 55.48 56.39
40.23 39.74 38.88 38.71 38.45 38.02 38.30 37.93 37.93 37.89 38.40 38.40 38.47 38.09 38.33 39.04 39.77 40.07 40.21 40.63 41.40 41.99 42.31 42.70 43.70 44.90 44.66 44.14 45.22 46.92 48.06 49.34 49.12 48.99 53.52 52.70 53.20 50.66 51.19 52.21 52.66 53.63 53.70
39.24 38.69 38.18 38.10 37.99 37.76 37.77 37.38 36.81 36.85 36.60 36.83 36.94 36.96 37.29 37.57 38.21 38.13 38.40 38.71 39.28 40.26 41.05 41.38 41.20 41.98 41.03 42.41 43.55 44.23 45.54 45.46 47.27 47.40 48.23 48.42 47.38 47.15 49.19 47.35 45.81 46.41 49.10
38.26 37.86 37.15 37.32 37.07 36.76 36.12 35.89 35.97 35.77 35.87 36.10 36.12 36.43 36.68 36.64 37.06 36.76 37.25 37.26 37.36 37.77 38.82 39.09 40.05 40.82 41.40 43.05 41.35 42.31 42.32 41.98 43.19 44.09 45.39 45.74 44.94 44.74 45.47 46.91 47.47 45.94 44.56
38.13 37.11 37.00 36.42 36.02 35.74 35.66 35.42 35.49 35.40 35.47 35.47 35.20 35.25 35.24 35.84 38.29 37.76 37.60 36.50 36.65 36.83 36.63 37.47 38.32 39.33 40.09 40.91 42.56 42.94 42.26 40.02 40.31 40.56 42.10 43.33 45.69 46.72 46.97 46.06 45.05 40.98 39.76
37.02 36.53 35.72 35.35 34.95 35.01 35.18 34.97 34.69 34.45 34.79 34.30 34.35 34.57 34.20 35.05 37.21 37.33 37.61 36.27 36.09 36.60 36.83 36.78 36.68 37.45 38.84 37.94 39.60 40.54 41.01 42.10 41.97 40.37 40.19 42.16 44.62 46.76 48.26 44.98 44.58 42.96 44.44
36.15 35.55 35.14 34.61 34.13 34.43 34.22 33.84 33.77 33.78 33.34 33.26 33.62 33.93 33.90 34.44 36.31 36.47 36.97 36.07 35.97 36.32 36.68 36.19 35.91 36.01 36.83 37.20 36.14 35.75 36.57 37.82 39.01 39.75 39.61 40.65 42.64 44.09 44.28 44.76 46.83 46.47 41.86
34.99 34.36 34.24 34.02 33.17 33.06 32.49 32.48 32.73 32.54 32.52 32.80 33.23 33.16 33.13 33.76 35.64 35.75 35.77 35.36 35.40 35.21 36.24 36.51 36.29 35.45 36.94 37.05 34.55 33.54 33.92 34.77 37.68 38.83 39.96 41.24 42.08 43.87 44.37 44.14 42.14 42.58 40.57
33.80 33.29 33.69 33.53 32.55 31.72 31.75 31.71 32.40 32.49 32.23 32.85 32.50 33.59 34.16 33.53 35.77 35.82 35.48 34.54 33.29 33.88 35.00 35.52 37.29 35.76 36.20 36.32 33.96 32.35 30.59 31.66 33.16 34.23 35.04 36.75 39.36 40.59 43.71 43.37 43.35 41.58 42.24
32.90 32.73 32.46 32.29 31.55 31.64 31.66 32.13 31.91 31.79 31.93 32.04 32.27 33.19 33.57 34.39 34.29 35.68 35.90 34.18 33.50 32.86 32.94 33.43 34.81 36.25 36.09 36.03 36.23 33.60 32.95 34.35 33.96 33.04 32.66 33.84 35.99 37.57 39.46 41.65 42.95 42.15 41.75
31.92 31.28 31.10 31.41 31.58 31.49 31.35 31.62 31.74 31.39 30.67 30.72 30.89 31.26 32.94 33.65 35.05 35.27 35.80 35.69 35.47 32.76 32.22 33.69 34.45 36.04 36.12 36.35 35.96 36.14 35.94 35.20 32.37 31.28 31.81 32.59 33.64 34.85 36.26 38.30 40.16 41.78 43.79
30.56 30.09 30.46 30.96 31.06 31.27 30.59 29.94 29.96 30.46 29.88 29.46 29.15 29.45 30.25 31.94 32.51 34.65 35.19 35.57 35.59 33.82 34.02 35.02 36.06 35.94 35.99 35.29 35.88 35.50 34.87 32.15 31.52 30.47 30.26 31.13 32.53 34.42 35.21 36.98 37.76 35.95 35.80
28.99 29.47 30.05 29.68 29.97 30.50 30.53 30.18 29.47 28.96 28.74 28.13 28.08 28.42 29.06 29.60 30.35 31.76 32.62 33.01 34.32 34.17 34.98 34.52 34.96 35.38 35.66 34.89 34.32 33.29 32.50 31.89 30.58 30.14 30.47 31.77 32.58 32.33 32.82 35.37 35.80 36.82 34.94
28.96 29.14 29.37 29.66 29.31 29.37 29.57 29.56 29.30 30.10 29.97 28.48 28.84 28.79 27.72 27.66 29.44 32.04 32.04 31.23 31.84 33.33 33.37 32.59 31.87 31.41 31.16 31.66 31.34 31.35 31.29 30.87 30.14 30.19 29.36 29.47 29.83 31.11 31.54 34.61 34.67 34.67 33.43
27.73 28.53 28.86 28.29 28.77 28.80 28.62 28.87 31.97 31.94 32.08 31.70 31.44 30.52 30.01 31.44 31.98 32.22 32.72 33.20 33.73 33.94 30.67 29.16 29.20 29.74 29.40 29.10 28.72 28.80 29.67 30.13 29.78 29.57 28.59 29.45 29.91 30.59 30.39 32.47 33.23 32.59 32.16
27.19 27.76 28.13 28.26 28.04 27.45 27.70 27.60 26.33 29.52 31.12 31.13 31.15 31.13 31.39 31.02 31.40 31.57 31.77 32.08 32.88 33.04 29.07 28.77 28.62 29.28 28.79 28.66 28.53 28.33 27.91 29.42 30.03 29.04 28.23 28.25 29.87 31.02 31.46 31.21 32.27 31.72 31.61
27.57 28.82 27.66 27.30 27.42 27.68 27.80 27.58 27.60 26.17 25.29 26.39 29.96 29.93 30.47 30.53 30.50 30.42 31.12 31.01 28.82 30.41 29.00 28.03 28.15 28.78 28.75 27.80 27.88 27.80 27.89 28.07 28.83 27.62 28.03 27.85 29.53 30.19 30.25 31.02 31.69 31.68 31.71
27.31 27.35 27.25 27.36 28.01 28.44 28.28 27.61 26.82 26.34 26.13 25.82 26.66 28.06 28.78 29.39 29.57 29.92 30.11 26.75 26.22 25.68 26.36 26.48 27.17 27.10 27.03 27.34 27.50 27.63 26.95 27.52 27.32 27.32 27.41 27.63 28.68 29.88 29.87 31.26 31.74 33.78 33.17
27.57 27.85 27.43 26.91 27.37 27.52 26.92 26.19 25.57 25.36 25.44 25.48 24.86 25.10 25.94 26.28 25.02 24.83 25.13 25.36 25.54 25.52 25.81 25.86 26.17 26.48 26.73 26.75 26.96 26.97 26.54 26.77 26.62 26.72 26.81 27.40 28.52 29.93 29.05 30.83 31.48 31.34 31.63
26.99 26.84 27.81 27.54 26.54 26.58 26.20 25.41 25.27 25.49 25.05 24.45 24.50 25.75 28.14 25.01 24.04 23.52 23.62 24.05 24.49 25.49 25.77 25.46 25.36 25.82 26.09 26.19 26.02 25.80 25.70 25.93 26.79 27.43 27.16 27.63 28.82 28.15 29.51 30.81 31.58 31.62 31.72
26.79 26.49 26.57 26.42 26.49 26.09 25.77 26.16 25.84 25.00 24.48 23.70 23.91 24.89 27.04 24.72 23.78 23.49 23.50 23.77 24.29 24.55 25.06 24.81 24.42 24.31 24.80 24.73 24.84 24.53 23.96 24.50 26.79 27.32 27.47 28.12 27.87 28.50 29.61 30.09 31.32 30.96 31.30
26.53 26.35 26.16 26.27 25.71 25.81 25.41 25.17 24.71 23.98 23.40 23.50 23.71 23.65 23.91 23.63 23.65 23.11 23.23 23.73 24.17 24.33 24.80 24.81 24.41 24.34 25.49 25.87 26.43 26.37 25.33 24.45 25.42 27.91 27.88 28.35 28.09 28.50 29.26 29.58 30.66 30.12 29.72
26.59 25.86 25.32 24.68 23.84 24.18 24.38 23.65 23.59 23.74 23.48 23.34 23.24 23.03 23.08 23.29 23.50 23.62 23.96 24.23 24.18 24.04 24.23 24.20 24.38 24.09 24.29 24.79 25.76 26.11 26.47 26.80 27.88 27.31 26.72 27.76 27.91 28.77 29.27 30.19 30.61 30.18 28.88
26.35 25.37 24.10 22.73 22.61 22.79 22.69 22.44 22.37 22.56 22.71 22.53 22.29 22.47 22.95 23.53 23.51 23.58 24.09 24.38 24.33 24.02 23.67 24.08 24.39 24.21 23.99 23.88 24.29 24.65 25.66 27.43 27.09 27.40 27.51 28.85 29.14 29.72 29.98 30.49 30.48 29.74 29.17
25.25 23.55 22.32 21.82 21.55 21.86 21.82 21.34 21.12 21.78 21.60 21.73 22.01 22.42 23.04 23.19 23.40 23.98 24.36 24.63 24.45 24.51 24.43 24.66 24.60 24.34 24.30 24.34 24.16 25.55 27.94 29.20 29.34 30.69 30.09 29.94 29.32 29.96 30.92 29.78 29.79 28.76 28.25

GFSGL_sfc_wetblb_114.txt.gz
Wetbulb
38.42 38.42 37.82 38.00 38.66 38.11 37.28 37.81 38.17 39.63 39.16 39.32 39.78 40.54 40.59 41.24 42.76 42.83 42.50 42.94 42.69 43.24 44.37 44.37 45.11 47.19 47.29 48.61 47.38 47.80 48.43 48.78 47.42 49.61 53.14 56.94 56.23 57.13 56.59 58.24 57.60 57.70 57.71
38.41 37.64 37.83 38.07 37.89 37.47 36.95 36.74 37.36 36.74 37.28 36.08 35.64 35.97 37.31 38.11 39.27 39.71 39.05 40.00 40.82 40.65 40.90 41.76 42.04 43.97 45.08 44.02 44.58 45.52 46.26 47.72 46.67 45.38 48.35 50.24 54.65 56.06 56.62 56.05 56.11 56.44 56.69
38.11 37.32 36.87 36.77 34.71 34.28 34.97 35.75 35.70 35.35 35.38 35.33 34.87 34.85 34.99 35.81 36.01 37.17 37.26 37.05 37.13 38.54 39.57 39.87 40.33 41.11 40.75 39.84 42.66 41.86 43.93 44.21 45.26 45.23 45.29 48.32 50.93 50.90 52.09 52.62 53.25 54.54 54.40
35.49 34.59 34.00 33.54 33.23 32.82 33.24 32.75 32.72 32.92 33.03 33.18 33.70 34.85 35.48 35.68 36.00 36.45 36.60 36.28 36.34 36.78 37.98 38.16 38.35 38.78 38.31 38.31 40.66 40.40 41.39 40.64 41.12 41.86 42.97 44.94 47.17 47.80 48.38 48.08 48.18 48.02 50.32
34.30 33.38 32.34 32.39 32.42 32.05 31.80 32.13 33.45 33.83 33.57 33.46 33.98 34.15 34.14 34.45 35.89 35.33 35.67 35.33 34.83 34.98 36.28 37.36 37.59 38.62 40.28 39.76 38.14 39.15 39.73 38.57 38.26 38.39 39.19 40.33 42.35 44.38 45.77 47.10 46.65 48.34 45.98
33.40 32.46 32.84 32.05 31.62 30.94 30.83 30.68 30.92 30.90 30.85 31.19 30.97 31.18 30.76 34.07 36.94 37.83 36.80 34.85 34.72 34.23 34.46 35.33 36.31 37.90 38.06 38.89 39.64 39.94 38.55 36.22 36.72 36.59 36.80 37.05 39.15 42.07 43.92 44.07 44.94 42.17 40.42
32.87 32.83 32.19 31.62 31.08 30.72 30.76 30.33 29.56 28.66 29.02 28.82 29.27 30.13 29.95 30.48 36.49 37.30 37.24 34.08 33.48 33.22 33.71 34.12 34.63 35.82 36.34 35.27 36.49 36.75 36.89 37.84 38.23 35.79 35.00 35.47 35.76 37.77 39.91 38.93 40.10 41.27 43.37
32.36 32.02 31.88 31.23 30.42 30.43 29.71 28.93 28.07 28.23 27.88 28.30 28.81 29.41 29.34 31.61 36.12 36.60 36.77 33.28 32.94 32.99 33.37 33.24 32.83 32.52 33.62 34.61 33.18 32.10 32.96 33.72 34.71 35.19 33.67 34.06 35.29 37.26 38.46 39.30 40.13 40.28 42.62
32.58 31.41 31.24 30.80 29.68 29.17 28.03 27.40 27.63 27.63 27.59 27.94 29.47 29.05 28.87 29.58 35.54 36.30 35.06 31.97 32.17 31.30 32.60 32.28 32.81 32.29 35.80 36.81 32.59 30.81 30.57 31.13 35.24 36.54 36.80 37.27 37.65 38.16 38.17 36.91 35.55 35.78 36.86
30.71 31.21 31.70 31.60 30.52 29.27 28.73 27.97 28.93 28.99 29.10 30.28 30.11 30.20 32.24 30.65 34.67 35.92 34.97 32.92 30.92 31.28 31.46 32.34 35.54 34.83 37.07 36.65 33.07 30.28 29.50 29.67 31.12 31.68 32.10 33.03 34.18 34.01 37.62 36.24 36.14 34.93 35.42
30.30 29.99 29.70 29.23 28.17 28.38 28.08 28.58 29.02 29.07 29.55 29.18 29.18 29.07 28.97 30.46 30.27 35.66 35.93 32.25 30.86 30.70 30.47 30.64 31.74 35.88 36.37 36.57 36.69 33.14 32.11 34.45 32.68 29.62 29.30 30.11 31.14 32.59 34.04 35.51 34.62 35.26 34.66
28.66 28.09 27.34 26.94 28.17 28.74 25.83 26.53 26.70 26.46 26.04 26.37 26.72 27.14 29.01 29.25 33.38 33.57 34.83 35.23 34.99 31.75 30.57 31.17 30.98 35.52 36.35 36.56 35.50 36.06 36.25 35.66 28.73 27.68 27.28 28.35 28.59 29.71 30.77 32.67 34.17 33.62 35.95
26.34 25.36 25.37 26.07 26.78 26.82 25.24 24.74 24.38 25.35 25.33 25.47 25.62 25.06 26.30 28.83 28.39 32.66 33.54 33.99 33.92 31.27 31.53 33.01 35.34 36.06 36.26 35.03 35.39 35.70 35.88 28.40 27.39 26.78 26.96 26.96 26.95 28.06 29.19 30.05 32.91 33.77 34.53
24.03 23.87 24.35 24.10 25.81 25.78 26.27 26.33 24.96 24.09 23.48 25.00 25.49 25.43 25.62 26.60 27.11 27.96 29.11 29.65 32.11 31.26 31.98 30.95 33.73 34.12 34.49 33.63 32.96 32.57 29.86 28.28 26.90 26.57 27.27 28.13 27.31 25.22 27.82 30.15 30.20 31.88 31.53
23.80 23.82 23.95 25.13 24.54 24.57 25.73 25.49 25.89 25.95 26.27 25.84 26.61 27.15 26.42 25.61 27.25 31.39 31.21 29.80 30.14 31.21 31.71 30.68 28.24 27.58 27.73 28.55 29.43 29.04 28.57 27.21 27.03 27.15 27.17 27.34 27.57 27.52 27.72 30.22 30.81 30.84 29.92
23.54 24.41 24.69 24.94 23.98 24.42 24.16 24.89 30.90 31.98 32.62 32.58 32.23 30.80 29.84 31.57 32.27 32.39 32.39 32.46 32.42 32.75 29.34 27.11 27.26 26.75 26.33 27.06 27.56 26.21 26.19 27.81 26.87 27.25 27.31 26.20 25.99 25.73 26.03 28.21 30.41 30.26 29.36
22.99 23.95 24.61 26.15 24.11 23.22 23.70 24.13 24.26 27.60 31.25 31.15 31.23 31.61 31.72 31.42 31.63 31.15 31.28 31.28 32.04 31.64 26.47 27.01 26.88 26.89 27.60 28.05 27.26 25.67 25.33 26.14 25.72 23.91 25.39 24.94 24.46 25.68 26.56 26.50 27.73 29.25 30.20
23.17 27.99 24.91 24.15 23.16 23.36 23.96 24.68 24.77 24.63 23.76 24.34 28.74 29.39 30.51 30.73 30.33 30.16 30.35 29.82 24.54 25.76 25.60 24.86 24.87 25.47 25.79 25.51 24.43 24.60 25.34 24.53 22.32 24.32 22.91 22.98 25.73 25.15 24.94 25.98 27.35 28.12 29.79
23.02 23.52 23.85 23.13 23.81 25.10 24.94 24.57 24.38 24.62 24.16 24.10 24.71 27.11 27.96 29.20 29.47 29.65 29.19 23.25 22.16 22.57 23.91 23.92 24.22 24.28 24.25 24.40 24.50 24.80 24.95 25.40 25.32 25.31 25.26 25.43 25.55 24.83 24.60 26.23 27.86 29.69 31.01
23.17 27.90 27.34 23.89 23.86 23.98 24.01 23.81 24.65 24.58 23.26 23.59 24.03 23.41 24.34 25.11 24.50 23.52 23.62 22.90 22.42 22.42 22.87 23.84 25.18 24.94 23.85 23.68 24.52 24.99 24.84 24.92 23.43 22.94 23.89 25.14 25.60 25.26 25.63 26.25 26.77 27.38 28.99
23.51 23.70 27.00 24.67 23.30 22.97 22.44 22.80 23.63 23.09 23.77 23.63 23.35 24.54 28.10 25.15 22.88 22.26 22.50 22.68 22.56 22.48 22.45 22.52 22.17 22.34 22.80 23.40 22.89 22.55 21.98 21.61 21.88 21.65 22.88 25.27 25.10 25.52 26.73 26.68 27.66 28.63 29.66
23.07 23.27 23.58 22.64 23.41 23.17 22.79 23.02 23.74 23.93 23.34 22.67 22.36 23.51 26.88 23.48 22.35 22.29 22.67 22.89 23.28 23.46 23.68 23.61 23.13 22.64 22.50 22.17 22.21 22.56 22.27 21.75 21.73 22.52 23.34 23.46 25.09 25.70 26.45 27.17 27.69 28.14 29.93
20.93 20.82 22.84 22.33 23.39 24.60 21.65 22.23 22.88 23.47 22.87 22.09 22.07 22.30 22.58 22.04 22.12 22.16 22.63 23.52 23.97 24.13 24.49 24.28 23.47 22.64 22.86 23.26 24.13 23.88 23.00 22.86 23.65 24.25 23.55 23.65 23.82 23.48 25.33 27.00 27.54 27.56 29.22
19.85 21.61 23.19 22.34 21.76 20.55 20.13 20.60 22.84 23.52 22.72 21.93 21.40 21.51 21.03 21.39 21.71 22.54 23.30 23.72 24.08 24.12 24.57 24.60 24.34 23.40 23.27 23.42 23.94 24.29 24.66 24.83 25.16 25.09 24.84 23.33 22.84 24.00 25.48 26.90 27.82 28.68 29.50
21.36 24.17 20.98 18.31 18.22 18.14 18.48 20.38 22.06 21.52 20.97 21.13 21.01 20.81 20.81 21.43 21.66 22.29 22.99 23.73 24.26 24.35 24.44 24.73 24.77 24.41 23.81 23.14 23.08 23.47 24.53 26.76 26.45 26.70 25.77 24.43 23.70 24.12 26.45 27.35 28.29 29.23 28.46
25.06 19.51 15.91 15.69 14.97 17.05 17.53 19.97 21.07 20.79 20.34 20.77 20.50 20.04 20.71 21.28 21.72 22.34 23.09 24.12 24.82 25.53 25.60 25.99 26.07 25.62 24.99 24.59 24.34 24.96 27.46 28.55 28.60 30.16 29.35 28.42 27.39 27.48 28.14 28.45 29.01 26.64 26.69

GFSGL_sfc_wetblb_117.txt.gz
Wetbulb
38.44 38.06 37.74 37.66 38.00 37.71 36.90 36.65 35.00 36.05 37.09 36.77 36.73 37.10 37.17 37.65 38.89 39.04 39.30 39.80 40.61 41.67 41.52 42.61 42.30 43.43 45.71 43.19 43.67 45.90 45.21 45.68 43.69 45.39 47.89 49.88 50.32 50.42 53.00 57.06 58.96 59.33 59.94
37.62 35.64 35.07 35.34 36.15 35.99 35.55 35.21 35.49 35.12 35.91 35.88 35.92 34.51 34.68 34.76 34.71 35.08 35.22 36.80 36.31 36.19 38.29 40.22 39.88 40.81 41.31 40.18 41.45 41.98 42.37 43.68 42.30 40.83 43.72 45.34 46.77 50.00 51.13 51.92 55.12 57.38 58.14
34.32 33.05 32.11 31.51 30.99 30.18 30.21 30.64 31.18 31.09 31.46 32.19 33.44 32.91 32.75 33.38 34.16 34.33 34.73 35.26 35.26 35.71 36.62 36.86 37.34 38.12 37.18 37.77 39.70 39.54 40.78 40.80 41.16 40.03 39.78 43.24 45.54 47.67 48.26 50.03 50.41 51.42 53.48
33.85 32.46 31.09 30.05 29.59 29.43 29.87 30.03 30.35 30.57 30.11 30.55 31.13 31.65 32.22 32.58 33.93 34.37 34.44 33.84 34.03 34.80 36.08 37.19 37.21 36.35 35.81 36.59 37.99 38.31 40.05 39.36 39.13 38.16 38.13 38.90 40.66 42.98 45.35 45.50 45.04 48.11 48.79
32.71 31.70 30.78 30.47 30.23 29.65 29.39 29.45 29.87 29.98 29.71 29.94 30.24 30.54 30.82 31.96 34.24 33.68 34.28 34.58 34.33 34.20 34.99 35.70 36.08 37.48 39.16 37.87 37.04 36.82 35.88 34.63 35.77 36.17 35.31 36.07 36.85 38.52 38.11 40.22 40.18 41.61 44.36
32.76 31.88 31.99 30.86 30.49 29.62 29.25 28.80 28.70 28.25 28.07 28.52 28.52 28.94 28.67 32.58 36.03 37.28 35.99 32.86 33.28 32.92 32.88 34.03 35.34 37.15 36.95 37.46 37.77 37.46 35.87 33.46 32.68 32.38 32.94 32.57 33.39 34.87 36.17 36.26 37.10 37.07 37.86
31.94 31.68 31.05 30.85 30.68 30.59 30.29 29.50 28.33 27.32 27.11 26.91 27.31 28.09 27.94 28.86 36.30 37.00 37.14 32.54 31.99 31.96 32.39 32.64 33.10 34.74 35.57 33.79 35.43 35.31 35.14 35.86 35.43 32.62 31.10 30.60 31.29 32.94 33.74 33.43 34.22 34.71 36.05
31.34 30.97 30.69 30.14 29.20 29.17 28.36 27.43 27.05 28.36 28.44 28.27 28.13 28.40 27.95 29.96 35.77 36.54 37.02 31.69 31.47 31.65 31.77 31.29 30.72 31.22 32.45 33.91 32.61 31.32 31.58 32.17 33.01 33.57 31.54 32.06 32.91 34.07 34.11 33.76 33.51 34.18 35.92
30.94 29.93 29.94 29.45 28.44 27.85 26.49 25.71 26.39 26.71 26.70 27.02 28.90 29.42 29.52 30.23 35.30 36.30 34.85 31.17 31.12 30.66 31.55 31.19 32.26 31.55 35.18 37.23 32.00 30.33 30.01 30.69 35.26 36.77 37.12 37.26 36.87 36.72 36.06 33.66 31.83 31.35 30.75
29.69 29.55 29.30 28.93 27.69 25.99 25.57 25.03 25.86 26.46 27.16 28.13 28.26 28.53 31.23 28.28 33.94 35.72 34.82 31.55 30.87 31.30 32.16 32.30 35.10 34.04 36.06 36.77 32.85 31.24 28.63 29.52 30.06 30.24 30.64 31.12 32.72 32.18 35.65 33.14 32.82 31.53 31.53
29.49 28.99 28.35 27.46 26.10 25.87 25.04 24.97 25.08 25.13 25.24 24.83 25.74 25.88 26.83 28.81 28.78 34.44 34.63 31.06 30.07 30.34 31.25 30.91 31.45 34.95 35.83 36.45 36.73 33.97 31.66 32.43 32.97 29.94 27.61 27.98 28.86 29.70 31.09 31.62 32.48 31.24 29.86
27.86 27.51 26.21 25.10 26.32 27.19 23.69 23.76 23.86 23.48 23.18 23.31 23.75 24.43 25.82 26.64 31.73 32.05 33.42 33.68 33.40 30.10 28.49 29.73 30.29 34.18 35.20 35.76 35.60 36.24 36.27 35.50 30.34 27.84 26.36 26.53 26.69 27.10 27.64 28.08 28.87 29.32 30.06
25.55 24.44 23.96 24.54 25.05 25.17 23.39 23.26 23.20 23.15 22.95 23.20 24.52 23.67 24.34 26.75 26.25 31.44 32.42 32.74 33.01 30.91 30.93 31.84 33.60 33.92 34.45 33.59 34.06 34.36 34.66 28.90 26.94 26.06 26.07 26.12 26.49 27.63 27.46 25.52 27.64 29.13 29.87
23.08 22.51 23.17 22.98 24.08 23.62 24.60 25.04 23.39 22.78 22.30 24.44 24.53 24.69 24.46 25.49 25.59 26.37 27.56 29.26 31.69 30.50 31.03 29.68 32.13 33.12 33.44 32.43 31.35 30.41 29.81 28.87 26.61 25.53 25.68 26.51 27.30 22.83 24.79 25.31 26.04 27.49 28.72
22.87 23.09 23.09 23.90 22.58 22.83 23.87 23.52 24.94 24.28 24.98 24.94 26.30 27.27 26.02 25.96 27.95 31.75 31.41 30.04 30.18 30.75 30.99 29.00 27.33 26.35 26.57 27.09 27.76 28.42 29.00 26.91 25.75 25.69 25.67 26.11 27.14 26.82 27.09 25.62 25.68 26.23 26.44
23.04 23.60 23.67 24.15 22.83 23.41 22.81 22.86 29.04 30.89 31.81 32.04 32.22 30.64 29.76 31.62 32.26 32.23 31.94 31.65 31.89 32.16 28.55 26.28 24.85 25.73 26.91 26.61 26.29 26.73 26.43 27.55 25.78 25.43 24.03 23.26 23.88 25.12 24.14 24.54 25.52 23.91 23.97
22.84 23.46 23.87 25.85 23.75 22.77 22.80 22.85 22.53 25.82 30.50 30.70 30.65 30.90 31.18 30.91 31.32 31.09 31.02 31.03 31.42 29.66 22.65 22.71 23.29 23.99 24.32 25.03 25.69 25.75 24.47 25.12 25.17 22.26 16.46 18.08 21.62 22.91 24.11 22.84 22.82 24.11 24.59
22.94 27.70 24.15 23.73 22.73 22.44 22.95 23.27 23.47 23.19 23.12 23.49 27.86 28.81 30.09 30.18 30.00 30.12 30.47 29.65 23.58 24.00 22.68 22.31 22.62 23.54 23.50 23.35 23.76 23.59 23.83 23.22 20.63 20.50 18.84 17.97 19.30 22.54 22.17 21.83 22.50 22.45 23.13
22.92 22.81 23.09 22.78 22.81 24.08 23.99 23.63 23.35 23.30 23.06 23.07 23.75 26.42 27.83 28.78 29.28 29.75 29.23 23.48 22.00 21.78 22.27 22.05 22.47 22.73 23.74 24.03 23.65 22.42 21.90 21.82 22.41 21.00 17.21 14.84 19.86 21.27 22.63 23.25 23.60 26.43 27.07
22.57 27.10 27.16 23.48 23.32 23.42 23.34 22.94 22.75 22.55 21.86 22.21 23.09 23.70 24.23 24.74 24.63 23.89 23.52 22.78 22.37 22.36 22.48 22.11 22.31 22.45 22.02 21.13 20.80 21.06 21.68 22.09 20.86 19.02 19.06 19.24 20.71 21.65 23.13 23.61 23.44 24.01 24.33
23.00 23.83 27.39 24.51 22.86 22.55 21.72 21.82 22.57 22.10 22.05 23.19 23.30 24.51 27.76 24.89 23.17 22.18 22.21 22.48 22.58 22.75 22.86 23.13 22.93 22.38 21.91 21.55 21.03 20.79 20.50 20.30 20.52 19.83 19.41 20.06 20.53 22.42 22.79 23.74 24.30 24.97 25.59
23.60 23.54 23.25 22.15 22.73 22.82 22.76 22.56 21.81 22.05 22.28 22.22 22.09 23.42 26.39 23.00 22.00 21.73 22.06 22.68 23.43 24.15 24.71 24.57 23.56 23.29 23.15 22.73 22.11 21.47 20.71 20.39 20.68 20.99 21.02 20.86 21.70 21.90 21.77 22.87 22.59 23.33 25.68
22.96 22.15 23.07 22.21 22.99 24.75 21.90 21.10 21.00 21.49 21.31 21.51 21.56 21.77 21.90 21.51 21.52 21.24 21.60 22.59 23.66 24.18 24.88 25.11 24.50 23.75 24.27 24.32 23.86 22.75 21.57 21.25 22.15 23.04 22.13 21.77 21.82 21.80 21.08 20.36 21.67 23.30 24.52
22.20 22.23 22.48 22.19 22.28 20.99 19.36 19.09 19.76 22.06 22.04 21.47 20.75 20.84 20.39 20.45 20.75 21.26 21.84 22.20 23.06 23.64 24.71 25.26 25.32 24.86 24.71 24.66 24.67 23.99 23.79 23.80 24.05 23.52 22.95 22.22 21.46 22.20 22.00 22.28 22.69 23.52 25.53
22.75 21.87 21.98 22.77 19.54 18.06 17.45 18.57 19.44 20.17 20.58 20.45 20.46 20.28 19.89 20.18 20.29 20.66 21.41 22.21 23.00 23.65 24.62 25.57 26.55 26.47 25.59 24.93 24.57 24.24 24.95 26.94 26.29 25.93 24.89 23.79 22.72 21.79 22.16 22.86 23.47 24.82 26.25
22.30 21.60 22.27 19.81 16.11 16.61 16.25 16.65 17.86 19.08 18.85 20.22 20.64 19.47 19.45 19.51 19.93 20.62 21.33 22.90 23.68 24.45 24.82 26.08 27.65 28.34 28.53 28.17 27.01 26.37 28.47 29.23 28.79 29.87 28.76 27.50 26.20 25.75 25.29 25.06 25.39 26.29 27.64